<?xml version='1.0' encoding='UTF-8'?><gpx version="1.1" creator="JPX - https://github.com/jenetics/jpx" xmlns="http://www.topografix.com/GPX/1/1"><trk><trkseg><trkpt lat="39.2469668" lon="9.194629"><ele>10.0</ele><time>2026-04-18T07:25:16.353Z</time></trkpt><trkpt lat="39.247026" lon="9.1947074"><ele>10.0</ele><time>2026-04-18T07:25:17.359Z</time></trkpt><trkpt lat="39.247086" lon="9.1947877"><ele>10.0</ele><time>2026-04-18T07:25:18.371Z</time></trkpt><trkpt lat="39.2471459" lon="9.1948674"><ele>10.0</ele><time>2026-04-18T07:25:19.36Z</time></trkpt><trkpt lat="39.2472062" lon="9.1949504"><ele>10.0</ele><time>2026-04-18T07:25:20.362Z</time></trkpt><trkpt lat="39.2472678" lon="9.1950299"><ele>10.0</ele><time>2026-04-18T07:25:21.355Z</time></trkpt><trkpt lat="39.2473288" lon="9.1951091"><ele>10.0</ele><time>2026-04-18T07:25:22.366Z</time></trkpt><trkpt lat="39.2473906" lon="9.1951897"><ele>10.0</ele><time>2026-04-18T07:25:23.347Z</time></trkpt><trkpt lat="39.2474537" lon="9.195271"><ele>10.0</ele><time>2026-04-18T07:25:24.387Z</time></trkpt><trkpt lat="39.2475152" lon="9.1953525"><ele>10.0</ele><time>2026-04-18T07:25:25.367Z</time></trkpt><trkpt lat="39.2475757" lon="9.1954351"><ele>10.0</ele><time>2026-04-18T07:25:26.343Z</time></trkpt><trkpt lat="39.247635" lon="9.1955181"><ele>10.0</ele><time>2026-04-18T07:25:27.382Z</time></trkpt><trkpt lat="39.2476946" lon="9.1956012"><ele>10.0</ele><time>2026-04-18T07:25:28.353Z</time></trkpt><trkpt lat="39.2477565" lon="9.1956831"><ele>10.0</ele><time>2026-04-18T07:25:29.35Z</time></trkpt><trkpt lat="39.2478179" lon="9.1957658"><ele>10.0</ele><time>2026-04-18T07:25:30.347Z</time></trkpt><trkpt lat="39.247878" lon="9.1958507"><ele>10.0</ele><time>2026-04-18T07:25:31.36Z</time></trkpt><trkpt lat="39.2479389" lon="9.1959367"><ele>10.0</ele><time>2026-04-18T07:25:32.357Z</time></trkpt><trkpt lat="39.2479991" lon="9.1960239"><ele>10.0</ele><time>2026-04-18T07:25:33.341Z</time></trkpt><trkpt lat="39.248062" lon="9.1961104"><ele>10.4</ele><time>2026-04-18T07:25:34.352Z</time></trkpt><trkpt lat="39.2481266" lon="9.1961956"><ele>10.8</ele><time>2026-04-18T07:25:35.347Z</time></trkpt><trkpt lat="39.2481907" lon="9.1962802"><ele>11.2</ele><time>2026-04-18T07:25:36.348Z</time></trkpt><trkpt lat="39.2482545" lon="9.1963651"><ele>11.6</ele><time>2026-04-18T07:25:37.361Z</time></trkpt><trkpt lat="39.2483174" lon="9.196451"><ele>12.0</ele><time>2026-04-18T07:25:38.345Z</time></trkpt><trkpt lat="39.2483818" lon="9.1965335"><ele>12.333333333333334</ele><time>2026-04-18T07:25:39.361Z</time></trkpt><trkpt lat="39.248442" lon="9.1966139"><ele>12.666666666666668</ele><time>2026-04-18T07:25:40.347Z</time></trkpt><trkpt lat="39.2484978" lon="9.1966943"><ele>13.0</ele><time>2026-04-18T07:25:41.362Z</time></trkpt><trkpt lat="39.2485581" lon="9.196773"><ele>13.333333333333334</ele><time>2026-04-18T07:25:42.351Z</time></trkpt><trkpt lat="39.2486188" lon="9.1968528"><ele>13.666666666666668</ele><time>2026-04-18T07:25:43.352Z</time></trkpt><trkpt lat="39.2486804" lon="9.1969329"><ele>14.0</ele><time>2026-04-18T07:25:44.362Z</time></trkpt><trkpt lat="39.2487403" lon="9.1970155"><ele>14.000000000000002</ele><time>2026-04-18T07:25:45.351Z</time></trkpt><trkpt lat="39.2487993" lon="9.1970976"><ele>14.0</ele><time>2026-04-18T07:25:46.353Z</time></trkpt><trkpt lat="39.2488588" lon="9.1971794"><ele>14.0</ele><time>2026-04-18T07:25:47.35Z</time></trkpt><trkpt lat="39.2489171" lon="9.1972607"><ele>14.0</ele><time>2026-04-18T07:25:48.357Z</time></trkpt><trkpt lat="39.2489752" lon="9.1973419"><ele>14.000000000000002</ele><time>2026-04-18T07:25:49.349Z</time></trkpt><trkpt lat="39.249033" lon="9.1974235"><ele>14.0</ele><time>2026-04-18T07:25:50.365Z</time></trkpt><trkpt lat="39.249093" lon="9.1975082"><ele>13.799999999999999</ele><time>2026-04-18T07:25:51.345Z</time></trkpt><trkpt lat="39.2491543" lon="9.1975992"><ele>13.599999999999998</ele><time>2026-04-18T07:25:52.357Z</time></trkpt><trkpt lat="39.2492188" lon="9.1976966"><ele>13.4</ele><time>2026-04-18T07:25:53.354Z</time></trkpt><trkpt lat="39.2492902" lon="9.1977996"><ele>13.2</ele><time>2026-04-18T07:25:54.37Z</time></trkpt><trkpt lat="39.2493688" lon="9.1979079"><ele>13.0</ele><time>2026-04-18T07:25:55.365Z</time></trkpt><trkpt lat="39.2494517" lon="9.1980201"><ele>13.0</ele><time>2026-04-18T07:25:56.375Z</time></trkpt><trkpt lat="39.2495361" lon="9.1981356"><ele>13.0</ele><time>2026-04-18T07:25:57.355Z</time></trkpt><trkpt lat="39.2496228" lon="9.1982521"><ele>13.0</ele><time>2026-04-18T07:25:58.359Z</time></trkpt><trkpt lat="39.2497123" lon="9.1983664"><ele>13.0</ele><time>2026-04-18T07:25:59.355Z</time></trkpt><trkpt lat="39.2498035" lon="9.1984799"><ele>13.75</ele><time>2026-04-18T07:26:00.347Z</time></trkpt><trkpt lat="39.249895" lon="9.1985933"><ele>14.5</ele><time>2026-04-18T07:26:01.348Z</time></trkpt><trkpt lat="39.2499861" lon="9.198708"><ele>15.25</ele><time>2026-04-18T07:26:02.354Z</time></trkpt><trkpt lat="39.2500774" lon="9.198824"><ele>16.0</ele><time>2026-04-18T07:26:03.352Z</time></trkpt><trkpt lat="39.2501694" lon="9.1989399"><ele>16.0</ele><time>2026-04-18T07:26:04.353Z</time></trkpt><trkpt lat="39.2502634" lon="9.1990571"><ele>16.0</ele><time>2026-04-18T07:26:05.367Z</time></trkpt><trkpt lat="39.2503585" lon="9.1991752"><ele>16.0</ele><time>2026-04-18T07:26:06.357Z</time></trkpt><trkpt lat="39.2504543" lon="9.199292"><ele>16.0</ele><time>2026-04-18T07:26:07.369Z</time></trkpt><trkpt lat="39.2505504" lon="9.199408"><ele>16.75</ele><time>2026-04-18T07:26:08.347Z</time></trkpt><trkpt lat="39.2506445" lon="9.1995268"><ele>17.5</ele><time>2026-04-18T07:26:09.349Z</time></trkpt><trkpt lat="39.2507375" lon="9.1996475"><ele>18.25</ele><time>2026-04-18T07:26:10.354Z</time></trkpt><trkpt lat="39.2508315" lon="9.1997677"><ele>19.0</ele><time>2026-04-18T07:26:11.357Z</time></trkpt><trkpt lat="39.2509242" lon="9.1998904"><ele>19.5</ele><time>2026-04-18T07:26:12.358Z</time></trkpt><trkpt lat="39.2510166" lon="9.2000113"><ele>20.0</ele><time>2026-04-18T07:26:13.349Z</time></trkpt><trkpt lat="39.2511042" lon="9.2001298"><ele>20.5</ele><time>2026-04-18T07:26:14.36Z</time></trkpt><trkpt lat="39.2511926" lon="9.2002478"><ele>21.0</ele><time>2026-04-18T07:26:15.351Z</time></trkpt><trkpt lat="39.2512902" lon="9.200371"><ele>21.0</ele><time>2026-04-18T07:26:16.362Z</time></trkpt><trkpt lat="39.2513862" lon="9.2005112"><ele>21.0</ele><time>2026-04-18T07:26:17.341Z</time></trkpt><trkpt lat="39.2514778" lon="9.2006511"><ele>21.0</ele><time>2026-04-18T07:26:18.347Z</time></trkpt><trkpt lat="39.2515739" lon="9.2007821"><ele>21.0</ele><time>2026-04-18T07:26:19.358Z</time></trkpt><trkpt lat="39.2516729" lon="9.2009074"><ele>21.75</ele><time>2026-04-18T07:26:20.348Z</time></trkpt><trkpt lat="39.2517748" lon="9.2010334"><ele>22.5</ele><time>2026-04-18T07:26:21.368Z</time></trkpt><trkpt lat="39.2518742" lon="9.2011632"><ele>23.25</ele><time>2026-04-18T07:26:22.36Z</time></trkpt><trkpt lat="39.2519752" lon="9.2012992"><ele>24.0</ele><time>2026-04-18T07:26:23.363Z</time></trkpt><trkpt lat="39.2520783" lon="9.2014445"><ele>25.0</ele><time>2026-04-18T07:26:24.37Z</time></trkpt><trkpt lat="39.2521842" lon="9.2015933"><ele>26.0</ele><time>2026-04-18T07:26:25.359Z</time></trkpt><trkpt lat="39.2522914" lon="9.2017439"><ele>27.0</ele><time>2026-04-18T07:26:26.351Z</time></trkpt><trkpt lat="39.2524063" lon="9.2018937"><ele>28.0</ele><time>2026-04-18T07:26:27.352Z</time></trkpt><trkpt lat="39.2525245" lon="9.2020439"><ele>29.0</ele><time>2026-04-18T07:26:28.369Z</time></trkpt><trkpt lat="39.252646" lon="9.202196"><ele>30.0</ele><time>2026-04-18T07:26:29.356Z</time></trkpt><trkpt lat="39.2527659" lon="9.2023508"><ele>30.0</ele><time>2026-04-18T07:26:30.365Z</time></trkpt><trkpt lat="39.2528824" lon="9.2025075"><ele>30.0</ele><time>2026-04-18T07:26:31.361Z</time></trkpt><trkpt lat="39.2529969" lon="9.2026618"><ele>30.0</ele><time>2026-04-18T07:26:32.365Z</time></trkpt><trkpt lat="39.2531081" lon="9.2028119"><ele>31.0</ele><time>2026-04-18T07:26:33.355Z</time></trkpt><trkpt lat="39.2532165" lon="9.2029561"><ele>32.0</ele><time>2026-04-18T07:26:34.357Z</time></trkpt><trkpt lat="39.2533202" lon="9.2030971"><ele>33.0</ele><time>2026-04-18T07:26:35.359Z</time></trkpt><trkpt lat="39.2534211" lon="9.2032347"><ele>33.25</ele><time>2026-04-18T07:26:36.351Z</time></trkpt><trkpt lat="39.2535176" lon="9.20337"><ele>33.5</ele><time>2026-04-18T07:26:37.354Z</time></trkpt><trkpt lat="39.2536089" lon="9.203494"><ele>33.75</ele><time>2026-04-18T07:26:38.367Z</time></trkpt><trkpt lat="39.2536971" lon="9.2035984"><ele>34.0</ele><time>2026-04-18T07:26:39.352Z</time></trkpt><trkpt lat="39.2537771" lon="9.2036876"><ele>34.0</ele><time>2026-04-18T07:26:40.366Z</time></trkpt><trkpt lat="39.2538424" lon="9.2037463"><ele>34.0</ele><time>2026-04-18T07:26:41.363Z</time></trkpt><trkpt lat="39.2539065" lon="9.2037596"><ele>34.0</ele><time>2026-04-18T07:26:42.372Z</time></trkpt><trkpt lat="39.2539762" lon="9.2037328"><ele>34.0</ele><time>2026-04-18T07:26:43.35Z</time></trkpt><trkpt lat="39.2540441" lon="9.2036624"><ele>34.0</ele><time>2026-04-18T07:26:44.351Z</time></trkpt><trkpt lat="39.2541151" lon="9.2035627"><ele>34.0</ele><time>2026-04-18T07:26:45.355Z</time></trkpt><trkpt lat="39.2541934" lon="9.203444"><ele>35.5</ele><time>2026-04-18T07:26:46.37Z</time></trkpt><trkpt lat="39.2542832" lon="9.2033196"><ele>37.0</ele><time>2026-04-18T07:26:47.373Z</time></trkpt><trkpt lat="39.2543805" lon="9.2031923"><ele>38.5</ele><time>2026-04-18T07:26:48.359Z</time></trkpt><trkpt lat="39.2544825" lon="9.2030605"><ele>40.0</ele><time>2026-04-18T07:26:49.361Z</time></trkpt><trkpt lat="39.254587" lon="9.2029277"><ele>40.0</ele><time>2026-04-18T07:26:50.358Z</time></trkpt><trkpt lat="39.2546962" lon="9.2027976"><ele>40.0</ele><time>2026-04-18T07:26:51.35Z</time></trkpt><trkpt lat="39.2548143" lon="9.2026778"><ele>40.0</ele><time>2026-04-18T07:26:52.362Z</time></trkpt><trkpt lat="39.2549366" lon="9.2025642"><ele>40.0</ele><time>2026-04-18T07:26:53.358Z</time></trkpt><trkpt lat="39.2550597" lon="9.2024488"><ele>42.66666666666667</ele><time>2026-04-18T07:26:54.37Z</time></trkpt><trkpt lat="39.2551824" lon="9.2023351"><ele>45.333333333333336</ele><time>2026-04-18T07:26:55.36Z</time></trkpt><trkpt lat="39.2553066" lon="9.2022252"><ele>48.0</ele><time>2026-04-18T07:26:56.345Z</time></trkpt><trkpt lat="39.2554328" lon="9.2021246"><ele>48.25</ele><time>2026-04-18T07:26:57.39Z</time></trkpt><trkpt lat="39.2555601" lon="9.2020385"><ele>48.5</ele><time>2026-04-18T07:26:58.345Z</time></trkpt><trkpt lat="39.2556833" lon="9.2019614"><ele>48.75</ele><time>2026-04-18T07:26:59.36Z</time></trkpt><trkpt lat="39.2557993" lon="9.2018862"><ele>49.0</ele><time>2026-04-18T07:27:00.351Z</time></trkpt><trkpt lat="39.2559093" lon="9.2018065"><ele>49.25</ele><time>2026-04-18T07:27:01.352Z</time></trkpt><trkpt lat="39.2560136" lon="9.2017264"><ele>49.5</ele><time>2026-04-18T07:27:02.356Z</time></trkpt><trkpt lat="39.2561168" lon="9.2016404"><ele>49.75</ele><time>2026-04-18T07:27:03.362Z</time></trkpt><trkpt lat="39.2562115" lon="9.2015463"><ele>50.0</ele><time>2026-04-18T07:27:04.367Z</time></trkpt><trkpt lat="39.2563084" lon="9.2014587"><ele>50.5</ele><time>2026-04-18T07:27:05.356Z</time></trkpt><trkpt lat="39.2564069" lon="9.2013704"><ele>51.0</ele><time>2026-04-18T07:27:06.361Z</time></trkpt><trkpt lat="39.2565045" lon="9.2012673"><ele>51.5</ele><time>2026-04-18T07:27:07.361Z</time></trkpt><trkpt lat="39.2566036" lon="9.2011566"><ele>52.0</ele><time>2026-04-18T07:27:08.361Z</time></trkpt><trkpt lat="39.2566951" lon="9.2010621"><ele>52.0</ele><time>2026-04-18T07:27:09.361Z</time></trkpt><trkpt lat="39.2567806" lon="9.2009744"><ele>52.0</ele><time>2026-04-18T07:27:10.359Z</time></trkpt><trkpt lat="39.2568583" lon="9.2008885"><ele>52.0</ele><time>2026-04-18T07:27:11.364Z</time></trkpt><trkpt lat="39.2569376" lon="9.2008153"><ele>52.0</ele><time>2026-04-18T07:27:12.353Z</time></trkpt><trkpt lat="39.2570298" lon="9.2007644"><ele>52.0</ele><time>2026-04-18T07:27:13.354Z</time></trkpt><trkpt lat="39.2571354" lon="9.2007299"><ele>52.0</ele><time>2026-04-18T07:27:14.368Z</time></trkpt><trkpt lat="39.2572363" lon="9.2007066"><ele>52.0</ele><time>2026-04-18T07:27:15.355Z</time></trkpt><trkpt lat="39.2573316" lon="9.2006967"><ele>52.0</ele><time>2026-04-18T07:27:16.358Z</time></trkpt><trkpt lat="39.2574334" lon="9.2006887"><ele>52.0</ele><time>2026-04-18T07:27:17.361Z</time></trkpt><trkpt lat="39.2575291" lon="9.2006953"><ele>52.0</ele><time>2026-04-18T07:27:18.355Z</time></trkpt><trkpt lat="39.2576275" lon="9.2006968"><ele>52.6</ele><time>2026-04-18T07:27:19.35Z</time></trkpt><trkpt lat="39.2577108" lon="9.2006866"><ele>53.2</ele><time>2026-04-18T07:27:20.37Z</time></trkpt><trkpt lat="39.2577817" lon="9.2006698"><ele>53.8</ele><time>2026-04-18T07:27:21.368Z</time></trkpt><trkpt lat="39.2579018" lon="9.2006315"><ele>54.4</ele><time>2026-04-18T07:27:23.367Z</time></trkpt><trkpt lat="39.2580021" lon="9.2005619"><ele>55.0</ele><time>2026-04-18T07:27:25.361Z</time></trkpt><trkpt lat="39.2580776" lon="9.2005462"><ele>55.33333333333333</ele><time>2026-04-18T07:27:27.348Z</time></trkpt><trkpt lat="39.2581532" lon="9.200557"><ele>55.666666666666664</ele><time>2026-04-18T07:27:30.356Z</time></trkpt><trkpt lat="39.2582169" lon="9.2005276"><ele>56.0</ele><time>2026-04-18T07:27:37.377Z</time></trkpt><trkpt lat="39.2583296" lon="9.2005236"><ele>56.33333333333333</ele><time>2026-04-18T07:27:39.37Z</time></trkpt><trkpt lat="39.2584128" lon="9.2005295"><ele>56.666666666666664</ele><time>2026-04-18T07:27:40.349Z</time></trkpt><trkpt lat="39.2585031" lon="9.2005308"><ele>57.0</ele><time>2026-04-18T07:27:41.367Z</time></trkpt><trkpt lat="39.2585961" lon="9.200536"><ele>57.0</ele><time>2026-04-18T07:27:42.357Z</time></trkpt><trkpt lat="39.2586831" lon="9.2005441"><ele>57.0</ele><time>2026-04-18T07:27:43.354Z</time></trkpt><trkpt lat="39.2587627" lon="9.2005621"><ele>57.0</ele><time>2026-04-18T07:27:44.359Z</time></trkpt><trkpt lat="39.2588467" lon="9.2005684"><ele>57.0</ele><time>2026-04-18T07:27:45.352Z</time></trkpt><trkpt lat="39.2589368" lon="9.2005553"><ele>57.0</ele><time>2026-04-18T07:27:46.35Z</time></trkpt><trkpt lat="39.2590214" lon="9.2004914"><ele>57.0</ele><time>2026-04-18T07:27:47.35Z</time></trkpt><trkpt lat="39.2591072" lon="9.2004375"><ele>56.8</ele><time>2026-04-18T07:27:48.355Z</time></trkpt><trkpt lat="39.259197" lon="9.2003977"><ele>56.6</ele><time>2026-04-18T07:27:49.35Z</time></trkpt><trkpt lat="39.2592948" lon="9.2003645"><ele>56.39999999999999</ele><time>2026-04-18T07:27:50.363Z</time></trkpt><trkpt lat="39.2593892" lon="9.2003236"><ele>56.199999999999996</ele><time>2026-04-18T07:27:51.353Z</time></trkpt><trkpt lat="39.259485" lon="9.2002761"><ele>56.0</ele><time>2026-04-18T07:27:52.365Z</time></trkpt><trkpt lat="39.2595815" lon="9.2002303"><ele>56.0</ele><time>2026-04-18T07:27:53.355Z</time></trkpt><trkpt lat="39.2596835" lon="9.20019"><ele>55.99999999999999</ele><time>2026-04-18T07:27:54.356Z</time></trkpt><trkpt lat="39.2597885" lon="9.200161"><ele>55.99999999999999</ele><time>2026-04-18T07:27:55.358Z</time></trkpt><trkpt lat="39.2598892" lon="9.2001388"><ele>56.0</ele><time>2026-04-18T07:27:56.365Z</time></trkpt><trkpt lat="39.2599813" lon="9.2001289"><ele>56.0</ele><time>2026-04-18T07:27:57.359Z</time></trkpt><trkpt lat="39.2600687" lon="9.2001118"><ele>55.833333333333336</ele><time>2026-04-18T07:27:58.347Z</time></trkpt><trkpt lat="39.2601584" lon="9.2000797"><ele>55.66666666666667</ele><time>2026-04-18T07:27:59.359Z</time></trkpt><trkpt lat="39.2602452" lon="9.2000275"><ele>55.5</ele><time>2026-04-18T07:28:00.358Z</time></trkpt><trkpt lat="39.2603318" lon="9.1999777"><ele>55.33333333333333</ele><time>2026-04-18T07:28:01.351Z</time></trkpt><trkpt lat="39.2604083" lon="9.1999376"><ele>55.166666666666664</ele><time>2026-04-18T07:28:02.364Z</time></trkpt><trkpt lat="39.2604797" lon="9.1999113"><ele>55.0</ele><time>2026-04-18T07:28:03.348Z</time></trkpt><trkpt lat="39.26055" lon="9.1999051"><ele>54.99999999999999</ele><time>2026-04-18T07:28:04.349Z</time></trkpt><trkpt lat="39.2606251" lon="9.199905"><ele>55.0</ele><time>2026-04-18T07:28:05.363Z</time></trkpt><trkpt lat="39.2607005" lon="9.1998925"><ele>55.0</ele><time>2026-04-18T07:28:06.376Z</time></trkpt><trkpt lat="39.2607734" lon="9.199866"><ele>55.0</ele><time>2026-04-18T07:28:07.36Z</time></trkpt><trkpt lat="39.2608443" lon="9.1998388"><ele>54.99999999999999</ele><time>2026-04-18T07:28:08.349Z</time></trkpt><trkpt lat="39.2609024" lon="9.1997949"><ele>55.0</ele><time>2026-04-18T07:28:09.36Z</time></trkpt><trkpt lat="39.2609808" lon="9.1997203"><ele>54.49999999999999</ele><time>2026-04-18T07:28:11.352Z</time></trkpt><trkpt lat="39.2610442" lon="9.1996986"><ele>54.0</ele><time>2026-04-18T07:28:15.362Z</time></trkpt><trkpt lat="39.261127" lon="9.1997086"><ele>53.5</ele><time>2026-04-18T07:28:18.35Z</time></trkpt><trkpt lat="39.2611876" lon="9.1996763"><ele>53.0</ele><time>2026-04-18T07:28:24.35Z</time></trkpt><trkpt lat="39.2612655" lon="9.1996495"><ele>52.49999999999999</ele><time>2026-04-18T07:28:27.351Z</time></trkpt><trkpt lat="39.2613655" lon="9.1995907"><ele>52.0</ele><time>2026-04-18T07:30:19.394Z</time></trkpt><trkpt lat="39.2614359" lon="9.1995649"><ele>51.83333333333333</ele><time>2026-04-18T07:30:20.369Z</time></trkpt><trkpt lat="39.2615151" lon="9.1995394"><ele>51.666666666666664</ele><time>2026-04-18T07:30:21.404Z</time></trkpt><trkpt lat="39.2616002" lon="9.1995135"><ele>51.5</ele><time>2026-04-18T07:30:22.355Z</time></trkpt><trkpt lat="39.2616835" lon="9.1994863"><ele>51.33333333333333</ele><time>2026-04-18T07:30:23.364Z</time></trkpt><trkpt lat="39.2617698" lon="9.1994565"><ele>51.166666666666664</ele><time>2026-04-18T07:30:24.346Z</time></trkpt><trkpt lat="39.2618575" lon="9.199425"><ele>51.0</ele><time>2026-04-18T07:30:25.368Z</time></trkpt><trkpt lat="39.261946" lon="9.199394"><ele>51.0</ele><time>2026-04-18T07:30:26.356Z</time></trkpt><trkpt lat="39.2620344" lon="9.1993595"><ele>51.0</ele><time>2026-04-18T07:30:27.355Z</time></trkpt><trkpt lat="39.262123" lon="9.199322"><ele>51.0</ele><time>2026-04-18T07:30:28.381Z</time></trkpt><trkpt lat="39.2622138" lon="9.1992835"><ele>51.0</ele><time>2026-04-18T07:30:29.363Z</time></trkpt><trkpt lat="39.2623057" lon="9.1992475"><ele>51.0</ele><time>2026-04-18T07:30:30.376Z</time></trkpt><trkpt lat="39.2623994" lon="9.1992127"><ele>52.199999999999996</ele><time>2026-04-18T07:30:31.365Z</time></trkpt><trkpt lat="39.2624944" lon="9.1991779"><ele>53.4</ele><time>2026-04-18T07:30:32.359Z</time></trkpt><trkpt lat="39.2625887" lon="9.1991449"><ele>54.6</ele><time>2026-04-18T07:30:33.349Z</time></trkpt><trkpt lat="39.2626847" lon="9.199119"><ele>55.8</ele><time>2026-04-18T07:30:34.344Z</time></trkpt><trkpt lat="39.2627833" lon="9.1991016"><ele>57.0</ele><time>2026-04-18T07:30:35.376Z</time></trkpt><trkpt lat="39.2628796" lon="9.1990941"><ele>57.0</ele><time>2026-04-18T07:30:36.364Z</time></trkpt><trkpt lat="39.2629786" lon="9.1990707"><ele>57.0</ele><time>2026-04-18T07:30:37.392Z</time></trkpt><trkpt lat="39.2630779" lon="9.1990276"><ele>57.0</ele><time>2026-04-18T07:30:38.349Z</time></trkpt><trkpt lat="39.2631744" lon="9.1989809"><ele>57.0</ele><time>2026-04-18T07:30:39.362Z</time></trkpt><trkpt lat="39.2632663" lon="9.1989357"><ele>57.0</ele><time>2026-04-18T07:30:40.376Z</time></trkpt><trkpt lat="39.2633603" lon="9.1988984"><ele>56.833333333333336</ele><time>2026-04-18T07:30:41.356Z</time></trkpt><trkpt lat="39.2634527" lon="9.1988816"><ele>56.66666666666667</ele><time>2026-04-18T07:30:42.366Z</time></trkpt><trkpt lat="39.263541" lon="9.1988889"><ele>56.5</ele><time>2026-04-18T07:30:43.355Z</time></trkpt><trkpt lat="39.2636229" lon="9.1989133"><ele>56.333333333333336</ele><time>2026-04-18T07:30:44.344Z</time></trkpt><trkpt lat="39.2636972" lon="9.19896"><ele>56.16666666666667</ele><time>2026-04-18T07:30:45.349Z</time></trkpt><trkpt lat="39.2637652" lon="9.1990362"><ele>56.0</ele><time>2026-04-18T07:30:46.355Z</time></trkpt><trkpt lat="39.2638349" lon="9.1991172"><ele>57.4</ele><time>2026-04-18T07:30:47.353Z</time></trkpt><trkpt lat="39.2638952" lon="9.1992147"><ele>58.8</ele><time>2026-04-18T07:30:48.351Z</time></trkpt><trkpt lat="39.2639541" lon="9.1993073"><ele>60.199999999999996</ele><time>2026-04-18T07:30:49.361Z</time></trkpt><trkpt lat="39.2640144" lon="9.1994011"><ele>61.599999999999994</ele><time>2026-04-18T07:30:50.353Z</time></trkpt><trkpt lat="39.2640707" lon="9.1994963"><ele>63.0</ele><time>2026-04-18T07:30:51.347Z</time></trkpt><trkpt lat="39.2641309" lon="9.1995994"><ele>63.666666666666664</ele><time>2026-04-18T07:30:52.361Z</time></trkpt><trkpt lat="39.2641836" lon="9.1996995"><ele>64.33333333333333</ele><time>2026-04-18T07:30:53.356Z</time></trkpt><trkpt lat="39.264231" lon="9.1997971"><ele>65.0</ele><time>2026-04-18T07:30:54.358Z</time></trkpt><trkpt lat="39.2642519" lon="9.1998951"><ele>65.66666666666666</ele><time>2026-04-18T07:30:55.348Z</time></trkpt><trkpt lat="39.2642647" lon="9.1999925"><ele>66.33333333333333</ele><time>2026-04-18T07:30:56.349Z</time></trkpt><trkpt lat="39.2642795" lon="9.2000966"><ele>67.0</ele><time>2026-04-18T07:30:57.347Z</time></trkpt><trkpt lat="39.2642996" lon="9.2002104"><ele>66.66666666666666</ele><time>2026-04-18T07:30:58.38Z</time></trkpt><trkpt lat="39.264337" lon="9.2003218"><ele>66.33333333333333</ele><time>2026-04-18T07:30:59.369Z</time></trkpt><trkpt lat="39.2643696" lon="9.2004256"><ele>66.0</ele><time>2026-04-18T07:31:00.346Z</time></trkpt><trkpt lat="39.2643883" lon="9.2005261"><ele>65.66666666666667</ele><time>2026-04-18T07:31:01.357Z</time></trkpt><trkpt lat="39.2643918" lon="9.2006228"><ele>65.33333333333334</ele><time>2026-04-18T07:31:02.365Z</time></trkpt><trkpt lat="39.2643921" lon="9.2007168"><ele>65.0</ele><time>2026-04-18T07:31:03.371Z</time></trkpt><trkpt lat="39.2644028" lon="9.2008069"><ele>65.0</ele><time>2026-04-18T07:31:04.365Z</time></trkpt><trkpt lat="39.2644244" lon="9.200884"><ele>65.0</ele><time>2026-04-18T07:31:05.372Z</time></trkpt><trkpt lat="39.2644665" lon="9.2010066"><ele>65.0</ele><time>2026-04-18T07:31:07.356Z</time></trkpt><trkpt lat="39.2645113" lon="9.2011277"><ele>65.0</ele><time>2026-04-18T07:31:09.351Z</time></trkpt><trkpt lat="39.2645358" lon="9.201206"><ele>65.0</ele><time>2026-04-18T07:31:10.345Z</time></trkpt><trkpt lat="39.2645651" lon="9.2013071"><ele>65.0</ele><time>2026-04-18T07:31:11.369Z</time></trkpt><trkpt lat="39.2645967" lon="9.2014086"><ele>63.333333333333336</ele><time>2026-04-18T07:31:12.368Z</time></trkpt><trkpt lat="39.26463" lon="9.2015093"><ele>61.66666666666667</ele><time>2026-04-18T07:31:13.367Z</time></trkpt><trkpt lat="39.264671" lon="9.2016038"><ele>60.0</ele><time>2026-04-18T07:31:14.357Z</time></trkpt><trkpt lat="39.2647251" lon="9.2016808"><ele>58.33333333333333</ele><time>2026-04-18T07:31:15.355Z</time></trkpt><trkpt lat="39.2647835" lon="9.2017558"><ele>56.666666666666664</ele><time>2026-04-18T07:31:16.369Z</time></trkpt><trkpt lat="39.264842" lon="9.2018281"><ele>55.0</ele><time>2026-04-18T07:31:17.356Z</time></trkpt><trkpt lat="39.2648999" lon="9.2018837"><ele>53.99999999999999</ele><time>2026-04-18T07:31:18.361Z</time></trkpt><trkpt lat="39.2649561" lon="9.201943"><ele>53.0</ele><time>2026-04-18T07:31:19.358Z</time></trkpt><trkpt lat="39.2650005" lon="9.2020157"><ele>52.0</ele><time>2026-04-18T07:31:20.376Z</time></trkpt><trkpt lat="39.2650473" lon="9.2020923"><ele>51.0</ele><time>2026-04-18T07:31:21.355Z</time></trkpt><trkpt lat="39.2650925" lon="9.2021666"><ele>49.99999999999999</ele><time>2026-04-18T07:31:22.344Z</time></trkpt><trkpt lat="39.2651346" lon="9.2022373"><ele>49.0</ele><time>2026-04-18T07:31:23.349Z</time></trkpt><trkpt lat="39.2651917" lon="9.2023769"><ele>47.83333333333333</ele><time>2026-04-18T07:31:25.351Z</time></trkpt><trkpt lat="39.2652195" lon="9.2024505"><ele>46.666666666666664</ele><time>2026-04-18T07:31:26.362Z</time></trkpt><trkpt lat="39.2652689" lon="9.2025845"><ele>45.5</ele><time>2026-04-18T07:31:28.351Z</time></trkpt><trkpt lat="39.2653078" lon="9.2026877"><ele>44.33333333333333</ele><time>2026-04-18T07:31:30.374Z</time></trkpt><trkpt lat="39.265343" lon="9.2027899"><ele>43.166666666666664</ele><time>2026-04-18T07:31:32.356Z</time></trkpt><trkpt lat="39.265383" lon="9.2029015"><ele>42.0</ele><time>2026-04-18T07:31:34.355Z</time></trkpt><trkpt lat="39.2654236" lon="9.2030181"><ele>42.0</ele><time>2026-04-18T07:31:36.346Z</time></trkpt><trkpt lat="39.2654447" lon="9.2031258"><ele>42.0</ele><time>2026-04-18T07:31:38.37Z</time></trkpt><trkpt lat="39.2654657" lon="9.2032542"><ele>42.0</ele><time>2026-04-18T07:31:40.355Z</time></trkpt><trkpt lat="39.2654937" lon="9.2033891"><ele>42.0</ele><time>2026-04-18T07:31:42.351Z</time></trkpt><trkpt lat="39.2655725" lon="9.2034311"><ele>42.0</ele><time>2026-04-18T07:31:44.357Z</time></trkpt><trkpt lat="39.2656404" lon="9.2034245"><ele>42.0</ele><time>2026-04-18T07:31:45.353Z</time></trkpt><trkpt lat="39.2657139" lon="9.2034059"><ele>41.0</ele><time>2026-04-18T07:31:46.358Z</time></trkpt><trkpt lat="39.2657874" lon="9.2033802"><ele>40.0</ele><time>2026-04-18T07:31:47.372Z</time></trkpt><trkpt lat="39.2658581" lon="9.2033524"><ele>39.0</ele><time>2026-04-18T07:31:48.346Z</time></trkpt><trkpt lat="39.2659261" lon="9.2033292"><ele>38.0</ele><time>2026-04-18T07:31:49.369Z</time></trkpt><trkpt lat="39.2659945" lon="9.2033082"><ele>37.0</ele><time>2026-04-18T07:31:50.362Z</time></trkpt><trkpt lat="39.266064" lon="9.2032905"><ele>36.0</ele><time>2026-04-18T07:31:51.36Z</time></trkpt><trkpt lat="39.2661363" lon="9.2032694"><ele>35.0</ele><time>2026-04-18T07:31:52.349Z</time></trkpt><trkpt lat="39.2662057" lon="9.2032518"><ele>35.0</ele><time>2026-04-18T07:31:53.349Z</time></trkpt><trkpt lat="39.2662759" lon="9.2032303"><ele>35.0</ele><time>2026-04-18T07:31:54.355Z</time></trkpt><trkpt lat="39.2663364" lon="9.2032027"><ele>35.0</ele><time>2026-04-18T07:31:55.347Z</time></trkpt><trkpt lat="39.2664328" lon="9.2031308"><ele>35.0</ele><time>2026-04-18T07:31:57.362Z</time></trkpt><trkpt lat="39.2665089" lon="9.2031001"><ele>35.0</ele><time>2026-04-18T07:31:59.356Z</time></trkpt><trkpt lat="39.2665742" lon="9.203002"><ele>35.0</ele><time>2026-04-18T07:32:02.355Z</time></trkpt><trkpt lat="39.2666159" lon="9.2028567"><ele>35.57142857142857</ele><time>2026-04-18T07:32:04.354Z</time></trkpt><trkpt lat="39.2666586" lon="9.2027815"><ele>36.14285714285714</ele><time>2026-04-18T07:32:05.348Z</time></trkpt><trkpt lat="39.266714" lon="9.2027219"><ele>36.714285714285715</ele><time>2026-04-18T07:32:06.361Z</time></trkpt><trkpt lat="39.266776" lon="9.2026845"><ele>37.285714285714285</ele><time>2026-04-18T07:32:07.351Z</time></trkpt><trkpt lat="39.2668415" lon="9.2026675"><ele>37.857142857142854</ele><time>2026-04-18T07:32:08.352Z</time></trkpt><trkpt lat="39.2669403" lon="9.2026621"><ele>38.42857142857143</ele><time>2026-04-18T07:32:10.359Z</time></trkpt><trkpt lat="39.2669995" lon="9.2027042"><ele>39.0</ele><time>2026-04-18T07:32:12.357Z</time></trkpt><trkpt lat="39.2669788" lon="9.2028651"><ele>39.0</ele><time>2026-04-18T07:32:14.36Z</time></trkpt><trkpt lat="39.2669551" lon="9.2029702"><ele>39.0</ele><time>2026-04-18T07:32:15.362Z</time></trkpt><trkpt lat="39.2669345" lon="9.2030872"><ele>39.0</ele><time>2026-04-18T07:32:16.356Z</time></trkpt><trkpt lat="39.2669137" lon="9.203215"><ele>39.0</ele><time>2026-04-18T07:32:17.358Z</time></trkpt><trkpt lat="39.2668918" lon="9.2033466"><ele>39.0</ele><time>2026-04-18T07:32:18.365Z</time></trkpt><trkpt lat="39.2668716" lon="9.2034763"><ele>38.666666666666664</ele><time>2026-04-18T07:32:19.364Z</time></trkpt><trkpt lat="39.2668518" lon="9.2035936"><ele>38.333333333333336</ele><time>2026-04-18T07:32:20.348Z</time></trkpt><trkpt lat="39.2668307" lon="9.2036967"><ele>38.0</ele><time>2026-04-18T07:32:21.358Z</time></trkpt><trkpt lat="39.2668096" lon="9.203787"><ele>37.66666666666667</ele><time>2026-04-18T07:32:22.347Z</time></trkpt><trkpt lat="39.2667909" lon="9.2038714"><ele>37.333333333333336</ele><time>2026-04-18T07:32:23.352Z</time></trkpt><trkpt lat="39.2667764" lon="9.2039512"><ele>37.0</ele><time>2026-04-18T07:32:24.369Z</time></trkpt><trkpt lat="39.2667594" lon="9.2040798"><ele>36.833333333333336</ele><time>2026-04-18T07:32:26.351Z</time></trkpt><trkpt lat="39.266762" lon="9.2041711"><ele>36.66666666666667</ele><time>2026-04-18T07:32:28.363Z</time></trkpt><trkpt lat="39.2667438" lon="9.204253"><ele>36.5</ele><time>2026-04-18T07:32:31.386Z</time></trkpt><trkpt lat="39.2667306" lon="9.2043493"><ele>36.333333333333336</ele><time>2026-04-18T07:49:02.359Z</time></trkpt><trkpt lat="39.2667047" lon="9.2044413"><ele>36.166666666666664</ele><time>2026-04-18T07:49:24.337Z</time></trkpt><trkpt lat="39.2666752" lon="9.2045763"><ele>36.0</ele><time>2026-04-18T07:49:26.343Z</time></trkpt><trkpt lat="39.2666454" lon="9.2047233"><ele>36.00000000000001</ele><time>2026-04-18T07:49:28.355Z</time></trkpt><trkpt lat="39.2666317" lon="9.2048031"><ele>36.0</ele><time>2026-04-18T07:49:29.34Z</time></trkpt><trkpt lat="39.2666158" lon="9.2048889"><ele>36.0</ele><time>2026-04-18T07:49:30.344Z</time></trkpt><trkpt lat="39.2665999" lon="9.2049785"><ele>36.0</ele><time>2026-04-18T07:49:31.344Z</time></trkpt><trkpt lat="39.266584" lon="9.205081"><ele>36.0</ele><time>2026-04-18T07:49:32.337Z</time></trkpt><trkpt lat="39.2665677" lon="9.2051857"><ele>36.00000000000001</ele><time>2026-04-18T07:49:33.344Z</time></trkpt><trkpt lat="39.2665491" lon="9.2052895"><ele>36.0</ele><time>2026-04-18T07:49:34.345Z</time></trkpt><trkpt lat="39.2665348" lon="9.2053824"><ele>36.166666666666664</ele><time>2026-04-18T07:49:35.339Z</time></trkpt><trkpt lat="39.2665219" lon="9.2054718"><ele>36.333333333333336</ele><time>2026-04-18T07:49:36.341Z</time></trkpt><trkpt lat="39.2665077" lon="9.2055603"><ele>36.5</ele><time>2026-04-18T07:49:37.345Z</time></trkpt><trkpt lat="39.2664916" lon="9.2056488"><ele>36.66666666666667</ele><time>2026-04-18T07:49:38.343Z</time></trkpt><trkpt lat="39.2664753" lon="9.2057346"><ele>36.833333333333336</ele><time>2026-04-18T07:49:39.334Z</time></trkpt><trkpt lat="39.2664602" lon="9.2058169"><ele>37.0</ele><time>2026-04-18T07:49:40.349Z</time></trkpt><trkpt lat="39.2664301" lon="9.2059688"><ele>36.16666666666667</ele><time>2026-04-18T07:49:42.353Z</time></trkpt><trkpt lat="39.2663994" lon="9.2061284"><ele>35.333333333333336</ele><time>2026-04-18T07:49:44.336Z</time></trkpt><trkpt lat="39.2663851" lon="9.2062118"><ele>34.5</ele><time>2026-04-18T07:49:45.34Z</time></trkpt><trkpt lat="39.2663704" lon="9.2062999"><ele>33.666666666666664</ele><time>2026-04-18T07:49:46.341Z</time></trkpt><trkpt lat="39.2663541" lon="9.2063904"><ele>32.83333333333333</ele><time>2026-04-18T07:49:47.364Z</time></trkpt><trkpt lat="39.2663365" lon="9.2064817"><ele>32.0</ele><time>2026-04-18T07:49:48.336Z</time></trkpt><trkpt lat="39.2663181" lon="9.2065765"><ele>31.999999999999996</ele><time>2026-04-18T07:49:49.346Z</time></trkpt><trkpt lat="39.2662993" lon="9.2066729"><ele>32.0</ele><time>2026-04-18T07:49:50.351Z</time></trkpt><trkpt lat="39.2662808" lon="9.2067718"><ele>32.0</ele><time>2026-04-18T07:49:51.352Z</time></trkpt><trkpt lat="39.2662639" lon="9.2068717"><ele>32.0</ele><time>2026-04-18T07:49:52.338Z</time></trkpt><trkpt lat="39.2662462" lon="9.2069729"><ele>31.999999999999996</ele><time>2026-04-18T07:49:53.351Z</time></trkpt><trkpt lat="39.2662309" lon="9.2070777"><ele>32.0</ele><time>2026-04-18T07:49:54.356Z</time></trkpt><trkpt lat="39.2662153" lon="9.207184"><ele>31.999999999999996</ele><time>2026-04-18T07:49:55.346Z</time></trkpt><trkpt lat="39.2661956" lon="9.2072904"><ele>32.0</ele><time>2026-04-18T07:49:56.356Z</time></trkpt><trkpt lat="39.2661764" lon="9.2073951"><ele>32.0</ele><time>2026-04-18T07:49:57.347Z</time></trkpt><trkpt lat="39.2661567" lon="9.2074981"><ele>32.0</ele><time>2026-04-18T07:49:58.343Z</time></trkpt><trkpt lat="39.2661392" lon="9.2076004"><ele>31.999999999999996</ele><time>2026-04-18T07:49:59.359Z</time></trkpt><trkpt lat="39.2661229" lon="9.2077036"><ele>32.0</ele><time>2026-04-18T07:50:00.342Z</time></trkpt><trkpt lat="39.2661046" lon="9.2078068"><ele>32.33333333333333</ele><time>2026-04-18T07:50:01.353Z</time></trkpt><trkpt lat="39.2660873" lon="9.2079106"><ele>32.666666666666664</ele><time>2026-04-18T07:50:02.349Z</time></trkpt><trkpt lat="39.2660682" lon="9.2080121"><ele>33.0</ele><time>2026-04-18T07:50:03.359Z</time></trkpt><trkpt lat="39.2660468" lon="9.2081057"><ele>33.333333333333336</ele><time>2026-04-18T07:50:04.342Z</time></trkpt><trkpt lat="39.2660288" lon="9.2081997"><ele>33.66666666666667</ele><time>2026-04-18T07:50:05.346Z</time></trkpt><trkpt lat="39.2660137" lon="9.2082904"><ele>34.0</ele><time>2026-04-18T07:50:06.336Z</time></trkpt><trkpt lat="39.2659996" lon="9.2083761"><ele>34.5</ele><time>2026-04-18T07:50:07.334Z</time></trkpt><trkpt lat="39.2659804" lon="9.2084644"><ele>35.0</ele><time>2026-04-18T07:50:08.361Z</time></trkpt><trkpt lat="39.2659621" lon="9.2085596"><ele>35.5</ele><time>2026-04-18T07:50:09.339Z</time></trkpt><trkpt lat="39.2659432" lon="9.2086586"><ele>36.0</ele><time>2026-04-18T07:50:10.34Z</time></trkpt><trkpt lat="39.2659241" lon="9.2087577"><ele>36.5</ele><time>2026-04-18T07:50:11.36Z</time></trkpt><trkpt lat="39.2659058" lon="9.2088589"><ele>37.0</ele><time>2026-04-18T07:50:12.338Z</time></trkpt><trkpt lat="39.2658869" lon="9.2089659"><ele>37.4</ele><time>2026-04-18T07:50:13.352Z</time></trkpt><trkpt lat="39.2658678" lon="9.2090756"><ele>37.800000000000004</ele><time>2026-04-18T07:50:14.351Z</time></trkpt><trkpt lat="39.26585" lon="9.2091897"><ele>38.2</ele><time>2026-04-18T07:50:15.348Z</time></trkpt><trkpt lat="39.2658325" lon="9.2093068"><ele>38.6</ele><time>2026-04-18T07:50:16.342Z</time></trkpt><trkpt lat="39.2658126" lon="9.2094255"><ele>39.0</ele><time>2026-04-18T07:50:17.371Z</time></trkpt><trkpt lat="39.2657915" lon="9.2095436"><ele>39.0</ele><time>2026-04-18T07:50:18.335Z</time></trkpt><trkpt lat="39.2657704" lon="9.2096633"><ele>39.0</ele><time>2026-04-18T07:50:19.345Z</time></trkpt><trkpt lat="39.2657467" lon="9.2098075"><ele>39.0</ele><time>2026-04-18T07:50:20.338Z</time></trkpt><trkpt lat="39.2657194" lon="9.2099759"><ele>39.0</ele><time>2026-04-18T07:50:21.334Z</time></trkpt><trkpt lat="39.2656894" lon="9.2101459"><ele>39.25</ele><time>2026-04-18T07:50:22.352Z</time></trkpt><trkpt lat="39.2656597" lon="9.2103131"><ele>39.5</ele><time>2026-04-18T07:50:23.339Z</time></trkpt><trkpt lat="39.2656306" lon="9.210477"><ele>39.75</ele><time>2026-04-18T07:50:24.343Z</time></trkpt><trkpt lat="39.2656043" lon="9.2106315"><ele>40.0</ele><time>2026-04-18T07:50:25.356Z</time></trkpt><trkpt lat="39.2655811" lon="9.2107807"><ele>39.4</ele><time>2026-04-18T07:50:26.343Z</time></trkpt><trkpt lat="39.2655592" lon="9.2109217"><ele>38.8</ele><time>2026-04-18T07:50:27.337Z</time></trkpt><trkpt lat="39.2655357" lon="9.2110611"><ele>38.2</ele><time>2026-04-18T07:50:28.331Z</time></trkpt><trkpt lat="39.2655128" lon="9.2111968"><ele>37.6</ele><time>2026-04-18T07:50:29.343Z</time></trkpt><trkpt lat="39.2654934" lon="9.2113238"><ele>37.0</ele><time>2026-04-18T07:50:30.335Z</time></trkpt><trkpt lat="39.2654762" lon="9.2114395"><ele>37.333333333333336</ele><time>2026-04-18T07:50:31.341Z</time></trkpt><trkpt lat="39.2654588" lon="9.2115495"><ele>37.66666666666667</ele><time>2026-04-18T07:50:32.349Z</time></trkpt><trkpt lat="39.26544" lon="9.2116612"><ele>38.0</ele><time>2026-04-18T07:50:33.337Z</time></trkpt><trkpt lat="39.265419" lon="9.2117741"><ele>38.333333333333336</ele><time>2026-04-18T07:50:34.337Z</time></trkpt><trkpt lat="39.2653974" lon="9.2118862"><ele>38.666666666666664</ele><time>2026-04-18T07:50:35.338Z</time></trkpt><trkpt lat="39.2653757" lon="9.2120011"><ele>39.0</ele><time>2026-04-18T07:50:36.345Z</time></trkpt><trkpt lat="39.2653533" lon="9.2121185"><ele>39.0</ele><time>2026-04-18T07:50:37.342Z</time></trkpt><trkpt lat="39.2653303" lon="9.2122412"><ele>39.0</ele><time>2026-04-18T07:50:38.335Z</time></trkpt><trkpt lat="39.2653074" lon="9.2123677"><ele>39.0</ele><time>2026-04-18T07:50:39.345Z</time></trkpt><trkpt lat="39.2652852" lon="9.2124979"><ele>39.0</ele><time>2026-04-18T07:50:40.35Z</time></trkpt><trkpt lat="39.2652631" lon="9.2126307"><ele>39.0</ele><time>2026-04-18T07:50:41.356Z</time></trkpt><trkpt lat="39.2652382" lon="9.2127661"><ele>38.8</ele><time>2026-04-18T07:50:42.351Z</time></trkpt><trkpt lat="39.265213" lon="9.2129026"><ele>38.599999999999994</ele><time>2026-04-18T07:50:43.362Z</time></trkpt><trkpt lat="39.2651885" lon="9.2130414"><ele>38.4</ele><time>2026-04-18T07:50:44.346Z</time></trkpt><trkpt lat="39.2651633" lon="9.2131823"><ele>38.199999999999996</ele><time>2026-04-18T07:50:45.338Z</time></trkpt><trkpt lat="39.2651389" lon="9.2133228"><ele>38.0</ele><time>2026-04-18T07:50:46.347Z</time></trkpt><trkpt lat="39.2651155" lon="9.2134617"><ele>37.8</ele><time>2026-04-18T07:50:47.354Z</time></trkpt><trkpt lat="39.2650913" lon="9.2136"><ele>37.599999999999994</ele><time>2026-04-18T07:50:48.349Z</time></trkpt><trkpt lat="39.2650678" lon="9.2137377"><ele>37.400000000000006</ele><time>2026-04-18T07:50:49.353Z</time></trkpt><trkpt lat="39.2650444" lon="9.2138749"><ele>37.2</ele><time>2026-04-18T07:50:50.348Z</time></trkpt><trkpt lat="39.2650206" lon="9.2140131"><ele>37.0</ele><time>2026-04-18T07:50:51.344Z</time></trkpt><trkpt lat="39.2649969" lon="9.2141535"><ele>37.0</ele><time>2026-04-18T07:50:52.343Z</time></trkpt><trkpt lat="39.2649718" lon="9.2143005"><ele>37.0</ele><time>2026-04-18T07:50:53.362Z</time></trkpt><trkpt lat="39.2649463" lon="9.2144551"><ele>37.0</ele><time>2026-04-18T07:50:54.345Z</time></trkpt><trkpt lat="39.264917" lon="9.2146182"><ele>37.0</ele><time>2026-04-18T07:50:55.34Z</time></trkpt><trkpt lat="39.2648853" lon="9.2147905"><ele>37.0</ele><time>2026-04-18T07:50:56.359Z</time></trkpt><trkpt lat="39.2648536" lon="9.2149701"><ele>37.0</ele><time>2026-04-18T07:50:57.349Z</time></trkpt><trkpt lat="39.2648239" lon="9.2151542"><ele>37.0</ele><time>2026-04-18T07:50:58.342Z</time></trkpt><trkpt lat="39.2647936" lon="9.2153414"><ele>37.0</ele><time>2026-04-18T07:50:59.346Z</time></trkpt><trkpt lat="39.2647595" lon="9.2155287"><ele>36.333333333333336</ele><time>2026-04-18T07:51:00.344Z</time></trkpt><trkpt lat="39.264726" lon="9.2157193"><ele>35.666666666666664</ele><time>2026-04-18T07:51:01.347Z</time></trkpt><trkpt lat="39.2646945" lon="9.2159131"><ele>35.0</ele><time>2026-04-18T07:51:02.338Z</time></trkpt><trkpt lat="39.2646641" lon="9.2161091"><ele>35.0</ele><time>2026-04-18T07:51:03.342Z</time></trkpt><trkpt lat="39.2646304" lon="9.2163051"><ele>35.0</ele><time>2026-04-18T07:51:04.358Z</time></trkpt><trkpt lat="39.2645957" lon="9.2165035"><ele>35.0</ele><time>2026-04-18T07:51:05.341Z</time></trkpt><trkpt lat="39.2645621" lon="9.2167055"><ele>35.666666666666664</ele><time>2026-04-18T07:51:06.345Z</time></trkpt><trkpt lat="39.2645281" lon="9.2169082"><ele>36.333333333333336</ele><time>2026-04-18T07:51:07.34Z</time></trkpt><trkpt lat="39.2644938" lon="9.2171098"><ele>37.0</ele><time>2026-04-18T07:51:08.344Z</time></trkpt><trkpt lat="39.2644609" lon="9.2173101"><ele>38.0</ele><time>2026-04-18T07:51:09.34Z</time></trkpt><trkpt lat="39.2644263" lon="9.2175065"><ele>39.0</ele><time>2026-04-18T07:51:10.343Z</time></trkpt><trkpt lat="39.2643911" lon="9.2177005"><ele>40.0</ele><time>2026-04-18T07:51:11.34Z</time></trkpt><trkpt lat="39.2643575" lon="9.2178946"><ele>40.0</ele><time>2026-04-18T07:51:12.347Z</time></trkpt><trkpt lat="39.2643241" lon="9.2180874"><ele>40.0</ele><time>2026-04-18T07:51:13.36Z</time></trkpt><trkpt lat="39.2642896" lon="9.2182776"><ele>40.0</ele><time>2026-04-18T07:51:14.342Z</time></trkpt><trkpt lat="39.2642579" lon="9.2184642"><ele>41.0</ele><time>2026-04-18T07:51:15.346Z</time></trkpt><trkpt lat="39.2642276" lon="9.2186462"><ele>42.0</ele><time>2026-04-18T07:51:16.343Z</time></trkpt><trkpt lat="39.2641993" lon="9.2188168"><ele>43.0</ele><time>2026-04-18T07:51:17.339Z</time></trkpt><trkpt lat="39.2641719" lon="9.2189695"><ele>44.0</ele><time>2026-04-18T07:51:18.342Z</time></trkpt><trkpt lat="39.2641499" lon="9.2190973"><ele>44.83333333333333</ele><time>2026-04-18T07:51:19.358Z</time></trkpt><trkpt lat="39.264134" lon="9.2192014"><ele>45.666666666666664</ele><time>2026-04-18T07:51:20.355Z</time></trkpt><trkpt lat="39.264114" lon="9.2193368"><ele>46.5</ele><time>2026-04-18T07:51:22.34Z</time></trkpt><trkpt lat="39.2641169" lon="9.2194302"><ele>47.33333333333333</ele><time>2026-04-18T07:51:24.334Z</time></trkpt><trkpt lat="39.2641101" lon="9.219525"><ele>48.166666666666664</ele><time>2026-04-18T07:51:33.347Z</time></trkpt><trkpt lat="39.2641012" lon="9.2196147"><ele>49.0</ele><time>2026-04-18T07:51:34.339Z</time></trkpt><trkpt lat="39.2640833" lon="9.2197256"><ele>49.5</ele><time>2026-04-18T07:51:35.347Z</time></trkpt><trkpt lat="39.2640506" lon="9.2198485"><ele>50.0</ele><time>2026-04-18T07:51:36.34Z</time></trkpt><trkpt lat="39.2640172" lon="9.2199874"><ele>50.5</ele><time>2026-04-18T07:51:37.339Z</time></trkpt><trkpt lat="39.26399" lon="9.2201382"><ele>51.0</ele><time>2026-04-18T07:51:38.365Z</time></trkpt><trkpt lat="39.2639598" lon="9.2202995"><ele>51.0</ele><time>2026-04-18T07:51:39.348Z</time></trkpt><trkpt lat="39.2639256" lon="9.2204745"><ele>51.0</ele><time>2026-04-18T07:51:40.35Z</time></trkpt><trkpt lat="39.2638901" lon="9.220662"><ele>51.0</ele><time>2026-04-18T07:51:41.342Z</time></trkpt><trkpt lat="39.2638552" lon="9.2208599"><ele>51.0</ele><time>2026-04-18T07:51:42.336Z</time></trkpt><trkpt lat="39.2638188" lon="9.2210614"><ele>52.33333333333333</ele><time>2026-04-18T07:51:43.346Z</time></trkpt><trkpt lat="39.2637821" lon="9.2212598"><ele>53.666666666666664</ele><time>2026-04-18T07:51:44.337Z</time></trkpt><trkpt lat="39.2637474" lon="9.2214576"><ele>55.0</ele><time>2026-04-18T07:51:45.349Z</time></trkpt><trkpt lat="39.2637133" lon="9.2216479"><ele>56.75</ele><time>2026-04-18T07:51:46.337Z</time></trkpt><trkpt lat="39.2636801" lon="9.2218346"><ele>58.5</ele><time>2026-04-18T07:51:47.34Z</time></trkpt><trkpt lat="39.2636492" lon="9.2220193"><ele>60.25</ele><time>2026-04-18T07:51:48.341Z</time></trkpt><trkpt lat="39.2636185" lon="9.2222028"><ele>62.0</ele><time>2026-04-18T07:51:49.342Z</time></trkpt><trkpt lat="39.2635875" lon="9.2223856"><ele>62.75</ele><time>2026-04-18T07:51:50.356Z</time></trkpt><trkpt lat="39.2635557" lon="9.2225689"><ele>63.5</ele><time>2026-04-18T07:51:51.334Z</time></trkpt><trkpt lat="39.2635229" lon="9.2227523"><ele>64.25</ele><time>2026-04-18T07:51:52.335Z</time></trkpt><trkpt lat="39.2634903" lon="9.2229371"><ele>65.0</ele><time>2026-04-18T07:51:53.339Z</time></trkpt><trkpt lat="39.2634575" lon="9.223122"><ele>65.25</ele><time>2026-04-18T07:51:54.352Z</time></trkpt><trkpt lat="39.2634227" lon="9.2232984"><ele>65.5</ele><time>2026-04-18T07:51:55.336Z</time></trkpt><trkpt lat="39.2633904" lon="9.2234482"><ele>65.75</ele><time>2026-04-18T07:51:56.334Z</time></trkpt><trkpt lat="39.2633629" lon="9.2235762"><ele>66.0</ele><time>2026-04-18T07:51:57.356Z</time></trkpt><trkpt lat="39.2633706" lon="9.2236965"><ele>66.0</ele><time>2026-04-18T07:51:58.339Z</time></trkpt><trkpt lat="39.2633987" lon="9.2238092"><ele>66.0</ele><time>2026-04-18T07:51:59.347Z</time></trkpt><trkpt lat="39.2634571" lon="9.2239102"><ele>66.0</ele><time>2026-04-18T07:52:00.349Z</time></trkpt><trkpt lat="39.2635323" lon="9.224013"><ele>66.0</ele><time>2026-04-18T07:52:01.335Z</time></trkpt><trkpt lat="39.2636476" lon="9.2240959"><ele>66.0</ele><time>2026-04-18T07:52:02.344Z</time></trkpt><trkpt lat="39.2637431" lon="9.2241961"><ele>65.25</ele><time>2026-04-18T07:52:03.348Z</time></trkpt><trkpt lat="39.2638152" lon="9.2243193"><ele>64.5</ele><time>2026-04-18T07:52:04.349Z</time></trkpt><trkpt lat="39.2638668" lon="9.2244728"><ele>63.75</ele><time>2026-04-18T07:52:05.344Z</time></trkpt><trkpt lat="39.2638981" lon="9.2246514"><ele>63.0</ele><time>2026-04-18T07:52:06.338Z</time></trkpt><trkpt lat="39.2639176" lon="9.2248402"><ele>62.5</ele><time>2026-04-18T07:52:07.338Z</time></trkpt><trkpt lat="39.2639261" lon="9.2250283"><ele>62.0</ele><time>2026-04-18T07:52:08.335Z</time></trkpt><trkpt lat="39.2639347" lon="9.2252187"><ele>61.5</ele><time>2026-04-18T07:52:09.353Z</time></trkpt><trkpt lat="39.2639416" lon="9.2254094"><ele>61.0</ele><time>2026-04-18T07:52:10.337Z</time></trkpt><trkpt lat="39.2639495" lon="9.2256021"><ele>60.25</ele><time>2026-04-18T07:52:11.335Z</time></trkpt><trkpt lat="39.2639626" lon="9.2257924"><ele>59.5</ele><time>2026-04-18T07:52:12.333Z</time></trkpt><trkpt lat="39.2639791" lon="9.2259784"><ele>58.75</ele><time>2026-04-18T07:52:13.338Z</time></trkpt><trkpt lat="39.2639889" lon="9.2261623"><ele>58.0</ele><time>2026-04-18T07:52:14.337Z</time></trkpt><trkpt lat="39.263983" lon="9.226343"><ele>58.0</ele><time>2026-04-18T07:52:15.34Z</time></trkpt><trkpt lat="39.2639667" lon="9.2265244"><ele>58.0</ele><time>2026-04-18T07:52:16.333Z</time></trkpt><trkpt lat="39.2639531" lon="9.2267077"><ele>58.0</ele><time>2026-04-18T07:52:17.334Z</time></trkpt><trkpt lat="39.2639391" lon="9.2268909"><ele>58.0</ele><time>2026-04-18T07:52:18.332Z</time></trkpt><trkpt lat="39.2639199" lon="9.2270762"><ele>57.75</ele><time>2026-04-18T07:52:19.332Z</time></trkpt><trkpt lat="39.2639" lon="9.2272574"><ele>57.5</ele><time>2026-04-18T07:52:20.334Z</time></trkpt><trkpt lat="39.2638913" lon="9.2274403"><ele>57.25</ele><time>2026-04-18T07:52:21.335Z</time></trkpt><trkpt lat="39.2639006" lon="9.2276282"><ele>57.0</ele><time>2026-04-18T07:52:22.343Z</time></trkpt><trkpt lat="39.2639274" lon="9.227818"><ele>56.66666666666667</ele><time>2026-04-18T07:52:23.336Z</time></trkpt><trkpt lat="39.2639701" lon="9.228014"><ele>56.333333333333336</ele><time>2026-04-18T07:52:24.334Z</time></trkpt><trkpt lat="39.2640195" lon="9.2282078"><ele>56.0</ele><time>2026-04-18T07:52:25.333Z</time></trkpt><trkpt lat="39.2640713" lon="9.2284027"><ele>56.0</ele><time>2026-04-18T07:52:26.336Z</time></trkpt><trkpt lat="39.2641275" lon="9.2285963"><ele>56.0</ele><time>2026-04-18T07:52:27.337Z</time></trkpt><trkpt lat="39.2641802" lon="9.2287878"><ele>56.0</ele><time>2026-04-18T07:52:28.34Z</time></trkpt><trkpt lat="39.2642279" lon="9.2289765"><ele>55.0</ele><time>2026-04-18T07:52:29.338Z</time></trkpt><trkpt lat="39.2642725" lon="9.2291628"><ele>54.0</ele><time>2026-04-18T07:52:30.348Z</time></trkpt><trkpt lat="39.264318" lon="9.229343"><ele>53.0</ele><time>2026-04-18T07:52:31.334Z</time></trkpt><trkpt lat="39.2643638" lon="9.2295215"><ele>52.0</ele><time>2026-04-18T07:52:32.328Z</time></trkpt><trkpt lat="39.2644085" lon="9.2296928"><ele>51.5</ele><time>2026-04-18T07:52:33.337Z</time></trkpt><trkpt lat="39.2644506" lon="9.2298689"><ele>51.0</ele><time>2026-04-18T07:52:34.333Z</time></trkpt><trkpt lat="39.2644933" lon="9.2300398"><ele>50.5</ele><time>2026-04-18T07:52:35.34Z</time></trkpt><trkpt lat="39.2645387" lon="9.2302134"><ele>50.0</ele><time>2026-04-18T07:52:36.347Z</time></trkpt><trkpt lat="39.2645823" lon="9.230392"><ele>50.0</ele><time>2026-04-18T07:52:37.335Z</time></trkpt><trkpt lat="39.2646254" lon="9.2305743"><ele>50.0</ele><time>2026-04-18T07:52:38.34Z</time></trkpt><trkpt lat="39.2646676" lon="9.2307612"><ele>50.0</ele><time>2026-04-18T07:52:39.339Z</time></trkpt><trkpt lat="39.2647086" lon="9.2309474"><ele>50.0</ele><time>2026-04-18T07:52:40.336Z</time></trkpt><trkpt lat="39.2647501" lon="9.2311308"><ele>49.5</ele><time>2026-04-18T07:52:41.34Z</time></trkpt><trkpt lat="39.264791" lon="9.2313088"><ele>49.0</ele><time>2026-04-18T07:52:42.331Z</time></trkpt><trkpt lat="39.2648332" lon="9.23149"><ele>48.5</ele><time>2026-04-18T07:52:43.337Z</time></trkpt><trkpt lat="39.264874" lon="9.2316693"><ele>48.0</ele><time>2026-04-18T07:52:44.33Z</time></trkpt><trkpt lat="39.2649117" lon="9.2318473"><ele>47.75</ele><time>2026-04-18T07:52:45.34Z</time></trkpt><trkpt lat="39.2649495" lon="9.2320214"><ele>47.5</ele><time>2026-04-18T07:52:46.356Z</time></trkpt><trkpt lat="39.2649927" lon="9.2321987"><ele>47.25</ele><time>2026-04-18T07:52:47.34Z</time></trkpt><trkpt lat="39.2650365" lon="9.2323726"><ele>47.0</ele><time>2026-04-18T07:52:48.346Z</time></trkpt><trkpt lat="39.2650736" lon="9.2325448"><ele>46.75</ele><time>2026-04-18T07:52:49.347Z</time></trkpt><trkpt lat="39.2651059" lon="9.2327082"><ele>46.5</ele><time>2026-04-18T07:52:50.347Z</time></trkpt><trkpt lat="39.2651394" lon="9.2328667"><ele>46.25</ele><time>2026-04-18T07:52:51.354Z</time></trkpt><trkpt lat="39.2651736" lon="9.2330171"><ele>46.0</ele><time>2026-04-18T07:52:52.35Z</time></trkpt><trkpt lat="39.2652069" lon="9.2331571"><ele>45.75</ele><time>2026-04-18T07:52:53.356Z</time></trkpt><trkpt lat="39.2652433" lon="9.2333001"><ele>45.5</ele><time>2026-04-18T07:52:54.345Z</time></trkpt><trkpt lat="39.2652805" lon="9.2334459"><ele>45.25</ele><time>2026-04-18T07:52:55.336Z</time></trkpt><trkpt lat="39.2653112" lon="9.2335906"><ele>45.0</ele><time>2026-04-18T07:52:56.336Z</time></trkpt><trkpt lat="39.2653307" lon="9.2337401"><ele>45.0</ele><time>2026-04-18T07:52:57.358Z</time></trkpt><trkpt lat="39.2653372" lon="9.2338927"><ele>45.0</ele><time>2026-04-18T07:52:58.365Z</time></trkpt><trkpt lat="39.2653294" lon="9.2340442"><ele>45.0</ele><time>2026-04-18T07:52:59.358Z</time></trkpt><trkpt lat="39.2653091" lon="9.2341887"><ele>45.0</ele><time>2026-04-18T07:53:00.342Z</time></trkpt><trkpt lat="39.2652844" lon="9.2343284"><ele>45.2</ele><time>2026-04-18T07:53:01.346Z</time></trkpt><trkpt lat="39.2652575" lon="9.234467"><ele>45.4</ele><time>2026-04-18T07:53:02.345Z</time></trkpt><trkpt lat="39.2652254" lon="9.2346055"><ele>45.599999999999994</ele><time>2026-04-18T07:53:03.354Z</time></trkpt><trkpt lat="39.2651947" lon="9.2347451"><ele>45.8</ele><time>2026-04-18T07:53:04.349Z</time></trkpt><trkpt lat="39.2651683" lon="9.2348862"><ele>46.0</ele><time>2026-04-18T07:53:05.344Z</time></trkpt><trkpt lat="39.2651482" lon="9.2350247"><ele>46.0</ele><time>2026-04-18T07:53:06.339Z</time></trkpt><trkpt lat="39.2651368" lon="9.2351536"><ele>46.0</ele><time>2026-04-18T07:53:07.346Z</time></trkpt><trkpt lat="39.265128" lon="9.2352706"><ele>46.0</ele><time>2026-04-18T07:53:08.347Z</time></trkpt><trkpt lat="39.2651199" lon="9.2353695"><ele>46.0</ele><time>2026-04-18T07:53:09.353Z</time></trkpt><trkpt lat="39.2651083" lon="9.2355039"><ele>46.0</ele><time>2026-04-18T07:53:11.349Z</time></trkpt><trkpt lat="39.2651069" lon="9.2355994"><ele>46.0</ele><time>2026-04-18T07:53:13.343Z</time></trkpt><trkpt lat="39.2651111" lon="9.2357012"><ele>45.8</ele><time>2026-04-18T07:53:24.361Z</time></trkpt><trkpt lat="39.2650985" lon="9.2358622"><ele>45.599999999999994</ele><time>2026-04-18T07:53:26.346Z</time></trkpt><trkpt lat="39.2650808" lon="9.2359726"><ele>45.4</ele><time>2026-04-18T07:53:27.351Z</time></trkpt><trkpt lat="39.2650603" lon="9.2361063"><ele>45.2</ele><time>2026-04-18T07:53:28.371Z</time></trkpt><trkpt lat="39.2650269" lon="9.2362524"><ele>45.0</ele><time>2026-04-18T07:53:29.347Z</time></trkpt><trkpt lat="39.2649724" lon="9.2363993"><ele>45.2</ele><time>2026-04-18T07:53:30.342Z</time></trkpt><trkpt lat="39.2649027" lon="9.2365297"><ele>45.4</ele><time>2026-04-18T07:53:31.365Z</time></trkpt><trkpt lat="39.2648398" lon="9.236651"><ele>45.599999999999994</ele><time>2026-04-18T07:53:32.357Z</time></trkpt><trkpt lat="39.2647922" lon="9.2367614"><ele>45.8</ele><time>2026-04-18T07:53:33.345Z</time></trkpt><trkpt lat="39.2647871" lon="9.2368885"><ele>46.0</ele><time>2026-04-18T07:53:34.368Z</time></trkpt><trkpt lat="39.2648113" lon="9.2370234"><ele>46.0</ele><time>2026-04-18T07:53:35.345Z</time></trkpt><trkpt lat="39.2648615" lon="9.2371686"><ele>46.0</ele><time>2026-04-18T07:53:36.349Z</time></trkpt><trkpt lat="39.2649345" lon="9.2373131"><ele>46.0</ele><time>2026-04-18T07:53:37.345Z</time></trkpt><trkpt lat="39.2650008" lon="9.2374436"><ele>46.0</ele><time>2026-04-18T07:53:38.36Z</time></trkpt><trkpt lat="39.2650467" lon="9.2375561"><ele>46.0</ele><time>2026-04-18T07:53:39.362Z</time></trkpt><trkpt lat="39.2650651" lon="9.2376686"><ele>46.0</ele><time>2026-04-18T07:53:40.351Z</time></trkpt><trkpt lat="39.2650551" lon="9.237797"><ele>46.0</ele><time>2026-04-18T07:53:41.352Z</time></trkpt><trkpt lat="39.265029" lon="9.2379429"><ele>46.0</ele><time>2026-04-18T07:53:42.363Z</time></trkpt><trkpt lat="39.264995" lon="9.2381015"><ele>46.0</ele><time>2026-04-18T07:53:43.347Z</time></trkpt><trkpt lat="39.2649604" lon="9.2382656"><ele>45.75</ele><time>2026-04-18T07:53:44.347Z</time></trkpt><trkpt lat="39.264922" lon="9.2384303"><ele>45.5</ele><time>2026-04-18T07:53:45.34Z</time></trkpt><trkpt lat="39.2648763" lon="9.2385925"><ele>45.25</ele><time>2026-04-18T07:53:46.341Z</time></trkpt><trkpt lat="39.264831" lon="9.2387522"><ele>45.0</ele><time>2026-04-18T07:53:47.351Z</time></trkpt><trkpt lat="39.264776" lon="9.2389056"><ele>44.5</ele><time>2026-04-18T07:53:48.339Z</time></trkpt><trkpt lat="39.2647202" lon="9.2390595"><ele>44.0</ele><time>2026-04-18T07:53:49.351Z</time></trkpt><trkpt lat="39.2646648" lon="9.2392151"><ele>43.5</ele><time>2026-04-18T07:53:50.357Z</time></trkpt><trkpt lat="39.2646088" lon="9.2393737"><ele>43.0</ele><time>2026-04-18T07:53:51.344Z</time></trkpt><trkpt lat="39.2645554" lon="9.2395279"><ele>43.0</ele><time>2026-04-18T07:53:52.358Z</time></trkpt><trkpt lat="39.2645055" lon="9.2396627"><ele>43.0</ele><time>2026-04-18T07:53:53.342Z</time></trkpt><trkpt lat="39.2644569" lon="9.2398006"><ele>43.0</ele><time>2026-04-18T07:53:54.352Z</time></trkpt><trkpt lat="39.2644216" lon="9.2399634"><ele>43.0</ele><time>2026-04-18T07:53:55.36Z</time></trkpt><trkpt lat="39.2644112" lon="9.2401509"><ele>43.0</ele><time>2026-04-18T07:53:56.36Z</time></trkpt><trkpt lat="39.2644002" lon="9.2403422"><ele>43.0</ele><time>2026-04-18T07:53:57.341Z</time></trkpt><trkpt lat="39.2643992" lon="9.2405278"><ele>43.0</ele><time>2026-04-18T07:53:58.35Z</time></trkpt><trkpt lat="39.264391" lon="9.2407165"><ele>43.0</ele><time>2026-04-18T07:53:59.358Z</time></trkpt><trkpt lat="39.2643761" lon="9.2408974"><ele>43.25</ele><time>2026-04-18T07:54:00.356Z</time></trkpt><trkpt lat="39.2643511" lon="9.2410737"><ele>43.5</ele><time>2026-04-18T07:54:01.343Z</time></trkpt><trkpt lat="39.2643205" lon="9.2412493"><ele>43.75</ele><time>2026-04-18T07:54:02.356Z</time></trkpt><trkpt lat="39.2642813" lon="9.2414243"><ele>44.0</ele><time>2026-04-18T07:54:03.348Z</time></trkpt><trkpt lat="39.264237" lon="9.2415983"><ele>44.0</ele><time>2026-04-18T07:54:04.358Z</time></trkpt><trkpt lat="39.264195" lon="9.2417661"><ele>44.0</ele><time>2026-04-18T07:54:05.339Z</time></trkpt><trkpt lat="39.2641549" lon="9.2419402"><ele>44.0</ele><time>2026-04-18T07:54:06.354Z</time></trkpt><trkpt lat="39.264112" lon="9.2421158"><ele>44.0</ele><time>2026-04-18T07:54:07.35Z</time></trkpt><trkpt lat="39.2640692" lon="9.242288"><ele>44.25</ele><time>2026-04-18T07:54:08.361Z</time></trkpt><trkpt lat="39.2640265" lon="9.2424596"><ele>44.5</ele><time>2026-04-18T07:54:09.357Z</time></trkpt><trkpt lat="39.2639834" lon="9.2426279"><ele>44.75</ele><time>2026-04-18T07:54:10.355Z</time></trkpt><trkpt lat="39.2639434" lon="9.242795"><ele>45.0</ele><time>2026-04-18T07:54:11.355Z</time></trkpt><trkpt lat="39.2639088" lon="9.2429548"><ele>45.0</ele><time>2026-04-18T07:54:12.357Z</time></trkpt><trkpt lat="39.2638809" lon="9.2431125"><ele>45.0</ele><time>2026-04-18T07:54:13.376Z</time></trkpt><trkpt lat="39.2638519" lon="9.2432536"><ele>45.0</ele><time>2026-04-18T07:54:14.353Z</time></trkpt><trkpt lat="39.2638193" lon="9.243379"><ele>45.0</ele><time>2026-04-18T07:54:15.392Z</time></trkpt><trkpt lat="39.2637894" lon="9.2434981"><ele>45.0</ele><time>2026-04-18T07:54:16.35Z</time></trkpt><trkpt lat="39.2637698" lon="9.243622"><ele>45.0</ele><time>2026-04-18T07:54:17.346Z</time></trkpt><trkpt lat="39.2637676" lon="9.2437509"><ele>45.0</ele><time>2026-04-18T07:54:18.345Z</time></trkpt><trkpt lat="39.2637853" lon="9.2438856"><ele>45.0</ele><time>2026-04-18T07:54:19.354Z</time></trkpt><trkpt lat="39.2638153" lon="9.2440273"><ele>45.0</ele><time>2026-04-18T07:54:20.355Z</time></trkpt><trkpt lat="39.263845" lon="9.2441745"><ele>45.0</ele><time>2026-04-18T07:54:21.338Z</time></trkpt><trkpt lat="39.2638742" lon="9.2443209"><ele>45.0</ele><time>2026-04-18T07:54:22.344Z</time></trkpt><trkpt lat="39.2639037" lon="9.2444746"><ele>45.0</ele><time>2026-04-18T07:54:23.359Z</time></trkpt><trkpt lat="39.263937" lon="9.2446299"><ele>45.0</ele><time>2026-04-18T07:54:24.353Z</time></trkpt><trkpt lat="39.2639682" lon="9.2447861"><ele>45.0</ele><time>2026-04-18T07:54:25.361Z</time></trkpt><trkpt lat="39.2639965" lon="9.2449514"><ele>45.25</ele><time>2026-04-18T07:54:26.35Z</time></trkpt><trkpt lat="39.2640268" lon="9.2451173"><ele>45.5</ele><time>2026-04-18T07:54:27.357Z</time></trkpt><trkpt lat="39.2640554" lon="9.2452822"><ele>45.75</ele><time>2026-04-18T07:54:28.356Z</time></trkpt><trkpt lat="39.2640835" lon="9.2454422"><ele>46.0</ele><time>2026-04-18T07:54:29.343Z</time></trkpt><trkpt lat="39.2641063" lon="9.2456036"><ele>46.25</ele><time>2026-04-18T07:54:30.375Z</time></trkpt><trkpt lat="39.2641318" lon="9.2457672"><ele>46.5</ele><time>2026-04-18T07:54:31.365Z</time></trkpt><trkpt lat="39.2641594" lon="9.2459317"><ele>46.75</ele><time>2026-04-18T07:54:32.382Z</time></trkpt><trkpt lat="39.2641867" lon="9.2460921"><ele>47.0</ele><time>2026-04-18T07:54:33.348Z</time></trkpt><trkpt lat="39.2642209" lon="9.246241"><ele>47.0</ele><time>2026-04-18T07:54:34.34Z</time></trkpt><trkpt lat="39.2642558" lon="9.2463931"><ele>47.0</ele><time>2026-04-18T07:54:35.345Z</time></trkpt><trkpt lat="39.2642902" lon="9.2465461"><ele>47.0</ele><time>2026-04-18T07:54:36.344Z</time></trkpt><trkpt lat="39.264321" lon="9.2466795"><ele>47.0</ele><time>2026-04-18T07:54:37.357Z</time></trkpt><trkpt lat="39.2643442" lon="9.2467976"><ele>47.0</ele><time>2026-04-18T07:54:38.375Z</time></trkpt><trkpt lat="39.2643592" lon="9.2469129"><ele>47.0</ele><time>2026-04-18T07:54:39.351Z</time></trkpt><trkpt lat="39.2643759" lon="9.2470357"><ele>47.0</ele><time>2026-04-18T07:54:40.359Z</time></trkpt><trkpt lat="39.2644015" lon="9.2471873"><ele>47.0</ele><time>2026-04-18T07:54:41.375Z</time></trkpt><trkpt lat="39.264432" lon="9.2473622"><ele>47.0</ele><time>2026-04-18T07:54:42.358Z</time></trkpt><trkpt lat="39.2644669" lon="9.2475449"><ele>47.666666666666664</ele><time>2026-04-18T07:54:43.352Z</time></trkpt><trkpt lat="39.2645024" lon="9.2477315"><ele>48.33333333333333</ele><time>2026-04-18T07:54:44.372Z</time></trkpt><trkpt lat="39.2645415" lon="9.2479275"><ele>49.0</ele><time>2026-04-18T07:54:45.345Z</time></trkpt><trkpt lat="39.2645806" lon="9.2481266"><ele>49.0</ele><time>2026-04-18T07:54:46.354Z</time></trkpt><trkpt lat="39.2646209" lon="9.2483276"><ele>49.0</ele><time>2026-04-18T07:54:47.352Z</time></trkpt><trkpt lat="39.2646587" lon="9.2485309"><ele>49.0</ele><time>2026-04-18T07:54:48.344Z</time></trkpt><trkpt lat="39.2646942" lon="9.2487369"><ele>49.0</ele><time>2026-04-18T07:54:49.337Z</time></trkpt><trkpt lat="39.264732" lon="9.248942"><ele>49.0</ele><time>2026-04-18T07:54:50.346Z</time></trkpt><trkpt lat="39.2647722" lon="9.249147"><ele>49.0</ele><time>2026-04-18T07:54:51.36Z</time></trkpt><trkpt lat="39.2648124" lon="9.2493514"><ele>49.666666666666664</ele><time>2026-04-18T07:54:52.352Z</time></trkpt><trkpt lat="39.2648534" lon="9.2495566"><ele>50.33333333333333</ele><time>2026-04-18T07:54:53.344Z</time></trkpt><trkpt lat="39.26489" lon="9.2497628"><ele>51.0</ele><time>2026-04-18T07:54:54.363Z</time></trkpt><trkpt lat="39.2649296" lon="9.2499675"><ele>51.66666666666667</ele><time>2026-04-18T07:54:55.354Z</time></trkpt><trkpt lat="39.2649685" lon="9.250172"><ele>52.333333333333336</ele><time>2026-04-18T07:54:56.358Z</time></trkpt><trkpt lat="39.2650084" lon="9.2503762"><ele>53.0</ele><time>2026-04-18T07:54:57.345Z</time></trkpt><trkpt lat="39.2650508" lon="9.250583"><ele>53.66666666666667</ele><time>2026-04-18T07:54:58.356Z</time></trkpt><trkpt lat="39.265091" lon="9.2507913"><ele>54.33333333333333</ele><time>2026-04-18T07:54:59.365Z</time></trkpt><trkpt lat="39.2651315" lon="9.2510013"><ele>55.0</ele><time>2026-04-18T07:55:00.349Z</time></trkpt><trkpt lat="39.2651735" lon="9.2512148"><ele>55.0</ele><time>2026-04-18T07:55:01.357Z</time></trkpt><trkpt lat="39.2652158" lon="9.2514307"><ele>55.0</ele><time>2026-04-18T07:55:02.398Z</time></trkpt><trkpt lat="39.2652585" lon="9.2516469"><ele>55.0</ele><time>2026-04-18T07:55:03.351Z</time></trkpt><trkpt lat="39.2653017" lon="9.2518649"><ele>55.666666666666664</ele><time>2026-04-18T07:55:04.341Z</time></trkpt><trkpt lat="39.2653443" lon="9.2520856"><ele>56.33333333333333</ele><time>2026-04-18T07:55:05.358Z</time></trkpt><trkpt lat="39.2653876" lon="9.2523091"><ele>57.0</ele><time>2026-04-18T07:55:06.365Z</time></trkpt><trkpt lat="39.2654303" lon="9.2525339"><ele>57.66666666666667</ele><time>2026-04-18T07:55:07.358Z</time></trkpt><trkpt lat="39.2654739" lon="9.2527604"><ele>58.333333333333336</ele><time>2026-04-18T07:55:08.348Z</time></trkpt><trkpt lat="39.265517" lon="9.2529854"><ele>59.0</ele><time>2026-04-18T07:55:09.36Z</time></trkpt><trkpt lat="39.2655595" lon="9.2532098"><ele>59.66666666666667</ele><time>2026-04-18T07:55:10.368Z</time></trkpt><trkpt lat="39.2656025" lon="9.2534305"><ele>60.33333333333333</ele><time>2026-04-18T07:55:11.349Z</time></trkpt><trkpt lat="39.2656458" lon="9.2536452"><ele>61.0</ele><time>2026-04-18T07:55:12.348Z</time></trkpt><trkpt lat="39.2656893" lon="9.2538566"><ele>62.0</ele><time>2026-04-18T07:55:13.364Z</time></trkpt><trkpt lat="39.265731" lon="9.2540703"><ele>63.0</ele><time>2026-04-18T07:55:14.351Z</time></trkpt><trkpt lat="39.2657731" lon="9.2542867"><ele>64.0</ele><time>2026-04-18T07:55:15.35Z</time></trkpt><trkpt lat="39.2658126" lon="9.2545026"><ele>64.0</ele><time>2026-04-18T07:55:16.339Z</time></trkpt><trkpt lat="39.2658508" lon="9.2547162"><ele>64.0</ele><time>2026-04-18T07:55:17.356Z</time></trkpt><trkpt lat="39.2658917" lon="9.2549296"><ele>64.0</ele><time>2026-04-18T07:55:18.34Z</time></trkpt><trkpt lat="39.2659316" lon="9.2551422"><ele>65.66666666666666</ele><time>2026-04-18T07:55:19.342Z</time></trkpt><trkpt lat="39.2659701" lon="9.2553528"><ele>67.33333333333333</ele><time>2026-04-18T07:55:20.341Z</time></trkpt><trkpt lat="39.2660127" lon="9.2555605"><ele>69.0</ele><time>2026-04-18T07:55:21.357Z</time></trkpt><trkpt lat="39.2660547" lon="9.2557676"><ele>71.0</ele><time>2026-04-18T07:55:22.355Z</time></trkpt><trkpt lat="39.2660951" lon="9.2559745"><ele>73.0</ele><time>2026-04-18T07:55:23.363Z</time></trkpt><trkpt lat="39.2661348" lon="9.256184"><ele>75.0</ele><time>2026-04-18T07:55:24.345Z</time></trkpt><trkpt lat="39.2661736" lon="9.256397"><ele>75.66666666666667</ele><time>2026-04-18T07:55:25.354Z</time></trkpt><trkpt lat="39.266214" lon="9.2566138"><ele>76.33333333333334</ele><time>2026-04-18T07:55:26.375Z</time></trkpt><trkpt lat="39.2662549" lon="9.2568326"><ele>77.0</ele><time>2026-04-18T07:55:27.344Z</time></trkpt><trkpt lat="39.2662946" lon="9.2570515"><ele>77.0</ele><time>2026-04-18T07:55:28.348Z</time></trkpt><trkpt lat="39.2663349" lon="9.2572708"><ele>77.0</ele><time>2026-04-18T07:55:29.361Z</time></trkpt><trkpt lat="39.266376" lon="9.2574861"><ele>77.0</ele><time>2026-04-18T07:55:30.371Z</time></trkpt><trkpt lat="39.266419" lon="9.2576966"><ele>77.33333333333334</ele><time>2026-04-18T07:55:31.356Z</time></trkpt><trkpt lat="39.2664634" lon="9.2579043"><ele>77.66666666666667</ele><time>2026-04-18T07:55:32.347Z</time></trkpt><trkpt lat="39.2665087" lon="9.2581098"><ele>78.0</ele><time>2026-04-18T07:55:33.342Z</time></trkpt><trkpt lat="39.2665556" lon="9.2583146"><ele>78.66666666666667</ele><time>2026-04-18T07:55:34.356Z</time></trkpt><trkpt lat="39.2666053" lon="9.2585194"><ele>79.33333333333334</ele><time>2026-04-18T07:55:35.344Z</time></trkpt><trkpt lat="39.2666568" lon="9.2587213"><ele>80.0</ele><time>2026-04-18T07:55:36.34Z</time></trkpt><trkpt lat="39.2667079" lon="9.2589186"><ele>80.0</ele><time>2026-04-18T07:55:37.347Z</time></trkpt><trkpt lat="39.2667566" lon="9.2591156"><ele>80.0</ele><time>2026-04-18T07:55:38.335Z</time></trkpt><trkpt lat="39.2668042" lon="9.2593122"><ele>80.0</ele><time>2026-04-18T07:55:39.351Z</time></trkpt><trkpt lat="39.266853" lon="9.2595082"><ele>80.0</ele><time>2026-04-18T07:55:40.334Z</time></trkpt><trkpt lat="39.2669034" lon="9.2597075"><ele>80.0</ele><time>2026-04-18T07:55:41.365Z</time></trkpt><trkpt lat="39.2669561" lon="9.2599088"><ele>80.0</ele><time>2026-04-18T07:55:42.36Z</time></trkpt><trkpt lat="39.267011" lon="9.2600993"><ele>79.66666666666667</ele><time>2026-04-18T07:55:43.347Z</time></trkpt><trkpt lat="39.2670672" lon="9.2602917"><ele>79.33333333333333</ele><time>2026-04-18T07:55:44.346Z</time></trkpt><trkpt lat="39.2671403" lon="9.2604818"><ele>79.0</ele><time>2026-04-18T07:55:45.345Z</time></trkpt><trkpt lat="39.267225" lon="9.2606605"><ele>79.33333333333333</ele><time>2026-04-18T07:55:46.34Z</time></trkpt><trkpt lat="39.2673193" lon="9.2608308"><ele>79.66666666666667</ele><time>2026-04-18T07:55:47.336Z</time></trkpt><trkpt lat="39.267421" lon="9.2609906"><ele>80.0</ele><time>2026-04-18T07:55:48.362Z</time></trkpt><trkpt lat="39.267533" lon="9.2611391"><ele>80.0</ele><time>2026-04-18T07:55:49.342Z</time></trkpt><trkpt lat="39.2676531" lon="9.2612758"><ele>80.0</ele><time>2026-04-18T07:55:50.352Z</time></trkpt><trkpt lat="39.2677763" lon="9.2614033"><ele>80.0</ele><time>2026-04-18T07:55:51.346Z</time></trkpt><trkpt lat="39.2679015" lon="9.2615271"><ele>80.66666666666667</ele><time>2026-04-18T07:55:52.34Z</time></trkpt><trkpt lat="39.2680312" lon="9.2616482"><ele>81.33333333333333</ele><time>2026-04-18T07:55:53.365Z</time></trkpt><trkpt lat="39.2681639" lon="9.261769"><ele>82.0</ele><time>2026-04-18T07:55:54.353Z</time></trkpt><trkpt lat="39.2682962" lon="9.2618921"><ele>82.0</ele><time>2026-04-18T07:55:55.349Z</time></trkpt><trkpt lat="39.2684282" lon="9.2620168"><ele>82.0</ele><time>2026-04-18T07:55:56.347Z</time></trkpt><trkpt lat="39.2685605" lon="9.2621421"><ele>82.0</ele><time>2026-04-18T07:55:57.361Z</time></trkpt><trkpt lat="39.2686942" lon="9.2622679"><ele>81.33333333333333</ele><time>2026-04-18T07:55:58.356Z</time></trkpt><trkpt lat="39.2688294" lon="9.2623949"><ele>80.66666666666667</ele><time>2026-04-18T07:55:59.35Z</time></trkpt><trkpt lat="39.2689639" lon="9.2625247"><ele>80.0</ele><time>2026-04-18T07:56:00.355Z</time></trkpt><trkpt lat="39.2690986" lon="9.2626541"><ele>80.0</ele><time>2026-04-18T07:56:01.342Z</time></trkpt><trkpt lat="39.2692353" lon="9.2627803"><ele>80.0</ele><time>2026-04-18T07:56:02.341Z</time></trkpt><trkpt lat="39.2693711" lon="9.2629067"><ele>80.0</ele><time>2026-04-18T07:56:03.348Z</time></trkpt><trkpt lat="39.2695047" lon="9.2630335"><ele>80.0</ele><time>2026-04-18T07:56:04.338Z</time></trkpt><trkpt lat="39.2696361" lon="9.2631587"><ele>80.0</ele><time>2026-04-18T07:56:05.368Z</time></trkpt><trkpt lat="39.2697617" lon="9.2632776"><ele>80.0</ele><time>2026-04-18T07:56:06.351Z</time></trkpt><trkpt lat="39.2698786" lon="9.2633871"><ele>80.0</ele><time>2026-04-18T07:56:07.353Z</time></trkpt><trkpt lat="39.2699861" lon="9.26349"><ele>80.0</ele><time>2026-04-18T07:56:08.364Z</time></trkpt><trkpt lat="39.2700844" lon="9.2635839"><ele>80.0</ele><time>2026-04-18T07:56:09.352Z</time></trkpt><trkpt lat="39.2701703" lon="9.2636645"><ele>80.0</ele><time>2026-04-18T07:56:10.352Z</time></trkpt><trkpt lat="39.27024" lon="9.263729"><ele>80.0</ele><time>2026-04-18T07:56:11.351Z</time></trkpt><trkpt lat="39.2702927" lon="9.2637784"><ele>80.0</ele><time>2026-04-18T07:56:12.343Z</time></trkpt><trkpt lat="39.2703549" lon="9.2638432"><ele>80.0</ele><time>2026-04-18T07:56:14.358Z</time></trkpt><trkpt lat="39.2704347" lon="9.2639162"><ele>80.0</ele><time>2026-04-18T07:57:38.357Z</time></trkpt><trkpt lat="39.2705175" lon="9.2639926"><ele>80.0</ele><time>2026-04-18T07:57:40.359Z</time></trkpt><trkpt lat="39.2706265" lon="9.2640973"><ele>80.0</ele><time>2026-04-18T07:57:42.352Z</time></trkpt><trkpt lat="39.2706903" lon="9.2641581"><ele>80.16666666666667</ele><time>2026-04-18T07:57:43.35Z</time></trkpt><trkpt lat="39.2707581" lon="9.2642222"><ele>80.33333333333334</ele><time>2026-04-18T07:57:44.348Z</time></trkpt><trkpt lat="39.270828" lon="9.2642877"><ele>80.5</ele><time>2026-04-18T07:57:45.349Z</time></trkpt><trkpt lat="39.2708931" lon="9.2643506"><ele>80.66666666666667</ele><time>2026-04-18T07:57:46.359Z</time></trkpt><trkpt lat="39.2709572" lon="9.2644118"><ele>80.83333333333333</ele><time>2026-04-18T07:57:47.346Z</time></trkpt><trkpt lat="39.2710221" lon="9.2644714"><ele>81.0</ele><time>2026-04-18T07:57:48.362Z</time></trkpt><trkpt lat="39.2710869" lon="9.2645308"><ele>81.0</ele><time>2026-04-18T07:57:49.342Z</time></trkpt><trkpt lat="39.2711504" lon="9.2645896"><ele>81.0</ele><time>2026-04-18T07:57:50.348Z</time></trkpt><trkpt lat="39.2712128" lon="9.2646483"><ele>81.0</ele><time>2026-04-18T07:57:51.358Z</time></trkpt><trkpt lat="39.2712734" lon="9.264706"><ele>81.0</ele><time>2026-04-18T07:57:52.354Z</time></trkpt><trkpt lat="39.2713256" lon="9.2647566"><ele>81.0</ele><time>2026-04-18T07:57:53.352Z</time></trkpt><trkpt lat="39.2714039" lon="9.2648305"><ele>81.0</ele><time>2026-04-18T07:57:55.35Z</time></trkpt><trkpt lat="39.2714569" lon="9.2648941"><ele>80.6</ele><time>2026-04-18T07:57:57.344Z</time></trkpt><trkpt lat="39.2713998" lon="9.2650489"><ele>80.19999999999999</ele><time>2026-04-18T07:57:59.35Z</time></trkpt><trkpt lat="39.271353" lon="9.2651433"><ele>79.80000000000001</ele><time>2026-04-18T07:58:00.351Z</time></trkpt><trkpt lat="39.2713007" lon="9.2652523"><ele>79.4</ele><time>2026-04-18T07:58:01.346Z</time></trkpt><trkpt lat="39.2712416" lon="9.265373"><ele>79.0</ele><time>2026-04-18T07:58:02.337Z</time></trkpt><trkpt lat="39.2711786" lon="9.2655021"><ele>79.0</ele><time>2026-04-18T07:58:03.343Z</time></trkpt><trkpt lat="39.2711141" lon="9.2656385"><ele>79.0</ele><time>2026-04-18T07:58:04.349Z</time></trkpt><trkpt lat="39.2710461" lon="9.265781"><ele>79.0</ele><time>2026-04-18T07:58:05.34Z</time></trkpt><trkpt lat="39.2709761" lon="9.2659274"><ele>79.0</ele><time>2026-04-18T07:58:06.34Z</time></trkpt><trkpt lat="39.2709048" lon="9.266077"><ele>79.0</ele><time>2026-04-18T07:58:07.349Z</time></trkpt><trkpt lat="39.270832" lon="9.2662287"><ele>79.0</ele><time>2026-04-18T07:58:08.352Z</time></trkpt><trkpt lat="39.2707615" lon="9.2663847"><ele>79.0</ele><time>2026-04-18T07:58:09.35Z</time></trkpt><trkpt lat="39.2706998" lon="9.2665504"><ele>79.0</ele><time>2026-04-18T07:58:10.342Z</time></trkpt><trkpt lat="39.2706512" lon="9.2667267"><ele>78.33333333333333</ele><time>2026-04-18T07:58:11.354Z</time></trkpt><trkpt lat="39.2706169" lon="9.2669141"><ele>77.66666666666667</ele><time>2026-04-18T07:58:12.371Z</time></trkpt><trkpt lat="39.2705951" lon="9.2671119"><ele>77.0</ele><time>2026-04-18T07:58:13.355Z</time></trkpt><trkpt lat="39.2705793" lon="9.2673206"><ele>75.0</ele><time>2026-04-18T07:58:14.351Z</time></trkpt><trkpt lat="39.2705649" lon="9.2675388"><ele>73.0</ele><time>2026-04-18T07:58:15.347Z</time></trkpt><trkpt lat="39.2705507" lon="9.2677623"><ele>71.0</ele><time>2026-04-18T07:58:16.362Z</time></trkpt><trkpt lat="39.2705369" lon="9.2679898"><ele>70.33333333333334</ele><time>2026-04-18T07:58:17.347Z</time></trkpt><trkpt lat="39.2705221" lon="9.2682191"><ele>69.66666666666667</ele><time>2026-04-18T07:58:18.348Z</time></trkpt><trkpt lat="39.2705067" lon="9.2684505"><ele>69.0</ele><time>2026-04-18T07:58:19.338Z</time></trkpt><trkpt lat="39.2704923" lon="9.2686832"><ele>69.0</ele><time>2026-04-18T07:58:20.343Z</time></trkpt><trkpt lat="39.2704779" lon="9.2689162"><ele>69.0</ele><time>2026-04-18T07:58:21.34Z</time></trkpt><trkpt lat="39.2704632" lon="9.2691494"><ele>69.0</ele><time>2026-04-18T07:58:22.344Z</time></trkpt><trkpt lat="39.2704484" lon="9.2693804"><ele>69.0</ele><time>2026-04-18T07:58:23.353Z</time></trkpt><trkpt lat="39.2704332" lon="9.2696099"><ele>69.0</ele><time>2026-04-18T07:58:24.343Z</time></trkpt><trkpt lat="39.2704184" lon="9.2698375"><ele>69.0</ele><time>2026-04-18T07:58:25.354Z</time></trkpt><trkpt lat="39.2704048" lon="9.2700635"><ele>69.33333333333333</ele><time>2026-04-18T07:58:26.366Z</time></trkpt><trkpt lat="39.2703912" lon="9.2702871"><ele>69.66666666666666</ele><time>2026-04-18T07:58:27.355Z</time></trkpt><trkpt lat="39.2703773" lon="9.2705076"><ele>70.0</ele><time>2026-04-18T07:58:28.362Z</time></trkpt><trkpt lat="39.2703647" lon="9.27072"><ele>69.33333333333333</ele><time>2026-04-18T07:58:29.36Z</time></trkpt><trkpt lat="39.2703548" lon="9.2709257"><ele>68.66666666666667</ele><time>2026-04-18T07:58:30.357Z</time></trkpt><trkpt lat="39.2703398" lon="9.2711291"><ele>68.0</ele><time>2026-04-18T07:58:31.349Z</time></trkpt><trkpt lat="39.27032" lon="9.2713289"><ele>68.0</ele><time>2026-04-18T07:58:32.35Z</time></trkpt><trkpt lat="39.2702965" lon="9.2715228"><ele>68.0</ele><time>2026-04-18T07:58:33.351Z</time></trkpt><trkpt lat="39.2702681" lon="9.2717121"><ele>68.0</ele><time>2026-04-18T07:58:34.369Z</time></trkpt><trkpt lat="39.270239" lon="9.2718942"><ele>68.0</ele><time>2026-04-18T07:58:35.345Z</time></trkpt><trkpt lat="39.2702127" lon="9.2720642"><ele>68.0</ele><time>2026-04-18T07:58:36.352Z</time></trkpt><trkpt lat="39.270188" lon="9.2722266"><ele>68.0</ele><time>2026-04-18T07:58:37.346Z</time></trkpt><trkpt lat="39.2701654" lon="9.27238"><ele>68.0</ele><time>2026-04-18T07:58:38.343Z</time></trkpt><trkpt lat="39.2701434" lon="9.2725173"><ele>68.0</ele><time>2026-04-18T07:58:39.356Z</time></trkpt><trkpt lat="39.2701164" lon="9.2726428"><ele>67.8</ele><time>2026-04-18T07:58:40.36Z</time></trkpt><trkpt lat="39.270086" lon="9.2727686"><ele>67.6</ele><time>2026-04-18T07:58:41.345Z</time></trkpt><trkpt lat="39.270061" lon="9.2729008"><ele>67.4</ele><time>2026-04-18T07:58:42.36Z</time></trkpt><trkpt lat="39.2700351" lon="9.2730335"><ele>67.2</ele><time>2026-04-18T07:58:43.352Z</time></trkpt><trkpt lat="39.2700247" lon="9.2731888"><ele>67.0</ele><time>2026-04-18T07:58:44.352Z</time></trkpt><trkpt lat="39.2700163" lon="9.2733511"><ele>66.5</ele><time>2026-04-18T07:58:45.366Z</time></trkpt><trkpt lat="39.2700037" lon="9.2735171"><ele>66.0</ele><time>2026-04-18T07:58:46.351Z</time></trkpt><trkpt lat="39.2699828" lon="9.2736818"><ele>65.5</ele><time>2026-04-18T07:58:47.344Z</time></trkpt><trkpt lat="39.26996" lon="9.2738393"><ele>65.0</ele><time>2026-04-18T07:58:48.345Z</time></trkpt><trkpt lat="39.2699311" lon="9.2739766"><ele>65.0</ele><time>2026-04-18T07:58:49.343Z</time></trkpt><trkpt lat="39.2699119" lon="9.2740975"><ele>65.0</ele><time>2026-04-18T07:58:50.347Z</time></trkpt><trkpt lat="39.2699201" lon="9.2742229"><ele>65.0</ele><time>2026-04-18T07:58:51.353Z</time></trkpt><trkpt lat="39.2699513" lon="9.2743561"><ele>65.0</ele><time>2026-04-18T07:58:52.356Z</time></trkpt><trkpt lat="39.2699941" lon="9.2744942"><ele>65.0</ele><time>2026-04-18T07:58:53.349Z</time></trkpt><trkpt lat="39.2700399" lon="9.2746395"><ele>65.0</ele><time>2026-04-18T07:58:54.346Z</time></trkpt><trkpt lat="39.270086" lon="9.2747879"><ele>65.0</ele><time>2026-04-18T07:58:55.355Z</time></trkpt><trkpt lat="39.270131" lon="9.2749445"><ele>65.0</ele><time>2026-04-18T07:58:56.37Z</time></trkpt><trkpt lat="39.2701719" lon="9.2751101"><ele>65.0</ele><time>2026-04-18T07:58:57.362Z</time></trkpt><trkpt lat="39.2702103" lon="9.275281"><ele>65.0</ele><time>2026-04-18T07:58:58.34Z</time></trkpt><trkpt lat="39.2702472" lon="9.2754528"><ele>65.0</ele><time>2026-04-18T07:58:59.355Z</time></trkpt><trkpt lat="39.2702891" lon="9.2756263"><ele>65.0</ele><time>2026-04-18T07:59:00.354Z</time></trkpt><trkpt lat="39.2703346" lon="9.2757948"><ele>65.0</ele><time>2026-04-18T07:59:01.345Z</time></trkpt><trkpt lat="39.2703867" lon="9.275962"><ele>65.0</ele><time>2026-04-18T07:59:02.369Z</time></trkpt><trkpt lat="39.2704439" lon="9.2761241"><ele>65.0</ele><time>2026-04-18T07:59:03.351Z</time></trkpt><trkpt lat="39.2704979" lon="9.2762831"><ele>65.0</ele><time>2026-04-18T07:59:04.343Z</time></trkpt><trkpt lat="39.2705514" lon="9.2764395"><ele>65.0</ele><time>2026-04-18T07:59:05.354Z</time></trkpt><trkpt lat="39.270629" lon="9.2765715"><ele>65.2</ele><time>2026-04-18T07:59:06.351Z</time></trkpt><trkpt lat="39.2707223" lon="9.2766752"><ele>65.4</ele><time>2026-04-18T07:59:07.352Z</time></trkpt><trkpt lat="39.2708172" lon="9.2767575"><ele>65.6</ele><time>2026-04-18T07:59:08.361Z</time></trkpt><trkpt lat="39.2708907" lon="9.2768508"><ele>65.8</ele><time>2026-04-18T07:59:09.345Z</time></trkpt><trkpt lat="39.2709609" lon="9.2769479"><ele>66.0</ele><time>2026-04-18T07:59:10.356Z</time></trkpt><trkpt lat="39.2709785" lon="9.2770909"><ele>66.0</ele><time>2026-04-18T07:59:11.353Z</time></trkpt><trkpt lat="39.270996" lon="9.2772378"><ele>66.0</ele><time>2026-04-18T07:59:12.356Z</time></trkpt><trkpt lat="39.2710192" lon="9.2774039"><ele>66.0</ele><time>2026-04-18T07:59:13.349Z</time></trkpt><trkpt lat="39.2710452" lon="9.2775448"><ele>66.0</ele><time>2026-04-18T07:59:14.37Z</time></trkpt><trkpt lat="39.2710587" lon="9.2776756"><ele>65.8</ele><time>2026-04-18T07:59:15.354Z</time></trkpt><trkpt lat="39.2710641" lon="9.2778"><ele>65.6</ele><time>2026-04-18T07:59:16.348Z</time></trkpt><trkpt lat="39.2710683" lon="9.2779142"><ele>65.4</ele><time>2026-04-18T07:59:17.357Z</time></trkpt><trkpt lat="39.2710706" lon="9.2780187"><ele>65.2</ele><time>2026-04-18T07:59:18.359Z</time></trkpt><trkpt lat="39.2710734" lon="9.2781087"><ele>65.0</ele><time>2026-04-18T07:59:19.358Z</time></trkpt><trkpt lat="39.2710893" lon="9.2782562"><ele>64.83333333333334</ele><time>2026-04-18T07:59:21.348Z</time></trkpt><trkpt lat="39.2711092" lon="9.2783675"><ele>64.66666666666667</ele><time>2026-04-18T07:59:23.348Z</time></trkpt><trkpt lat="39.2711237" lon="9.2784496"><ele>64.5</ele><time>2026-04-18T07:59:25.355Z</time></trkpt><trkpt lat="39.2711172" lon="9.2785401"><ele>64.33333333333333</ele><time>2026-04-18T07:59:34.348Z</time></trkpt><trkpt lat="39.2710428" lon="9.2785837"><ele>64.16666666666666</ele><time>2026-04-18T07:59:37.353Z</time></trkpt><trkpt lat="39.2709547" lon="9.2785924"><ele>64.0</ele><time>2026-04-18T07:59:39.357Z</time></trkpt><trkpt lat="39.2708306" lon="9.2786039"><ele>63.99999999999999</ele><time>2026-04-18T07:59:41.364Z</time></trkpt><trkpt lat="39.2707639" lon="9.2786184"><ele>64.0</ele><time>2026-04-18T07:59:42.353Z</time></trkpt><trkpt lat="39.270691" lon="9.2786353"><ele>64.0</ele><time>2026-04-18T07:59:43.341Z</time></trkpt><trkpt lat="39.2706108" lon="9.2786578"><ele>64.0</ele><time>2026-04-18T07:59:44.355Z</time></trkpt><trkpt lat="39.2705245" lon="9.2786811"><ele>63.99999999999999</ele><time>2026-04-18T07:59:45.352Z</time></trkpt><trkpt lat="39.2704332" lon="9.2787051"><ele>64.0</ele><time>2026-04-18T07:59:46.359Z</time></trkpt><trkpt lat="39.2703361" lon="9.2787295"><ele>63.6</ele><time>2026-04-18T07:59:47.35Z</time></trkpt><trkpt lat="39.2702358" lon="9.2787559"><ele>63.2</ele><time>2026-04-18T07:59:48.352Z</time></trkpt><trkpt lat="39.2701343" lon="9.2787827"><ele>62.800000000000004</ele><time>2026-04-18T07:59:49.355Z</time></trkpt><trkpt lat="39.270033" lon="9.2788044"><ele>62.400000000000006</ele><time>2026-04-18T07:59:50.345Z</time></trkpt><trkpt lat="39.2699325" lon="9.278815"><ele>62.0</ele><time>2026-04-18T07:59:51.347Z</time></trkpt><trkpt lat="39.2698433" lon="9.2788188"><ele>62.00000000000001</ele><time>2026-04-18T07:59:52.339Z</time></trkpt><trkpt lat="39.2697636" lon="9.278823"><ele>62.0</ele><time>2026-04-18T07:59:53.349Z</time></trkpt><trkpt lat="39.2696934" lon="9.2788243"><ele>62.0</ele><time>2026-04-18T07:59:54.347Z</time></trkpt><trkpt lat="39.2695906" lon="9.2788218"><ele>62.0</ele><time>2026-04-18T07:59:56.353Z</time></trkpt><trkpt lat="39.2695124" lon="9.2788254"><ele>62.00000000000001</ele><time>2026-04-18T07:59:59.345Z</time></trkpt><trkpt lat="39.2694468" lon="9.2788972"><ele>62.0</ele><time>2026-04-18T08:00:10.366Z</time></trkpt><trkpt lat="39.269454" lon="9.2789939"><ele>62.400000000000006</ele><time>2026-04-18T08:00:12.363Z</time></trkpt><trkpt lat="39.26947" lon="9.2790726"><ele>62.800000000000004</ele><time>2026-04-18T08:00:13.356Z</time></trkpt><trkpt lat="39.2694875" lon="9.2791813"><ele>63.2</ele><time>2026-04-18T08:00:14.343Z</time></trkpt><trkpt lat="39.2695026" lon="9.2793102"><ele>63.6</ele><time>2026-04-18T08:00:15.357Z</time></trkpt><trkpt lat="39.2695149" lon="9.2794529"><ele>64.0</ele><time>2026-04-18T08:00:16.363Z</time></trkpt><trkpt lat="39.2695283" lon="9.2796009"><ele>64.0</ele><time>2026-04-18T08:00:17.354Z</time></trkpt><trkpt lat="39.2695424" lon="9.2797493"><ele>64.0</ele><time>2026-04-18T08:00:18.365Z</time></trkpt><trkpt lat="39.2695641" lon="9.2798997"><ele>64.0</ele><time>2026-04-18T08:00:19.352Z</time></trkpt><trkpt lat="39.2695869" lon="9.2800553"><ele>64.0</ele><time>2026-04-18T08:00:20.361Z</time></trkpt><trkpt lat="39.2696108" lon="9.280203"><ele>66.0</ele><time>2026-04-18T08:00:21.355Z</time></trkpt><trkpt lat="39.2696541" lon="9.2803236"><ele>68.0</ele><time>2026-04-18T08:00:22.364Z</time></trkpt><trkpt lat="39.2697081" lon="9.2804489"><ele>70.0</ele><time>2026-04-18T08:00:23.346Z</time></trkpt><trkpt lat="39.2697649" lon="9.2805729"><ele>72.0</ele><time>2026-04-18T08:00:24.364Z</time></trkpt><trkpt lat="39.2698182" lon="9.2806773"><ele>74.0</ele><time>2026-04-18T08:00:25.351Z</time></trkpt><trkpt lat="39.2699127" lon="9.2807439"><ele>75.0</ele><time>2026-04-18T08:00:26.347Z</time></trkpt><trkpt lat="39.2700154" lon="9.2808187"><ele>76.0</ele><time>2026-04-18T08:00:27.341Z</time></trkpt><trkpt lat="39.2701145" lon="9.2809001"><ele>77.0</ele><time>2026-04-18T08:00:28.358Z</time></trkpt><trkpt lat="39.2701964" lon="9.2810108"><ele>78.0</ele><time>2026-04-18T08:00:29.369Z</time></trkpt><trkpt lat="39.2702784" lon="9.2811275"><ele>78.0</ele><time>2026-04-18T08:00:30.353Z</time></trkpt><trkpt lat="39.2703562" lon="9.2812524"><ele>78.0</ele><time>2026-04-18T08:00:31.346Z</time></trkpt><trkpt lat="39.270439" lon="9.2813712"><ele>78.0</ele><time>2026-04-18T08:00:32.355Z</time></trkpt><trkpt lat="39.2705182" lon="9.2814817"><ele>78.0</ele><time>2026-04-18T08:00:33.36Z</time></trkpt><trkpt lat="39.2705811" lon="9.2815869"><ele>79.6</ele><time>2026-04-18T08:00:34.349Z</time></trkpt><trkpt lat="39.2706378" lon="9.2816992"><ele>81.19999999999999</ele><time>2026-04-18T08:00:35.379Z</time></trkpt><trkpt lat="39.2706939" lon="9.2818115"><ele>82.8</ele><time>2026-04-18T08:00:36.357Z</time></trkpt><trkpt lat="39.2707501" lon="9.2819259"><ele>84.39999999999999</ele><time>2026-04-18T08:00:37.348Z</time></trkpt><trkpt lat="39.2707802" lon="9.2820355"><ele>86.0</ele><time>2026-04-18T08:00:38.349Z</time></trkpt><trkpt lat="39.270783" lon="9.2821415"><ele>86.0</ele><time>2026-04-18T08:00:39.352Z</time></trkpt><trkpt lat="39.2707866" lon="9.2822457"><ele>86.0</ele><time>2026-04-18T08:00:40.352Z</time></trkpt><trkpt lat="39.2707927" lon="9.282353"><ele>86.0</ele><time>2026-04-18T08:00:41.339Z</time></trkpt><trkpt lat="39.2707986" lon="9.2824829"><ele>86.0</ele><time>2026-04-18T08:00:42.357Z</time></trkpt><trkpt lat="39.2708037" lon="9.2826232"><ele>86.0</ele><time>2026-04-18T08:00:43.348Z</time></trkpt><trkpt lat="39.270806" lon="9.2827708"><ele>87.6</ele><time>2026-04-18T08:00:44.356Z</time></trkpt><trkpt lat="39.2708115" lon="9.2829178"><ele>89.19999999999999</ele><time>2026-04-18T08:00:45.348Z</time></trkpt><trkpt lat="39.2708181" lon="9.2830633"><ele>90.80000000000001</ele><time>2026-04-18T08:00:46.361Z</time></trkpt><trkpt lat="39.2708385" lon="9.2832022"><ele>92.4</ele><time>2026-04-18T08:00:47.359Z</time></trkpt><trkpt lat="39.2708597" lon="9.2833293"><ele>94.0</ele><time>2026-04-18T08:00:48.353Z</time></trkpt><trkpt lat="39.2708688" lon="9.2834303"><ele>95.4</ele><time>2026-04-18T08:00:49.345Z</time></trkpt><trkpt lat="39.2708857" lon="9.2835262"><ele>96.80000000000001</ele><time>2026-04-18T08:00:50.352Z</time></trkpt><trkpt lat="39.2708999" lon="9.2836079"><ele>98.19999999999999</ele><time>2026-04-18T08:00:51.348Z</time></trkpt><trkpt lat="39.2709436" lon="9.2837267"><ele>99.6</ele><time>2026-04-18T08:00:53.357Z</time></trkpt><trkpt lat="39.2709126" lon="9.2838493"><ele>101.0</ele><time>2026-04-18T08:00:55.343Z</time></trkpt><trkpt lat="39.2708289" lon="9.2839626"><ele>101.66666666666666</ele><time>2026-04-18T08:00:57.348Z</time></trkpt><trkpt lat="39.270762" lon="9.284016"><ele>102.33333333333333</ele><time>2026-04-18T08:00:58.348Z</time></trkpt><trkpt lat="39.2706947" lon="9.2840668"><ele>103.0</ele><time>2026-04-18T08:00:59.336Z</time></trkpt><trkpt lat="39.2706229" lon="9.2840909"><ele>103.66666666666666</ele><time>2026-04-18T08:01:00.338Z</time></trkpt><trkpt lat="39.2705401" lon="9.2840964"><ele>104.33333333333333</ele><time>2026-04-18T08:01:01.342Z</time></trkpt><trkpt lat="39.2704622" lon="9.284119"><ele>105.0</ele><time>2026-04-18T08:01:02.362Z</time></trkpt><trkpt lat="39.2703813" lon="9.2841801"><ele>105.0</ele><time>2026-04-18T08:01:04.362Z</time></trkpt><trkpt lat="39.270361" lon="9.2842849"><ele>105.0</ele><time>2026-04-18T08:01:06.356Z</time></trkpt><trkpt lat="39.2703915" lon="9.2844128"><ele>105.0</ele><time>2026-04-18T08:01:08.357Z</time></trkpt><trkpt lat="39.2704184" lon="9.2845257"><ele>105.0</ele><time>2026-04-18T08:01:10.362Z</time></trkpt><trkpt lat="39.2703777" lon="9.2845926"><ele>105.0</ele><time>2026-04-18T08:01:12.369Z</time></trkpt><trkpt lat="39.2703004" lon="9.2846206"><ele>105.0</ele><time>2026-04-18T08:01:14.358Z</time></trkpt><trkpt lat="39.2702296" lon="9.2846818"><ele>104.6</ele><time>2026-04-18T08:01:16.358Z</time></trkpt><trkpt lat="39.2701546" lon="9.284814"><ele>104.2</ele><time>2026-04-18T08:01:18.358Z</time></trkpt><trkpt lat="39.2701017" lon="9.2849177"><ele>103.80000000000001</ele><time>2026-04-18T08:01:20.369Z</time></trkpt><trkpt lat="39.2700666" lon="9.2850133"><ele>103.4</ele><time>2026-04-18T08:01:22.367Z</time></trkpt><trkpt lat="39.2699953" lon="9.2850835"><ele>103.0</ele><time>2026-04-18T08:01:25.339Z</time></trkpt><trkpt lat="39.269874" lon="9.2851196"><ele>103.00000000000001</ele><time>2026-04-18T08:01:27.351Z</time></trkpt><trkpt lat="39.2698019" lon="9.2851503"><ele>103.0</ele><time>2026-04-18T08:01:28.358Z</time></trkpt><trkpt lat="39.2697245" lon="9.2851794"><ele>103.0</ele><time>2026-04-18T08:01:29.347Z</time></trkpt><trkpt lat="39.2696455" lon="9.2852084"><ele>103.0</ele><time>2026-04-18T08:01:30.354Z</time></trkpt><trkpt lat="39.2695723" lon="9.2852368"><ele>103.00000000000001</ele><time>2026-04-18T08:01:31.361Z</time></trkpt><trkpt lat="39.2695024" lon="9.2852669"><ele>103.0</ele><time>2026-04-18T08:01:32.361Z</time></trkpt><trkpt lat="39.2694326" lon="9.2852958"><ele>101.33333333333334</ele><time>2026-04-18T08:01:33.353Z</time></trkpt><trkpt lat="39.2693687" lon="9.2853272"><ele>99.66666666666667</ele><time>2026-04-18T08:01:34.356Z</time></trkpt><trkpt lat="39.2692852" lon="9.2853857"><ele>98.0</ele><time>2026-04-18T08:01:36.353Z</time></trkpt><trkpt lat="39.2692307" lon="9.285437"><ele>96.33333333333334</ele><time>2026-04-18T08:01:38.386Z</time></trkpt><trkpt lat="39.2692277" lon="9.2855248"><ele>94.66666666666667</ele><time>2026-04-18T08:01:39.341Z</time></trkpt><trkpt lat="39.26922" lon="9.2856236"><ele>93.0</ele><time>2026-04-18T08:01:40.362Z</time></trkpt><trkpt lat="39.2692109" lon="9.2857259"><ele>93.0</ele><time>2026-04-18T08:01:41.367Z</time></trkpt><trkpt lat="39.2691954" lon="9.2858262"><ele>93.0</ele><time>2026-04-18T08:01:42.362Z</time></trkpt><trkpt lat="39.2691812" lon="9.2859234"><ele>93.0</ele><time>2026-04-18T08:01:43.365Z</time></trkpt><trkpt lat="39.2691609" lon="9.2860281"><ele>93.0</ele><time>2026-04-18T08:01:44.371Z</time></trkpt><trkpt lat="39.2691486" lon="9.2861292"><ele>93.0</ele><time>2026-04-18T08:01:45.349Z</time></trkpt><trkpt lat="39.269132" lon="9.2862088"><ele>93.0</ele><time>2026-04-18T08:01:46.369Z</time></trkpt><trkpt lat="39.269101" lon="9.2863464"><ele>93.4</ele><time>2026-04-18T08:01:48.361Z</time></trkpt><trkpt lat="39.2690879" lon="9.2864425"><ele>93.80000000000001</ele><time>2026-04-18T08:01:50.359Z</time></trkpt><trkpt lat="39.2690937" lon="9.2865402"><ele>94.2</ele><time>2026-04-18T08:01:52.355Z</time></trkpt><trkpt lat="39.2690811" lon="9.2866452"><ele>94.6</ele><time>2026-04-18T08:01:54.352Z</time></trkpt><trkpt lat="39.2690484" lon="9.2867848"><ele>95.0</ele><time>2026-04-18T08:01:56.36Z</time></trkpt><trkpt lat="39.2689917" lon="9.2869223"><ele>95.16666666666667</ele><time>2026-04-18T08:01:58.348Z</time></trkpt><trkpt lat="39.2689138" lon="9.286996"><ele>95.33333333333334</ele><time>2026-04-18T08:02:00.366Z</time></trkpt><trkpt lat="39.268876" lon="9.2870799"><ele>95.5</ele><time>2026-04-18T08:02:02.379Z</time></trkpt><trkpt lat="39.2689015" lon="9.2872318"><ele>95.66666666666667</ele><time>2026-04-18T08:02:04.371Z</time></trkpt><trkpt lat="39.2689304" lon="9.2873214"><ele>95.83333333333333</ele><time>2026-04-18T08:02:05.368Z</time></trkpt><trkpt lat="39.2689552" lon="9.2874013"><ele>96.0</ele><time>2026-04-18T08:02:06.369Z</time></trkpt><trkpt lat="39.2689746" lon="9.2875207"><ele>96.8</ele><time>2026-04-18T08:02:08.35Z</time></trkpt><trkpt lat="39.2689939" lon="9.2876121"><ele>97.6</ele><time>2026-04-18T08:02:17.359Z</time></trkpt><trkpt lat="39.2690292" lon="9.2877767"><ele>98.4</ele><time>2026-04-18T08:02:19.362Z</time></trkpt><trkpt lat="39.2690514" lon="9.2878924"><ele>99.2</ele><time>2026-04-18T08:02:20.371Z</time></trkpt><trkpt lat="39.269082" lon="9.2880203"><ele>100.0</ele><time>2026-04-18T08:02:21.36Z</time></trkpt><trkpt lat="39.2691215" lon="9.2881561"><ele>100.75</ele><time>2026-04-18T08:02:22.358Z</time></trkpt><trkpt lat="39.2691616" lon="9.2883005"><ele>101.5</ele><time>2026-04-18T08:02:23.359Z</time></trkpt><trkpt lat="39.2691996" lon="9.2884503"><ele>102.25</ele><time>2026-04-18T08:02:24.341Z</time></trkpt><trkpt lat="39.269235" lon="9.288601"><ele>103.0</ele><time>2026-04-18T08:02:25.344Z</time></trkpt><trkpt lat="39.269265" lon="9.2887372"><ele>103.0</ele><time>2026-04-18T08:02:26.364Z</time></trkpt><trkpt lat="39.2692835" lon="9.288851"><ele>103.0</ele><time>2026-04-18T08:02:27.369Z</time></trkpt><trkpt lat="39.2692988" lon="9.2889441"><ele>103.0</ele><time>2026-04-18T08:02:28.353Z</time></trkpt><trkpt lat="39.2693399" lon="9.2890834"><ele>103.0</ele><time>2026-04-18T08:02:30.363Z</time></trkpt><trkpt lat="39.269366" lon="9.2892398"><ele>103.0</ele><time>2026-04-18T08:02:32.358Z</time></trkpt><trkpt lat="39.269363" lon="9.2893407"><ele>103.80000000000001</ele><time>2026-04-18T08:02:33.362Z</time></trkpt><trkpt lat="39.2693566" lon="9.2894509"><ele>104.6</ele><time>2026-04-18T08:02:34.347Z</time></trkpt><trkpt lat="39.2693529" lon="9.2895756"><ele>105.39999999999999</ele><time>2026-04-18T08:02:35.357Z</time></trkpt><trkpt lat="39.2693477" lon="9.2896974"><ele>106.19999999999999</ele><time>2026-04-18T08:02:36.37Z</time></trkpt><trkpt lat="39.2693337" lon="9.2898094"><ele>107.0</ele><time>2026-04-18T08:02:37.35Z</time></trkpt><trkpt lat="39.2693152" lon="9.2899185"><ele>107.49999999999999</ele><time>2026-04-18T08:02:38.378Z</time></trkpt><trkpt lat="39.2693029" lon="9.2900335"><ele>108.0</ele><time>2026-04-18T08:02:39.352Z</time></trkpt><trkpt lat="39.2693062" lon="9.2901338"><ele>108.5</ele><time>2026-04-18T08:02:40.349Z</time></trkpt><trkpt lat="39.2693382" lon="9.2902654"><ele>109.0</ele><time>2026-04-18T08:02:42.372Z</time></trkpt><trkpt lat="39.2693392" lon="9.2903765"><ele>109.49999999999999</ele><time>2026-04-18T08:02:44.348Z</time></trkpt><trkpt lat="39.2692958" lon="9.2904646"><ele>110.0</ele><time>2026-04-18T08:02:46.369Z</time></trkpt><trkpt lat="39.2692634" lon="9.2905528"><ele>109.4</ele><time>2026-04-18T08:02:48.35Z</time></trkpt><trkpt lat="39.269253" lon="9.2906927"><ele>108.8</ele><time>2026-04-18T08:02:50.36Z</time></trkpt><trkpt lat="39.269276" lon="9.2907946"><ele>108.19999999999999</ele><time>2026-04-18T08:02:51.364Z</time></trkpt><trkpt lat="39.269299" lon="9.2909026"><ele>107.6</ele><time>2026-04-18T08:02:52.342Z</time></trkpt><trkpt lat="39.2693216" lon="9.2910086"><ele>107.0</ele><time>2026-04-18T08:02:53.349Z</time></trkpt><trkpt lat="39.2693475" lon="9.2911201"><ele>107.0</ele><time>2026-04-18T08:02:54.346Z</time></trkpt><trkpt lat="39.2693766" lon="9.2912331"><ele>106.99999999999999</ele><time>2026-04-18T08:02:55.358Z</time></trkpt><trkpt lat="39.2694037" lon="9.2913476"><ele>106.99999999999999</ele><time>2026-04-18T08:02:56.338Z</time></trkpt><trkpt lat="39.2694323" lon="9.2914738"><ele>107.0</ele><time>2026-04-18T08:02:57.352Z</time></trkpt><trkpt lat="39.2694584" lon="9.291601"><ele>107.0</ele><time>2026-04-18T08:02:58.368Z</time></trkpt><trkpt lat="39.2694879" lon="9.2917302"><ele>105.8</ele><time>2026-04-18T08:02:59.367Z</time></trkpt><trkpt lat="39.2695102" lon="9.2918613"><ele>104.6</ele><time>2026-04-18T08:03:00.362Z</time></trkpt><trkpt lat="39.2695305" lon="9.2919907"><ele>103.39999999999999</ele><time>2026-04-18T08:03:01.354Z</time></trkpt><trkpt lat="39.269556" lon="9.2921175"><ele>102.19999999999999</ele><time>2026-04-18T08:03:02.348Z</time></trkpt><trkpt lat="39.2695926" lon="9.2922482"><ele>101.0</ele><time>2026-04-18T08:03:03.354Z</time></trkpt><trkpt lat="39.2696378" lon="9.2923735"><ele>100.8</ele><time>2026-04-18T08:03:04.359Z</time></trkpt><trkpt lat="39.2696754" lon="9.2925011"><ele>100.6</ele><time>2026-04-18T08:03:05.36Z</time></trkpt><trkpt lat="39.2697" lon="9.2926282"><ele>100.4</ele><time>2026-04-18T08:03:06.357Z</time></trkpt><trkpt lat="39.2697258" lon="9.2927538"><ele>100.2</ele><time>2026-04-18T08:03:07.349Z</time></trkpt><trkpt lat="39.269765" lon="9.2928648"><ele>100.0</ele><time>2026-04-18T08:03:08.36Z</time></trkpt><trkpt lat="39.2698028" lon="9.2929859"><ele>101.8</ele><time>2026-04-18T08:03:09.361Z</time></trkpt><trkpt lat="39.2698407" lon="9.2931059"><ele>103.6</ele><time>2026-04-18T08:03:10.358Z</time></trkpt><trkpt lat="39.2698778" lon="9.2932334"><ele>105.4</ele><time>2026-04-18T08:03:11.355Z</time></trkpt><trkpt lat="39.2698988" lon="9.2933678"><ele>107.2</ele><time>2026-04-18T08:03:12.361Z</time></trkpt><trkpt lat="39.2699174" lon="9.2934856"><ele>109.0</ele><time>2026-04-18T08:03:13.375Z</time></trkpt><trkpt lat="39.2699358" lon="9.293598"><ele>109.00000000000001</ele><time>2026-04-18T08:03:14.37Z</time></trkpt><trkpt lat="39.2699621" lon="9.2937005"><ele>109.0</ele><time>2026-04-18T08:03:15.349Z</time></trkpt><trkpt lat="39.270012" lon="9.2937934"><ele>109.0</ele><time>2026-04-18T08:03:16.359Z</time></trkpt><trkpt lat="39.2700747" lon="9.2938691"><ele>109.0</ele><time>2026-04-18T08:03:17.37Z</time></trkpt><trkpt lat="39.2701393" lon="9.2939315"><ele>109.00000000000001</ele><time>2026-04-18T08:03:18.362Z</time></trkpt><trkpt lat="39.270196" lon="9.2939857"><ele>109.0</ele><time>2026-04-18T08:03:19.374Z</time></trkpt><trkpt lat="39.2702311" lon="9.2940554"><ele>110.83333333333334</ele><time>2026-04-18T08:03:20.371Z</time></trkpt><trkpt lat="39.2702584" lon="9.2941529"><ele>112.66666666666667</ele><time>2026-04-18T08:03:21.356Z</time></trkpt><trkpt lat="39.2702866" lon="9.2942579"><ele>114.5</ele><time>2026-04-18T08:03:22.368Z</time></trkpt><trkpt lat="39.2703085" lon="9.2943708"><ele>116.33333333333334</ele><time>2026-04-18T08:03:23.362Z</time></trkpt><trkpt lat="39.2703336" lon="9.2944895"><ele>118.16666666666667</ele><time>2026-04-18T08:03:24.363Z</time></trkpt><trkpt lat="39.270361" lon="9.2946081"><ele>120.0</ele><time>2026-04-18T08:03:25.347Z</time></trkpt><trkpt lat="39.2704042" lon="9.2946989"><ele>121.4</ele><time>2026-04-18T08:03:26.364Z</time></trkpt><trkpt lat="39.2704316" lon="9.2947724"><ele>122.8</ele><time>2026-04-18T08:03:27.35Z</time></trkpt><trkpt lat="39.2705495" lon="9.2948142"><ele>124.19999999999999</ele><time>2026-04-18T08:03:29.382Z</time></trkpt><trkpt lat="39.2706142" lon="9.2948716"><ele>125.6</ele><time>2026-04-18T08:03:30.374Z</time></trkpt><trkpt lat="39.2706892" lon="9.2949684"><ele>127.0</ele><time>2026-04-18T08:03:31.356Z</time></trkpt><trkpt lat="39.270781" lon="9.295084"><ele>127.16666666666667</ele><time>2026-04-18T08:03:32.352Z</time></trkpt><trkpt lat="39.2708638" lon="9.2951879"><ele>127.33333333333334</ele><time>2026-04-18T08:03:33.354Z</time></trkpt><trkpt lat="39.2709257" lon="9.2952801"><ele>127.5</ele><time>2026-04-18T08:03:34.344Z</time></trkpt><trkpt lat="39.2709768" lon="9.2953758"><ele>127.66666666666666</ele><time>2026-04-18T08:03:35.353Z</time></trkpt><trkpt lat="39.2710192" lon="9.2954661"><ele>127.83333333333333</ele><time>2026-04-18T08:03:36.354Z</time></trkpt><trkpt lat="39.2710405" lon="9.2955435"><ele>128.0</ele><time>2026-04-18T08:03:37.352Z</time></trkpt><trkpt lat="39.2710656" lon="9.2956567"><ele>128.66666666666666</ele><time>2026-04-18T08:03:39.361Z</time></trkpt><trkpt lat="39.2710935" lon="9.2957533"><ele>129.33333333333331</ele><time>2026-04-18T08:03:41.358Z</time></trkpt><trkpt lat="39.2711861" lon="9.2958677"><ele>130.0</ele><time>2026-04-18T08:03:43.346Z</time></trkpt><trkpt lat="39.2712244" lon="9.2959445"><ele>130.66666666666666</ele><time>2026-04-18T08:03:44.364Z</time></trkpt><trkpt lat="39.2712617" lon="9.2960217"><ele>131.33333333333334</ele><time>2026-04-18T08:03:45.356Z</time></trkpt><trkpt lat="39.2713058" lon="9.2960943"><ele>132.0</ele><time>2026-04-18T08:03:46.366Z</time></trkpt><trkpt lat="39.2713717" lon="9.2961591"><ele>132.0</ele><time>2026-04-18T08:03:47.362Z</time></trkpt><trkpt lat="39.2714337" lon="9.2962271"><ele>132.0</ele><time>2026-04-18T08:03:48.366Z</time></trkpt><trkpt lat="39.2714863" lon="9.2963125"><ele>132.0</ele><time>2026-04-18T08:03:49.357Z</time></trkpt><trkpt lat="39.271518" lon="9.2964089"><ele>132.0</ele><time>2026-04-18T08:03:50.357Z</time></trkpt><trkpt lat="39.2715385" lon="9.2964886"><ele>132.0</ele><time>2026-04-18T08:03:51.356Z</time></trkpt><trkpt lat="39.2716384" lon="9.2965882"><ele>132.0</ele><time>2026-04-18T08:03:53.364Z</time></trkpt><trkpt lat="39.2716711" lon="9.2966643"><ele>132.5</ele><time>2026-04-18T08:03:54.377Z</time></trkpt><trkpt lat="39.2717009" lon="9.2967363"><ele>133.0</ele><time>2026-04-18T08:03:55.35Z</time></trkpt><trkpt lat="39.2717896" lon="9.2967899"><ele>133.5</ele><time>2026-04-18T08:03:57.359Z</time></trkpt><trkpt lat="39.2718496" lon="9.2968162"><ele>134.0</ele><time>2026-04-18T08:03:58.356Z</time></trkpt><trkpt lat="39.2719071" lon="9.2968654"><ele>134.5</ele><time>2026-04-18T08:03:59.364Z</time></trkpt><trkpt lat="39.271971" lon="9.2969284"><ele>135.0</ele><time>2026-04-18T08:04:00.35Z</time></trkpt><trkpt lat="39.2720469" lon="9.2969855"><ele>135.0</ele><time>2026-04-18T08:04:01.356Z</time></trkpt><trkpt lat="39.2721277" lon="9.2970314"><ele>135.0</ele><time>2026-04-18T08:04:02.365Z</time></trkpt><trkpt lat="39.2722097" lon="9.297076"><ele>135.0</ele><time>2026-04-18T08:04:03.346Z</time></trkpt><trkpt lat="39.2722902" lon="9.2971259"><ele>135.0</ele><time>2026-04-18T08:04:04.348Z</time></trkpt><trkpt lat="39.2723654" lon="9.2971671"><ele>135.0</ele><time>2026-04-18T08:04:05.367Z</time></trkpt><trkpt lat="39.2724446" lon="9.2972087"><ele>135.0</ele><time>2026-04-18T08:04:06.349Z</time></trkpt><trkpt lat="39.2725131" lon="9.2972617"><ele>135.5</ele><time>2026-04-18T08:04:07.354Z</time></trkpt><trkpt lat="39.2725782" lon="9.2973099"><ele>136.0</ele><time>2026-04-18T08:04:08.367Z</time></trkpt><trkpt lat="39.2726404" lon="9.2973445"><ele>136.5</ele><time>2026-04-18T08:04:09.358Z</time></trkpt><trkpt lat="39.2727204" lon="9.2973108"><ele>137.0</ele><time>2026-04-18T08:04:10.365Z</time></trkpt><trkpt lat="39.272799" lon="9.2972589"><ele>137.5</ele><time>2026-04-18T08:04:11.363Z</time></trkpt><trkpt lat="39.2728707" lon="9.2971894"><ele>138.0</ele><time>2026-04-18T08:04:12.369Z</time></trkpt><trkpt lat="39.2729388" lon="9.2971103"><ele>138.0</ele><time>2026-04-18T08:04:13.346Z</time></trkpt><trkpt lat="39.2730087" lon="9.2970284"><ele>138.0</ele><time>2026-04-18T08:04:14.345Z</time></trkpt><trkpt lat="39.2730731" lon="9.2969539"><ele>138.0</ele><time>2026-04-18T08:04:15.362Z</time></trkpt><trkpt lat="39.2731297" lon="9.2968798"><ele>138.0</ele><time>2026-04-18T08:04:16.356Z</time></trkpt><trkpt lat="39.2731881" lon="9.2968026"><ele>138.0</ele><time>2026-04-18T08:04:17.357Z</time></trkpt><trkpt lat="39.2732483" lon="9.2967235"><ele>138.0</ele><time>2026-04-18T08:04:18.342Z</time></trkpt><trkpt lat="39.2733309" lon="9.2966768"><ele>137.4</ele><time>2026-04-18T08:04:19.344Z</time></trkpt><trkpt lat="39.2734187" lon="9.2966344"><ele>136.8</ele><time>2026-04-18T08:04:20.354Z</time></trkpt><trkpt lat="39.2735308" lon="9.2966396"><ele>136.2</ele><time>2026-04-18T08:04:21.361Z</time></trkpt><trkpt lat="39.2736433" lon="9.296658"><ele>135.6</ele><time>2026-04-18T08:04:22.348Z</time></trkpt><trkpt lat="39.2737565" lon="9.2966786"><ele>135.0</ele><time>2026-04-18T08:04:23.357Z</time></trkpt><trkpt lat="39.2738683" lon="9.2966957"><ele>134.2</ele><time>2026-04-18T08:04:24.377Z</time></trkpt><trkpt lat="39.2739856" lon="9.2967074"><ele>133.4</ele><time>2026-04-18T08:04:25.367Z</time></trkpt><trkpt lat="39.2740927" lon="9.2967146"><ele>132.6</ele><time>2026-04-18T08:04:26.365Z</time></trkpt><trkpt lat="39.2741875" lon="9.2967305"><ele>131.8</ele><time>2026-04-18T08:04:27.35Z</time></trkpt><trkpt lat="39.2742838" lon="9.2967753"><ele>131.0</ele><time>2026-04-18T08:04:28.353Z</time></trkpt><trkpt lat="39.2743864" lon="9.2968441"><ele>131.0</ele><time>2026-04-18T08:04:29.361Z</time></trkpt><trkpt lat="39.2744906" lon="9.2969346"><ele>131.0</ele><time>2026-04-18T08:04:30.37Z</time></trkpt><trkpt lat="39.2745953" lon="9.297029"><ele>131.0</ele><time>2026-04-18T08:04:31.354Z</time></trkpt><trkpt lat="39.2747019" lon="9.2971324"><ele>131.0</ele><time>2026-04-18T08:04:32.364Z</time></trkpt><trkpt lat="39.2748057" lon="9.2972343"><ele>132.75</ele><time>2026-04-18T08:04:33.344Z</time></trkpt><trkpt lat="39.2749238" lon="9.2973177"><ele>134.5</ele><time>2026-04-18T08:04:34.35Z</time></trkpt><trkpt lat="39.2750446" lon="9.2974053"><ele>136.25</ele><time>2026-04-18T08:04:35.361Z</time></trkpt><trkpt lat="39.2751567" lon="9.2974887"><ele>138.0</ele><time>2026-04-18T08:04:36.352Z</time></trkpt><trkpt lat="39.2752237" lon="9.297554"><ele>138.0</ele><time>2026-04-18T08:04:37.354Z</time></trkpt><trkpt lat="39.2752846" lon="9.2976246"><ele>138.0</ele><time>2026-04-18T08:04:38.358Z</time></trkpt><trkpt lat="39.275333" lon="9.2976895"><ele>138.0</ele><time>2026-04-18T08:04:39.36Z</time></trkpt><trkpt lat="39.2754037" lon="9.297802"><ele>138.0</ele><time>2026-04-18T08:04:41.36Z</time></trkpt><trkpt lat="39.2754572" lon="9.2978778"><ele>138.0</ele><time>2026-04-18T08:04:43.384Z</time></trkpt><trkpt lat="39.2754999" lon="9.2979489"><ele>138.0</ele><time>2026-04-18T08:04:47.367Z</time></trkpt><trkpt lat="39.2755728" lon="9.2979936"><ele>138.33333333333334</ele><time>2026-04-18T08:05:30.36Z</time></trkpt><trkpt lat="39.2756238" lon="9.2980571"><ele>138.66666666666666</ele><time>2026-04-18T08:05:32.345Z</time></trkpt><trkpt lat="39.2756736" lon="9.2981575"><ele>139.0</ele><time>2026-04-18T08:05:34.358Z</time></trkpt><trkpt lat="39.2756185" lon="9.298258"><ele>139.33333333333331</ele><time>2026-04-18T08:05:36.367Z</time></trkpt><trkpt lat="39.2756146" lon="9.2983437"><ele>139.66666666666666</ele><time>2026-04-18T08:05:38.363Z</time></trkpt><trkpt lat="39.2756922" lon="9.2983933"><ele>140.0</ele><time>2026-04-18T08:05:40.357Z</time></trkpt><trkpt lat="39.2757324" lon="9.2984801"><ele>140.0</ele><time>2026-04-18T08:05:41.343Z</time></trkpt><trkpt lat="39.2757857" lon="9.2985934"><ele>140.0</ele><time>2026-04-18T08:05:42.359Z</time></trkpt><trkpt lat="39.2758468" lon="9.2987116"><ele>140.0</ele><time>2026-04-18T08:05:43.368Z</time></trkpt><trkpt lat="39.2758993" lon="9.2988124"><ele>140.0</ele><time>2026-04-18T08:05:44.359Z</time></trkpt><trkpt lat="39.2759424" lon="9.2989019"><ele>140.0</ele><time>2026-04-18T08:05:45.351Z</time></trkpt><trkpt lat="39.2759885" lon="9.2989594"><ele>141.2</ele><time>2026-04-18T08:05:46.359Z</time></trkpt><trkpt lat="39.2760913" lon="9.2989999"><ele>142.4</ele><time>2026-04-18T08:05:48.364Z</time></trkpt><trkpt lat="39.2761648" lon="9.2989941"><ele>143.6</ele><time>2026-04-18T08:05:49.345Z</time></trkpt><trkpt lat="39.2762319" lon="9.2990898"><ele>144.8</ele><time>2026-04-18T08:05:51.37Z</time></trkpt><trkpt lat="39.2762761" lon="9.2992154"><ele>146.0</ele><time>2026-04-18T08:05:53.35Z</time></trkpt><trkpt lat="39.2763408" lon="9.2993429"><ele>146.0</ele><time>2026-04-18T08:05:55.36Z</time></trkpt><trkpt lat="39.2763787" lon="9.2994199"><ele>146.0</ele><time>2026-04-18T08:05:56.36Z</time></trkpt><trkpt lat="39.2764225" lon="9.2995008"><ele>146.0</ele><time>2026-04-18T08:05:57.35Z</time></trkpt><trkpt lat="39.276468" lon="9.2995839"><ele>146.0</ele><time>2026-04-18T08:05:58.355Z</time></trkpt><trkpt lat="39.2765176" lon="9.2996693"><ele>146.0</ele><time>2026-04-18T08:05:59.357Z</time></trkpt><trkpt lat="39.2765715" lon="9.2997544"><ele>146.0</ele><time>2026-04-18T08:06:00.361Z</time></trkpt><trkpt lat="39.276618" lon="9.2998319"><ele>144.42857142857142</ele><time>2026-04-18T08:06:01.361Z</time></trkpt><trkpt lat="39.2766454" lon="9.2999063"><ele>142.85714285714286</ele><time>2026-04-18T08:06:02.37Z</time></trkpt><trkpt lat="39.2766686" lon="9.2999846"><ele>141.28571428571428</ele><time>2026-04-18T08:06:03.348Z</time></trkpt><trkpt lat="39.2766928" lon="9.300072"><ele>139.71428571428572</ele><time>2026-04-18T08:06:04.368Z</time></trkpt><trkpt lat="39.2767062" lon="9.3001614"><ele>138.14285714285714</ele><time>2026-04-18T08:06:05.36Z</time></trkpt><trkpt lat="39.2767139" lon="9.3002552"><ele>136.57142857142856</ele><time>2026-04-18T08:06:06.369Z</time></trkpt><trkpt lat="39.276727" lon="9.3003452"><ele>135.0</ele><time>2026-04-18T08:06:07.363Z</time></trkpt><trkpt lat="39.2767569" lon="9.3004771"><ele>135.0</ele><time>2026-04-18T08:06:09.359Z</time></trkpt><trkpt lat="39.2767939" lon="9.3005753"><ele>135.0</ele><time>2026-04-18T08:06:11.356Z</time></trkpt><trkpt lat="39.2768314" lon="9.3006626"><ele>135.0</ele><time>2026-04-18T08:06:13.365Z</time></trkpt><trkpt lat="39.2768481" lon="9.3007596"><ele>135.0</ele><time>2026-04-18T08:06:15.347Z</time></trkpt><trkpt lat="39.2768677" lon="9.3008826"><ele>135.0</ele><time>2026-04-18T08:06:17.349Z</time></trkpt><trkpt lat="39.2768654" lon="9.300997"><ele>135.0</ele><time>2026-04-18T08:06:19.342Z</time></trkpt><trkpt lat="39.2768849" lon="9.3011389"><ele>133.66666666666666</ele><time>2026-04-18T08:06:21.361Z</time></trkpt><trkpt lat="39.2769108" lon="9.3012644"><ele>132.33333333333334</ele><time>2026-04-18T08:06:23.366Z</time></trkpt><trkpt lat="39.2769229" lon="9.3013737"><ele>131.0</ele><time>2026-04-18T08:06:25.35Z</time></trkpt><trkpt lat="39.2769341" lon="9.3014778"><ele>129.66666666666669</ele><time>2026-04-18T08:06:28.354Z</time></trkpt><trkpt lat="39.276923" lon="9.3015816"><ele>128.33333333333334</ele><time>2026-04-18T08:06:30.34Z</time></trkpt><trkpt lat="39.2768666" lon="9.3016861"><ele>127.0</ele><time>2026-04-18T08:06:32.356Z</time></trkpt><trkpt lat="39.2768096" lon="9.301807"><ele>126.83333333333334</ele><time>2026-04-18T08:06:34.365Z</time></trkpt><trkpt lat="39.2767423" lon="9.3019133"><ele>126.66666666666667</ele><time>2026-04-18T08:06:36.358Z</time></trkpt><trkpt lat="39.2766562" lon="9.3020085"><ele>126.5</ele><time>2026-04-18T08:06:38.358Z</time></trkpt><trkpt lat="39.2766121" lon="9.3020689"><ele>126.33333333333334</ele><time>2026-04-18T08:06:39.353Z</time></trkpt><trkpt lat="39.276553" lon="9.3021761"><ele>126.16666666666667</ele><time>2026-04-18T08:06:41.364Z</time></trkpt><trkpt lat="39.2765823" lon="9.3022481"><ele>126.0</ele><time>2026-04-18T08:06:44.359Z</time></trkpt><trkpt lat="39.2765267" lon="9.302335"><ele>125.71428571428572</ele><time>2026-04-18T08:06:47.343Z</time></trkpt><trkpt lat="39.2764861" lon="9.3024216"><ele>125.42857142857143</ele><time>2026-04-18T08:06:49.356Z</time></trkpt><trkpt lat="39.2764385" lon="9.3024894"><ele>125.14285714285714</ele><time>2026-04-18T08:06:51.357Z</time></trkpt><trkpt lat="39.276375" lon="9.3025486"><ele>124.85714285714286</ele><time>2026-04-18T08:06:54.364Z</time></trkpt><trkpt lat="39.2763282" lon="9.3026062"><ele>124.57142857142858</ele><time>2026-04-18T08:06:57.361Z</time></trkpt><trkpt lat="39.2762791" lon="9.3026787"><ele>124.28571428571429</ele><time>2026-04-18T08:07:02.366Z</time></trkpt><trkpt lat="39.2762343" lon="9.3027399"><ele>124.0</ele><time>2026-04-18T08:07:06.348Z</time></trkpt><trkpt lat="39.2761836" lon="9.3028065"><ele>122.42857142857143</ele><time>2026-04-18T08:07:11.361Z</time></trkpt><trkpt lat="39.2761332" lon="9.3028681"><ele>120.85714285714286</ele><time>2026-04-18T08:07:15.354Z</time></trkpt><trkpt lat="39.2760714" lon="9.3029102"><ele>119.28571428571429</ele><time>2026-04-18T08:07:20.344Z</time></trkpt><trkpt lat="39.276024" lon="9.3029677"><ele>117.71428571428572</ele><time>2026-04-18T08:07:24.355Z</time></trkpt><trkpt lat="39.2759675" lon="9.3030235"><ele>116.14285714285714</ele><time>2026-04-18T08:07:27.353Z</time></trkpt><trkpt lat="39.2759117" lon="9.303077"><ele>114.57142857142858</ele><time>2026-04-18T08:07:34.341Z</time></trkpt><trkpt lat="39.275859" lon="9.3031409"><ele>113.0</ele><time>2026-04-18T08:07:44.352Z</time></trkpt><trkpt lat="39.2757988" lon="9.3031997"><ele>111.49999999999999</ele><time>2026-04-18T08:07:52.37Z</time></trkpt><trkpt lat="39.2757413" lon="9.3032572"><ele>110.0</ele><time>2026-04-18T08:07:57.357Z</time></trkpt><trkpt lat="39.2756797" lon="9.3032992"><ele>108.5</ele><time>2026-04-18T08:08:02.363Z</time></trkpt><trkpt lat="39.2756158" lon="9.3033407"><ele>107.0</ele><time>2026-04-18T08:08:08.356Z</time></trkpt><trkpt lat="39.2755597" lon="9.3034057"><ele>105.49999999999999</ele><time>2026-04-18T08:08:14.36Z</time></trkpt><trkpt lat="39.2755188" lon="9.303489"><ele>104.0</ele><time>2026-04-18T08:08:17.344Z</time></trkpt><trkpt lat="39.2754786" lon="9.3035923"><ele>102.71428571428571</ele><time>2026-04-18T08:08:22.343Z</time></trkpt><trkpt lat="39.2754344" lon="9.3036534"><ele>101.42857142857143</ele><time>2026-04-18T08:08:24.353Z</time></trkpt><trkpt lat="39.2753904" lon="9.3037346"><ele>100.14285714285714</ele><time>2026-04-18T08:08:27.339Z</time></trkpt><trkpt lat="39.2753608" lon="9.3038068"><ele>98.85714285714286</ele><time>2026-04-18T08:08:41.352Z</time></trkpt><trkpt lat="39.2753465" lon="9.3038925"><ele>97.57142857142858</ele><time>2026-04-18T08:08:45.354Z</time></trkpt><trkpt lat="39.2753391" lon="9.3039796"><ele>96.28571428571429</ele><time>2026-04-18T08:08:48.373Z</time></trkpt><trkpt lat="39.2753291" lon="9.3040855"><ele>95.0</ele><time>2026-04-18T08:08:52.358Z</time></trkpt><trkpt lat="39.2753355" lon="9.3042116"><ele>93.66666666666667</ele><time>2026-04-18T08:08:55.35Z</time></trkpt><trkpt lat="39.275322" lon="9.3043215"><ele>92.33333333333334</ele><time>2026-04-18T08:08:57.346Z</time></trkpt><trkpt lat="39.2752926" lon="9.3044152"><ele>91.0</ele><time>2026-04-18T08:08:59.362Z</time></trkpt><trkpt lat="39.2752443" lon="9.3044692"><ele>89.66666666666667</ele><time>2026-04-18T08:09:01.359Z</time></trkpt><trkpt lat="39.275161" lon="9.3044446"><ele>88.33333333333333</ele><time>2026-04-18T08:09:05.356Z</time></trkpt><trkpt lat="39.2750351" lon="9.3045053"><ele>87.0</ele><time>2026-04-18T08:09:08.364Z</time></trkpt><trkpt lat="39.2749484" lon="9.304569"><ele>87.0</ele><time>2026-04-18T08:09:09.358Z</time></trkpt><trkpt lat="39.2748627" lon="9.3046522"><ele>87.0</ele><time>2026-04-18T08:09:10.371Z</time></trkpt><trkpt lat="39.2747834" lon="9.3047487"><ele>87.0</ele><time>2026-04-18T08:09:11.341Z</time></trkpt><trkpt lat="39.2747093" lon="9.3048464"><ele>87.0</ele><time>2026-04-18T08:09:12.356Z</time></trkpt><trkpt lat="39.2746328" lon="9.3049407"><ele>87.0</ele><time>2026-04-18T08:09:13.368Z</time></trkpt><trkpt lat="39.2745425" lon="9.3049977"><ele>85.8</ele><time>2026-04-18T08:09:14.351Z</time></trkpt><trkpt lat="39.2744408" lon="9.3050346"><ele>84.6</ele><time>2026-04-18T08:09:15.346Z</time></trkpt><trkpt lat="39.2743281" lon="9.305058"><ele>83.39999999999999</ele><time>2026-04-18T08:09:16.352Z</time></trkpt><trkpt lat="39.2742158" lon="9.3050821"><ele>82.19999999999999</ele><time>2026-04-18T08:09:17.355Z</time></trkpt><trkpt lat="39.2741009" lon="9.3050981"><ele>81.0</ele><time>2026-04-18T08:09:18.352Z</time></trkpt><trkpt lat="39.2739848" lon="9.305109"><ele>80.75</ele><time>2026-04-18T08:09:19.352Z</time></trkpt><trkpt lat="39.273862" lon="9.3051095"><ele>80.5</ele><time>2026-04-18T08:09:20.344Z</time></trkpt><trkpt lat="39.2737352" lon="9.305117"><ele>80.25</ele><time>2026-04-18T08:09:21.357Z</time></trkpt><trkpt lat="39.2736035" lon="9.305136"><ele>80.0</ele><time>2026-04-18T08:09:22.344Z</time></trkpt><trkpt lat="39.2734694" lon="9.3051505"><ele>80.0</ele><time>2026-04-18T08:09:23.361Z</time></trkpt><trkpt lat="39.2733335" lon="9.3051553"><ele>80.0</ele><time>2026-04-18T08:09:24.345Z</time></trkpt><trkpt lat="39.2731956" lon="9.3051524"><ele>80.0</ele><time>2026-04-18T08:09:25.349Z</time></trkpt><trkpt lat="39.2730623" lon="9.305154"><ele>80.0</ele><time>2026-04-18T08:09:26.366Z</time></trkpt><trkpt lat="39.2729296" lon="9.3051697"><ele>79.4</ele><time>2026-04-18T08:09:27.36Z</time></trkpt><trkpt lat="39.2728089" lon="9.3051944"><ele>78.8</ele><time>2026-04-18T08:09:28.354Z</time></trkpt><trkpt lat="39.2726907" lon="9.3052194"><ele>78.2</ele><time>2026-04-18T08:09:29.347Z</time></trkpt><trkpt lat="39.2726053" lon="9.3052501"><ele>77.6</ele><time>2026-04-18T08:09:30.346Z</time></trkpt><trkpt lat="39.2725417" lon="9.3052806"><ele>77.0</ele><time>2026-04-18T08:09:31.358Z</time></trkpt><trkpt lat="39.2724477" lon="9.305381"><ele>77.0</ele><time>2026-04-18T08:09:33.347Z</time></trkpt><trkpt lat="39.2723846" lon="9.305458"><ele>77.0</ele><time>2026-04-18T08:09:34.35Z</time></trkpt><trkpt lat="39.272322" lon="9.3055345"><ele>77.0</ele><time>2026-04-18T08:09:35.36Z</time></trkpt><trkpt lat="39.2722765" lon="9.3055953"><ele>77.0</ele><time>2026-04-18T08:09:36.353Z</time></trkpt><trkpt lat="39.2723044" lon="9.3056785"><ele>77.0</ele><time>2026-04-18T08:09:40.34Z</time></trkpt><trkpt lat="39.2723219" lon="9.3057763"><ele>77.0</ele><time>2026-04-18T08:10:00.349Z</time></trkpt><trkpt lat="39.2722921" lon="9.3059045"><ele>77.16666666666667</ele><time>2026-04-18T08:10:02.373Z</time></trkpt><trkpt lat="39.2722718" lon="9.3059951"><ele>77.33333333333334</ele><time>2026-04-18T08:10:03.356Z</time></trkpt><trkpt lat="39.2722655" lon="9.3060991"><ele>77.5</ele><time>2026-04-18T08:10:04.349Z</time></trkpt><trkpt lat="39.2722782" lon="9.3062119"><ele>77.66666666666667</ele><time>2026-04-18T08:10:05.352Z</time></trkpt><trkpt lat="39.2723084" lon="9.3063253"><ele>77.83333333333333</ele><time>2026-04-18T08:10:06.357Z</time></trkpt><trkpt lat="39.2723417" lon="9.3064403"><ele>78.0</ele><time>2026-04-18T08:10:07.356Z</time></trkpt><trkpt lat="39.2724118" lon="9.3065285"><ele>78.0</ele><time>2026-04-18T08:10:08.359Z</time></trkpt><trkpt lat="39.2724959" lon="9.3065881"><ele>78.0</ele><time>2026-04-18T08:10:09.356Z</time></trkpt><trkpt lat="39.2725854" lon="9.3066297"><ele>78.0</ele><time>2026-04-18T08:10:10.372Z</time></trkpt><trkpt lat="39.2726622" lon="9.3066741"><ele>78.0</ele><time>2026-04-18T08:10:11.356Z</time></trkpt><trkpt lat="39.2727291" lon="9.3067344"><ele>78.0</ele><time>2026-04-18T08:10:12.349Z</time></trkpt><trkpt lat="39.272785" lon="9.3068024"><ele>78.0</ele><time>2026-04-18T08:10:13.359Z</time></trkpt><trkpt lat="39.2728404" lon="9.3068597"><ele>78.0</ele><time>2026-04-18T08:10:14.346Z</time></trkpt><trkpt lat="39.2728975" lon="9.3069134"><ele>78.0</ele><time>2026-04-18T08:10:15.343Z</time></trkpt><trkpt lat="39.2729614" lon="9.3069689"><ele>78.0</ele><time>2026-04-18T08:10:16.343Z</time></trkpt><trkpt lat="39.2730282" lon="9.3070325"><ele>78.0</ele><time>2026-04-18T08:10:17.358Z</time></trkpt><trkpt lat="39.2730891" lon="9.3071055"><ele>78.0</ele><time>2026-04-18T08:10:18.356Z</time></trkpt><trkpt lat="39.273139" lon="9.3071797"><ele>78.0</ele><time>2026-04-18T08:10:19.354Z</time></trkpt><trkpt lat="39.2731783" lon="9.3072496"><ele>78.4</ele><time>2026-04-18T08:10:20.352Z</time></trkpt><trkpt lat="39.2732219" lon="9.3073429"><ele>78.8</ele><time>2026-04-18T08:10:22.379Z</time></trkpt><trkpt lat="39.2732381" lon="9.3074572"><ele>79.2</ele><time>2026-04-18T08:10:25.355Z</time></trkpt><trkpt lat="39.2733036" lon="9.3075842"><ele>79.6</ele><time>2026-04-18T08:10:27.357Z</time></trkpt><trkpt lat="39.2733676" lon="9.3076662"><ele>80.0</ele><time>2026-04-18T08:10:28.35Z</time></trkpt><trkpt lat="39.2734497" lon="9.3077505"><ele>80.0</ele><time>2026-04-18T08:10:29.344Z</time></trkpt><trkpt lat="39.2735395" lon="9.3078452"><ele>80.0</ele><time>2026-04-18T08:10:30.347Z</time></trkpt><trkpt lat="39.2736302" lon="9.3079501"><ele>80.0</ele><time>2026-04-18T08:10:31.347Z</time></trkpt><trkpt lat="39.273717" lon="9.3080685"><ele>80.0</ele><time>2026-04-18T08:10:32.353Z</time></trkpt><trkpt lat="39.2737925" lon="9.3081987"><ele>81.0</ele><time>2026-04-18T08:10:33.344Z</time></trkpt><trkpt lat="39.2738576" lon="9.3083417"><ele>82.0</ele><time>2026-04-18T08:10:34.346Z</time></trkpt><trkpt lat="39.2739172" lon="9.3084952"><ele>83.0</ele><time>2026-04-18T08:10:35.359Z</time></trkpt><trkpt lat="39.2739748" lon="9.3086504"><ele>84.0</ele><time>2026-04-18T08:10:36.359Z</time></trkpt><trkpt lat="39.2740336" lon="9.3088089"><ele>82.5</ele><time>2026-04-18T08:10:37.363Z</time></trkpt><trkpt lat="39.2740927" lon="9.3089705"><ele>81.0</ele><time>2026-04-18T08:10:38.347Z</time></trkpt><trkpt lat="39.274147" lon="9.309135"><ele>79.5</ele><time>2026-04-18T08:10:39.365Z</time></trkpt><trkpt lat="39.2741962" lon="9.3093039"><ele>78.0</ele><time>2026-04-18T08:10:40.352Z</time></trkpt><trkpt lat="39.2742429" lon="9.3094734"><ele>78.0</ele><time>2026-04-18T08:10:41.343Z</time></trkpt><trkpt lat="39.2742891" lon="9.3096404"><ele>78.0</ele><time>2026-04-18T08:10:42.361Z</time></trkpt><trkpt lat="39.2743351" lon="9.3098034"><ele>78.0</ele><time>2026-04-18T08:10:43.354Z</time></trkpt><trkpt lat="39.2743837" lon="9.309966"><ele>78.0</ele><time>2026-04-18T08:10:44.356Z</time></trkpt><trkpt lat="39.2744443" lon="9.3101218"><ele>78.0</ele><time>2026-04-18T08:10:45.357Z</time></trkpt><trkpt lat="39.2745215" lon="9.3102656"><ele>78.0</ele><time>2026-04-18T08:10:46.35Z</time></trkpt><trkpt lat="39.2746143" lon="9.3103951"><ele>78.0</ele><time>2026-04-18T08:10:47.355Z</time></trkpt><trkpt lat="39.2747182" lon="9.3105106"><ele>78.0</ele><time>2026-04-18T08:10:48.344Z</time></trkpt><trkpt lat="39.2748215" lon="9.3106241"><ele>78.0</ele><time>2026-04-18T08:10:49.351Z</time></trkpt><trkpt lat="39.274927" lon="9.3107239"><ele>78.0</ele><time>2026-04-18T08:10:50.355Z</time></trkpt><trkpt lat="39.2750278" lon="9.3108218"><ele>78.0</ele><time>2026-04-18T08:10:51.35Z</time></trkpt><trkpt lat="39.275122" lon="9.3109228"><ele>78.0</ele><time>2026-04-18T08:10:52.365Z</time></trkpt><trkpt lat="39.2752021" lon="9.3110385"><ele>78.0</ele><time>2026-04-18T08:10:53.364Z</time></trkpt><trkpt lat="39.2752619" lon="9.3111639"><ele>78.0</ele><time>2026-04-18T08:10:54.341Z</time></trkpt><trkpt lat="39.2752993" lon="9.3112863"><ele>78.0</ele><time>2026-04-18T08:10:55.349Z</time></trkpt><trkpt lat="39.2753299" lon="9.3114031"><ele>78.0</ele><time>2026-04-18T08:10:56.348Z</time></trkpt><trkpt lat="39.2753609" lon="9.311521"><ele>78.0</ele><time>2026-04-18T08:10:57.38Z</time></trkpt><trkpt lat="39.2753939" lon="9.3116427"><ele>78.0</ele><time>2026-04-18T08:10:58.369Z</time></trkpt><trkpt lat="39.2754314" lon="9.3117705"><ele>78.0</ele><time>2026-04-18T08:10:59.353Z</time></trkpt><trkpt lat="39.2754718" lon="9.3119085"><ele>78.0</ele><time>2026-04-18T08:11:00.377Z</time></trkpt><trkpt lat="39.275513" lon="9.312048"><ele>78.0</ele><time>2026-04-18T08:11:01.356Z</time></trkpt><trkpt lat="39.275548" lon="9.3122041"><ele>77.75</ele><time>2026-04-18T08:11:02.378Z</time></trkpt><trkpt lat="39.2755825" lon="9.3123625"><ele>77.5</ele><time>2026-04-18T08:11:03.361Z</time></trkpt><trkpt lat="39.2756007" lon="9.3125319"><ele>77.25</ele><time>2026-04-18T08:11:04.363Z</time></trkpt><trkpt lat="39.2756107" lon="9.3127033"><ele>77.0</ele><time>2026-04-18T08:11:05.35Z</time></trkpt><trkpt lat="39.2756182" lon="9.3128772"><ele>77.0</ele><time>2026-04-18T08:11:06.346Z</time></trkpt><trkpt lat="39.2756296" lon="9.3130482"><ele>77.0</ele><time>2026-04-18T08:11:07.353Z</time></trkpt><trkpt lat="39.2756497" lon="9.3132187"><ele>77.0</ele><time>2026-04-18T08:11:08.35Z</time></trkpt><trkpt lat="39.2756864" lon="9.3133869"><ele>77.0</ele><time>2026-04-18T08:11:09.371Z</time></trkpt><trkpt lat="39.2757375" lon="9.3135509"><ele>77.5</ele><time>2026-04-18T08:11:10.353Z</time></trkpt><trkpt lat="39.2757931" lon="9.3137129"><ele>78.0</ele><time>2026-04-18T08:11:11.364Z</time></trkpt><trkpt lat="39.2758481" lon="9.3138763"><ele>78.5</ele><time>2026-04-18T08:11:12.356Z</time></trkpt><trkpt lat="39.2759029" lon="9.3140416"><ele>79.0</ele><time>2026-04-18T08:11:13.353Z</time></trkpt><trkpt lat="39.275955" lon="9.314207"><ele>79.0</ele><time>2026-04-18T08:11:14.371Z</time></trkpt><trkpt lat="39.2760007" lon="9.3143637"><ele>79.0</ele><time>2026-04-18T08:11:15.353Z</time></trkpt><trkpt lat="39.2760276" lon="9.3145071"><ele>79.0</ele><time>2026-04-18T08:11:16.358Z</time></trkpt><trkpt lat="39.2760279" lon="9.3146492"><ele>79.0</ele><time>2026-04-18T08:11:17.355Z</time></trkpt><trkpt lat="39.2760098" lon="9.3147925"><ele>79.0</ele><time>2026-04-18T08:11:18.351Z</time></trkpt><trkpt lat="39.2759861" lon="9.3149366"><ele>79.0</ele><time>2026-04-18T08:11:19.363Z</time></trkpt><trkpt lat="39.2759669" lon="9.3150827"><ele>79.0</ele><time>2026-04-18T08:11:20.371Z</time></trkpt><trkpt lat="39.2759463" lon="9.3152281"><ele>79.0</ele><time>2026-04-18T08:11:21.356Z</time></trkpt><trkpt lat="39.275922" lon="9.3153748"><ele>79.0</ele><time>2026-04-18T08:11:22.352Z</time></trkpt><trkpt lat="39.2758975" lon="9.3155221"><ele>79.0</ele><time>2026-04-18T08:11:23.363Z</time></trkpt><trkpt lat="39.2758719" lon="9.3156684"><ele>79.0</ele><time>2026-04-18T08:11:24.373Z</time></trkpt><trkpt lat="39.2758471" lon="9.3158091"><ele>79.0</ele><time>2026-04-18T08:11:25.348Z</time></trkpt><trkpt lat="39.2758053" lon="9.3159292"><ele>79.0</ele><time>2026-04-18T08:11:26.358Z</time></trkpt><trkpt lat="39.2757505" lon="9.3160216"><ele>79.16666666666666</ele><time>2026-04-18T08:11:27.353Z</time></trkpt><trkpt lat="39.2756776" lon="9.3160953"><ele>79.33333333333333</ele><time>2026-04-18T08:11:28.351Z</time></trkpt><trkpt lat="39.2756029" lon="9.3161579"><ele>79.5</ele><time>2026-04-18T08:11:29.354Z</time></trkpt><trkpt lat="39.2755369" lon="9.3162247"><ele>79.66666666666667</ele><time>2026-04-18T08:11:30.361Z</time></trkpt><trkpt lat="39.2754762" lon="9.3162983"><ele>79.83333333333334</ele><time>2026-04-18T08:11:31.357Z</time></trkpt><trkpt lat="39.2754146" lon="9.3163732"><ele>80.0</ele><time>2026-04-18T08:11:32.356Z</time></trkpt><trkpt lat="39.2753553" lon="9.3164394"><ele>80.8</ele><time>2026-04-18T08:11:33.347Z</time></trkpt><trkpt lat="39.2752735" lon="9.3165164"><ele>81.6</ele><time>2026-04-18T08:11:35.369Z</time></trkpt><trkpt lat="39.2752437" lon="9.3166099"><ele>82.4</ele><time>2026-04-18T08:11:38.363Z</time></trkpt><trkpt lat="39.2752882" lon="9.316778"><ele>83.2</ele><time>2026-04-18T08:11:40.356Z</time></trkpt><trkpt lat="39.2753318" lon="9.3169001"><ele>84.0</ele><time>2026-04-18T08:11:41.357Z</time></trkpt><trkpt lat="39.2753893" lon="9.3170415"><ele>84.0</ele><time>2026-04-18T08:11:42.367Z</time></trkpt><trkpt lat="39.2754503" lon="9.3171869"><ele>84.0</ele><time>2026-04-18T08:11:43.355Z</time></trkpt><trkpt lat="39.2755251" lon="9.3173532"><ele>84.0</ele><time>2026-04-18T08:11:44.345Z</time></trkpt><trkpt lat="39.2756049" lon="9.3175299"><ele>84.0</ele><time>2026-04-18T08:11:45.348Z</time></trkpt><trkpt lat="39.2756878" lon="9.3177108"><ele>83.66666666666667</ele><time>2026-04-18T08:11:46.342Z</time></trkpt><trkpt lat="39.2757788" lon="9.3178941"><ele>83.33333333333334</ele><time>2026-04-18T08:11:47.37Z</time></trkpt><trkpt lat="39.275873" lon="9.3180822"><ele>83.0</ele><time>2026-04-18T08:11:48.364Z</time></trkpt><trkpt lat="39.2759682" lon="9.3182748"><ele>84.33333333333334</ele><time>2026-04-18T08:11:49.363Z</time></trkpt><trkpt lat="39.2760658" lon="9.3184728"><ele>85.66666666666667</ele><time>2026-04-18T08:11:50.357Z</time></trkpt><trkpt lat="39.2761625" lon="9.3186703"><ele>87.0</ele><time>2026-04-18T08:11:51.354Z</time></trkpt><trkpt lat="39.2762594" lon="9.3188676"><ele>86.66666666666667</ele><time>2026-04-18T08:11:52.361Z</time></trkpt><trkpt lat="39.2763535" lon="9.3190651"><ele>86.33333333333334</ele><time>2026-04-18T08:11:53.346Z</time></trkpt><trkpt lat="39.2764487" lon="9.3192588"><ele>86.0</ele><time>2026-04-18T08:11:54.351Z</time></trkpt><trkpt lat="39.2765457" lon="9.3194498"><ele>86.66666666666667</ele><time>2026-04-18T08:11:55.359Z</time></trkpt><trkpt lat="39.2766368" lon="9.3196335"><ele>87.33333333333333</ele><time>2026-04-18T08:11:56.348Z</time></trkpt><trkpt lat="39.276724" lon="9.3198169"><ele>88.0</ele><time>2026-04-18T08:11:57.349Z</time></trkpt><trkpt lat="39.2768069" lon="9.3199896"><ele>88.75</ele><time>2026-04-18T08:11:58.351Z</time></trkpt><trkpt lat="39.2768823" lon="9.3201449"><ele>89.5</ele><time>2026-04-18T08:11:59.355Z</time></trkpt><trkpt lat="39.276952" lon="9.3202871"><ele>90.25</ele><time>2026-04-18T08:12:00.357Z</time></trkpt><trkpt lat="39.2770144" lon="9.3204153"><ele>91.0</ele><time>2026-04-18T08:12:01.355Z</time></trkpt><trkpt lat="39.2770734" lon="9.3205325"><ele>90.83333333333333</ele><time>2026-04-18T08:12:02.371Z</time></trkpt><trkpt lat="39.2771265" lon="9.3206396"><ele>90.66666666666666</ele><time>2026-04-18T08:12:03.342Z</time></trkpt><trkpt lat="39.2771767" lon="9.3207418"><ele>90.5</ele><time>2026-04-18T08:12:04.348Z</time></trkpt><trkpt lat="39.2772287" lon="9.3208409"><ele>90.33333333333333</ele><time>2026-04-18T08:12:05.354Z</time></trkpt><trkpt lat="39.2772796" lon="9.3209297"><ele>90.16666666666667</ele><time>2026-04-18T08:12:06.353Z</time></trkpt><trkpt lat="39.2773352" lon="9.3209924"><ele>90.0</ele><time>2026-04-18T08:12:07.348Z</time></trkpt><trkpt lat="39.2773961" lon="9.3210246"><ele>90.0</ele><time>2026-04-18T08:12:08.357Z</time></trkpt><trkpt lat="39.2775069" lon="9.3210529"><ele>90.0</ele><time>2026-04-18T08:12:10.361Z</time></trkpt><trkpt lat="39.2775754" lon="9.3211334"><ele>90.0</ele><time>2026-04-18T08:12:12.353Z</time></trkpt><trkpt lat="39.2775954" lon="9.3212251"><ele>90.0</ele><time>2026-04-18T08:12:14.364Z</time></trkpt><trkpt lat="39.2776646" lon="9.3212828"><ele>90.0</ele><time>2026-04-18T08:13:52.351Z</time></trkpt><trkpt lat="39.2777281" lon="9.3212695"><ele>90.0</ele><time>2026-04-18T08:14:30.365Z</time></trkpt><trkpt lat="39.2778393" lon="9.3212404"><ele>90.0</ele><time>2026-04-18T08:18:46.393Z</time></trkpt><trkpt lat="39.2777583" lon="9.321241"><ele>90.0</ele><time>2026-04-18T08:25:21.373Z</time></trkpt><trkpt lat="39.2776916" lon="9.3212549"><ele>90.0</ele><time>2026-04-18T08:28:06.371Z</time></trkpt><trkpt lat="39.2776216" lon="9.3212721"><ele>90.0</ele><time>2026-04-18T08:28:21.359Z</time></trkpt><trkpt lat="39.277635" lon="9.3213606"><ele>90.0</ele><time>2026-04-18T08:35:08.33Z</time></trkpt><trkpt lat="39.2777093" lon="9.3213855"><ele>90.0</ele><time>2026-04-18T08:35:10.367Z</time></trkpt><trkpt lat="39.2777057" lon="9.3214889"><ele>90.0</ele><time>2026-04-18T08:35:14.362Z</time></trkpt><trkpt lat="39.2776986" lon="9.3215826"><ele>90.5</ele><time>2026-04-18T08:35:16.359Z</time></trkpt><trkpt lat="39.2777275" lon="9.3216822"><ele>91.0</ele><time>2026-04-18T08:35:18.369Z</time></trkpt><trkpt lat="39.27777" lon="9.3217645"><ele>91.5</ele><time>2026-04-18T08:35:20.362Z</time></trkpt><trkpt lat="39.2778112" lon="9.3218492"><ele>92.0</ele><time>2026-04-18T08:35:22.368Z</time></trkpt><trkpt lat="39.2778461" lon="9.3219224"><ele>92.5</ele><time>2026-04-18T08:35:24.366Z</time></trkpt><trkpt lat="39.277857" lon="9.322011"><ele>93.0</ele><time>2026-04-18T08:35:27.363Z</time></trkpt><trkpt lat="39.2778791" lon="9.3221439"><ele>93.0</ele><time>2026-04-18T08:35:30.355Z</time></trkpt><trkpt lat="39.2779096" lon="9.3222209"><ele>93.0</ele><time>2026-04-18T08:35:31.363Z</time></trkpt><trkpt lat="39.2779493" lon="9.3223101"><ele>93.0</ele><time>2026-04-18T08:35:32.365Z</time></trkpt><trkpt lat="39.2779964" lon="9.3224128"><ele>93.0</ele><time>2026-04-18T08:35:33.355Z</time></trkpt><trkpt lat="39.2780477" lon="9.3225251"><ele>93.0</ele><time>2026-04-18T08:35:34.378Z</time></trkpt><trkpt lat="39.2781044" lon="9.3226456"><ele>93.0</ele><time>2026-04-18T08:35:35.372Z</time></trkpt><trkpt lat="39.2781648" lon="9.3227749"><ele>93.0</ele><time>2026-04-18T08:35:36.364Z</time></trkpt><trkpt lat="39.2782316" lon="9.3229159"><ele>93.0</ele><time>2026-04-18T08:35:37.368Z</time></trkpt><trkpt lat="39.2783051" lon="9.3230672"><ele>93.0</ele><time>2026-04-18T08:35:38.369Z</time></trkpt><trkpt lat="39.2783821" lon="9.3232306"><ele>93.0</ele><time>2026-04-18T08:35:39.362Z</time></trkpt><trkpt lat="39.2784605" lon="9.3234037"><ele>92.75</ele><time>2026-04-18T08:35:40.368Z</time></trkpt><trkpt lat="39.2785396" lon="9.3235757"><ele>92.5</ele><time>2026-04-18T08:35:41.373Z</time></trkpt><trkpt lat="39.2786192" lon="9.323741"><ele>92.25</ele><time>2026-04-18T08:35:42.388Z</time></trkpt><trkpt lat="39.278694" lon="9.3238961"><ele>92.0</ele><time>2026-04-18T08:35:43.378Z</time></trkpt><trkpt lat="39.2787641" lon="9.3240433"><ele>92.75</ele><time>2026-04-18T08:35:44.388Z</time></trkpt><trkpt lat="39.2788327" lon="9.3241856"><ele>93.5</ele><time>2026-04-18T08:35:45.378Z</time></trkpt><trkpt lat="39.2788963" lon="9.3243188"><ele>94.25</ele><time>2026-04-18T08:35:46.375Z</time></trkpt><trkpt lat="39.2789565" lon="9.324445"><ele>95.0</ele><time>2026-04-18T08:35:47.371Z</time></trkpt><trkpt lat="39.2790161" lon="9.3245692"><ele>95.0</ele><time>2026-04-18T08:35:48.365Z</time></trkpt><trkpt lat="39.2790767" lon="9.324693"><ele>95.0</ele><time>2026-04-18T08:35:49.364Z</time></trkpt><trkpt lat="39.2791388" lon="9.3248203"><ele>95.0</ele><time>2026-04-18T08:35:50.368Z</time></trkpt><trkpt lat="39.2792035" lon="9.3249516"><ele>95.0</ele><time>2026-04-18T08:35:51.367Z</time></trkpt><trkpt lat="39.2792666" lon="9.3250788"><ele>95.8</ele><time>2026-04-18T08:35:52.371Z</time></trkpt><trkpt lat="39.2793253" lon="9.3252023"><ele>96.6</ele><time>2026-04-18T08:35:53.37Z</time></trkpt><trkpt lat="39.2793832" lon="9.3253228"><ele>97.4</ele><time>2026-04-18T08:35:54.373Z</time></trkpt><trkpt lat="39.2794389" lon="9.3254424"><ele>98.2</ele><time>2026-04-18T08:35:55.379Z</time></trkpt><trkpt lat="39.2794954" lon="9.3255605"><ele>99.0</ele><time>2026-04-18T08:35:56.377Z</time></trkpt><trkpt lat="39.2795545" lon="9.325683"><ele>99.5</ele><time>2026-04-18T08:35:57.371Z</time></trkpt><trkpt lat="39.2796141" lon="9.3258056"><ele>100.0</ele><time>2026-04-18T08:35:58.364Z</time></trkpt><trkpt lat="39.2796765" lon="9.3259351"><ele>100.5</ele><time>2026-04-18T08:35:59.359Z</time></trkpt><trkpt lat="39.2797392" lon="9.3260658"><ele>101.0</ele><time>2026-04-18T08:36:00.357Z</time></trkpt><trkpt lat="39.2798053" lon="9.3262015"><ele>101.0</ele><time>2026-04-18T08:36:01.358Z</time></trkpt><trkpt lat="39.2798751" lon="9.3263406"><ele>101.0</ele><time>2026-04-18T08:36:02.367Z</time></trkpt><trkpt lat="39.2799475" lon="9.3264887"><ele>101.0</ele><time>2026-04-18T08:36:03.375Z</time></trkpt><trkpt lat="39.2800222" lon="9.3266431"><ele>101.0</ele><time>2026-04-18T08:36:04.366Z</time></trkpt><trkpt lat="39.2800987" lon="9.3268002"><ele>101.25</ele><time>2026-04-18T08:36:05.363Z</time></trkpt><trkpt lat="39.2801761" lon="9.3269577"><ele>101.5</ele><time>2026-04-18T08:36:06.36Z</time></trkpt><trkpt lat="39.2802539" lon="9.327115"><ele>101.75</ele><time>2026-04-18T08:36:07.367Z</time></trkpt><trkpt lat="39.2803273" lon="9.327268"><ele>102.0</ele><time>2026-04-18T08:36:08.369Z</time></trkpt><trkpt lat="39.2803978" lon="9.3274201"><ele>102.5</ele><time>2026-04-18T08:36:09.361Z</time></trkpt><trkpt lat="39.2804701" lon="9.3275688"><ele>103.0</ele><time>2026-04-18T08:36:10.35Z</time></trkpt><trkpt lat="39.2805387" lon="9.3277126"><ele>103.5</ele><time>2026-04-18T08:36:11.366Z</time></trkpt><trkpt lat="39.2806086" lon="9.3278543"><ele>104.0</ele><time>2026-04-18T08:36:12.365Z</time></trkpt><trkpt lat="39.2806773" lon="9.327995"><ele>105.75</ele><time>2026-04-18T08:36:13.368Z</time></trkpt><trkpt lat="39.2807452" lon="9.3281358"><ele>107.5</ele><time>2026-04-18T08:36:14.385Z</time></trkpt><trkpt lat="39.2808133" lon="9.3282762"><ele>109.25</ele><time>2026-04-18T08:36:15.369Z</time></trkpt><trkpt lat="39.2808814" lon="9.3284157"><ele>111.0</ele><time>2026-04-18T08:36:16.367Z</time></trkpt><trkpt lat="39.2809519" lon="9.3285581"><ele>111.0</ele><time>2026-04-18T08:36:17.364Z</time></trkpt><trkpt lat="39.2810211" lon="9.3287001"><ele>111.0</ele><time>2026-04-18T08:36:18.371Z</time></trkpt><trkpt lat="39.28109" lon="9.3288413"><ele>111.0</ele><time>2026-04-18T08:36:19.363Z</time></trkpt><trkpt lat="39.281158" lon="9.3289826"><ele>111.0</ele><time>2026-04-18T08:36:20.373Z</time></trkpt><trkpt lat="39.2812267" lon="9.3291243"><ele>110.5</ele><time>2026-04-18T08:36:21.357Z</time></trkpt><trkpt lat="39.2812952" lon="9.3292657"><ele>110.0</ele><time>2026-04-18T08:36:22.385Z</time></trkpt><trkpt lat="39.2813621" lon="9.3294072"><ele>109.5</ele><time>2026-04-18T08:36:23.38Z</time></trkpt><trkpt lat="39.2814292" lon="9.3295485"><ele>109.0</ele><time>2026-04-18T08:36:24.382Z</time></trkpt><trkpt lat="39.2814977" lon="9.3296914"><ele>110.25</ele><time>2026-04-18T08:36:25.36Z</time></trkpt><trkpt lat="39.2815673" lon="9.3298358"><ele>111.5</ele><time>2026-04-18T08:36:26.367Z</time></trkpt><trkpt lat="39.2816381" lon="9.3299808"><ele>112.75</ele><time>2026-04-18T08:36:27.371Z</time></trkpt><trkpt lat="39.2817086" lon="9.3301269"><ele>114.0</ele><time>2026-04-18T08:36:28.367Z</time></trkpt><trkpt lat="39.2817799" lon="9.3302761"><ele>114.0</ele><time>2026-04-18T08:36:29.363Z</time></trkpt><trkpt lat="39.2818512" lon="9.3304227"><ele>114.0</ele><time>2026-04-18T08:36:30.376Z</time></trkpt><trkpt lat="39.2819286" lon="9.3305803"><ele>114.0</ele><time>2026-04-18T08:36:31.376Z</time></trkpt><trkpt lat="39.2820047" lon="9.3307377"><ele>114.0</ele><time>2026-04-18T08:36:32.359Z</time></trkpt><trkpt lat="39.2820817" lon="9.3308984"><ele>114.0</ele><time>2026-04-18T08:36:33.355Z</time></trkpt><trkpt lat="39.2821602" lon="9.3310582"><ele>114.0</ele><time>2026-04-18T08:36:34.374Z</time></trkpt><trkpt lat="39.2822375" lon="9.331219"><ele>114.0</ele><time>2026-04-18T08:36:35.381Z</time></trkpt><trkpt lat="39.2823173" lon="9.3313807"><ele>114.0</ele><time>2026-04-18T08:36:36.374Z</time></trkpt><trkpt lat="39.2824025" lon="9.3315509"><ele>114.0</ele><time>2026-04-18T08:36:37.371Z</time></trkpt><trkpt lat="39.2824864" lon="9.3317211"><ele>114.0</ele><time>2026-04-18T08:36:38.377Z</time></trkpt><trkpt lat="39.2825699" lon="9.3318911"><ele>114.0</ele><time>2026-04-18T08:36:39.367Z</time></trkpt><trkpt lat="39.2826519" lon="9.3320585"><ele>115.33333333333334</ele><time>2026-04-18T08:36:40.367Z</time></trkpt><trkpt lat="39.2827354" lon="9.3322252"><ele>116.66666666666667</ele><time>2026-04-18T08:36:41.355Z</time></trkpt><trkpt lat="39.2828155" lon="9.3323923"><ele>118.0</ele><time>2026-04-18T08:36:42.364Z</time></trkpt><trkpt lat="39.282892" lon="9.3325512"><ele>118.0</ele><time>2026-04-18T08:36:43.367Z</time></trkpt><trkpt lat="39.2829685" lon="9.3327212"><ele>118.0</ele><time>2026-04-18T08:36:44.368Z</time></trkpt><trkpt lat="39.2830395" lon="9.3328946"><ele>118.0</ele><time>2026-04-18T08:36:45.363Z</time></trkpt><trkpt lat="39.2831036" lon="9.3330698"><ele>118.0</ele><time>2026-04-18T08:36:46.362Z</time></trkpt><trkpt lat="39.2831582" lon="9.3332422"><ele>118.0</ele><time>2026-04-18T08:36:47.363Z</time></trkpt><trkpt lat="39.2832104" lon="9.3334304"><ele>118.0</ele><time>2026-04-18T08:36:48.358Z</time></trkpt><trkpt lat="39.283255" lon="9.3336186"><ele>118.0</ele><time>2026-04-18T08:36:49.371Z</time></trkpt><trkpt lat="39.2832998" lon="9.3338065"><ele>118.0</ele><time>2026-04-18T08:36:50.383Z</time></trkpt><trkpt lat="39.2833435" lon="9.3339964"><ele>118.0</ele><time>2026-04-18T08:36:51.359Z</time></trkpt><trkpt lat="39.2833848" lon="9.3341818"><ele>119.33333333333334</ele><time>2026-04-18T08:36:52.366Z</time></trkpt><trkpt lat="39.2834326" lon="9.3343764"><ele>120.66666666666666</ele><time>2026-04-18T08:36:53.356Z</time></trkpt><trkpt lat="39.2834783" lon="9.3345723"><ele>122.0</ele><time>2026-04-18T08:36:54.365Z</time></trkpt><trkpt lat="39.2835212" lon="9.3347641"><ele>126.33333333333333</ele><time>2026-04-18T08:36:55.375Z</time></trkpt><trkpt lat="39.2835605" lon="9.3349543"><ele>130.66666666666666</ele><time>2026-04-18T08:36:56.37Z</time></trkpt><trkpt lat="39.2836087" lon="9.3351525"><ele>135.0</ele><time>2026-04-18T08:36:57.361Z</time></trkpt><trkpt lat="39.2836572" lon="9.335348"><ele>135.0</ele><time>2026-04-18T08:36:58.363Z</time></trkpt><trkpt lat="39.2837122" lon="9.3355426"><ele>135.0</ele><time>2026-04-18T08:36:59.362Z</time></trkpt><trkpt lat="39.2837798" lon="9.3357278"><ele>135.0</ele><time>2026-04-18T08:37:00.379Z</time></trkpt><trkpt lat="39.283853" lon="9.3359066"><ele>132.66666666666666</ele><time>2026-04-18T08:37:01.367Z</time></trkpt><trkpt lat="39.2839558" lon="9.3360737"><ele>130.33333333333331</ele><time>2026-04-18T08:37:02.381Z</time></trkpt><trkpt lat="39.2840594" lon="9.3362352"><ele>128.0</ele><time>2026-04-18T08:37:03.365Z</time></trkpt><trkpt lat="39.2841623" lon="9.3363982"><ele>128.0</ele><time>2026-04-18T08:37:04.38Z</time></trkpt><trkpt lat="39.2842662" lon="9.3365607"><ele>128.0</ele><time>2026-04-18T08:37:05.382Z</time></trkpt><trkpt lat="39.2843698" lon="9.3367245"><ele>128.0</ele><time>2026-04-18T08:37:06.358Z</time></trkpt><trkpt lat="39.2844732" lon="9.3368875"><ele>128.0</ele><time>2026-04-18T08:37:07.376Z</time></trkpt><trkpt lat="39.2845754" lon="9.3370507"><ele>128.0</ele><time>2026-04-18T08:37:08.357Z</time></trkpt><trkpt lat="39.2846782" lon="9.3372124"><ele>128.0</ele><time>2026-04-18T08:37:09.357Z</time></trkpt><trkpt lat="39.284781" lon="9.3373749"><ele>127.0</ele><time>2026-04-18T08:37:10.381Z</time></trkpt><trkpt lat="39.2848867" lon="9.3375406"><ele>126.0</ele><time>2026-04-18T08:37:11.353Z</time></trkpt><trkpt lat="39.2849988" lon="9.3377163"><ele>125.0</ele><time>2026-04-18T08:37:12.357Z</time></trkpt><trkpt lat="39.2851146" lon="9.3378972"><ele>128.66666666666666</ele><time>2026-04-18T08:37:13.373Z</time></trkpt><trkpt lat="39.2852336" lon="9.3380812"><ele>132.33333333333334</ele><time>2026-04-18T08:37:14.361Z</time></trkpt><trkpt lat="39.2853503" lon="9.3382662"><ele>136.0</ele><time>2026-04-18T08:37:15.354Z</time></trkpt><trkpt lat="39.2854651" lon="9.3384508"><ele>136.0</ele><time>2026-04-18T08:37:16.378Z</time></trkpt><trkpt lat="39.2855816" lon="9.3386366"><ele>136.0</ele><time>2026-04-18T08:37:17.365Z</time></trkpt><trkpt lat="39.2856955" lon="9.3388193"><ele>136.0</ele><time>2026-04-18T08:37:18.373Z</time></trkpt><trkpt lat="39.2858079" lon="9.3390016"><ele>134.66666666666669</ele><time>2026-04-18T08:37:19.424Z</time></trkpt><trkpt lat="39.2859179" lon="9.3391831"><ele>133.33333333333334</ele><time>2026-04-18T08:37:20.362Z</time></trkpt><trkpt lat="39.2860234" lon="9.3393603"><ele>132.0</ele><time>2026-04-18T08:37:21.366Z</time></trkpt><trkpt lat="39.28613" lon="9.3395316"><ele>133.0</ele><time>2026-04-18T08:37:22.359Z</time></trkpt><trkpt lat="39.2862275" lon="9.3397187"><ele>134.0</ele><time>2026-04-18T08:37:23.374Z</time></trkpt><trkpt lat="39.2863182" lon="9.3399094"><ele>135.0</ele><time>2026-04-18T08:37:24.363Z</time></trkpt><trkpt lat="39.2864011" lon="9.3401088"><ele>134.0</ele><time>2026-04-18T08:37:25.371Z</time></trkpt><trkpt lat="39.2864823" lon="9.3403065"><ele>133.0</ele><time>2026-04-18T08:37:26.365Z</time></trkpt><trkpt lat="39.2865614" lon="9.340505"><ele>132.0</ele><time>2026-04-18T08:37:27.359Z</time></trkpt><trkpt lat="39.286643" lon="9.3406977"><ele>132.0</ele><time>2026-04-18T08:37:28.373Z</time></trkpt><trkpt lat="39.2867241" lon="9.3408902"><ele>132.0</ele><time>2026-04-18T08:37:29.369Z</time></trkpt><trkpt lat="39.2868022" lon="9.3410865"><ele>132.0</ele><time>2026-04-18T08:37:30.378Z</time></trkpt><trkpt lat="39.2868804" lon="9.3412859"><ele>132.33333333333334</ele><time>2026-04-18T08:37:31.377Z</time></trkpt><trkpt lat="39.2869587" lon="9.3414885"><ele>132.66666666666669</ele><time>2026-04-18T08:37:32.368Z</time></trkpt><trkpt lat="39.2870343" lon="9.3416863"><ele>133.0</ele><time>2026-04-18T08:37:33.363Z</time></trkpt><trkpt lat="39.2871156" lon="9.3418887"><ele>133.0</ele><time>2026-04-18T08:37:34.368Z</time></trkpt><trkpt lat="39.2871934" lon="9.342083"><ele>133.0</ele><time>2026-04-18T08:37:35.365Z</time></trkpt><trkpt lat="39.2872736" lon="9.3422826"><ele>133.0</ele><time>2026-04-18T08:37:36.361Z</time></trkpt><trkpt lat="39.2873569" lon="9.3424841"><ele>133.66666666666669</ele><time>2026-04-18T08:37:37.362Z</time></trkpt><trkpt lat="39.2874373" lon="9.3426818"><ele>134.33333333333334</ele><time>2026-04-18T08:37:38.367Z</time></trkpt><trkpt lat="39.287514" lon="9.3428741"><ele>135.0</ele><time>2026-04-18T08:37:39.371Z</time></trkpt><trkpt lat="39.2875956" lon="9.3430601"><ele>137.33333333333334</ele><time>2026-04-18T08:37:40.363Z</time></trkpt><trkpt lat="39.287685" lon="9.343243"><ele>139.66666666666669</ele><time>2026-04-18T08:37:41.361Z</time></trkpt><trkpt lat="39.2877812" lon="9.3434189"><ele>142.0</ele><time>2026-04-18T08:37:42.382Z</time></trkpt><trkpt lat="39.2878767" lon="9.34358"><ele>142.0</ele><time>2026-04-18T08:37:43.376Z</time></trkpt><trkpt lat="39.2879715" lon="9.3437442"><ele>142.0</ele><time>2026-04-18T08:37:44.38Z</time></trkpt><trkpt lat="39.2880658" lon="9.3439072"><ele>142.0</ele><time>2026-04-18T08:37:45.365Z</time></trkpt><trkpt lat="39.288154" lon="9.3440653"><ele>142.33333333333334</ele><time>2026-04-18T08:37:46.37Z</time></trkpt><trkpt lat="39.288241" lon="9.3442229"><ele>142.66666666666666</ele><time>2026-04-18T08:37:47.37Z</time></trkpt><trkpt lat="39.2883273" lon="9.3443861"><ele>143.0</ele><time>2026-04-18T08:37:48.353Z</time></trkpt><trkpt lat="39.2884133" lon="9.3445556"><ele>144.33333333333331</ele><time>2026-04-18T08:37:49.361Z</time></trkpt><trkpt lat="39.2885" lon="9.3447262"><ele>145.66666666666666</ele><time>2026-04-18T08:37:50.364Z</time></trkpt><trkpt lat="39.2885942" lon="9.3448958"><ele>147.0</ele><time>2026-04-18T08:37:51.358Z</time></trkpt><trkpt lat="39.2886973" lon="9.3450631"><ele>147.0</ele><time>2026-04-18T08:37:52.357Z</time></trkpt><trkpt lat="39.2888106" lon="9.3452296"><ele>147.0</ele><time>2026-04-18T08:37:53.363Z</time></trkpt><trkpt lat="39.2889234" lon="9.3454027"><ele>147.0</ele><time>2026-04-18T08:37:54.364Z</time></trkpt><trkpt lat="39.2890341" lon="9.3455808"><ele>147.66666666666666</ele><time>2026-04-18T08:37:55.381Z</time></trkpt><trkpt lat="39.2891398" lon="9.3457601"><ele>148.33333333333331</ele><time>2026-04-18T08:37:56.358Z</time></trkpt><trkpt lat="39.2892437" lon="9.3459413"><ele>149.0</ele><time>2026-04-18T08:37:57.369Z</time></trkpt><trkpt lat="39.289342" lon="9.3461257"><ele>149.0</ele><time>2026-04-18T08:37:58.373Z</time></trkpt><trkpt lat="39.2894352" lon="9.3463142"><ele>149.0</ele><time>2026-04-18T08:37:59.365Z</time></trkpt><trkpt lat="39.2895188" lon="9.3465054"><ele>149.0</ele><time>2026-04-18T08:38:00.355Z</time></trkpt><trkpt lat="39.2895956" lon="9.3466982"><ele>150.66666666666666</ele><time>2026-04-18T08:38:01.366Z</time></trkpt><trkpt lat="39.2896678" lon="9.3468921"><ele>152.33333333333334</ele><time>2026-04-18T08:38:02.365Z</time></trkpt><trkpt lat="39.2897376" lon="9.3470851"><ele>154.0</ele><time>2026-04-18T08:38:03.36Z</time></trkpt><trkpt lat="39.2898064" lon="9.3472771"><ele>154.0</ele><time>2026-04-18T08:38:04.375Z</time></trkpt><trkpt lat="39.2898728" lon="9.3474676"><ele>154.0</ele><time>2026-04-18T08:38:05.36Z</time></trkpt><trkpt lat="39.2899315" lon="9.3476538"><ele>154.0</ele><time>2026-04-18T08:38:06.363Z</time></trkpt><trkpt lat="39.2899803" lon="9.347848"><ele>155.0</ele><time>2026-04-18T08:38:07.357Z</time></trkpt><trkpt lat="39.2900186" lon="9.3480441"><ele>156.0</ele><time>2026-04-18T08:38:08.353Z</time></trkpt><trkpt lat="39.2900553" lon="9.3482405"><ele>157.0</ele><time>2026-04-18T08:38:09.361Z</time></trkpt><trkpt lat="39.290091" lon="9.3484365"><ele>157.0</ele><time>2026-04-18T08:38:10.364Z</time></trkpt><trkpt lat="39.2901282" lon="9.3486275"><ele>157.0</ele><time>2026-04-18T08:38:11.369Z</time></trkpt><trkpt lat="39.2901565" lon="9.3488194"><ele>157.0</ele><time>2026-04-18T08:38:12.357Z</time></trkpt><trkpt lat="39.2901814" lon="9.3490009"><ele>157.0</ele><time>2026-04-18T08:38:13.361Z</time></trkpt><trkpt lat="39.2902249" lon="9.3491753"><ele>157.0</ele><time>2026-04-18T08:38:14.357Z</time></trkpt><trkpt lat="39.2902858" lon="9.3493325"><ele>157.0</ele><time>2026-04-18T08:38:15.372Z</time></trkpt><trkpt lat="39.2903985" lon="9.349463"><ele>157.0</ele><time>2026-04-18T08:38:16.372Z</time></trkpt><trkpt lat="39.2905273" lon="9.3495696"><ele>157.0</ele><time>2026-04-18T08:38:17.355Z</time></trkpt><trkpt lat="39.2906677" lon="9.3496725"><ele>157.0</ele><time>2026-04-18T08:38:18.364Z</time></trkpt><trkpt lat="39.2908027" lon="9.3497792"><ele>157.0</ele><time>2026-04-18T08:38:19.373Z</time></trkpt><trkpt lat="39.2909337" lon="9.3498863"><ele>157.0</ele><time>2026-04-18T08:38:20.364Z</time></trkpt><trkpt lat="39.2910595" lon="9.349996"><ele>157.0</ele><time>2026-04-18T08:38:21.358Z</time></trkpt><trkpt lat="39.2911686" lon="9.3501186"><ele>157.0</ele><time>2026-04-18T08:38:22.376Z</time></trkpt><trkpt lat="39.2912402" lon="9.35027"><ele>157.0</ele><time>2026-04-18T08:38:23.369Z</time></trkpt><trkpt lat="39.291279" lon="9.3504392"><ele>157.0</ele><time>2026-04-18T08:38:24.374Z</time></trkpt><trkpt lat="39.2913198" lon="9.3506122"><ele>158.33333333333334</ele><time>2026-04-18T08:38:25.378Z</time></trkpt><trkpt lat="39.291387" lon="9.3507816"><ele>159.66666666666666</ele><time>2026-04-18T08:38:26.366Z</time></trkpt><trkpt lat="39.2914756" lon="9.3509448"><ele>161.0</ele><time>2026-04-18T08:38:27.369Z</time></trkpt><trkpt lat="39.2915708" lon="9.3511092"><ele>161.66666666666666</ele><time>2026-04-18T08:38:28.354Z</time></trkpt><trkpt lat="39.2916707" lon="9.3512793"><ele>162.33333333333334</ele><time>2026-04-18T08:38:29.357Z</time></trkpt><trkpt lat="39.2917734" lon="9.3514501"><ele>163.0</ele><time>2026-04-18T08:38:30.36Z</time></trkpt><trkpt lat="39.2918732" lon="9.3516154"><ele>163.0</ele><time>2026-04-18T08:38:31.36Z</time></trkpt><trkpt lat="39.2919703" lon="9.3517792"><ele>163.0</ele><time>2026-04-18T08:38:32.364Z</time></trkpt><trkpt lat="39.2920498" lon="9.3519426"><ele>163.0</ele><time>2026-04-18T08:38:33.363Z</time></trkpt><trkpt lat="39.2921204" lon="9.3521023"><ele>163.0</ele><time>2026-04-18T08:38:34.374Z</time></trkpt><trkpt lat="39.2921828" lon="9.3522475"><ele>163.0</ele><time>2026-04-18T08:38:35.374Z</time></trkpt><trkpt lat="39.2922391" lon="9.35239"><ele>163.0</ele><time>2026-04-18T08:38:36.353Z</time></trkpt><trkpt lat="39.2922961" lon="9.3525298"><ele>163.0</ele><time>2026-04-18T08:38:37.358Z</time></trkpt><trkpt lat="39.2923509" lon="9.3526577"><ele>163.16666666666669</ele><time>2026-04-18T08:38:38.367Z</time></trkpt><trkpt lat="39.2923937" lon="9.3527683"><ele>163.33333333333334</ele><time>2026-04-18T08:38:39.361Z</time></trkpt><trkpt lat="39.2924201" lon="9.3528578"><ele>163.5</ele><time>2026-04-18T08:38:40.363Z</time></trkpt><trkpt lat="39.2924341" lon="9.352968"><ele>163.66666666666666</ele><time>2026-04-18T08:38:42.367Z</time></trkpt><trkpt lat="39.2924562" lon="9.3530445"><ele>163.83333333333331</ele><time>2026-04-18T08:38:47.359Z</time></trkpt><trkpt lat="39.2924779" lon="9.3531219"><ele>164.0</ele><time>2026-04-18T08:39:36.372Z</time></trkpt><trkpt lat="39.2925129" lon="9.3532405"><ele>164.0</ele><time>2026-04-18T08:39:38.381Z</time></trkpt><trkpt lat="39.2925251" lon="9.3533205"><ele>164.0</ele><time>2026-04-18T08:39:39.374Z</time></trkpt><trkpt lat="39.2925356" lon="9.3534068"><ele>164.0</ele><time>2026-04-18T08:39:40.355Z</time></trkpt><trkpt lat="39.292554" lon="9.3534988"><ele>164.0</ele><time>2026-04-18T08:39:41.363Z</time></trkpt><trkpt lat="39.2925819" lon="9.3535906"><ele>164.0</ele><time>2026-04-18T08:39:42.349Z</time></trkpt><trkpt lat="39.292621" lon="9.3536688"><ele>164.0</ele><time>2026-04-18T08:39:43.366Z</time></trkpt><trkpt lat="39.2926231" lon="9.353814"><ele>164.0</ele><time>2026-04-18T08:39:45.36Z</time></trkpt><trkpt lat="39.2925159" lon="9.3538818"><ele>164.0</ele><time>2026-04-18T08:39:47.36Z</time></trkpt><trkpt lat="39.2924493" lon="9.353846"><ele>164.0</ele><time>2026-04-18T08:39:48.36Z</time></trkpt><trkpt lat="39.2923772" lon="9.3537661"><ele>164.0</ele><time>2026-04-18T08:39:49.376Z</time></trkpt><trkpt lat="39.2923025" lon="9.3536488"><ele>164.0</ele><time>2026-04-18T08:39:50.371Z</time></trkpt><trkpt lat="39.2922342" lon="9.3535018"><ele>163.79999999999998</ele><time>2026-04-18T08:39:51.371Z</time></trkpt><trkpt lat="39.2921844" lon="9.3533721"><ele>163.6</ele><time>2026-04-18T08:39:52.366Z</time></trkpt><trkpt lat="39.2921427" lon="9.3532533"><ele>163.4</ele><time>2026-04-18T08:39:53.369Z</time></trkpt><trkpt lat="39.2920765" lon="9.3531653"><ele>163.2</ele><time>2026-04-18T08:39:54.364Z</time></trkpt><trkpt lat="39.2920093" lon="9.3530792"><ele>163.0</ele><time>2026-04-18T08:39:55.37Z</time></trkpt><trkpt lat="39.291951" lon="9.352991"><ele>163.0</ele><time>2026-04-18T08:39:56.375Z</time></trkpt><trkpt lat="39.2919139" lon="9.3528902"><ele>163.0</ele><time>2026-04-18T08:39:57.368Z</time></trkpt><trkpt lat="39.2918945" lon="9.3527718"><ele>163.0</ele><time>2026-04-18T08:39:58.366Z</time></trkpt><trkpt lat="39.2918808" lon="9.352661"><ele>163.0</ele><time>2026-04-18T08:39:59.363Z</time></trkpt><trkpt lat="39.2918719" lon="9.3525723"><ele>163.0</ele><time>2026-04-18T08:40:00.365Z</time></trkpt><trkpt lat="39.2918492" lon="9.3524221"><ele>163.0</ele><time>2026-04-18T08:40:02.359Z</time></trkpt><trkpt lat="39.2917826" lon="9.3523008"><ele>163.0</ele><time>2026-04-18T08:40:04.368Z</time></trkpt><trkpt lat="39.2916946" lon="9.352277"><ele>163.0</ele><time>2026-04-18T08:40:06.352Z</time></trkpt><trkpt lat="39.2916466" lon="9.3523699"><ele>163.0</ele><time>2026-04-18T08:40:08.373Z</time></trkpt><trkpt lat="39.2916715" lon="9.3524986"><ele>163.0</ele><time>2026-04-18T08:40:10.358Z</time></trkpt><trkpt lat="39.2916857" lon="9.3525947"><ele>163.0</ele><time>2026-04-18T08:40:11.365Z</time></trkpt><trkpt lat="39.2916912" lon="9.3526912"><ele>163.0</ele><time>2026-04-18T08:40:12.357Z</time></trkpt><trkpt lat="39.2916449" lon="9.352787"><ele>163.0</ele><time>2026-04-18T08:40:13.366Z</time></trkpt><trkpt lat="39.291587" lon="9.3528973"><ele>163.0</ele><time>2026-04-18T08:40:14.378Z</time></trkpt><trkpt lat="39.2915256" lon="9.3530205"><ele>163.0</ele><time>2026-04-18T08:40:15.362Z</time></trkpt><trkpt lat="39.2914615" lon="9.3531412"><ele>164.66666666666669</ele><time>2026-04-18T08:40:16.359Z</time></trkpt><trkpt lat="39.2914019" lon="9.3532418"><ele>166.33333333333334</ele><time>2026-04-18T08:40:17.355Z</time></trkpt><trkpt lat="39.291347" lon="9.353335"><ele>168.0</ele><time>2026-04-18T08:40:18.356Z</time></trkpt><trkpt lat="39.2912943" lon="9.3534252"><ele>169.66666666666666</ele><time>2026-04-18T08:40:19.371Z</time></trkpt><trkpt lat="39.2912522" lon="9.3535047"><ele>171.33333333333331</ele><time>2026-04-18T08:40:20.351Z</time></trkpt><trkpt lat="39.2912104" lon="9.3535776"><ele>173.0</ele><time>2026-04-18T08:40:21.366Z</time></trkpt><trkpt lat="39.2911733" lon="9.3536439"><ele>173.0</ele><time>2026-04-18T08:40:22.368Z</time></trkpt><trkpt lat="39.2911114" lon="9.3537553"><ele>173.0</ele><time>2026-04-18T08:40:24.365Z</time></trkpt><trkpt lat="39.2910987" lon="9.3538575"><ele>173.0</ele><time>2026-04-18T08:40:26.368Z</time></trkpt><trkpt lat="39.2911627" lon="9.3539204"><ele>173.0</ele><time>2026-04-18T08:40:28.363Z</time></trkpt><trkpt lat="39.2912542" lon="9.3540108"><ele>173.0</ele><time>2026-04-18T08:40:30.378Z</time></trkpt><trkpt lat="39.2912949" lon="9.3540996"><ele>173.0</ele><time>2026-04-18T08:40:31.379Z</time></trkpt><trkpt lat="39.2913296" lon="9.3541893"><ele>173.0</ele><time>2026-04-18T08:40:32.369Z</time></trkpt><trkpt lat="39.2913097" lon="9.3542836"><ele>173.0</ele><time>2026-04-18T08:40:33.371Z</time></trkpt><trkpt lat="39.2912609" lon="9.3543733"><ele>173.0</ele><time>2026-04-18T08:40:34.356Z</time></trkpt><trkpt lat="39.2912173" lon="9.3544694"><ele>173.0</ele><time>2026-04-18T08:40:35.367Z</time></trkpt><trkpt lat="39.2912006" lon="9.354583"><ele>173.0</ele><time>2026-04-18T08:40:36.363Z</time></trkpt><trkpt lat="39.2912066" lon="9.3547127"><ele>174.5</ele><time>2026-04-18T08:40:37.354Z</time></trkpt><trkpt lat="39.2912288" lon="9.3548523"><ele>176.0</ele><time>2026-04-18T08:40:38.362Z</time></trkpt><trkpt lat="39.2912501" lon="9.3550059"><ele>177.5</ele><time>2026-04-18T08:40:39.369Z</time></trkpt><trkpt lat="39.2912718" lon="9.3551658"><ele>179.0</ele><time>2026-04-18T08:40:40.356Z</time></trkpt><trkpt lat="39.2912929" lon="9.3553215"><ele>179.0</ele><time>2026-04-18T08:40:41.358Z</time></trkpt><trkpt lat="39.2913103" lon="9.3554678"><ele>179.0</ele><time>2026-04-18T08:40:42.36Z</time></trkpt><trkpt lat="39.2913213" lon="9.3555955"><ele>179.0</ele><time>2026-04-18T08:40:43.367Z</time></trkpt><trkpt lat="39.2913135" lon="9.3557194"><ele>179.0</ele><time>2026-04-18T08:40:44.364Z</time></trkpt><trkpt lat="39.2912978" lon="9.3558516"><ele>179.0</ele><time>2026-04-18T08:40:45.371Z</time></trkpt><trkpt lat="39.2912864" lon="9.3559756"><ele>180.0</ele><time>2026-04-18T08:40:46.373Z</time></trkpt><trkpt lat="39.2912812" lon="9.3560943"><ele>181.0</ele><time>2026-04-18T08:40:47.356Z</time></trkpt><trkpt lat="39.2912794" lon="9.3562101"><ele>182.0</ele><time>2026-04-18T08:40:48.375Z</time></trkpt><trkpt lat="39.29128" lon="9.3563239"><ele>183.0</ele><time>2026-04-18T08:40:49.36Z</time></trkpt><trkpt lat="39.2913052" lon="9.3564317"><ele>184.0</ele><time>2026-04-18T08:40:50.361Z</time></trkpt><trkpt lat="39.2913079" lon="9.3565377"><ele>185.0</ele><time>2026-04-18T08:40:51.376Z</time></trkpt><trkpt lat="39.2912875" lon="9.3566471"><ele>186.2</ele><time>2026-04-18T08:40:52.369Z</time></trkpt><trkpt lat="39.2912563" lon="9.3567616"><ele>187.4</ele><time>2026-04-18T08:40:53.361Z</time></trkpt><trkpt lat="39.2912354" lon="9.3568892"><ele>188.60000000000002</ele><time>2026-04-18T08:40:54.379Z</time></trkpt><trkpt lat="39.2912328" lon="9.3570218"><ele>189.8</ele><time>2026-04-18T08:40:55.363Z</time></trkpt><trkpt lat="39.2912464" lon="9.3571565"><ele>191.0</ele><time>2026-04-18T08:40:56.371Z</time></trkpt><trkpt lat="39.2912753" lon="9.3572759"><ele>192.8</ele><time>2026-04-18T08:40:57.368Z</time></trkpt><trkpt lat="39.2913194" lon="9.3573878"><ele>194.60000000000002</ele><time>2026-04-18T08:40:58.36Z</time></trkpt><trkpt lat="39.2913659" lon="9.3575076"><ele>196.4</ele><time>2026-04-18T08:40:59.377Z</time></trkpt><trkpt lat="39.2914057" lon="9.357627"><ele>198.2</ele><time>2026-04-18T08:41:00.363Z</time></trkpt><trkpt lat="39.2914406" lon="9.3577454"><ele>200.0</ele><time>2026-04-18T08:41:01.357Z</time></trkpt><trkpt lat="39.2914701" lon="9.3578636"><ele>200.4</ele><time>2026-04-18T08:41:02.37Z</time></trkpt><trkpt lat="39.2915077" lon="9.3579716"><ele>200.8</ele><time>2026-04-18T08:41:03.352Z</time></trkpt><trkpt lat="39.2915449" lon="9.3580739"><ele>201.2</ele><time>2026-04-18T08:41:04.37Z</time></trkpt><trkpt lat="39.2915681" lon="9.3581815"><ele>201.6</ele><time>2026-04-18T08:41:05.364Z</time></trkpt><trkpt lat="39.2915787" lon="9.3583007"><ele>202.0</ele><time>2026-04-18T08:41:06.366Z</time></trkpt><trkpt lat="39.2915895" lon="9.3584248"><ele>203.0</ele><time>2026-04-18T08:41:07.369Z</time></trkpt><trkpt lat="39.2916002" lon="9.3585471"><ele>204.0</ele><time>2026-04-18T08:41:08.374Z</time></trkpt><trkpt lat="39.2916104" lon="9.3586655"><ele>205.0</ele><time>2026-04-18T08:41:09.374Z</time></trkpt><trkpt lat="39.2915956" lon="9.3587836"><ele>206.0</ele><time>2026-04-18T08:41:10.366Z</time></trkpt><trkpt lat="39.2915603" lon="9.3589139"><ele>207.0</ele><time>2026-04-18T08:41:11.365Z</time></trkpt><trkpt lat="39.2915241" lon="9.3590442"><ele>208.39999999999998</ele><time>2026-04-18T08:41:12.366Z</time></trkpt><trkpt lat="39.2914995" lon="9.3591812"><ele>209.79999999999998</ele><time>2026-04-18T08:41:13.365Z</time></trkpt><trkpt lat="39.2914739" lon="9.3593177"><ele>211.2</ele><time>2026-04-18T08:41:14.372Z</time></trkpt><trkpt lat="39.2914499" lon="9.3594415"><ele>212.6</ele><time>2026-04-18T08:41:15.372Z</time></trkpt><trkpt lat="39.2914303" lon="9.3595552"><ele>214.0</ele><time>2026-04-18T08:41:16.373Z</time></trkpt><trkpt lat="39.2914191" lon="9.3596498"><ele>216.5</ele><time>2026-04-18T08:41:17.367Z</time></trkpt><trkpt lat="39.2914386" lon="9.3597278"><ele>219.0</ele><time>2026-04-18T08:41:18.376Z</time></trkpt><trkpt lat="39.291577" lon="9.3598061"><ele>221.5</ele><time>2026-04-18T08:41:20.361Z</time></trkpt><trkpt lat="39.2916871" lon="9.359844"><ele>224.0</ele><time>2026-04-18T08:41:21.368Z</time></trkpt><trkpt lat="39.2918095" lon="9.359891"><ele>224.0</ele><time>2026-04-18T08:41:22.375Z</time></trkpt><trkpt lat="39.2919415" lon="9.3599406"><ele>224.0</ele><time>2026-04-18T08:41:23.38Z</time></trkpt><trkpt lat="39.2920809" lon="9.3599923"><ele>224.0</ele><time>2026-04-18T08:41:24.375Z</time></trkpt><trkpt lat="39.2922081" lon="9.3600377"><ele>224.0</ele><time>2026-04-18T08:41:25.364Z</time></trkpt><trkpt lat="39.2923077" lon="9.3600675"><ele>224.83333333333334</ele><time>2026-04-18T08:41:26.366Z</time></trkpt><trkpt lat="39.292376" lon="9.3600872"><ele>225.66666666666669</ele><time>2026-04-18T08:41:27.369Z</time></trkpt><trkpt lat="39.2924472" lon="9.3600994"><ele>226.5</ele><time>2026-04-18T08:41:29.376Z</time></trkpt><trkpt lat="39.292527" lon="9.3601351"><ele>227.33333333333331</ele><time>2026-04-18T08:41:41.361Z</time></trkpt><trkpt lat="39.2925803" lon="9.3602047"><ele>228.16666666666666</ele><time>2026-04-18T08:41:43.388Z</time></trkpt><trkpt lat="39.2926534" lon="9.3603059"><ele>229.0</ele><time>2026-04-18T08:41:45.36Z</time></trkpt><trkpt lat="39.2927393" lon="9.3604111"><ele>229.39999999999998</ele><time>2026-04-18T08:41:47.362Z</time></trkpt><trkpt lat="39.2928223" lon="9.3605338"><ele>229.79999999999998</ele><time>2026-04-18T08:41:49.363Z</time></trkpt><trkpt lat="39.2928922" lon="9.3606105"><ele>230.20000000000002</ele><time>2026-04-18T08:41:51.373Z</time></trkpt><trkpt lat="39.2929691" lon="9.3606156"><ele>230.60000000000002</ele><time>2026-04-18T08:41:53.387Z</time></trkpt><trkpt lat="39.2930529" lon="9.3606423"><ele>231.0</ele><time>2026-04-18T08:41:55.355Z</time></trkpt><trkpt lat="39.2931216" lon="9.3606881"><ele>231.0</ele><time>2026-04-18T08:41:57.356Z</time></trkpt><trkpt lat="39.2931852" lon="9.3607146"><ele>231.0</ele><time>2026-04-18T08:42:02.373Z</time></trkpt><trkpt lat="39.2932552" lon="9.3607569"><ele>231.0</ele><time>2026-04-18T08:42:07.368Z</time></trkpt><trkpt lat="39.2933074" lon="9.3608075"><ele>231.0</ele><time>2026-04-18T08:42:12.37Z</time></trkpt><trkpt lat="39.293378" lon="9.3608572"><ele>231.0</ele><time>2026-04-18T08:42:16.369Z</time></trkpt><trkpt lat="39.2934434" lon="9.3608821"><ele>231.0</ele><time>2026-04-18T08:42:21.377Z</time></trkpt><trkpt lat="39.2935273" lon="9.360892"><ele>231.0</ele><time>2026-04-18T08:42:25.387Z</time></trkpt><trkpt lat="39.2935945" lon="9.3608756"><ele>231.0</ele><time>2026-04-18T08:42:27.374Z</time></trkpt><trkpt lat="39.2936708" lon="9.360848"><ele>231.0</ele><time>2026-04-18T08:42:31.369Z</time></trkpt><trkpt lat="39.2937458" lon="9.3608456"><ele>231.0</ele><time>2026-04-18T08:42:35.397Z</time></trkpt><trkpt lat="39.2937752" lon="9.3609533"><ele>231.0</ele><time>2026-04-18T08:42:39.371Z</time></trkpt><trkpt lat="39.2938454" lon="9.3609809"><ele>231.0</ele><time>2026-04-18T08:42:41.369Z</time></trkpt><trkpt lat="39.2939092" lon="9.3609446"><ele>231.0</ele><time>2026-04-18T08:43:16.369Z</time></trkpt><trkpt lat="39.2940005" lon="9.3609169"><ele>228.8</ele><time>2026-04-18T08:43:19.383Z</time></trkpt><trkpt lat="39.2940969" lon="9.3608683"><ele>226.60000000000002</ele><time>2026-04-18T08:43:21.376Z</time></trkpt><trkpt lat="39.2941723" lon="9.3607742"><ele>224.4</ele><time>2026-04-18T08:43:23.394Z</time></trkpt><trkpt lat="39.2942563" lon="9.3606931"><ele>222.2</ele><time>2026-04-18T08:43:25.375Z</time></trkpt><trkpt lat="39.294308" lon="9.360628"><ele>220.0</ele><time>2026-04-18T08:43:27.359Z</time></trkpt><trkpt lat="39.2943339" lon="9.3605026"><ele>218.8</ele><time>2026-04-18T08:43:29.379Z</time></trkpt><trkpt lat="39.2943841" lon="9.360392"><ele>217.6</ele><time>2026-04-18T08:43:31.374Z</time></trkpt><trkpt lat="39.2943971" lon="9.3602927"><ele>216.39999999999998</ele><time>2026-04-18T08:43:33.378Z</time></trkpt><trkpt lat="39.2943813" lon="9.360173"><ele>215.2</ele><time>2026-04-18T08:43:35.359Z</time></trkpt><trkpt lat="39.2944021" lon="9.3600299"><ele>214.0</ele><time>2026-04-18T08:43:37.368Z</time></trkpt><trkpt lat="39.2944527" lon="9.3599189"><ele>214.0</ele><time>2026-04-18T08:43:39.369Z</time></trkpt><trkpt lat="39.2945388" lon="9.3598396"><ele>213.99999999999997</ele><time>2026-04-18T08:43:41.376Z</time></trkpt><trkpt lat="39.294655" lon="9.3598172"><ele>213.99999999999997</ele><time>2026-04-18T08:43:43.378Z</time></trkpt><trkpt lat="39.2947152" lon="9.3597914"><ele>214.0</ele><time>2026-04-18T08:43:44.36Z</time></trkpt><trkpt lat="39.2948148" lon="9.3597001"><ele>214.0</ele><time>2026-04-18T08:43:46.372Z</time></trkpt><trkpt lat="39.2948558" lon="9.3596276"><ele>210.49999999999997</ele><time>2026-04-18T08:43:47.369Z</time></trkpt><trkpt lat="39.2948985" lon="9.3595537"><ele>207.0</ele><time>2026-04-18T08:43:48.37Z</time></trkpt><trkpt lat="39.2949411" lon="9.3594801"><ele>203.5</ele><time>2026-04-18T08:43:49.369Z</time></trkpt><trkpt lat="39.294978" lon="9.3594037"><ele>200.0</ele><time>2026-04-18T08:43:50.371Z</time></trkpt><trkpt lat="39.2950135" lon="9.3593192"><ele>196.49999999999997</ele><time>2026-04-18T08:43:51.358Z</time></trkpt><trkpt lat="39.2950495" lon="9.3592326"><ele>193.0</ele><time>2026-04-18T08:43:52.366Z</time></trkpt><trkpt lat="39.295104" lon="9.3591378"><ele>192.99999999999997</ele><time>2026-04-18T08:43:54.365Z</time></trkpt><trkpt lat="39.2951823" lon="9.3592038"><ele>193.0</ele><time>2026-04-18T08:44:02.373Z</time></trkpt><trkpt lat="39.295269" lon="9.3592975"><ele>193.0</ele><time>2026-04-18T08:44:04.358Z</time></trkpt><trkpt lat="39.2953221" lon="9.3593572"><ele>193.0</ele><time>2026-04-18T08:44:05.361Z</time></trkpt><trkpt lat="39.2953776" lon="9.3594197"><ele>192.99999999999997</ele><time>2026-04-18T08:44:06.365Z</time></trkpt><trkpt lat="39.2954356" lon="9.3594845"><ele>193.0</ele><time>2026-04-18T08:44:07.372Z</time></trkpt><trkpt lat="39.2955029" lon="9.3595441"><ele>192.99999999999997</ele><time>2026-04-18T08:44:08.375Z</time></trkpt><trkpt lat="39.2955707" lon="9.3595912"><ele>193.0</ele><time>2026-04-18T08:44:09.37Z</time></trkpt><trkpt lat="39.2956406" lon="9.3596366"><ele>193.0</ele><time>2026-04-18T08:44:10.364Z</time></trkpt><trkpt lat="39.2957093" lon="9.3596872"><ele>193.0</ele><time>2026-04-18T08:44:11.371Z</time></trkpt><trkpt lat="39.2957791" lon="9.3597312"><ele>192.99999999999997</ele><time>2026-04-18T08:44:12.365Z</time></trkpt><trkpt lat="39.2958506" lon="9.3597665"><ele>193.0</ele><time>2026-04-18T08:44:13.366Z</time></trkpt><trkpt lat="39.2959116" lon="9.3598115"><ele>193.66666666666666</ele><time>2026-04-18T08:44:14.361Z</time></trkpt><trkpt lat="39.2959692" lon="9.3598732"><ele>194.33333333333331</ele><time>2026-04-18T08:44:15.366Z</time></trkpt><trkpt lat="39.2960244" lon="9.3599536"><ele>195.0</ele><time>2026-04-18T08:44:16.381Z</time></trkpt><trkpt lat="39.2960891" lon="9.3600436"><ele>195.66666666666669</ele><time>2026-04-18T08:44:17.379Z</time></trkpt><trkpt lat="39.2961567" lon="9.360134"><ele>196.33333333333334</ele><time>2026-04-18T08:44:18.364Z</time></trkpt><trkpt lat="39.296224" lon="9.3602245"><ele>197.0</ele><time>2026-04-18T08:44:19.373Z</time></trkpt><trkpt lat="39.296291" lon="9.3603149"><ele>197.0</ele><time>2026-04-18T08:44:20.379Z</time></trkpt><trkpt lat="39.2963548" lon="9.3604081"><ele>197.0</ele><time>2026-04-18T08:44:21.361Z</time></trkpt><trkpt lat="39.2964176" lon="9.3605096"><ele>197.0</ele><time>2026-04-18T08:44:22.361Z</time></trkpt><trkpt lat="39.2964829" lon="9.3606113"><ele>197.0</ele><time>2026-04-18T08:44:23.377Z</time></trkpt><trkpt lat="39.2965412" lon="9.3607168"><ele>197.0</ele><time>2026-04-18T08:44:24.366Z</time></trkpt><trkpt lat="39.2966004" lon="9.3608125"><ele>196.8</ele><time>2026-04-18T08:44:25.373Z</time></trkpt><trkpt lat="39.2966723" lon="9.3608901"><ele>196.6</ele><time>2026-04-18T08:44:26.359Z</time></trkpt><trkpt lat="39.2967454" lon="9.3609666"><ele>196.4</ele><time>2026-04-18T08:44:27.364Z</time></trkpt><trkpt lat="39.2968055" lon="9.3610581"><ele>196.20000000000002</ele><time>2026-04-18T08:44:28.37Z</time></trkpt><trkpt lat="39.2968719" lon="9.3611419"><ele>196.0</ele><time>2026-04-18T08:44:29.363Z</time></trkpt><trkpt lat="39.2969367" lon="9.3612393"><ele>196.0</ele><time>2026-04-18T08:44:30.36Z</time></trkpt><trkpt lat="39.2970015" lon="9.361333"><ele>196.0</ele><time>2026-04-18T08:44:31.362Z</time></trkpt><trkpt lat="39.2970709" lon="9.3614233"><ele>196.0</ele><time>2026-04-18T08:44:32.397Z</time></trkpt><trkpt lat="39.2971528" lon="9.361501"><ele>196.0</ele><time>2026-04-18T08:44:33.37Z</time></trkpt><trkpt lat="39.2972357" lon="9.3615605"><ele>196.0</ele><time>2026-04-18T08:44:34.377Z</time></trkpt><trkpt lat="39.2973106" lon="9.3616108"><ele>196.83333333333331</ele><time>2026-04-18T08:44:35.377Z</time></trkpt><trkpt lat="39.2973737" lon="9.3616544"><ele>197.66666666666666</ele><time>2026-04-18T08:44:36.361Z</time></trkpt><trkpt lat="39.2974376" lon="9.3617001"><ele>198.5</ele><time>2026-04-18T08:44:37.376Z</time></trkpt><trkpt lat="39.2975126" lon="9.3617508"><ele>199.33333333333331</ele><time>2026-04-18T08:44:38.384Z</time></trkpt><trkpt lat="39.2975713" lon="9.3617813"><ele>200.16666666666666</ele><time>2026-04-18T08:44:39.361Z</time></trkpt><trkpt lat="39.2976644" lon="9.3618839"><ele>201.0</ele><time>2026-04-18T08:44:41.372Z</time></trkpt><trkpt lat="39.2976944" lon="9.3619657"><ele>201.0</ele><time>2026-04-18T08:44:42.367Z</time></trkpt><trkpt lat="39.2977291" lon="9.3620374"><ele>201.0</ele><time>2026-04-18T08:44:43.371Z</time></trkpt><trkpt lat="39.2977766" lon="9.3620981"><ele>201.0</ele><time>2026-04-18T08:44:44.372Z</time></trkpt><trkpt lat="39.2978203" lon="9.3621638"><ele>201.0</ele><time>2026-04-18T08:44:45.366Z</time></trkpt><trkpt lat="39.2978455" lon="9.362247"><ele>201.0</ele><time>2026-04-18T08:44:46.359Z</time></trkpt><trkpt lat="39.2978715" lon="9.362332"><ele>201.0</ele><time>2026-04-18T08:44:47.371Z</time></trkpt><trkpt lat="39.2978946" lon="9.3624216"><ele>201.0</ele><time>2026-04-18T08:44:48.372Z</time></trkpt><trkpt lat="39.2979115" lon="9.3625142"><ele>202.20000000000002</ele><time>2026-04-18T08:44:49.366Z</time></trkpt><trkpt lat="39.2978963" lon="9.3626255"><ele>203.4</ele><time>2026-04-18T08:44:51.368Z</time></trkpt><trkpt lat="39.297829" lon="9.3627149"><ele>204.6</ele><time>2026-04-18T08:44:53.368Z</time></trkpt><trkpt lat="39.2977829" lon="9.3628325"><ele>205.8</ele><time>2026-04-18T08:44:55.359Z</time></trkpt><trkpt lat="39.2977153" lon="9.3629091"><ele>207.0</ele><time>2026-04-18T08:44:57.368Z</time></trkpt><trkpt lat="39.2976435" lon="9.3629317"><ele>207.0</ele><time>2026-04-18T08:44:59.367Z</time></trkpt><trkpt lat="39.2976951" lon="9.3630142"><ele>207.0</ele><time>2026-04-18T08:45:02.376Z</time></trkpt><trkpt lat="39.2977719" lon="9.3631008"><ele>207.0</ele><time>2026-04-18T08:45:04.369Z</time></trkpt><trkpt lat="39.2978094" lon="9.363167"><ele>207.0</ele><time>2026-04-18T08:45:05.364Z</time></trkpt><trkpt lat="39.2978768" lon="9.363301"><ele>207.0</ele><time>2026-04-18T08:45:07.365Z</time></trkpt><trkpt lat="39.2979235" lon="9.3633796"><ele>207.0</ele><time>2026-04-18T08:45:08.371Z</time></trkpt><trkpt lat="39.2979603" lon="9.3635003"><ele>207.83333333333334</ele><time>2026-04-18T08:45:10.364Z</time></trkpt><trkpt lat="39.2979858" lon="9.3635875"><ele>208.66666666666669</ele><time>2026-04-18T08:45:13.373Z</time></trkpt><trkpt lat="39.2980201" lon="9.3636757"><ele>209.5</ele><time>2026-04-18T08:45:19.371Z</time></trkpt><trkpt lat="39.2980104" lon="9.3637763"><ele>210.33333333333334</ele><time>2026-04-18T08:45:21.366Z</time></trkpt><trkpt lat="39.297985" lon="9.3638585"><ele>211.16666666666669</ele><time>2026-04-18T08:45:23.362Z</time></trkpt><trkpt lat="39.2979292" lon="9.3639678"><ele>212.0</ele><time>2026-04-18T08:45:25.368Z</time></trkpt><trkpt lat="39.2979139" lon="9.3640993"><ele>213.16666666666669</ele><time>2026-04-18T08:45:27.36Z</time></trkpt><trkpt lat="39.2979225" lon="9.3642092"><ele>214.33333333333334</ele><time>2026-04-18T08:45:28.373Z</time></trkpt><trkpt lat="39.2979341" lon="9.3643263"><ele>215.5</ele><time>2026-04-18T08:45:29.377Z</time></trkpt><trkpt lat="39.2979493" lon="9.3644303"><ele>216.66666666666669</ele><time>2026-04-18T08:45:30.367Z</time></trkpt><trkpt lat="39.2979586" lon="9.3645608"><ele>217.83333333333334</ele><time>2026-04-18T08:45:32.368Z</time></trkpt><trkpt lat="39.2979846" lon="9.3646671"><ele>219.0</ele><time>2026-04-18T08:45:42.365Z</time></trkpt><trkpt lat="39.2980313" lon="9.3647419"><ele>220.39999999999998</ele><time>2026-04-18T08:45:44.364Z</time></trkpt><trkpt lat="39.298073" lon="9.3648269"><ele>221.79999999999998</ele><time>2026-04-18T08:45:46.383Z</time></trkpt><trkpt lat="39.2980861" lon="9.3649565"><ele>223.20000000000002</ele><time>2026-04-18T08:45:48.347Z</time></trkpt><trkpt lat="39.2980714" lon="9.3650489"><ele>224.60000000000002</ele><time>2026-04-18T08:45:49.376Z</time></trkpt><trkpt lat="39.2980475" lon="9.3651718"><ele>226.0</ele><time>2026-04-18T08:45:50.359Z</time></trkpt><trkpt lat="39.2980207" lon="9.3653206"><ele>226.0</ele><time>2026-04-18T08:45:51.363Z</time></trkpt><trkpt lat="39.2979951" lon="9.3654768"><ele>226.0</ele><time>2026-04-18T08:45:52.365Z</time></trkpt><trkpt lat="39.2979752" lon="9.3656427"><ele>226.0</ele><time>2026-04-18T08:45:53.363Z</time></trkpt><trkpt lat="39.2979636" lon="9.3658147"><ele>226.0</ele><time>2026-04-18T08:45:54.364Z</time></trkpt><trkpt lat="39.2979512" lon="9.3659843"><ele>225.5</ele><time>2026-04-18T08:45:55.376Z</time></trkpt><trkpt lat="39.2979452" lon="9.3661537"><ele>225.0</ele><time>2026-04-18T08:45:56.361Z</time></trkpt><trkpt lat="39.2979502" lon="9.366323"><ele>224.5</ele><time>2026-04-18T08:45:57.375Z</time></trkpt><trkpt lat="39.2979595" lon="9.3664875"><ele>224.0</ele><time>2026-04-18T08:45:58.37Z</time></trkpt><trkpt lat="39.2979728" lon="9.3666462"><ele>223.75</ele><time>2026-04-18T08:45:59.356Z</time></trkpt><trkpt lat="39.2979876" lon="9.3667977"><ele>223.5</ele><time>2026-04-18T08:46:00.383Z</time></trkpt><trkpt lat="39.298017" lon="9.3669444"><ele>223.25</ele><time>2026-04-18T08:46:01.369Z</time></trkpt><trkpt lat="39.2980603" lon="9.3670822"><ele>223.0</ele><time>2026-04-18T08:46:02.388Z</time></trkpt><trkpt lat="39.2981178" lon="9.3672078"><ele>222.4</ele><time>2026-04-18T08:46:03.359Z</time></trkpt><trkpt lat="39.2981801" lon="9.3673218"><ele>221.8</ele><time>2026-04-18T08:46:04.363Z</time></trkpt><trkpt lat="39.298241" lon="9.3674246"><ele>221.2</ele><time>2026-04-18T08:46:05.381Z</time></trkpt><trkpt lat="39.2982966" lon="9.3675306"><ele>220.6</ele><time>2026-04-18T08:46:06.381Z</time></trkpt><trkpt lat="39.2983495" lon="9.3676367"><ele>220.0</ele><time>2026-04-18T08:46:07.361Z</time></trkpt><trkpt lat="39.2984052" lon="9.3677381"><ele>220.0</ele><time>2026-04-18T08:46:08.38Z</time></trkpt><trkpt lat="39.2984543" lon="9.3678402"><ele>220.0</ele><time>2026-04-18T08:46:09.354Z</time></trkpt><trkpt lat="39.2984981" lon="9.3679408"><ele>220.0</ele><time>2026-04-18T08:46:10.37Z</time></trkpt><trkpt lat="39.2985399" lon="9.3680359"><ele>220.0</ele><time>2026-04-18T08:46:11.36Z</time></trkpt><trkpt lat="39.2985731" lon="9.3681186"><ele>220.0</ele><time>2026-04-18T08:46:12.371Z</time></trkpt><trkpt lat="39.2986527" lon="9.3682194"><ele>221.4</ele><time>2026-04-18T08:46:14.377Z</time></trkpt><trkpt lat="39.2987507" lon="9.3683098"><ele>222.8</ele><time>2026-04-18T08:46:16.372Z</time></trkpt><trkpt lat="39.2988351" lon="9.3684364"><ele>224.2</ele><time>2026-04-18T08:46:18.36Z</time></trkpt><trkpt lat="39.298866" lon="9.3685265"><ele>225.6</ele><time>2026-04-18T08:46:19.369Z</time></trkpt><trkpt lat="39.2988846" lon="9.3686489"><ele>227.0</ele><time>2026-04-18T08:46:20.361Z</time></trkpt><trkpt lat="39.2989044" lon="9.3687707"><ele>226.39999999999998</ele><time>2026-04-18T08:46:21.378Z</time></trkpt><trkpt lat="39.2989518" lon="9.368889"><ele>225.79999999999998</ele><time>2026-04-18T08:46:22.369Z</time></trkpt><trkpt lat="39.2990233" lon="9.3689857"><ele>225.2</ele><time>2026-04-18T08:46:23.376Z</time></trkpt><trkpt lat="39.2990958" lon="9.3690789"><ele>224.6</ele><time>2026-04-18T08:46:24.373Z</time></trkpt><trkpt lat="39.2991573" lon="9.3691659"><ele>224.0</ele><time>2026-04-18T08:46:25.36Z</time></trkpt><trkpt lat="39.2992097" lon="9.3692414"><ele>224.00000000000003</ele><time>2026-04-18T08:46:26.365Z</time></trkpt><trkpt lat="39.2992437" lon="9.3693262"><ele>224.0</ele><time>2026-04-18T08:46:27.361Z</time></trkpt><trkpt lat="39.2992575" lon="9.3694218"><ele>224.0</ele><time>2026-04-18T08:46:28.385Z</time></trkpt><trkpt lat="39.2992674" lon="9.3695229"><ele>224.0</ele><time>2026-04-18T08:46:29.362Z</time></trkpt><trkpt lat="39.2992193" lon="9.3696225"><ele>224.00000000000003</ele><time>2026-04-18T08:46:30.369Z</time></trkpt><trkpt lat="39.2991664" lon="9.3697265"><ele>224.0</ele><time>2026-04-18T08:46:31.373Z</time></trkpt><trkpt lat="39.2991021" lon="9.3698268"><ele>225.6</ele><time>2026-04-18T08:46:32.368Z</time></trkpt><trkpt lat="39.2990525" lon="9.369931"><ele>227.2</ele><time>2026-04-18T08:46:33.381Z</time></trkpt><trkpt lat="39.2990036" lon="9.3700417"><ele>228.79999999999998</ele><time>2026-04-18T08:46:34.362Z</time></trkpt><trkpt lat="39.2989778" lon="9.3701732"><ele>230.39999999999998</ele><time>2026-04-18T08:46:35.363Z</time></trkpt><trkpt lat="39.2989539" lon="9.3703115"><ele>232.0</ele><time>2026-04-18T08:46:36.371Z</time></trkpt><trkpt lat="39.2989297" lon="9.3704571"><ele>233.2</ele><time>2026-04-18T08:46:37.363Z</time></trkpt><trkpt lat="39.2989132" lon="9.3706095"><ele>234.39999999999998</ele><time>2026-04-18T08:46:38.366Z</time></trkpt><trkpt lat="39.2989061" lon="9.370745"><ele>235.60000000000002</ele><time>2026-04-18T08:46:39.372Z</time></trkpt><trkpt lat="39.2989127" lon="9.3708674"><ele>236.8</ele><time>2026-04-18T08:46:40.38Z</time></trkpt><trkpt lat="39.298918" lon="9.3709774"><ele>238.0</ele><time>2026-04-18T08:46:41.38Z</time></trkpt><trkpt lat="39.2989168" lon="9.3710703"><ele>237.99999999999997</ele><time>2026-04-18T08:46:42.369Z</time></trkpt><trkpt lat="39.2989212" lon="9.3711634"><ele>238.0</ele><time>2026-04-18T08:46:43.372Z</time></trkpt><trkpt lat="39.2989344" lon="9.3712502"><ele>238.0</ele><time>2026-04-18T08:46:44.382Z</time></trkpt><trkpt lat="39.2989546" lon="9.3713951"><ele>238.0</ele><time>2026-04-18T08:46:46.376Z</time></trkpt><trkpt lat="39.2989678" lon="9.3715459"><ele>237.99999999999997</ele><time>2026-04-18T08:46:48.374Z</time></trkpt><trkpt lat="39.2989662" lon="9.3716297"><ele>238.0</ele><time>2026-04-18T08:46:49.375Z</time></trkpt><trkpt lat="39.2989587" lon="9.3717201"><ele>238.66666666666666</ele><time>2026-04-18T08:46:50.364Z</time></trkpt><trkpt lat="39.2989508" lon="9.3718178"><ele>239.33333333333331</ele><time>2026-04-18T08:46:51.37Z</time></trkpt><trkpt lat="39.2989443" lon="9.3719156"><ele>240.0</ele><time>2026-04-18T08:46:52.358Z</time></trkpt><trkpt lat="39.2989541" lon="9.3720378"><ele>240.66666666666669</ele><time>2026-04-18T08:46:53.369Z</time></trkpt><trkpt lat="39.2989545" lon="9.3721637"><ele>241.33333333333334</ele><time>2026-04-18T08:46:54.382Z</time></trkpt><trkpt lat="39.2989435" lon="9.3722841"><ele>242.0</ele><time>2026-04-18T08:46:55.361Z</time></trkpt><trkpt lat="39.298922" lon="9.3723988"><ele>242.00000000000003</ele><time>2026-04-18T08:46:56.368Z</time></trkpt><trkpt lat="39.2989008" lon="9.372506"><ele>242.0</ele><time>2026-04-18T08:46:57.381Z</time></trkpt><trkpt lat="39.2988972" lon="9.3726073"><ele>242.0</ele><time>2026-04-18T08:46:58.373Z</time></trkpt><trkpt lat="39.2988967" lon="9.3727041"><ele>242.0</ele><time>2026-04-18T08:46:59.362Z</time></trkpt><trkpt lat="39.2989263" lon="9.3728057"><ele>242.00000000000003</ele><time>2026-04-18T08:47:00.356Z</time></trkpt><trkpt lat="39.2989545" lon="9.3729132"><ele>242.0</ele><time>2026-04-18T08:47:01.358Z</time></trkpt><trkpt lat="39.2989807" lon="9.3730275"><ele>243.6</ele><time>2026-04-18T08:47:02.355Z</time></trkpt><trkpt lat="39.2990114" lon="9.3731517"><ele>245.2</ele><time>2026-04-18T08:47:03.362Z</time></trkpt><trkpt lat="39.2990642" lon="9.3732841"><ele>246.8</ele><time>2026-04-18T08:47:04.373Z</time></trkpt><trkpt lat="39.2991225" lon="9.3734085"><ele>248.4</ele><time>2026-04-18T08:47:05.368Z</time></trkpt><trkpt lat="39.2991854" lon="9.373524"><ele>250.0</ele><time>2026-04-18T08:47:06.374Z</time></trkpt><trkpt lat="39.2992395" lon="9.3736264"><ele>249.99999999999997</ele><time>2026-04-18T08:47:07.377Z</time></trkpt><trkpt lat="39.2992733" lon="9.3737159"><ele>250.0</ele><time>2026-04-18T08:47:08.379Z</time></trkpt><trkpt lat="39.299302" lon="9.3737977"><ele>250.0</ele><time>2026-04-18T08:47:09.365Z</time></trkpt><trkpt lat="39.2993088" lon="9.3739483"><ele>250.0</ele><time>2026-04-18T08:47:11.384Z</time></trkpt><trkpt lat="39.2993466" lon="9.3740337"><ele>249.99999999999997</ele><time>2026-04-18T08:47:12.37Z</time></trkpt><trkpt lat="39.2993989" lon="9.3741176"><ele>250.0</ele><time>2026-04-18T08:47:13.354Z</time></trkpt><trkpt lat="39.299451" lon="9.3742089"><ele>250.49999999999997</ele><time>2026-04-18T08:47:14.357Z</time></trkpt><trkpt lat="39.2994946" lon="9.3742921"><ele>251.0</ele><time>2026-04-18T08:47:15.365Z</time></trkpt><trkpt lat="39.2995473" lon="9.3743705"><ele>251.5</ele><time>2026-04-18T08:47:16.364Z</time></trkpt><trkpt lat="39.2995938" lon="9.3744581"><ele>252.0</ele><time>2026-04-18T08:47:17.364Z</time></trkpt><trkpt lat="39.2996362" lon="9.3745441"><ele>252.49999999999997</ele><time>2026-04-18T08:47:18.364Z</time></trkpt><trkpt lat="39.2996679" lon="9.3746377"><ele>253.0</ele><time>2026-04-18T08:47:19.37Z</time></trkpt><trkpt lat="39.2996999" lon="9.3747278"><ele>252.33333333333331</ele><time>2026-04-18T08:47:20.377Z</time></trkpt><trkpt lat="39.2997318" lon="9.3748159"><ele>251.66666666666666</ele><time>2026-04-18T08:47:21.389Z</time></trkpt><trkpt lat="39.2997605" lon="9.3749055"><ele>251.0</ele><time>2026-04-18T08:47:22.371Z</time></trkpt><trkpt lat="39.2997884" lon="9.3749981"><ele>250.33333333333331</ele><time>2026-04-18T08:47:23.356Z</time></trkpt><trkpt lat="39.2998092" lon="9.3750776"><ele>249.66666666666666</ele><time>2026-04-18T08:47:24.371Z</time></trkpt><trkpt lat="39.2998419" lon="9.375151"><ele>249.0</ele><time>2026-04-18T08:47:25.369Z</time></trkpt><trkpt lat="39.2998952" lon="9.3752897"><ele>249.0</ele><time>2026-04-18T08:47:27.364Z</time></trkpt><trkpt lat="39.299911" lon="9.3754162"><ele>249.0</ele><time>2026-04-18T08:47:29.376Z</time></trkpt><trkpt lat="39.2999677" lon="9.3754923"><ele>249.0</ele><time>2026-04-18T08:47:30.368Z</time></trkpt><trkpt lat="39.3000289" lon="9.3755698"><ele>249.0</ele><time>2026-04-18T08:47:31.367Z</time></trkpt><trkpt lat="39.3000859" lon="9.3756439"><ele>249.0</ele><time>2026-04-18T08:47:32.373Z</time></trkpt><trkpt lat="39.3001368" lon="9.375719"><ele>249.0</ele><time>2026-04-18T08:47:33.37Z</time></trkpt><trkpt lat="39.3001793" lon="9.3757829"><ele>250.0</ele><time>2026-04-18T08:47:34.363Z</time></trkpt><trkpt lat="39.3002539" lon="9.3758906"><ele>251.0</ele><time>2026-04-18T08:47:36.377Z</time></trkpt><trkpt lat="39.3003033" lon="9.3759558"><ele>252.0</ele><time>2026-04-18T08:47:37.368Z</time></trkpt><trkpt lat="39.3003579" lon="9.376029"><ele>253.0</ele><time>2026-04-18T08:47:38.372Z</time></trkpt><trkpt lat="39.3004024" lon="9.3760871"><ele>254.0</ele><time>2026-04-18T08:47:39.366Z</time></trkpt><trkpt lat="39.3004462" lon="9.3762013"><ele>255.0</ele><time>2026-04-18T08:47:41.379Z</time></trkpt><trkpt lat="39.3004688" lon="9.3763166"><ele>256.6666666666667</ele><time>2026-04-18T08:47:43.365Z</time></trkpt><trkpt lat="39.3004773" lon="9.3764201"><ele>258.3333333333333</ele><time>2026-04-18T08:47:45.372Z</time></trkpt><trkpt lat="39.3004834" lon="9.3765066"><ele>260.0</ele><time>2026-04-18T08:47:47.383Z</time></trkpt><trkpt lat="39.3004656" lon="9.3766336"><ele>261.66666666666663</ele><time>2026-04-18T08:47:49.362Z</time></trkpt><trkpt lat="39.3004306" lon="9.3767452"><ele>263.3333333333333</ele><time>2026-04-18T08:47:51.366Z</time></trkpt><trkpt lat="39.300395" lon="9.3768332"><ele>265.0</ele><time>2026-04-18T08:47:53.368Z</time></trkpt><trkpt lat="39.3004448" lon="9.376928"><ele>265.0</ele><time>2026-04-18T08:47:56.364Z</time></trkpt><trkpt lat="39.3005213" lon="9.3770329"><ele>265.0</ele><time>2026-04-18T08:47:58.378Z</time></trkpt><trkpt lat="39.300528" lon="9.3771153"><ele>265.0</ele><time>2026-04-18T08:47:59.369Z</time></trkpt><trkpt lat="39.3005319" lon="9.3772087"><ele>265.0</ele><time>2026-04-18T08:48:00.37Z</time></trkpt><trkpt lat="39.3005266" lon="9.3773188"><ele>265.0</ele><time>2026-04-18T08:48:01.365Z</time></trkpt><trkpt lat="39.3005225" lon="9.3774219"><ele>265.0</ele><time>2026-04-18T08:48:02.364Z</time></trkpt><trkpt lat="39.3005434" lon="9.3775673"><ele>266.4</ele><time>2026-04-18T08:48:04.385Z</time></trkpt><trkpt lat="39.3005161" lon="9.3776984"><ele>267.8</ele><time>2026-04-18T08:48:06.38Z</time></trkpt><trkpt lat="39.3004902" lon="9.3778413"><ele>269.2</ele><time>2026-04-18T08:48:08.365Z</time></trkpt><trkpt lat="39.3004635" lon="9.3779774"><ele>270.6</ele><time>2026-04-18T08:48:10.372Z</time></trkpt><trkpt lat="39.3004249" lon="9.3780844"><ele>272.0</ele><time>2026-04-18T08:48:12.364Z</time></trkpt><trkpt lat="39.3004105" lon="9.3782305"><ele>273.0</ele><time>2026-04-18T08:48:14.357Z</time></trkpt><trkpt lat="39.300409" lon="9.3783512"><ele>274.0</ele><time>2026-04-18T08:48:16.365Z</time></trkpt><trkpt lat="39.3004094" lon="9.3784713"><ele>275.0</ele><time>2026-04-18T08:48:18.379Z</time></trkpt><trkpt lat="39.3004219" lon="9.3786198"><ele>276.0</ele><time>2026-04-18T08:48:20.378Z</time></trkpt><trkpt lat="39.3004461" lon="9.3787669"><ele>277.0</ele><time>2026-04-18T08:48:22.362Z</time></trkpt><trkpt lat="39.3004929" lon="9.3788938"><ele>277.66666666666663</ele><time>2026-04-18T08:48:24.368Z</time></trkpt><trkpt lat="39.300515" lon="9.3790099"><ele>278.3333333333333</ele><time>2026-04-18T08:48:26.361Z</time></trkpt><trkpt lat="39.3005107" lon="9.3791048"><ele>279.0</ele><time>2026-04-18T08:48:28.358Z</time></trkpt><trkpt lat="39.3005109" lon="9.3791889"><ele>279.6666666666667</ele><time>2026-04-18T08:48:33.387Z</time></trkpt><trkpt lat="39.3005381" lon="9.3792948"><ele>280.33333333333337</ele><time>2026-04-18T08:48:36.368Z</time></trkpt><trkpt lat="39.3005261" lon="9.3793996"><ele>281.0</ele><time>2026-04-18T08:48:38.363Z</time></trkpt><trkpt lat="39.3004954" lon="9.3794991"><ele>281.0</ele><time>2026-04-18T08:48:40.373Z</time></trkpt><trkpt lat="39.3004922" lon="9.3796228"><ele>281.0</ele><time>2026-04-18T08:48:42.362Z</time></trkpt><trkpt lat="39.3004431" lon="9.3797267"><ele>281.0</ele><time>2026-04-18T08:48:44.371Z</time></trkpt><trkpt lat="39.3004315" lon="9.3798576"><ele>281.0</ele><time>2026-04-18T08:48:46.381Z</time></trkpt><trkpt lat="39.3004343" lon="9.3799933"><ele>281.0</ele><time>2026-04-18T08:48:48.372Z</time></trkpt><trkpt lat="39.3004553" lon="9.3801089"><ele>282.14285714285717</ele><time>2026-04-18T08:48:51.373Z</time></trkpt><trkpt lat="39.3004644" lon="9.3802101"><ele>283.2857142857143</ele><time>2026-04-18T08:48:53.366Z</time></trkpt><trkpt lat="39.3004701" lon="9.3802968"><ele>284.42857142857144</ele><time>2026-04-18T08:48:55.371Z</time></trkpt><trkpt lat="39.3004903" lon="9.3803764"><ele>285.57142857142856</ele><time>2026-04-18T08:49:13.364Z</time></trkpt><trkpt lat="39.3005135" lon="9.380454"><ele>286.7142857142857</ele><time>2026-04-18T08:49:16.368Z</time></trkpt><trkpt lat="39.3005466" lon="9.3805444"><ele>287.8571428571429</ele><time>2026-04-18T08:49:18.357Z</time></trkpt><trkpt lat="39.3005528" lon="9.3806528"><ele>289.0</ele><time>2026-04-18T08:49:20.365Z</time></trkpt><trkpt lat="39.3005177" lon="9.3807205"><ele>289.8333333333333</ele><time>2026-04-18T08:49:22.356Z</time></trkpt><trkpt lat="39.3004681" lon="9.3808015"><ele>290.66666666666663</ele><time>2026-04-18T08:49:24.359Z</time></trkpt><trkpt lat="39.3004667" lon="9.3809055"><ele>291.5</ele><time>2026-04-18T08:49:26.356Z</time></trkpt><trkpt lat="39.300486" lon="9.3810005"><ele>292.3333333333333</ele><time>2026-04-18T08:49:28.379Z</time></trkpt><trkpt lat="39.3004947" lon="9.3810851"><ele>293.1666666666667</ele><time>2026-04-18T08:49:30.357Z</time></trkpt><trkpt lat="39.300498" lon="9.3811876"><ele>294.0</ele><time>2026-04-18T08:49:33.355Z</time></trkpt><trkpt lat="39.3004778" lon="9.3812867"><ele>292.8333333333333</ele><time>2026-04-18T08:49:36.347Z</time></trkpt><trkpt lat="39.3004811" lon="9.3813836"><ele>291.6666666666667</ele><time>2026-04-18T08:49:46.357Z</time></trkpt><trkpt lat="39.3004954" lon="9.3814943"><ele>290.5</ele><time>2026-04-18T08:49:49.358Z</time></trkpt><trkpt lat="39.3005366" lon="9.3815848"><ele>289.33333333333337</ele><time>2026-04-18T08:49:52.351Z</time></trkpt><trkpt lat="39.3006068" lon="9.3815884"><ele>288.1666666666667</ele><time>2026-04-18T08:49:54.358Z</time></trkpt><trkpt lat="39.3006963" lon="9.3815982"><ele>287.0</ele><time>2026-04-18T08:49:56.348Z</time></trkpt><trkpt lat="39.3007769" lon="9.3816695"><ele>287.0</ele><time>2026-04-18T08:49:58.363Z</time></trkpt><trkpt lat="39.3008446" lon="9.381766"><ele>287.0</ele><time>2026-04-18T08:50:00.36Z</time></trkpt><trkpt lat="39.3008858" lon="9.3818695"><ele>287.0</ele><time>2026-04-18T08:50:02.355Z</time></trkpt><trkpt lat="39.3009065" lon="9.3819748"><ele>287.0</ele><time>2026-04-18T08:50:04.357Z</time></trkpt><trkpt lat="39.3009174" lon="9.3821072"><ele>287.0</ele><time>2026-04-18T08:50:06.373Z</time></trkpt><trkpt lat="39.3009606" lon="9.382246"><ele>288.8</ele><time>2026-04-18T08:50:08.367Z</time></trkpt><trkpt lat="39.3009585" lon="9.3823675"><ele>290.6</ele><time>2026-04-18T08:50:10.361Z</time></trkpt><trkpt lat="39.3009192" lon="9.3824954"><ele>292.40000000000003</ele><time>2026-04-18T08:50:12.359Z</time></trkpt><trkpt lat="39.3009279" lon="9.3826144"><ele>294.2</ele><time>2026-04-18T08:50:14.376Z</time></trkpt><trkpt lat="39.3009169" lon="9.3827531"><ele>296.0</ele><time>2026-04-18T08:50:16.359Z</time></trkpt><trkpt lat="39.3009021" lon="9.3828849"><ele>296.8</ele><time>2026-04-18T08:50:18.363Z</time></trkpt><trkpt lat="39.3008977" lon="9.3830332"><ele>297.6</ele><time>2026-04-18T08:50:20.369Z</time></trkpt><trkpt lat="39.3008547" lon="9.383139"><ele>298.4</ele><time>2026-04-18T08:50:22.352Z</time></trkpt><trkpt lat="39.3007825" lon="9.3832219"><ele>299.2</ele><time>2026-04-18T08:50:24.365Z</time></trkpt><trkpt lat="39.3007701" lon="9.3833254"><ele>300.0</ele><time>2026-04-18T08:50:26.364Z</time></trkpt><trkpt lat="39.3007849" lon="9.3834219"><ele>300.0</ele><time>2026-04-18T08:51:02.36Z</time></trkpt><trkpt lat="39.3007721" lon="9.3835146"><ele>300.0</ele><time>2026-04-18T08:51:05.37Z</time></trkpt><trkpt lat="39.3006928" lon="9.3835619"><ele>300.0</ele><time>2026-04-18T08:51:08.354Z</time></trkpt><trkpt lat="39.3006139" lon="9.3835546"><ele>300.0</ele><time>2026-04-18T08:51:10.361Z</time></trkpt><trkpt lat="39.3005186" lon="9.3835438"><ele>300.0</ele><time>2026-04-18T08:51:12.363Z</time></trkpt><trkpt lat="39.3004273" lon="9.3835041"><ele>300.0</ele><time>2026-04-18T08:51:14.37Z</time></trkpt><trkpt lat="39.300326" lon="9.3834907"><ele>303.5</ele><time>2026-04-18T08:51:16.368Z</time></trkpt><trkpt lat="39.3002422" lon="9.3834713"><ele>307.0</ele><time>2026-04-18T08:51:18.362Z</time></trkpt><trkpt lat="39.3001559" lon="9.3834996"><ele>310.5</ele><time>2026-04-18T08:51:20.364Z</time></trkpt><trkpt lat="39.3000608" lon="9.3835321"><ele>314.0</ele><time>2026-04-18T08:51:22.365Z</time></trkpt><trkpt lat="39.3000034" lon="9.3835691"><ele>317.5</ele><time>2026-04-18T08:51:24.367Z</time></trkpt><trkpt lat="39.2999428" lon="9.3836128"><ele>321.0</ele><time>2026-04-18T08:51:31.393Z</time></trkpt><trkpt lat="39.2998555" lon="9.3835935"><ele>320.99999999999994</ele><time>2026-04-18T08:51:34.373Z</time></trkpt><trkpt lat="39.2997955" lon="9.3835576"><ele>321.0</ele><time>2026-04-18T08:51:36.372Z</time></trkpt><trkpt lat="39.2997281" lon="9.3835142"><ele>321.0</ele><time>2026-04-18T08:52:12.366Z</time></trkpt><trkpt lat="39.2996631" lon="9.3835175"><ele>321.0</ele><time>2026-04-18T08:52:14.368Z</time></trkpt><trkpt lat="39.2995883" lon="9.3835407"><ele>321.0</ele><time>2026-04-18T08:52:16.366Z</time></trkpt><trkpt lat="39.2994972" lon="9.3835454"><ele>320.99999999999994</ele><time>2026-04-18T08:52:18.37Z</time></trkpt><trkpt lat="39.2994395" lon="9.3835943"><ele>321.0</ele><time>2026-04-18T08:52:20.36Z</time></trkpt><trkpt lat="39.2994177" lon="9.3837122"><ele>324.5</ele><time>2026-04-18T08:52:22.366Z</time></trkpt><trkpt lat="39.2993889" lon="9.3838162"><ele>328.0</ele><time>2026-04-18T08:52:24.371Z</time></trkpt><trkpt lat="39.299329" lon="9.3838945"><ele>331.5</ele><time>2026-04-18T08:52:26.367Z</time></trkpt><trkpt lat="39.2992761" lon="9.383958"><ele>335.0</ele><time>2026-04-18T08:52:28.369Z</time></trkpt><trkpt lat="39.2992097" lon="9.3839638"><ele>338.5</ele><time>2026-04-18T08:52:30.381Z</time></trkpt><trkpt lat="39.2991173" lon="9.3839466"><ele>342.0</ele><time>2026-04-18T08:52:32.38Z</time></trkpt><trkpt lat="39.2990329" lon="9.3839338"><ele>342.6666666666667</ele><time>2026-04-18T08:52:34.366Z</time></trkpt><trkpt lat="39.2989214" lon="9.3839098"><ele>343.3333333333333</ele><time>2026-04-18T08:52:36.361Z</time></trkpt><trkpt lat="39.298834" lon="9.3838994"><ele>344.0</ele><time>2026-04-18T08:52:39.369Z</time></trkpt><trkpt lat="39.2987552" lon="9.3839423"><ele>344.66666666666663</ele><time>2026-04-18T08:52:51.359Z</time></trkpt><trkpt lat="39.298695" lon="9.3839121"><ele>345.3333333333333</ele><time>2026-04-18T08:52:53.365Z</time></trkpt><trkpt lat="39.2986464" lon="9.3838602"><ele>346.0</ele><time>2026-04-18T08:52:55.368Z</time></trkpt><trkpt lat="39.2985524" lon="9.3838427"><ele>349.16666666666663</ele><time>2026-04-18T08:53:11.379Z</time></trkpt><trkpt lat="39.2984833" lon="9.3838315"><ele>352.3333333333333</ele><time>2026-04-18T08:53:13.388Z</time></trkpt><trkpt lat="39.2984083" lon="9.3838066"><ele>355.5</ele><time>2026-04-18T08:55:58.341Z</time></trkpt><trkpt lat="39.2983212" lon="9.3838211"><ele>358.6666666666667</ele><time>2026-04-18T08:56:01.34Z</time></trkpt><trkpt lat="39.298259" lon="9.3838518"><ele>361.83333333333337</ele><time>2026-04-18T08:56:42.374Z</time></trkpt><trkpt lat="39.2981842" lon="9.3838509"><ele>365.0</ele><time>2026-04-18T08:56:54.36Z</time></trkpt><trkpt lat="39.2981072" lon="9.3838605"><ele>368.5</ele><time>2026-04-18T08:57:00.359Z</time></trkpt><trkpt lat="39.2980434" lon="9.3838816"><ele>372.0</ele><time>2026-04-18T08:57:03.361Z</time></trkpt><trkpt lat="39.297995" lon="9.3837864"><ele>375.5</ele><time>2026-04-18T08:57:06.367Z</time></trkpt><trkpt lat="39.2979859" lon="9.3839018"><ele>379.0</ele><time>2026-04-18T08:58:18.362Z</time></trkpt><trkpt lat="39.2980124" lon="9.3840032"><ele>382.49999999999994</ele><time>2026-04-18T08:58:21.361Z</time></trkpt><trkpt lat="39.2979994" lon="9.3840909"><ele>386.0</ele><time>2026-04-18T09:01:51.369Z</time></trkpt><trkpt lat="39.2979209" lon="9.384121"><ele>385.99999999999994</ele><time>2026-04-18T09:01:55.356Z</time></trkpt><trkpt lat="39.2978454" lon="9.3840747"><ele>386.0</ele><time>2026-04-18T09:01:58.358Z</time></trkpt><trkpt lat="39.297786" lon="9.3839726"><ele>386.0</ele><time>2026-04-18T09:02:01.37Z</time></trkpt><trkpt lat="39.2977234" lon="9.3839128"><ele>386.0</ele><time>2026-04-18T09:02:03.371Z</time></trkpt><trkpt lat="39.297642" lon="9.3838981"><ele>385.99999999999994</ele><time>2026-04-18T09:02:05.371Z</time></trkpt><trkpt lat="39.2975689" lon="9.3838899"><ele>386.0</ele><time>2026-04-18T09:02:07.366Z</time></trkpt><trkpt lat="39.2975016" lon="9.3838457"><ele>385.99999999999994</ele><time>2026-04-18T09:02:09.357Z</time></trkpt><trkpt lat="39.2974321" lon="9.3838213"><ele>386.0</ele><time>2026-04-18T09:02:11.375Z</time></trkpt><trkpt lat="39.2973575" lon="9.3837646"><ele>386.0</ele><time>2026-04-18T09:02:13.372Z</time></trkpt><trkpt lat="39.2972688" lon="9.3837173"><ele>386.0</ele><time>2026-04-18T09:02:15.364Z</time></trkpt><trkpt lat="39.2971917" lon="9.3836916"><ele>385.99999999999994</ele><time>2026-04-18T09:02:17.36Z</time></trkpt><trkpt lat="39.2971112" lon="9.3836617"><ele>386.0</ele><time>2026-04-18T09:02:20.372Z</time></trkpt><trkpt lat="39.2970202" lon="9.3836631"><ele>391.8333333333333</ele><time>2026-04-18T09:02:23.369Z</time></trkpt><trkpt lat="39.2969393" lon="9.3836549"><ele>397.66666666666663</ele><time>2026-04-18T09:02:26.376Z</time></trkpt><trkpt lat="39.2968819" lon="9.3836014"><ele>403.5</ele><time>2026-04-18T09:02:28.363Z</time></trkpt><trkpt lat="39.2968786" lon="9.3834937"><ele>409.33333333333337</ele><time>2026-04-18T09:02:31.357Z</time></trkpt><trkpt lat="39.2969095" lon="9.3834023"><ele>415.1666666666667</ele><time>2026-04-18T09:02:33.353Z</time></trkpt><trkpt lat="39.2969436" lon="9.3832949"><ele>421.0</ele><time>2026-04-18T09:02:35.371Z</time></trkpt><trkpt lat="39.2970063" lon="9.3831853"><ele>421.0</ele><time>2026-04-18T09:02:37.354Z</time></trkpt><trkpt lat="39.2970669" lon="9.3830906"><ele>421.0</ele><time>2026-04-18T09:02:39.366Z</time></trkpt><trkpt lat="39.2971141" lon="9.3830006"><ele>421.0</ele><time>2026-04-18T09:02:41.349Z</time></trkpt><trkpt lat="39.2971729" lon="9.3828976"><ele>421.0</ele><time>2026-04-18T09:02:43.378Z</time></trkpt><trkpt lat="39.2972615" lon="9.3827858"><ele>421.0</ele><time>2026-04-18T09:02:45.375Z</time></trkpt><trkpt lat="39.2973364" lon="9.3826908"><ele>417.6</ele><time>2026-04-18T09:02:47.371Z</time></trkpt><trkpt lat="39.2974069" lon="9.3825744"><ele>414.20000000000005</ele><time>2026-04-18T09:02:49.363Z</time></trkpt><trkpt lat="39.297468" lon="9.3824552"><ele>410.79999999999995</ele><time>2026-04-18T09:02:51.369Z</time></trkpt><trkpt lat="39.2974993" lon="9.3823758"><ele>407.4</ele><time>2026-04-18T09:02:53.348Z</time></trkpt><trkpt lat="39.2974636" lon="9.3822957"><ele>404.0</ele><time>2026-04-18T09:02:56.359Z</time></trkpt><trkpt lat="39.2973785" lon="9.3823379"><ele>403.99999999999994</ele><time>2026-04-18T09:02:59.367Z</time></trkpt><trkpt lat="39.2973027" lon="9.3823833"><ele>404.0</ele><time>2026-04-18T09:03:02.365Z</time></trkpt><trkpt lat="39.2972239" lon="9.3823797"><ele>404.0</ele><time>2026-04-18T09:03:04.363Z</time></trkpt><trkpt lat="39.2971552" lon="9.3823836"><ele>404.0</ele><time>2026-04-18T09:03:06.357Z</time></trkpt><trkpt lat="39.2970724" lon="9.3823251"><ele>403.99999999999994</ele><time>2026-04-18T09:03:08.364Z</time></trkpt><trkpt lat="39.2969901" lon="9.3822776"><ele>404.0</ele><time>2026-04-18T09:03:10.365Z</time></trkpt><trkpt lat="39.2969449" lon="9.3823783"><ele>409.6</ele><time>2026-04-18T09:03:13.354Z</time></trkpt><trkpt lat="39.2968927" lon="9.3824732"><ele>415.2</ele><time>2026-04-18T09:03:15.359Z</time></trkpt><trkpt lat="39.2968259" lon="9.3825522"><ele>420.80000000000007</ele><time>2026-04-18T09:03:17.357Z</time></trkpt><trkpt lat="39.2967393" lon="9.3826166"><ele>426.40000000000003</ele><time>2026-04-18T09:03:19.369Z</time></trkpt><trkpt lat="39.2966514" lon="9.3826772"><ele>432.0</ele><time>2026-04-18T09:03:21.368Z</time></trkpt><trkpt lat="39.2965669" lon="9.3827331"><ele>432.0</ele><time>2026-04-18T09:03:23.359Z</time></trkpt><trkpt lat="39.2964741" lon="9.3828134"><ele>432.00000000000006</ele><time>2026-04-18T09:03:25.365Z</time></trkpt><trkpt lat="39.2963964" lon="9.3828643"><ele>432.00000000000006</ele><time>2026-04-18T09:03:27.368Z</time></trkpt><trkpt lat="39.2963088" lon="9.3829335"><ele>432.0</ele><time>2026-04-18T09:03:29.376Z</time></trkpt><trkpt lat="39.2962157" lon="9.3829776"><ele>432.0</ele><time>2026-04-18T09:03:31.363Z</time></trkpt><trkpt lat="39.2961253" lon="9.3830333"><ele>437.1666666666667</ele><time>2026-04-18T09:03:33.36Z</time></trkpt><trkpt lat="39.2960669" lon="9.3831291"><ele>442.33333333333337</ele><time>2026-04-18T09:03:35.356Z</time></trkpt><trkpt lat="39.2960242" lon="9.383249"><ele>447.5</ele><time>2026-04-18T09:03:37.374Z</time></trkpt><trkpt lat="39.2960254" lon="9.3833327"><ele>452.6666666666667</ele><time>2026-04-18T09:03:38.37Z</time></trkpt><trkpt lat="39.2960268" lon="9.3834195"><ele>457.83333333333337</ele><time>2026-04-18T09:03:39.355Z</time></trkpt><trkpt lat="39.2960252" lon="9.3835093"><ele>463.0</ele><time>2026-04-18T09:03:40.35Z</time></trkpt><trkpt lat="39.2960161" lon="9.3835979"><ele>463.00000000000006</ele><time>2026-04-18T09:03:41.357Z</time></trkpt><trkpt lat="39.2960143" lon="9.3836897"><ele>463.0</ele><time>2026-04-18T09:03:42.367Z</time></trkpt><trkpt lat="39.2960066" lon="9.3838448"><ele>463.0</ele><time>2026-04-18T09:03:44.373Z</time></trkpt><trkpt lat="39.2960076" lon="9.3839702"><ele>463.0</ele><time>2026-04-18T09:03:46.36Z</time></trkpt><trkpt lat="39.2960164" lon="9.3840575"><ele>463.00000000000006</ele><time>2026-04-18T09:03:48.375Z</time></trkpt><trkpt lat="39.2959927" lon="9.3841352"><ele>463.0</ele><time>2026-04-18T09:03:50.362Z</time></trkpt><trkpt lat="39.2959811" lon="9.3842448"><ele>463.59999999999997</ele><time>2026-04-18T09:03:52.365Z</time></trkpt><trkpt lat="39.2959963" lon="9.3843425"><ele>464.19999999999993</ele><time>2026-04-18T09:03:54.36Z</time></trkpt><trkpt lat="39.2960735" lon="9.3843812"><ele>464.8</ele><time>2026-04-18T09:03:56.384Z</time></trkpt><trkpt lat="39.296181" lon="9.3844032"><ele>465.4</ele><time>2026-04-18T09:03:58.355Z</time></trkpt><trkpt lat="39.2962736" lon="9.3844446"><ele>466.0</ele><time>2026-04-18T09:04:00.358Z</time></trkpt><trkpt lat="39.2963487" lon="9.384549"><ele>463.83333333333337</ele><time>2026-04-18T09:04:02.367Z</time></trkpt><trkpt lat="39.2964241" lon="9.3846652"><ele>461.6666666666667</ele><time>2026-04-18T09:04:04.358Z</time></trkpt><trkpt lat="39.2965038" lon="9.3847823"><ele>459.5</ele><time>2026-04-18T09:04:06.364Z</time></trkpt><trkpt lat="39.2965529" lon="9.3848342"><ele>457.33333333333337</ele><time>2026-04-18T09:04:07.371Z</time></trkpt><trkpt lat="39.2966" lon="9.3848918"><ele>455.1666666666667</ele><time>2026-04-18T09:04:08.371Z</time></trkpt><trkpt lat="39.2966466" lon="9.3849612"><ele>453.0</ele><time>2026-04-18T09:04:09.367Z</time></trkpt><trkpt lat="39.2966918" lon="9.3850309"><ele>453.0</ele><time>2026-04-18T09:04:10.363Z</time></trkpt><trkpt lat="39.2967242" lon="9.3851018"><ele>453.0</ele><time>2026-04-18T09:04:11.368Z</time></trkpt><trkpt lat="39.2967577" lon="9.385244"><ele>453.0</ele><time>2026-04-18T09:04:13.364Z</time></trkpt><trkpt lat="39.2967656" lon="9.3853565"><ele>453.0</ele><time>2026-04-18T09:04:15.364Z</time></trkpt><trkpt lat="39.2967699" lon="9.3854475"><ele>453.0</ele><time>2026-04-18T09:04:17.364Z</time></trkpt><trkpt lat="39.2967693" lon="9.3855861"><ele>453.0</ele><time>2026-04-18T09:04:19.372Z</time></trkpt><trkpt lat="39.2967674" lon="9.3856985"><ele>456.6666666666667</ele><time>2026-04-18T09:04:21.365Z</time></trkpt><trkpt lat="39.2967376" lon="9.3857941"><ele>460.33333333333337</ele><time>2026-04-18T09:04:23.363Z</time></trkpt><trkpt lat="39.296739" lon="9.3859339"><ele>464.0</ele><time>2026-04-18T09:04:25.366Z</time></trkpt><trkpt lat="39.2967401" lon="9.3860291"><ele>467.6666666666667</ele><time>2026-04-18T09:04:26.378Z</time></trkpt><trkpt lat="39.2967396" lon="9.3861125"><ele>471.33333333333337</ele><time>2026-04-18T09:04:27.379Z</time></trkpt><trkpt lat="39.2967623" lon="9.3861939"><ele>475.0</ele><time>2026-04-18T09:04:28.369Z</time></trkpt><trkpt lat="39.2967943" lon="9.3862788"><ele>476.4</ele><time>2026-04-18T09:04:29.366Z</time></trkpt><trkpt lat="39.2968337" lon="9.3864006"><ele>477.8</ele><time>2026-04-18T09:04:31.352Z</time></trkpt><trkpt lat="39.2967887" lon="9.3865173"><ele>479.20000000000005</ele><time>2026-04-18T09:04:33.348Z</time></trkpt><trkpt lat="39.2967222" lon="9.3866491"><ele>480.6</ele><time>2026-04-18T09:04:35.344Z</time></trkpt><trkpt lat="39.2966832" lon="9.3867222"><ele>482.0</ele><time>2026-04-18T09:04:36.359Z</time></trkpt><trkpt lat="39.2966539" lon="9.3868647"><ele>481.99999999999994</ele><time>2026-04-18T09:04:38.346Z</time></trkpt><trkpt lat="39.2966614" lon="9.3870333"><ele>482.0</ele><time>2026-04-18T09:04:40.365Z</time></trkpt><trkpt lat="39.2966558" lon="9.3871349"><ele>482.0</ele><time>2026-04-18T09:04:41.359Z</time></trkpt><trkpt lat="39.2966531" lon="9.3872354"><ele>482.0</ele><time>2026-04-18T09:04:42.361Z</time></trkpt><trkpt lat="39.296648" lon="9.3873373"><ele>481.99999999999994</ele><time>2026-04-18T09:04:43.35Z</time></trkpt><trkpt lat="39.2966431" lon="9.3874325"><ele>482.0</ele><time>2026-04-18T09:04:44.356Z</time></trkpt><trkpt lat="39.296639" lon="9.3875219"><ele>482.66666666666663</ele><time>2026-04-18T09:04:45.351Z</time></trkpt><trkpt lat="39.2966369" lon="9.3876083"><ele>483.3333333333333</ele><time>2026-04-18T09:04:46.367Z</time></trkpt><trkpt lat="39.2966105" lon="9.3877347"><ele>484.0</ele><time>2026-04-18T09:04:48.345Z</time></trkpt><trkpt lat="39.2965391" lon="9.3877711"><ele>484.66666666666663</ele><time>2026-04-18T09:04:50.365Z</time></trkpt><trkpt lat="39.2964752" lon="9.3878099"><ele>485.3333333333333</ele><time>2026-04-18T09:04:51.358Z</time></trkpt><trkpt lat="39.2963717" lon="9.3878568"><ele>486.0</ele><time>2026-04-18T09:04:53.359Z</time></trkpt><trkpt lat="39.2963061" lon="9.3878483"><ele>486.0</ele><time>2026-04-18T09:04:54.355Z</time></trkpt><trkpt lat="39.2962269" lon="9.3878608"><ele>486.0</ele><time>2026-04-18T09:04:55.356Z</time></trkpt><trkpt lat="39.2961582" lon="9.3878807"><ele>486.0</ele><time>2026-04-18T09:04:56.356Z</time></trkpt><trkpt lat="39.2960409" lon="9.3879219"><ele>486.0</ele><time>2026-04-18T09:04:58.363Z</time></trkpt><trkpt lat="39.295974" lon="9.387954"><ele>486.0</ele><time>2026-04-18T09:04:59.363Z</time></trkpt><trkpt lat="39.2959107" lon="9.3879911"><ele>486.0</ele><time>2026-04-18T09:05:00.379Z</time></trkpt><trkpt lat="39.2958477" lon="9.3880256"><ele>486.0</ele><time>2026-04-18T09:05:01.363Z</time></trkpt><trkpt lat="39.295788" lon="9.38806"><ele>486.0</ele><time>2026-04-18T09:05:02.368Z</time></trkpt><trkpt lat="39.2957315" lon="9.3881059"><ele>486.0</ele><time>2026-04-18T09:05:03.362Z</time></trkpt><trkpt lat="39.2956747" lon="9.388155"><ele>486.0</ele><time>2026-04-18T09:05:04.363Z</time></trkpt><trkpt lat="39.2956275" lon="9.388222"><ele>486.0</ele><time>2026-04-18T09:05:05.362Z</time></trkpt><trkpt lat="39.2955458" lon="9.3883219"><ele>486.0</ele><time>2026-04-18T09:05:07.366Z</time></trkpt><trkpt lat="39.2955277" lon="9.3884043"><ele>486.0</ele><time>2026-04-18T09:05:08.356Z</time></trkpt><trkpt lat="39.2954977" lon="9.3884981"><ele>486.4</ele><time>2026-04-18T09:05:09.372Z</time></trkpt><trkpt lat="39.2954722" lon="9.3885761"><ele>486.8</ele><time>2026-04-18T09:05:10.366Z</time></trkpt><trkpt lat="39.2954008" lon="9.3887084"><ele>487.19999999999993</ele><time>2026-04-18T09:05:12.364Z</time></trkpt><trkpt lat="39.2953514" lon="9.3887645"><ele>487.59999999999997</ele><time>2026-04-18T09:05:13.369Z</time></trkpt><trkpt lat="39.2952641" lon="9.3888449"><ele>488.0</ele><time>2026-04-18T09:05:15.369Z</time></trkpt><trkpt lat="39.2951558" lon="9.3889149"><ele>487.99999999999994</ele><time>2026-04-18T09:05:17.361Z</time></trkpt><trkpt lat="39.2950961" lon="9.388947"><ele>488.0</ele><time>2026-04-18T09:05:18.354Z</time></trkpt><trkpt lat="39.2949715" lon="9.3889844"><ele>488.0</ele><time>2026-04-18T09:05:20.372Z</time></trkpt><trkpt lat="39.2949076" lon="9.3889733"><ele>488.0</ele><time>2026-04-18T09:05:21.37Z</time></trkpt><trkpt lat="39.2948387" lon="9.3889664"><ele>487.99999999999994</ele><time>2026-04-18T09:05:22.369Z</time></trkpt><trkpt lat="39.2947737" lon="9.3889764"><ele>488.0</ele><time>2026-04-18T09:05:23.371Z</time></trkpt><trkpt lat="39.2947003" lon="9.3889886"><ele>490.5714285714285</ele><time>2026-04-18T09:05:24.368Z</time></trkpt><trkpt lat="39.2946242" lon="9.3889892"><ele>493.1428571428571</ele><time>2026-04-18T09:05:25.36Z</time></trkpt><trkpt lat="39.2945587" lon="9.3889782"><ele>495.7142857142857</ele><time>2026-04-18T09:05:26.364Z</time></trkpt><trkpt lat="39.294492" lon="9.3889722"><ele>498.2857142857143</ele><time>2026-04-18T09:05:27.355Z</time></trkpt><trkpt lat="39.2944213" lon="9.3889861"><ele>500.8571428571429</ele><time>2026-04-18T09:05:28.347Z</time></trkpt><trkpt lat="39.2943524" lon="9.3890076"><ele>503.4285714285715</ele><time>2026-04-18T09:05:29.36Z</time></trkpt><trkpt lat="39.2942939" lon="9.3890459"><ele>506.00000000000006</ele><time>2026-04-18T09:05:30.359Z</time></trkpt><trkpt lat="39.2942569" lon="9.3891151"><ele>505.99999999999994</ele><time>2026-04-18T09:05:31.352Z</time></trkpt><trkpt lat="39.2941967" lon="9.3891783"><ele>506.0</ele><time>2026-04-18T09:05:32.364Z</time></trkpt><trkpt lat="39.2941208" lon="9.3892286"><ele>506.0</ele><time>2026-04-18T09:05:33.365Z</time></trkpt><trkpt lat="39.2940501" lon="9.3892815"><ele>506.0</ele><time>2026-04-18T09:05:34.367Z</time></trkpt><trkpt lat="39.2939896" lon="9.3893326"><ele>505.99999999999994</ele><time>2026-04-18T09:05:35.368Z</time></trkpt><trkpt lat="39.2939029" lon="9.3893786"><ele>506.0</ele><time>2026-04-18T09:05:37.371Z</time></trkpt><trkpt lat="39.2937948" lon="9.3894071"><ele>511.0</ele><time>2026-04-18T09:05:39.365Z</time></trkpt><trkpt lat="39.2937028" lon="9.3894321"><ele>516.0</ele><time>2026-04-18T09:05:41.362Z</time></trkpt><trkpt lat="39.2936589" lon="9.3894919"><ele>521.0</ele><time>2026-04-18T09:05:43.355Z</time></trkpt><trkpt lat="39.2937125" lon="9.3896161"><ele>526.0</ele><time>2026-04-18T09:05:45.371Z</time></trkpt><trkpt lat="39.293752" lon="9.3896815"><ele>531.0</ele><time>2026-04-18T09:05:46.376Z</time></trkpt><trkpt lat="39.2938232" lon="9.389827"><ele>531.4</ele><time>2026-04-18T09:05:48.364Z</time></trkpt><trkpt lat="39.2938511" lon="9.3899"><ele>531.8</ele><time>2026-04-18T09:05:49.367Z</time></trkpt><trkpt lat="39.2939158" lon="9.3900477"><ele>532.1999999999999</ele><time>2026-04-18T09:05:51.35Z</time></trkpt><trkpt lat="39.2939469" lon="9.3901485"><ele>532.6</ele><time>2026-04-18T09:05:52.364Z</time></trkpt><trkpt lat="39.2939741" lon="9.3902289"><ele>533.0</ele><time>2026-04-18T09:05:53.365Z</time></trkpt><trkpt lat="39.2940278" lon="9.3903626"><ele>534.0</ele><time>2026-04-18T09:05:55.358Z</time></trkpt><trkpt lat="39.2941248" lon="9.3904584"><ele>535.0</ele><time>2026-04-18T09:05:57.355Z</time></trkpt><trkpt lat="39.2942278" lon="9.3905569"><ele>536.0</ele><time>2026-04-18T09:05:59.35Z</time></trkpt><trkpt lat="39.2942954" lon="9.3905785"><ele>537.0</ele><time>2026-04-18T09:06:00.352Z</time></trkpt><trkpt lat="39.2943622" lon="9.3905834"><ele>538.0</ele><time>2026-04-18T09:06:01.353Z</time></trkpt><trkpt lat="39.2944622" lon="9.3906275"><ele>538.0</ele><time>2026-04-18T09:06:03.355Z</time></trkpt><trkpt lat="39.2945761" lon="9.3907088"><ele>538.0</ele><time>2026-04-18T09:06:05.361Z</time></trkpt><trkpt lat="39.2946427" lon="9.3907518"><ele>538.0</ele><time>2026-04-18T09:06:06.355Z</time></trkpt><trkpt lat="39.2947051" lon="9.3907909"><ele>538.0</ele><time>2026-04-18T09:06:07.354Z</time></trkpt><trkpt lat="39.2948053" lon="9.3908091"><ele>538.0</ele><time>2026-04-18T09:06:09.356Z</time></trkpt><trkpt lat="39.2948677" lon="9.3908211"><ele>538.0</ele><time>2026-04-18T09:06:11.355Z</time></trkpt><trkpt lat="39.2949142" lon="9.3908818"><ele>535.8333333333334</ele><time>2026-04-18T09:19:39.359Z</time></trkpt><trkpt lat="39.2949783" lon="9.3908957"><ele>533.6666666666667</ele><time>2026-04-18T09:19:41.371Z</time></trkpt><trkpt lat="39.2950563" lon="9.3909252"><ele>531.5</ele><time>2026-04-18T09:19:43.368Z</time></trkpt><trkpt lat="39.2951224" lon="9.3909638"><ele>529.3333333333334</ele><time>2026-04-18T09:19:45.371Z</time></trkpt><trkpt lat="39.2951923" lon="9.39103"><ele>527.1666666666666</ele><time>2026-04-18T09:19:47.354Z</time></trkpt><trkpt lat="39.2952676" lon="9.391109"><ele>525.0</ele><time>2026-04-18T09:19:49.371Z</time></trkpt><trkpt lat="39.2953401" lon="9.3912178"><ele>528.0</ele><time>2026-04-18T09:19:51.352Z</time></trkpt><trkpt lat="39.2953974" lon="9.3913482"><ele>531.0</ele><time>2026-04-18T09:19:53.359Z</time></trkpt><trkpt lat="39.2954954" lon="9.3914392"><ele>534.0</ele><time>2026-04-18T09:19:55.37Z</time></trkpt><trkpt lat="39.2955894" lon="9.3915411"><ele>537.0</ele><time>2026-04-18T09:19:57.365Z</time></trkpt><trkpt lat="39.2956807" lon="9.3916509"><ele>537.0</ele><time>2026-04-18T09:19:59.347Z</time></trkpt><trkpt lat="39.2957957" lon="9.3917343"><ele>537.0</ele><time>2026-04-18T09:20:01.353Z</time></trkpt><trkpt lat="39.2958641" lon="9.3917644"><ele>537.0</ele><time>2026-04-18T09:20:02.365Z</time></trkpt><trkpt lat="39.2959294" lon="9.3917906"><ele>537.0</ele><time>2026-04-18T09:20:03.359Z</time></trkpt><trkpt lat="39.2959894" lon="9.3918258"><ele>537.0</ele><time>2026-04-18T09:20:04.355Z</time></trkpt><trkpt lat="39.2960487" lon="9.391877"><ele>537.0</ele><time>2026-04-18T09:20:05.362Z</time></trkpt><trkpt lat="39.2961071" lon="9.3919323"><ele>537.0</ele><time>2026-04-18T09:20:06.354Z</time></trkpt><trkpt lat="39.2961585" lon="9.3919804"><ele>537.0</ele><time>2026-04-18T09:20:07.368Z</time></trkpt><trkpt lat="39.2962053" lon="9.3920406"><ele>537.0</ele><time>2026-04-18T09:20:09.372Z</time></trkpt><trkpt lat="39.2962117" lon="9.3921359"><ele>537.0</ele><time>2026-04-18T09:20:12.359Z</time></trkpt><trkpt lat="39.2961277" lon="9.3921321"><ele>537.0</ele><time>2026-04-18T09:20:15.353Z</time></trkpt><trkpt lat="39.2960439" lon="9.3920117"><ele>537.0</ele><time>2026-04-18T09:20:17.353Z</time></trkpt><trkpt lat="39.295982" lon="9.3919497"><ele>537.0</ele><time>2026-04-18T09:20:18.369Z</time></trkpt><trkpt lat="39.2959159" lon="9.391886"><ele>537.0</ele><time>2026-04-18T09:20:19.361Z</time></trkpt><trkpt lat="39.2958282" lon="9.3918577"><ele>537.0</ele><time>2026-04-18T09:20:20.355Z</time></trkpt><trkpt lat="39.2957368" lon="9.3918439"><ele>537.0</ele><time>2026-04-18T09:20:21.367Z</time></trkpt><trkpt lat="39.295641" lon="9.391834"><ele>537.0</ele><time>2026-04-18T09:20:22.353Z</time></trkpt><trkpt lat="39.295543" lon="9.3918209"><ele>539.8000000000001</ele><time>2026-04-18T09:20:23.352Z</time></trkpt><trkpt lat="39.2954505" lon="9.3918016"><ele>542.6</ele><time>2026-04-18T09:20:24.362Z</time></trkpt><trkpt lat="39.2953663" lon="9.3917747"><ele>545.4000000000001</ele><time>2026-04-18T09:20:25.352Z</time></trkpt><trkpt lat="39.2952967" lon="9.3917499"><ele>548.2</ele><time>2026-04-18T09:20:26.375Z</time></trkpt><trkpt lat="39.2951817" lon="9.3917101"><ele>551.0</ele><time>2026-04-18T09:20:28.353Z</time></trkpt><trkpt lat="39.2950825" lon="9.391675"><ele>551.0</ele><time>2026-04-18T09:20:30.357Z</time></trkpt><trkpt lat="39.2950014" lon="9.3916565"><ele>551.0</ele><time>2026-04-18T09:20:33.344Z</time></trkpt><trkpt lat="39.2949139" lon="9.3916075"><ele>551.0</ele><time>2026-04-18T09:20:50.362Z</time></trkpt><trkpt lat="39.2948416" lon="9.39159"><ele>551.0</ele><time>2026-04-18T09:20:52.356Z</time></trkpt><trkpt lat="39.294764" lon="9.39158"><ele>551.0</ele><time>2026-04-18T09:20:55.347Z</time></trkpt><trkpt lat="39.2946766" lon="9.3916154"><ele>551.0</ele><time>2026-04-18T09:20:58.355Z</time></trkpt><trkpt lat="39.2946093" lon="9.3916208"><ele>552.3333333333333</ele><time>2026-04-18T09:21:00.353Z</time></trkpt><trkpt lat="39.2945423" lon="9.3916294"><ele>553.6666666666666</ele><time>2026-04-18T09:21:02.354Z</time></trkpt><trkpt lat="39.2944713" lon="9.3916888"><ele>555.0</ele><time>2026-04-18T09:21:04.355Z</time></trkpt><trkpt lat="39.2944016" lon="9.3917603"><ele>556.3333333333334</ele><time>2026-04-18T09:21:06.359Z</time></trkpt><trkpt lat="39.2943573" lon="9.391833"><ele>557.6666666666667</ele><time>2026-04-18T09:21:08.38Z</time></trkpt><trkpt lat="39.2943038" lon="9.3918897"><ele>559.0</ele><time>2026-04-18T09:21:10.364Z</time></trkpt><trkpt lat="39.2942351" lon="9.3918516"><ele>559.0</ele><time>2026-04-18T09:21:13.357Z</time></trkpt><trkpt lat="39.2941486" lon="9.3918255"><ele>559.0</ele><time>2026-04-18T09:21:16.349Z</time></trkpt><trkpt lat="39.2940732" lon="9.3918082"><ele>559.0</ele><time>2026-04-18T09:21:18.365Z</time></trkpt><trkpt lat="39.2939986" lon="9.3918157"><ele>559.0</ele><time>2026-04-18T09:21:20.369Z</time></trkpt><trkpt lat="39.2939349" lon="9.3918212"><ele>559.0</ele><time>2026-04-18T09:21:22.374Z</time></trkpt><trkpt lat="39.2938626" lon="9.3917898"><ele>559.0</ele><time>2026-04-18T09:21:24.364Z</time></trkpt><trkpt lat="39.2937973" lon="9.3917093"><ele>561.3333333333334</ele><time>2026-04-18T09:21:26.365Z</time></trkpt><trkpt lat="39.2937417" lon="9.391624"><ele>563.6666666666667</ele><time>2026-04-18T09:21:28.362Z</time></trkpt><trkpt lat="39.2936743" lon="9.3915804"><ele>566.0</ele><time>2026-04-18T09:21:30.37Z</time></trkpt><trkpt lat="39.2936036" lon="9.3916074"><ele>568.3333333333334</ele><time>2026-04-18T09:21:32.363Z</time></trkpt><trkpt lat="39.2935073" lon="9.3916236"><ele>570.6666666666666</ele><time>2026-04-18T09:21:34.363Z</time></trkpt><trkpt lat="39.2934204" lon="9.3916495"><ele>573.0</ele><time>2026-04-18T09:21:36.37Z</time></trkpt><trkpt lat="39.2933469" lon="9.3916599"><ele>573.0</ele><time>2026-04-18T09:21:38.352Z</time></trkpt><trkpt lat="39.2932654" lon="9.3916849"><ele>573.0</ele><time>2026-04-18T09:21:40.354Z</time></trkpt><trkpt lat="39.2932001" lon="9.3917092"><ele>573.0</ele><time>2026-04-18T09:21:43.362Z</time></trkpt><trkpt lat="39.2931294" lon="9.3917002"><ele>573.0</ele><time>2026-04-18T09:21:56.365Z</time></trkpt><trkpt lat="39.2930605" lon="9.391715"><ele>573.0</ele><time>2026-04-18T09:21:58.355Z</time></trkpt><trkpt lat="39.2929742" lon="9.391738"><ele>573.0</ele><time>2026-04-18T09:22:00.355Z</time></trkpt><trkpt lat="39.292874" lon="9.391727"><ele>576.1666666666666</ele><time>2026-04-18T09:22:02.36Z</time></trkpt><trkpt lat="39.2927783" lon="9.3917165"><ele>579.3333333333334</ele><time>2026-04-18T09:22:04.355Z</time></trkpt><trkpt lat="39.2926878" lon="9.3917372"><ele>582.5</ele><time>2026-04-18T09:22:06.368Z</time></trkpt><trkpt lat="39.2926118" lon="9.3917427"><ele>585.6666666666667</ele><time>2026-04-18T09:22:08.35Z</time></trkpt><trkpt lat="39.2925419" lon="9.391743"><ele>588.8333333333334</ele><time>2026-04-18T09:22:10.385Z</time></trkpt><trkpt lat="39.2924521" lon="9.3917263"><ele>592.0</ele><time>2026-04-18T09:22:12.372Z</time></trkpt><trkpt lat="39.2923645" lon="9.3916948"><ele>592.0</ele><time>2026-04-18T09:22:14.353Z</time></trkpt><trkpt lat="39.2922845" lon="9.3916548"><ele>592.0</ele><time>2026-04-18T09:22:16.35Z</time></trkpt><trkpt lat="39.2921981" lon="9.3915556"><ele>592.0</ele><time>2026-04-18T09:22:18.364Z</time></trkpt><trkpt lat="39.2921478" lon="9.3914881"><ele>592.0</ele><time>2026-04-18T09:22:19.35Z</time></trkpt><trkpt lat="39.2921091" lon="9.3914014"><ele>592.0</ele><time>2026-04-18T09:22:20.356Z</time></trkpt><trkpt lat="39.2920779" lon="9.3913135"><ele>592.0</ele><time>2026-04-18T09:22:21.371Z</time></trkpt><trkpt lat="39.2920506" lon="9.3911696"><ele>593.6666666666667</ele><time>2026-04-18T09:22:23.367Z</time></trkpt><trkpt lat="39.2920317" lon="9.3910521"><ele>595.3333333333334</ele><time>2026-04-18T09:22:25.364Z</time></trkpt><trkpt lat="39.2920169" lon="9.3909485"><ele>597.0</ele><time>2026-04-18T09:22:27.355Z</time></trkpt><trkpt lat="39.2919622" lon="9.3908729"><ele>598.6666666666666</ele><time>2026-04-18T09:22:29.375Z</time></trkpt><trkpt lat="39.2918953" lon="9.3908046"><ele>600.3333333333333</ele><time>2026-04-18T09:22:31.365Z</time></trkpt><trkpt lat="39.2918606" lon="9.3907148"><ele>602.0</ele><time>2026-04-18T09:22:33.359Z</time></trkpt><trkpt lat="39.2918517" lon="9.3906339"><ele>602.0</ele><time>2026-04-18T09:22:35.348Z</time></trkpt><trkpt lat="39.2918226" lon="9.3905521"><ele>602.0</ele><time>2026-04-18T09:22:37.353Z</time></trkpt><trkpt lat="39.2917605" lon="9.3904876"><ele>602.0</ele><time>2026-04-18T09:22:39.359Z</time></trkpt><trkpt lat="39.2917311" lon="9.3904097"><ele>602.0</ele><time>2026-04-18T09:22:41.348Z</time></trkpt><trkpt lat="39.2916806" lon="9.3903377"><ele>602.0</ele><time>2026-04-18T09:22:43.36Z</time></trkpt><trkpt lat="39.2916194" lon="9.3902154"><ele>602.0</ele><time>2026-04-18T09:22:45.366Z</time></trkpt><trkpt lat="39.2915518" lon="9.3901165"><ele>602.8000000000001</ele><time>2026-04-18T09:22:47.351Z</time></trkpt><trkpt lat="39.2914894" lon="9.3900358"><ele>603.6</ele><time>2026-04-18T09:22:49.365Z</time></trkpt><trkpt lat="39.2914172" lon="9.389988"><ele>604.4000000000001</ele><time>2026-04-18T09:22:51.352Z</time></trkpt><trkpt lat="39.291338" lon="9.38992"><ele>605.2</ele><time>2026-04-18T09:22:53.363Z</time></trkpt><trkpt lat="39.2912698" lon="9.389815"><ele>606.0</ele><time>2026-04-18T09:22:55.374Z</time></trkpt><trkpt lat="39.2911687" lon="9.3897369"><ele>608.4</ele><time>2026-04-18T09:22:57.364Z</time></trkpt><trkpt lat="39.2910664" lon="9.3896641"><ele>610.8</ele><time>2026-04-18T09:22:59.349Z</time></trkpt><trkpt lat="39.2909559" lon="9.3895942"><ele>613.1999999999999</ele><time>2026-04-18T09:23:01.359Z</time></trkpt><trkpt lat="39.2908952" lon="9.3895601"><ele>615.6</ele><time>2026-04-18T09:23:02.349Z</time></trkpt><trkpt lat="39.2908194" lon="9.3895069"><ele>618.0</ele><time>2026-04-18T09:23:03.372Z</time></trkpt><trkpt lat="39.2907519" lon="9.3894657"><ele>618.0</ele><time>2026-04-18T09:23:04.377Z</time></trkpt><trkpt lat="39.2906864" lon="9.3894479"><ele>618.0</ele><time>2026-04-18T09:23:05.357Z</time></trkpt><trkpt lat="39.2906182" lon="9.389422"><ele>618.0</ele><time>2026-04-18T09:23:06.359Z</time></trkpt><trkpt lat="39.290552" lon="9.389392"><ele>618.0</ele><time>2026-04-18T09:23:07.363Z</time></trkpt><trkpt lat="39.2904908" lon="9.3893301"><ele>618.0</ele><time>2026-04-18T09:23:08.359Z</time></trkpt><trkpt lat="39.29044" lon="9.3892638"><ele>618.0</ele><time>2026-04-18T09:23:09.357Z</time></trkpt><trkpt lat="39.2903533" lon="9.38915"><ele>616.6</ele><time>2026-04-18T09:23:11.356Z</time></trkpt><trkpt lat="39.2903115" lon="9.3890373"><ele>615.1999999999999</ele><time>2026-04-18T09:23:13.357Z</time></trkpt><trkpt lat="39.2903405" lon="9.3889228"><ele>613.8</ele><time>2026-04-18T09:23:15.364Z</time></trkpt><trkpt lat="39.290373" lon="9.3887956"><ele>612.4</ele><time>2026-04-18T09:23:17.355Z</time></trkpt><trkpt lat="39.2904073" lon="9.3886857"><ele>611.0</ele><time>2026-04-18T09:23:19.368Z</time></trkpt><trkpt lat="39.2904421" lon="9.3886"><ele>611.0</ele><time>2026-04-18T09:23:21.364Z</time></trkpt><trkpt lat="39.290458" lon="9.3884761"><ele>611.0</ele><time>2026-04-18T09:23:23.367Z</time></trkpt><trkpt lat="39.2903797" lon="9.3883579"><ele>611.0</ele><time>2026-04-18T09:23:25.356Z</time></trkpt><trkpt lat="39.2902694" lon="9.3882724"><ele>611.0</ele><time>2026-04-18T09:23:27.362Z</time></trkpt><trkpt lat="39.2902189" lon="9.3882178"><ele>611.0</ele><time>2026-04-18T09:23:28.364Z</time></trkpt><trkpt lat="39.2901504" lon="9.3881056"><ele>611.0</ele><time>2026-04-18T09:23:30.356Z</time></trkpt><trkpt lat="39.290106" lon="9.388031"><ele>611.0</ele><time>2026-04-18T09:23:33.369Z</time></trkpt><trkpt lat="39.2900315" lon="9.3879513"><ele>611.0</ele><time>2026-04-18T09:24:43.355Z</time></trkpt><trkpt lat="39.2899907" lon="9.3878599"><ele>611.0</ele><time>2026-04-18T09:24:44.369Z</time></trkpt><trkpt lat="39.2899465" lon="9.3877586"><ele>611.0</ele><time>2026-04-18T09:24:45.362Z</time></trkpt><trkpt lat="39.2899049" lon="9.3876532"><ele>611.0</ele><time>2026-04-18T09:24:46.357Z</time></trkpt><trkpt lat="39.2898619" lon="9.3875441"><ele>611.2</ele><time>2026-04-18T09:24:47.363Z</time></trkpt><trkpt lat="39.2898121" lon="9.3874374"><ele>611.4000000000001</ele><time>2026-04-18T09:24:48.365Z</time></trkpt><trkpt lat="39.2897516" lon="9.3873409"><ele>611.6</ele><time>2026-04-18T09:24:49.355Z</time></trkpt><trkpt lat="39.2896815" lon="9.3872532"><ele>611.8000000000001</ele><time>2026-04-18T09:24:50.36Z</time></trkpt><trkpt lat="39.289607" lon="9.3871719"><ele>612.0</ele><time>2026-04-18T09:24:51.364Z</time></trkpt><trkpt lat="39.2895338" lon="9.3870868"><ele>612.0</ele><time>2026-04-18T09:24:52.374Z</time></trkpt><trkpt lat="39.289469" lon="9.3869901"><ele>612.0</ele><time>2026-04-18T09:24:53.38Z</time></trkpt><trkpt lat="39.2894189" lon="9.3868791"><ele>612.0</ele><time>2026-04-18T09:24:54.381Z</time></trkpt><trkpt lat="39.2893863" lon="9.3867582"><ele>612.0</ele><time>2026-04-18T09:24:55.366Z</time></trkpt><trkpt lat="39.2893698" lon="9.3866347"><ele>612.0</ele><time>2026-04-18T09:24:56.374Z</time></trkpt><trkpt lat="39.2893524" lon="9.3865094"><ele>612.0</ele><time>2026-04-18T09:24:57.371Z</time></trkpt><trkpt lat="39.2893232" lon="9.3863885"><ele>612.0</ele><time>2026-04-18T09:24:58.377Z</time></trkpt><trkpt lat="39.289279" lon="9.3862842"><ele>612.0</ele><time>2026-04-18T09:24:59.358Z</time></trkpt><trkpt lat="39.2892225" lon="9.3861954"><ele>612.0</ele><time>2026-04-18T09:25:00.363Z</time></trkpt><trkpt lat="39.2891572" lon="9.3861171"><ele>612.0</ele><time>2026-04-18T09:25:01.37Z</time></trkpt><trkpt lat="39.2890882" lon="9.3860438"><ele>612.4</ele><time>2026-04-18T09:25:02.363Z</time></trkpt><trkpt lat="39.2890156" lon="9.3859725"><ele>612.8000000000001</ele><time>2026-04-18T09:25:03.378Z</time></trkpt><trkpt lat="39.2889384" lon="9.3859"><ele>613.2</ele><time>2026-04-18T09:25:04.375Z</time></trkpt><trkpt lat="39.2888589" lon="9.3858273"><ele>613.6</ele><time>2026-04-18T09:25:05.357Z</time></trkpt><trkpt lat="39.2887829" lon="9.3857525"><ele>614.0</ele><time>2026-04-18T09:25:06.367Z</time></trkpt><trkpt lat="39.2887084" lon="9.3856744"><ele>614.0</ele><time>2026-04-18T09:25:07.367Z</time></trkpt><trkpt lat="39.2886343" lon="9.3855939"><ele>614.0</ele><time>2026-04-18T09:25:08.365Z</time></trkpt><trkpt lat="39.288559" lon="9.3855134"><ele>614.0</ele><time>2026-04-18T09:25:09.375Z</time></trkpt><trkpt lat="39.2884815" lon="9.3854329"><ele>614.0</ele><time>2026-04-18T09:25:10.361Z</time></trkpt><trkpt lat="39.2884023" lon="9.3853538"><ele>614.0</ele><time>2026-04-18T09:25:11.363Z</time></trkpt><trkpt lat="39.2883232" lon="9.3852762"><ele>615.2</ele><time>2026-04-18T09:25:12.356Z</time></trkpt><trkpt lat="39.2882454" lon="9.3851984"><ele>616.4</ele><time>2026-04-18T09:25:13.359Z</time></trkpt><trkpt lat="39.288168" lon="9.3851206"><ele>617.6</ele><time>2026-04-18T09:25:14.376Z</time></trkpt><trkpt lat="39.2880919" lon="9.3850426"><ele>618.8</ele><time>2026-04-18T09:25:15.368Z</time></trkpt><trkpt lat="39.2880162" lon="9.3849674"><ele>620.0</ele><time>2026-04-18T09:25:16.369Z</time></trkpt><trkpt lat="39.2879363" lon="9.3849016"><ele>620.1666666666666</ele><time>2026-04-18T09:25:17.362Z</time></trkpt><trkpt lat="39.2878507" lon="9.3848541"><ele>620.3333333333333</ele><time>2026-04-18T09:25:18.357Z</time></trkpt><trkpt lat="39.2877631" lon="9.384844"><ele>620.5</ele><time>2026-04-18T09:25:19.389Z</time></trkpt><trkpt lat="39.2876835" lon="9.3848809"><ele>620.6666666666666</ele><time>2026-04-18T09:25:20.39Z</time></trkpt><trkpt lat="39.2876172" lon="9.3849507"><ele>620.8333333333334</ele><time>2026-04-18T09:25:21.371Z</time></trkpt><trkpt lat="39.2875602" lon="9.3850346"><ele>621.0</ele><time>2026-04-18T09:25:22.392Z</time></trkpt><trkpt lat="39.2875039" lon="9.385119"><ele>621.0</ele><time>2026-04-18T09:25:23.365Z</time></trkpt><trkpt lat="39.2874427" lon="9.3851954"><ele>621.0</ele><time>2026-04-18T09:25:24.382Z</time></trkpt><trkpt lat="39.2873742" lon="9.3852631"><ele>621.0</ele><time>2026-04-18T09:25:25.376Z</time></trkpt><trkpt lat="39.2872969" lon="9.3853217"><ele>621.0</ele><time>2026-04-18T09:25:26.372Z</time></trkpt><trkpt lat="39.2872125" lon="9.38537"><ele>621.0</ele><time>2026-04-18T09:25:27.367Z</time></trkpt><trkpt lat="39.2871241" lon="9.3854098"><ele>621.0</ele><time>2026-04-18T09:25:28.374Z</time></trkpt><trkpt lat="39.2870358" lon="9.3854438"><ele>621.8333333333334</ele><time>2026-04-18T09:25:29.359Z</time></trkpt><trkpt lat="39.2869478" lon="9.385475"><ele>622.6666666666666</ele><time>2026-04-18T09:25:30.372Z</time></trkpt><trkpt lat="39.2868603" lon="9.3855035"><ele>623.5</ele><time>2026-04-18T09:25:31.359Z</time></trkpt><trkpt lat="39.2867724" lon="9.385531"><ele>624.3333333333333</ele><time>2026-04-18T09:25:32.366Z</time></trkpt><trkpt lat="39.2866873" lon="9.3855557"><ele>625.1666666666666</ele><time>2026-04-18T09:25:33.361Z</time></trkpt><trkpt lat="39.2866056" lon="9.3855794"><ele>626.0</ele><time>2026-04-18T09:25:34.361Z</time></trkpt><trkpt lat="39.2865253" lon="9.3856081"><ele>626.0</ele><time>2026-04-18T09:25:35.364Z</time></trkpt><trkpt lat="39.286447" lon="9.3856436"><ele>626.0</ele><time>2026-04-18T09:25:36.363Z</time></trkpt><trkpt lat="39.2863744" lon="9.3856955"><ele>626.0</ele><time>2026-04-18T09:25:37.366Z</time></trkpt><trkpt lat="39.2863169" lon="9.3857725"><ele>626.0</ele><time>2026-04-18T09:25:38.358Z</time></trkpt><trkpt lat="39.2862787" lon="9.3858739"><ele>626.0</ele><time>2026-04-18T09:25:39.355Z</time></trkpt><trkpt lat="39.2862581" lon="9.3859938"><ele>626.0</ele><time>2026-04-18T09:25:40.368Z</time></trkpt><trkpt lat="39.2862485" lon="9.386116"><ele>627.4</ele><time>2026-04-18T09:25:41.362Z</time></trkpt><trkpt lat="39.2862449" lon="9.3862395"><ele>628.8</ele><time>2026-04-18T09:25:42.364Z</time></trkpt><trkpt lat="39.2862455" lon="9.3863645"><ele>630.1999999999999</ele><time>2026-04-18T09:25:43.356Z</time></trkpt><trkpt lat="39.2862431" lon="9.3864938"><ele>631.6</ele><time>2026-04-18T09:25:44.368Z</time></trkpt><trkpt lat="39.2862353" lon="9.3866248"><ele>633.0</ele><time>2026-04-18T09:25:45.364Z</time></trkpt><trkpt lat="39.2862214" lon="9.3867547"><ele>633.0</ele><time>2026-04-18T09:25:46.357Z</time></trkpt><trkpt lat="39.2861985" lon="9.3868811"><ele>633.0</ele><time>2026-04-18T09:25:47.36Z</time></trkpt><trkpt lat="39.2861567" lon="9.3869982"><ele>633.0</ele><time>2026-04-18T09:25:48.351Z</time></trkpt><trkpt lat="39.2860952" lon="9.387098"><ele>633.0</ele><time>2026-04-18T09:25:49.36Z</time></trkpt><trkpt lat="39.2860196" lon="9.3871794"><ele>633.0</ele><time>2026-04-18T09:25:50.355Z</time></trkpt><trkpt lat="39.2859362" lon="9.3872507"><ele>631.8</ele><time>2026-04-18T09:25:51.358Z</time></trkpt><trkpt lat="39.2858493" lon="9.3873144"><ele>630.5999999999999</ele><time>2026-04-18T09:25:52.364Z</time></trkpt><trkpt lat="39.2857592" lon="9.3873721"><ele>629.4000000000001</ele><time>2026-04-18T09:25:53.365Z</time></trkpt><trkpt lat="39.2856648" lon="9.387421"><ele>628.2</ele><time>2026-04-18T09:25:54.35Z</time></trkpt><trkpt lat="39.2855661" lon="9.3874599"><ele>627.0</ele><time>2026-04-18T09:25:55.348Z</time></trkpt><trkpt lat="39.2854648" lon="9.3874866"><ele>626.4</ele><time>2026-04-18T09:25:56.364Z</time></trkpt><trkpt lat="39.2853618" lon="9.3875026"><ele>625.8000000000001</ele><time>2026-04-18T09:25:57.356Z</time></trkpt><trkpt lat="39.2852553" lon="9.3875058"><ele>625.2</ele><time>2026-04-18T09:25:58.355Z</time></trkpt><trkpt lat="39.2851466" lon="9.387498"><ele>624.6</ele><time>2026-04-18T09:25:59.36Z</time></trkpt><trkpt lat="39.2850344" lon="9.3874836"><ele>624.0</ele><time>2026-04-18T09:26:00.352Z</time></trkpt><trkpt lat="39.2849223" lon="9.3874681"><ele>624.0</ele><time>2026-04-18T09:26:01.379Z</time></trkpt><trkpt lat="39.2848105" lon="9.3874504"><ele>624.0</ele><time>2026-04-18T09:26:02.369Z</time></trkpt><trkpt lat="39.2846983" lon="9.3874378"><ele>624.0</ele><time>2026-04-18T09:26:03.365Z</time></trkpt><trkpt lat="39.2845884" lon="9.3874392"><ele>624.0</ele><time>2026-04-18T09:26:04.369Z</time></trkpt><trkpt lat="39.284479" lon="9.387452"><ele>624.0</ele><time>2026-04-18T09:26:05.357Z</time></trkpt><trkpt lat="39.2843757" lon="9.3874582"><ele>622.75</ele><time>2026-04-18T09:26:06.36Z</time></trkpt><trkpt lat="39.284274" lon="9.3874322"><ele>621.5</ele><time>2026-04-18T09:26:07.365Z</time></trkpt><trkpt lat="39.2841796" lon="9.3873752"><ele>620.25</ele><time>2026-04-18T09:26:08.371Z</time></trkpt><trkpt lat="39.284092" lon="9.3873017"><ele>619.0</ele><time>2026-04-18T09:26:09.389Z</time></trkpt><trkpt lat="39.2862787" lon="9.3858739"><ele>621.8</ele><time>2026-04-18T09:25:39.355Z</time></trkpt><trkpt lat="39.2862581" lon="9.3859938"><ele>624.5999999999999</ele><time>2026-04-18T09:25:40.368Z</time></trkpt><trkpt lat="39.2862485" lon="9.386116"><ele>627.4</ele><time>2026-04-18T09:25:41.362Z</time></trkpt><trkpt lat="39.2862449" lon="9.3862395"><ele>630.1999999999999</ele><time>2026-04-18T09:25:42.364Z</time></trkpt><trkpt lat="39.2862455" lon="9.3863645"><ele>633.0</ele><time>2026-04-18T09:25:43.356Z</time></trkpt><trkpt lat="39.2862431" lon="9.3864938"><ele>633.0</ele><time>2026-04-18T09:25:44.368Z</time></trkpt><trkpt lat="39.2862353" lon="9.3866248"><ele>633.0</ele><time>2026-04-18T09:25:45.364Z</time></trkpt><trkpt lat="39.2862214" lon="9.3867547"><ele>633.0</ele><time>2026-04-18T09:25:46.357Z</time></trkpt><trkpt lat="39.2861985" lon="9.3868811"><ele>633.0</ele><time>2026-04-18T09:25:47.36Z</time></trkpt><trkpt lat="39.2861567" lon="9.3869982"><ele>633.0</ele><time>2026-04-18T09:25:48.351Z</time></trkpt><trkpt lat="39.2860952" lon="9.387098"><ele>631.8</ele><time>2026-04-18T09:25:49.36Z</time></trkpt><trkpt lat="39.2860196" lon="9.3871794"><ele>630.5999999999999</ele><time>2026-04-18T09:25:50.355Z</time></trkpt><trkpt lat="39.2859362" lon="9.3872507"><ele>629.4000000000001</ele><time>2026-04-18T09:25:51.358Z</time></trkpt><trkpt lat="39.2858493" lon="9.3873144"><ele>628.2</ele><time>2026-04-18T09:25:52.364Z</time></trkpt><trkpt lat="39.2857592" lon="9.3873721"><ele>627.0</ele><time>2026-04-18T09:25:53.365Z</time></trkpt><trkpt lat="39.2856648" lon="9.387421"><ele>626.4</ele><time>2026-04-18T09:25:54.35Z</time></trkpt><trkpt lat="39.2855661" lon="9.3874599"><ele>625.8000000000001</ele><time>2026-04-18T09:25:55.348Z</time></trkpt><trkpt lat="39.2854648" lon="9.3874866"><ele>625.2</ele><time>2026-04-18T09:25:56.364Z</time></trkpt><trkpt lat="39.2853618" lon="9.3875026"><ele>624.6</ele><time>2026-04-18T09:25:57.356Z</time></trkpt><trkpt lat="39.2852553" lon="9.3875058"><ele>624.0</ele><time>2026-04-18T09:25:58.355Z</time></trkpt><trkpt lat="39.2851466" lon="9.387498"><ele>624.0</ele><time>2026-04-18T09:25:59.36Z</time></trkpt><trkpt lat="39.2850344" lon="9.3874836"><ele>624.0</ele><time>2026-04-18T09:26:00.352Z</time></trkpt><trkpt lat="39.2849223" lon="9.3874681"><ele>624.0</ele><time>2026-04-18T09:26:01.379Z</time></trkpt><trkpt lat="39.2848105" lon="9.3874504"><ele>624.0</ele><time>2026-04-18T09:26:02.369Z</time></trkpt><trkpt lat="39.2846983" lon="9.3874378"><ele>623.0</ele><time>2026-04-18T09:26:03.365Z</time></trkpt><trkpt lat="39.2845884" lon="9.3874392"><ele>622.0</ele><time>2026-04-18T09:26:04.369Z</time></trkpt><trkpt lat="39.284479" lon="9.387452"><ele>621.0</ele><time>2026-04-18T09:26:05.357Z</time></trkpt><trkpt lat="39.2843757" lon="9.3874582"><ele>620.0</ele><time>2026-04-18T09:26:06.36Z</time></trkpt><trkpt lat="39.284274" lon="9.3874322"><ele>619.0</ele><time>2026-04-18T09:26:07.365Z</time></trkpt><trkpt lat="39.2841796" lon="9.3873752"><ele>619.0</ele><time>2026-04-18T09:26:08.371Z</time></trkpt><trkpt lat="39.284092" lon="9.3873017"><ele>619.0</ele><time>2026-04-18T09:26:09.389Z</time></trkpt><trkpt lat="39.2840037" lon="9.3872302"><ele>619.0</ele><time>2026-04-18T09:26:10.359Z</time></trkpt><trkpt lat="39.2839086" lon="9.3871724"><ele>619.0</ele><time>2026-04-18T09:26:11.383Z</time></trkpt><trkpt lat="39.2838077" lon="9.387133"><ele>619.0</ele><time>2026-04-18T09:26:12.357Z</time></trkpt><trkpt lat="39.2837017" lon="9.3871201"><ele>619.2</ele><time>2026-04-18T09:26:13.368Z</time></trkpt><trkpt lat="39.2835961" lon="9.3871418"><ele>619.4</ele><time>2026-04-18T09:26:14.361Z</time></trkpt><trkpt lat="39.2834957" lon="9.3871951"><ele>619.6</ele><time>2026-04-18T09:26:15.363Z</time></trkpt><trkpt lat="39.2833981" lon="9.3872566"><ele>619.8</ele><time>2026-04-18T09:26:16.366Z</time></trkpt><trkpt lat="39.283301" lon="9.3873177"><ele>620.0</ele><time>2026-04-18T09:26:17.364Z</time></trkpt><trkpt lat="39.2832021" lon="9.387372"><ele>620.0</ele><time>2026-04-18T09:26:18.37Z</time></trkpt><trkpt lat="39.2831036" lon="9.3874292"><ele>620.0</ele><time>2026-04-18T09:26:19.365Z</time></trkpt><trkpt lat="39.2830075" lon="9.3874882"><ele>620.0</ele><time>2026-04-18T09:26:20.367Z</time></trkpt><trkpt lat="39.2829153" lon="9.3875426"><ele>620.0</ele><time>2026-04-18T09:26:21.356Z</time></trkpt><trkpt lat="39.2828189" lon="9.3875917"><ele>620.0</ele><time>2026-04-18T09:26:22.371Z</time></trkpt><trkpt lat="39.282719" lon="9.3876447"><ele>620.4</ele><time>2026-04-18T09:26:23.352Z</time></trkpt><trkpt lat="39.2826217" lon="9.387698"><ele>620.8</ele><time>2026-04-18T09:26:24.359Z</time></trkpt><trkpt lat="39.2825254" lon="9.3877517"><ele>621.2</ele><time>2026-04-18T09:26:25.352Z</time></trkpt><trkpt lat="39.2824259" lon="9.3878036"><ele>621.6</ele><time>2026-04-18T09:26:26.353Z</time></trkpt><trkpt lat="39.2823255" lon="9.3878535"><ele>622.0</ele><time>2026-04-18T09:26:27.367Z</time></trkpt><trkpt lat="39.2822256" lon="9.3879027"><ele>622.2</ele><time>2026-04-18T09:26:28.369Z</time></trkpt><trkpt lat="39.282129" lon="9.3879611"><ele>622.4000000000001</ele><time>2026-04-18T09:26:29.369Z</time></trkpt><trkpt lat="39.2820382" lon="9.3880289"><ele>622.5999999999999</ele><time>2026-04-18T09:26:30.378Z</time></trkpt><trkpt lat="39.2819518" lon="9.3881116"><ele>622.8</ele><time>2026-04-18T09:26:31.362Z</time></trkpt><trkpt lat="39.281866" lon="9.3882032"><ele>623.0</ele><time>2026-04-18T09:26:32.371Z</time></trkpt><trkpt lat="39.2817799" lon="9.3882955"><ele>623.0</ele><time>2026-04-18T09:26:33.351Z</time></trkpt><trkpt lat="39.2816933" lon="9.3883873"><ele>623.0</ele><time>2026-04-18T09:26:34.359Z</time></trkpt><trkpt lat="39.281608" lon="9.3884804"><ele>623.0</ele><time>2026-04-18T09:26:35.362Z</time></trkpt><trkpt lat="39.2815236" lon="9.3885734"><ele>623.0</ele><time>2026-04-18T09:26:36.358Z</time></trkpt><trkpt lat="39.2814393" lon="9.3886655"><ele>623.0</ele><time>2026-04-18T09:26:37.371Z</time></trkpt><trkpt lat="39.281356" lon="9.3887567"><ele>624.1999999999999</ele><time>2026-04-18T09:26:38.365Z</time></trkpt><trkpt lat="39.2812736" lon="9.3888455"><ele>625.4</ele><time>2026-04-18T09:26:39.357Z</time></trkpt><trkpt lat="39.2811924" lon="9.3889346"><ele>626.5999999999999</ele><time>2026-04-18T09:26:40.356Z</time></trkpt><trkpt lat="39.281114" lon="9.3890254"><ele>627.8</ele><time>2026-04-18T09:26:41.351Z</time></trkpt><trkpt lat="39.2810374" lon="9.3891174"><ele>629.0</ele><time>2026-04-18T09:26:42.366Z</time></trkpt><trkpt lat="39.2809602" lon="9.3892101"><ele>629.0</ele><time>2026-04-18T09:26:43.359Z</time></trkpt><trkpt lat="39.2808833" lon="9.3893083"><ele>629.0</ele><time>2026-04-18T09:26:44.367Z</time></trkpt><trkpt lat="39.2808047" lon="9.3894027"><ele>629.0</ele><time>2026-04-18T09:26:45.367Z</time></trkpt><trkpt lat="39.2807218" lon="9.3894952"><ele>629.0</ele><time>2026-04-18T09:26:46.354Z</time></trkpt><trkpt lat="39.2806356" lon="9.3895831"><ele>629.0</ele><time>2026-04-18T09:26:47.359Z</time></trkpt><trkpt lat="39.2805483" lon="9.3896697"><ele>630.4</ele><time>2026-04-18T09:26:48.361Z</time></trkpt><trkpt lat="39.280463" lon="9.3897543"><ele>631.8</ele><time>2026-04-18T09:26:49.353Z</time></trkpt><trkpt lat="39.2803827" lon="9.3898435"><ele>633.2</ele><time>2026-04-18T09:26:50.358Z</time></trkpt><trkpt lat="39.2803003" lon="9.3899331"><ele>634.6</ele><time>2026-04-18T09:26:51.357Z</time></trkpt><trkpt lat="39.280217" lon="9.390026"><ele>636.0</ele><time>2026-04-18T09:26:52.361Z</time></trkpt><trkpt lat="39.2801292" lon="9.3901186"><ele>636.0</ele><time>2026-04-18T09:26:53.359Z</time></trkpt><trkpt lat="39.2800386" lon="9.3902103"><ele>636.0</ele><time>2026-04-18T09:26:54.363Z</time></trkpt><trkpt lat="39.2799456" lon="9.390304"><ele>636.0</ele><time>2026-04-18T09:26:55.356Z</time></trkpt><trkpt lat="39.2798539" lon="9.3904009"><ele>636.0</ele><time>2026-04-18T09:26:56.361Z</time></trkpt><trkpt lat="39.2797613" lon="9.3905005"><ele>637.5</ele><time>2026-04-18T09:26:57.344Z</time></trkpt><trkpt lat="39.2796695" lon="9.3906031"><ele>639.0</ele><time>2026-04-18T09:26:58.359Z</time></trkpt><trkpt lat="39.2795786" lon="9.3907094"><ele>640.5</ele><time>2026-04-18T09:26:59.379Z</time></trkpt><trkpt lat="39.2794913" lon="9.3908197"><ele>642.0</ele><time>2026-04-18T09:27:00.344Z</time></trkpt><trkpt lat="39.279407" lon="9.3909313"><ele>642.0</ele><time>2026-04-18T09:27:01.481Z</time></trkpt><trkpt lat="39.2793256" lon="9.3910438"><ele>642.0</ele><time>2026-04-18T09:27:02.447Z</time></trkpt><trkpt lat="39.2792444" lon="9.3911532"><ele>642.0</ele><time>2026-04-18T09:27:03.351Z</time></trkpt><trkpt lat="39.2791632" lon="9.3912594"><ele>642.0</ele><time>2026-04-18T09:27:04.34Z</time></trkpt><trkpt lat="39.27908" lon="9.3913611"><ele>640.0</ele><time>2026-04-18T09:27:05.358Z</time></trkpt><trkpt lat="39.2790004" lon="9.3914654"><ele>638.0</ele><time>2026-04-18T09:27:06.356Z</time></trkpt><trkpt lat="39.278921" lon="9.3915693"><ele>636.0</ele><time>2026-04-18T09:27:07.336Z</time></trkpt><trkpt lat="39.2788416" lon="9.3916719"><ele>634.0</ele><time>2026-04-18T09:27:08.352Z</time></trkpt><trkpt lat="39.2787633" lon="9.391776"><ele>634.6</ele><time>2026-04-18T09:27:09.351Z</time></trkpt><trkpt lat="39.2786858" lon="9.3918767"><ele>635.2</ele><time>2026-04-18T09:27:10.355Z</time></trkpt><trkpt lat="39.2786071" lon="9.3919779"><ele>635.8000000000001</ele><time>2026-04-18T09:27:11.356Z</time></trkpt><trkpt lat="39.2785264" lon="9.3920782"><ele>636.4</ele><time>2026-04-18T09:27:12.378Z</time></trkpt><trkpt lat="39.2784475" lon="9.3921765"><ele>637.0</ele><time>2026-04-18T09:27:13.348Z</time></trkpt><trkpt lat="39.2783624" lon="9.3922705"><ele>637.0</ele><time>2026-04-18T09:27:14.338Z</time></trkpt><trkpt lat="39.2782683" lon="9.3923524"><ele>637.0</ele><time>2026-04-18T09:27:15.345Z</time></trkpt><trkpt lat="39.278169" lon="9.3924202"><ele>637.0</ele><time>2026-04-18T09:27:16.351Z</time></trkpt><trkpt lat="39.2780637" lon="9.3924758"><ele>637.0</ele><time>2026-04-18T09:27:17.356Z</time></trkpt><trkpt lat="39.2779547" lon="9.3925284"><ele>639.25</ele><time>2026-04-18T09:27:18.349Z</time></trkpt><trkpt lat="39.2778421" lon="9.3925768"><ele>641.5</ele><time>2026-04-18T09:27:19.351Z</time></trkpt><trkpt lat="39.2777271" lon="9.3926242"><ele>643.75</ele><time>2026-04-18T09:27:20.355Z</time></trkpt><trkpt lat="39.2776095" lon="9.3926748"><ele>646.0</ele><time>2026-04-18T09:27:21.339Z</time></trkpt><trkpt lat="39.2774902" lon="9.3927287"><ele>646.0</ele><time>2026-04-18T09:27:22.351Z</time></trkpt><trkpt lat="39.2773696" lon="9.3927824"><ele>646.0</ele><time>2026-04-18T09:27:23.354Z</time></trkpt><trkpt lat="39.277247" lon="9.3928371"><ele>646.0</ele><time>2026-04-18T09:27:24.356Z</time></trkpt><trkpt lat="39.277123" lon="9.3928944"><ele>646.0</ele><time>2026-04-18T09:27:25.357Z</time></trkpt><trkpt lat="39.2769992" lon="9.3929539"><ele>645.25</ele><time>2026-04-18T09:27:26.364Z</time></trkpt><trkpt lat="39.2768753" lon="9.3930138"><ele>644.5</ele><time>2026-04-18T09:27:27.355Z</time></trkpt><trkpt lat="39.2767519" lon="9.3930713"><ele>643.75</ele><time>2026-04-18T09:27:28.359Z</time></trkpt><trkpt lat="39.2766292" lon="9.3931321"><ele>643.0</ele><time>2026-04-18T09:27:29.36Z</time></trkpt><trkpt lat="39.2765067" lon="9.3931928"><ele>644.5</ele><time>2026-04-18T09:27:30.359Z</time></trkpt><trkpt lat="39.2763863" lon="9.393251"><ele>646.0</ele><time>2026-04-18T09:27:31.351Z</time></trkpt><trkpt lat="39.2762655" lon="9.3933076"><ele>647.5</ele><time>2026-04-18T09:27:32.366Z</time></trkpt><trkpt lat="39.2761436" lon="9.3933637"><ele>649.0</ele><time>2026-04-18T09:27:33.362Z</time></trkpt><trkpt lat="39.2760236" lon="9.3934175"><ele>649.0</ele><time>2026-04-18T09:27:34.359Z</time></trkpt><trkpt lat="39.2759239" lon="9.3934625"><ele>649.0</ele><time>2026-04-18T09:27:35.369Z</time></trkpt><trkpt lat="39.2758377" lon="9.3934936"><ele>649.0</ele><time>2026-04-18T09:27:37.36Z</time></trkpt><trkpt lat="39.2757719" lon="9.3935278"><ele>649.0</ele><time>2026-04-18T09:27:47.369Z</time></trkpt><trkpt lat="39.2756788" lon="9.3935805"><ele>649.0</ele><time>2026-04-18T09:27:49.361Z</time></trkpt><trkpt lat="39.27562" lon="9.3936149"><ele>649.0</ele><time>2026-04-18T09:27:50.394Z</time></trkpt><trkpt lat="39.2755528" lon="9.3936624"><ele>650.6</ele><time>2026-04-18T09:27:51.378Z</time></trkpt><trkpt lat="39.275485" lon="9.393728"><ele>652.2</ele><time>2026-04-18T09:27:52.35Z</time></trkpt><trkpt lat="39.2754207" lon="9.3938123"><ele>653.8000000000001</ele><time>2026-04-18T09:27:53.35Z</time></trkpt><trkpt lat="39.2753663" lon="9.3939132"><ele>655.4000000000001</ele><time>2026-04-18T09:27:54.354Z</time></trkpt><trkpt lat="39.2753215" lon="9.3940309"><ele>657.0</ele><time>2026-04-18T09:27:55.356Z</time></trkpt><trkpt lat="39.2752893" lon="9.3941646"><ele>657.0</ele><time>2026-04-18T09:27:56.357Z</time></trkpt><trkpt lat="39.2752746" lon="9.3943124"><ele>657.0</ele><time>2026-04-18T09:27:57.351Z</time></trkpt><trkpt lat="39.2752795" lon="9.3944689"><ele>657.0</ele><time>2026-04-18T09:27:58.343Z</time></trkpt><trkpt lat="39.2752931" lon="9.3946227"><ele>657.0</ele><time>2026-04-18T09:27:59.366Z</time></trkpt><trkpt lat="39.2753093" lon="9.3947764"><ele>657.75</ele><time>2026-04-18T09:28:00.371Z</time></trkpt><trkpt lat="39.2753241" lon="9.394927"><ele>658.5</ele><time>2026-04-18T09:28:01.36Z</time></trkpt><trkpt lat="39.2753356" lon="9.3950738"><ele>659.25</ele><time>2026-04-18T09:28:02.364Z</time></trkpt><trkpt lat="39.2753419" lon="9.395216"><ele>660.0</ele><time>2026-04-18T09:28:03.37Z</time></trkpt><trkpt lat="39.2753383" lon="9.3953599"><ele>660.0</ele><time>2026-04-18T09:28:04.346Z</time></trkpt><trkpt lat="39.2753202" lon="9.3955"><ele>660.0</ele><time>2026-04-18T09:28:05.352Z</time></trkpt><trkpt lat="39.2752855" lon="9.3956335"><ele>660.0</ele><time>2026-04-18T09:28:06.351Z</time></trkpt><trkpt lat="39.2752369" lon="9.3957674"><ele>660.0</ele><time>2026-04-18T09:28:07.353Z</time></trkpt><trkpt lat="39.2751748" lon="9.3959042"><ele>660.0</ele><time>2026-04-18T09:28:08.352Z</time></trkpt><trkpt lat="39.2751042" lon="9.3960435"><ele>660.0</ele><time>2026-04-18T09:28:09.356Z</time></trkpt><trkpt lat="39.2750233" lon="9.3961747"><ele>660.0</ele><time>2026-04-18T09:28:10.374Z</time></trkpt><trkpt lat="39.2749278" lon="9.3962867"><ele>660.0</ele><time>2026-04-18T09:28:11.359Z</time></trkpt><trkpt lat="39.274817" lon="9.3963707"><ele>659.0</ele><time>2026-04-18T09:28:12.353Z</time></trkpt><trkpt lat="39.2746938" lon="9.3964204"><ele>658.0</ele><time>2026-04-18T09:28:13.353Z</time></trkpt><trkpt lat="39.2745633" lon="9.3964513"><ele>657.0</ele><time>2026-04-18T09:28:14.348Z</time></trkpt><trkpt lat="39.2744299" lon="9.3964826"><ele>656.0</ele><time>2026-04-18T09:28:15.348Z</time></trkpt><trkpt lat="39.2742948" lon="9.3965151"><ele>656.0</ele><time>2026-04-18T09:28:16.359Z</time></trkpt><trkpt lat="39.2741591" lon="9.3965449"><ele>656.0</ele><time>2026-04-18T09:28:17.372Z</time></trkpt><trkpt lat="39.2740237" lon="9.3965745"><ele>656.0</ele><time>2026-04-18T09:28:18.367Z</time></trkpt><trkpt lat="39.2738893" lon="9.3966071"><ele>656.0</ele><time>2026-04-18T09:28:19.355Z</time></trkpt><trkpt lat="39.2737572" lon="9.3966403"><ele>656.25</ele><time>2026-04-18T09:28:20.361Z</time></trkpt><trkpt lat="39.2736282" lon="9.3966728"><ele>656.5</ele><time>2026-04-18T09:28:21.347Z</time></trkpt><trkpt lat="39.2735026" lon="9.3967116"><ele>656.75</ele><time>2026-04-18T09:28:22.363Z</time></trkpt><trkpt lat="39.273381" lon="9.3967606"><ele>657.0</ele><time>2026-04-18T09:28:23.365Z</time></trkpt><trkpt lat="39.2732628" lon="9.3968152"><ele>657.0</ele><time>2026-04-18T09:28:24.372Z</time></trkpt><trkpt lat="39.2731477" lon="9.3968714"><ele>657.0</ele><time>2026-04-18T09:28:25.36Z</time></trkpt><trkpt lat="39.2730344" lon="9.3969267"><ele>657.0</ele><time>2026-04-18T09:28:26.352Z</time></trkpt><trkpt lat="39.2729232" lon="9.3969805"><ele>657.0</ele><time>2026-04-18T09:28:27.363Z</time></trkpt><trkpt lat="39.2728129" lon="9.3970308"><ele>656.8</ele><time>2026-04-18T09:28:28.35Z</time></trkpt><trkpt lat="39.2727026" lon="9.3970789"><ele>656.6</ele><time>2026-04-18T09:28:29.362Z</time></trkpt><trkpt lat="39.2725971" lon="9.3971236"><ele>656.4</ele><time>2026-04-18T09:28:30.366Z</time></trkpt><trkpt lat="39.272507" lon="9.3971605"><ele>656.1999999999999</ele><time>2026-04-18T09:28:31.389Z</time></trkpt><trkpt lat="39.272432" lon="9.3971891"><ele>656.0</ele><time>2026-04-18T09:28:32.386Z</time></trkpt><trkpt lat="39.27237" lon="9.3972047"><ele>656.0</ele><time>2026-04-18T09:28:33.389Z</time></trkpt><trkpt lat="39.272275" lon="9.3972604"><ele>656.0</ele><time>2026-04-18T09:28:35.357Z</time></trkpt><trkpt lat="39.2722199" lon="9.3973605"><ele>656.0</ele><time>2026-04-18T09:28:37.359Z</time></trkpt><trkpt lat="39.2721733" lon="9.397487"><ele>656.0</ele><time>2026-04-18T09:28:39.356Z</time></trkpt><trkpt lat="39.2721116" lon="9.3976218"><ele>656.0</ele><time>2026-04-18T09:28:41.362Z</time></trkpt><trkpt lat="39.2720451" lon="9.3977393"><ele>655.1999999999999</ele><time>2026-04-18T09:28:43.357Z</time></trkpt><trkpt lat="39.2719908" lon="9.3978537"><ele>654.4</ele><time>2026-04-18T09:28:45.363Z</time></trkpt><trkpt lat="39.2719588" lon="9.398001"><ele>653.6</ele><time>2026-04-18T09:28:47.36Z</time></trkpt><trkpt lat="39.2719574" lon="9.3981641"><ele>652.8</ele><time>2026-04-18T09:28:49.36Z</time></trkpt><trkpt lat="39.2719501" lon="9.3982498"><ele>652.0</ele><time>2026-04-18T09:28:50.35Z</time></trkpt><trkpt lat="39.2719318" lon="9.3983447"><ele>651.4000000000001</ele><time>2026-04-18T09:28:51.364Z</time></trkpt><trkpt lat="39.2719171" lon="9.3984483"><ele>650.8000000000001</ele><time>2026-04-18T09:28:52.357Z</time></trkpt><trkpt lat="39.2719241" lon="9.3985611"><ele>650.2</ele><time>2026-04-18T09:28:53.357Z</time></trkpt><trkpt lat="39.2719487" lon="9.3986778"><ele>649.6</ele><time>2026-04-18T09:28:54.38Z</time></trkpt><trkpt lat="39.2719836" lon="9.3987929"><ele>649.0</ele><time>2026-04-18T09:28:55.367Z</time></trkpt><trkpt lat="39.2720226" lon="9.3989025"><ele>649.0</ele><time>2026-04-18T09:28:56.363Z</time></trkpt><trkpt lat="39.2720623" lon="9.3990032"><ele>649.0</ele><time>2026-04-18T09:28:57.372Z</time></trkpt><trkpt lat="39.2721058" lon="9.3990905"><ele>649.0</ele><time>2026-04-18T09:28:58.366Z</time></trkpt><trkpt lat="39.2721537" lon="9.3991547"><ele>649.0</ele><time>2026-04-18T09:28:59.355Z</time></trkpt><trkpt lat="39.2722277" lon="9.3992107"><ele>649.0</ele><time>2026-04-18T09:29:01.362Z</time></trkpt><trkpt lat="39.2722943" lon="9.3992403"><ele>649.0</ele><time>2026-04-18T09:29:04.364Z</time></trkpt><trkpt lat="39.2723387" lon="9.3993133"><ele>649.0</ele><time>2026-04-18T09:29:08.369Z</time></trkpt><trkpt lat="39.2723785" lon="9.3993878"><ele>649.0</ele><time>2026-04-18T09:29:32.35Z</time></trkpt><trkpt lat="39.2724249" lon="9.3994593"><ele>649.0</ele><time>2026-04-18T09:29:34.371Z</time></trkpt><trkpt lat="39.2724672" lon="9.3995673"><ele>649.0</ele><time>2026-04-18T09:29:36.358Z</time></trkpt><trkpt lat="39.2725269" lon="9.3997013"><ele>649.0</ele><time>2026-04-18T09:29:38.362Z</time></trkpt><trkpt lat="39.2725866" lon="9.3997855"><ele>649.0</ele><time>2026-04-18T09:29:39.354Z</time></trkpt><trkpt lat="39.2726518" lon="9.399875"><ele>649.1666666666667</ele><time>2026-04-18T09:29:40.343Z</time></trkpt><trkpt lat="39.2727289" lon="9.3999502"><ele>649.3333333333334</ele><time>2026-04-18T09:29:41.36Z</time></trkpt><trkpt lat="39.2727977" lon="9.4000192"><ele>649.5</ele><time>2026-04-18T09:29:42.352Z</time></trkpt><trkpt lat="39.272864" lon="9.4000855"><ele>649.6666666666666</ele><time>2026-04-18T09:29:43.353Z</time></trkpt><trkpt lat="39.2729349" lon="9.400127"><ele>649.8333333333333</ele><time>2026-04-18T09:29:44.359Z</time></trkpt><trkpt lat="39.2730062" lon="9.4001514"><ele>650.0</ele><time>2026-04-18T09:29:45.354Z</time></trkpt><trkpt lat="39.2730743" lon="9.4001728"><ele>651.2</ele><time>2026-04-18T09:29:46.353Z</time></trkpt><trkpt lat="39.273192" lon="9.4002125"><ele>652.4</ele><time>2026-04-18T09:29:48.373Z</time></trkpt><trkpt lat="39.2732897" lon="9.4002687"><ele>653.5999999999999</ele><time>2026-04-18T09:29:50.359Z</time></trkpt><trkpt lat="39.273363" lon="9.4003692"><ele>654.8</ele><time>2026-04-18T09:29:52.36Z</time></trkpt><trkpt lat="39.2734233" lon="9.4004473"><ele>656.0</ele><time>2026-04-18T09:29:54.356Z</time></trkpt><trkpt lat="39.2734766" lon="9.4005025"><ele>656.0</ele><time>2026-04-18T09:29:56.362Z</time></trkpt><trkpt lat="39.2735377" lon="9.4005769"><ele>656.0</ele><time>2026-04-18T09:29:59.358Z</time></trkpt><trkpt lat="39.2735684" lon="9.4006546"><ele>656.0</ele><time>2026-04-18T09:30:19.37Z</time></trkpt><trkpt lat="39.2736295" lon="9.4006302"><ele>656.0</ele><time>2026-04-18T09:46:33.365Z</time></trkpt><trkpt lat="39.2735183" lon="9.4005629"><ele>656.0</ele><time>2026-04-18T09:46:37.361Z</time></trkpt><trkpt lat="39.2734608" lon="9.4004896"><ele>656.0</ele><time>2026-04-18T09:46:38.348Z</time></trkpt><trkpt lat="39.2734004" lon="9.4003902"><ele>656.0</ele><time>2026-04-18T09:46:39.353Z</time></trkpt><trkpt lat="39.2733277" lon="9.4002913"><ele>656.0</ele><time>2026-04-18T09:46:40.356Z</time></trkpt><trkpt lat="39.2732469" lon="9.4001976"><ele>656.0</ele><time>2026-04-18T09:46:41.381Z</time></trkpt><trkpt lat="39.2731143" lon="9.400149"><ele>656.0</ele><time>2026-04-18T09:46:42.362Z</time></trkpt><trkpt lat="39.2729754" lon="9.4001086"><ele>654.8</ele><time>2026-04-18T09:46:43.37Z</time></trkpt><trkpt lat="39.2728546" lon="9.4000689"><ele>653.5999999999999</ele><time>2026-04-18T09:46:44.351Z</time></trkpt><trkpt lat="39.2727645" lon="9.3999964"><ele>652.4</ele><time>2026-04-18T09:46:45.375Z</time></trkpt><trkpt lat="39.2726826" lon="9.3999121"><ele>651.2</ele><time>2026-04-18T09:46:46.369Z</time></trkpt><trkpt lat="39.2726167" lon="9.3998379"><ele>650.0</ele><time>2026-04-18T09:46:47.367Z</time></trkpt><trkpt lat="39.2725627" lon="9.3997578"><ele>650.0</ele><time>2026-04-18T09:46:48.374Z</time></trkpt><trkpt lat="39.272515" lon="9.3996736"><ele>650.0</ele><time>2026-04-18T09:46:49.364Z</time></trkpt><trkpt lat="39.2724684" lon="9.3995879"><ele>650.0</ele><time>2026-04-18T09:46:50.367Z</time></trkpt><trkpt lat="39.2724263" lon="9.399507"><ele>650.0</ele><time>2026-04-18T09:46:51.37Z</time></trkpt><trkpt lat="39.2723929" lon="9.3994291"><ele>650.0</ele><time>2026-04-18T09:46:52.362Z</time></trkpt><trkpt lat="39.2723616" lon="9.3993583"><ele>650.0</ele><time>2026-04-18T09:46:53.364Z</time></trkpt><trkpt lat="39.2723091" lon="9.399283"><ele>650.0</ele><time>2026-04-18T09:46:55.357Z</time></trkpt><trkpt lat="39.2722327" lon="9.3991953"><ele>649.75</ele><time>2026-04-18T09:46:57.353Z</time></trkpt><trkpt lat="39.2721528" lon="9.3991232"><ele>649.5</ele><time>2026-04-18T09:46:58.348Z</time></trkpt><trkpt lat="39.2720782" lon="9.3990023"><ele>649.25</ele><time>2026-04-18T09:46:59.357Z</time></trkpt><trkpt lat="39.2720148" lon="9.3988426"><ele>649.0</ele><time>2026-04-18T09:47:00.361Z</time></trkpt><trkpt lat="39.271961" lon="9.3986677"><ele>649.0</ele><time>2026-04-18T09:47:01.349Z</time></trkpt><trkpt lat="39.2719312" lon="9.3985064"><ele>649.0</ele><time>2026-04-18T09:47:02.358Z</time></trkpt><trkpt lat="39.2719275" lon="9.3983583"><ele>649.0</ele><time>2026-04-18T09:47:03.358Z</time></trkpt><trkpt lat="39.2719414" lon="9.3982103"><ele>649.0</ele><time>2026-04-18T09:47:04.363Z</time></trkpt><trkpt lat="39.2719565" lon="9.3980566"><ele>649.6</ele><time>2026-04-18T09:47:05.365Z</time></trkpt><trkpt lat="39.2719805" lon="9.3979124"><ele>650.2</ele><time>2026-04-18T09:47:06.367Z</time></trkpt><trkpt lat="39.2720246" lon="9.3977803"><ele>650.8000000000001</ele><time>2026-04-18T09:47:07.369Z</time></trkpt><trkpt lat="39.2720812" lon="9.3976537"><ele>651.4000000000001</ele><time>2026-04-18T09:47:08.363Z</time></trkpt><trkpt lat="39.2721352" lon="9.3975334"><ele>652.0</ele><time>2026-04-18T09:47:09.359Z</time></trkpt><trkpt lat="39.2721716" lon="9.3974484"><ele>652.0</ele><time>2026-04-18T09:47:10.38Z</time></trkpt><trkpt lat="39.272209" lon="9.3973401"><ele>652.0</ele><time>2026-04-18T09:47:12.358Z</time></trkpt><trkpt lat="39.2721895" lon="9.3972623"><ele>652.0</ele><time>2026-04-18T09:47:16.369Z</time></trkpt><trkpt lat="39.2721293" lon="9.3972272"><ele>652.0</ele><time>2026-04-18T09:53:41.36Z</time></trkpt><trkpt lat="39.2721821" lon="9.3971593"><ele>652.0</ele><time>2026-04-18T09:53:47.377Z</time></trkpt><trkpt lat="39.2721812" lon="9.3972437"><ele>652.0</ele><time>2026-04-18T09:53:51.372Z</time></trkpt><trkpt lat="39.2721195" lon="9.3973213"><ele>652.0</ele><time>2026-04-18T09:53:54.353Z</time></trkpt><trkpt lat="39.2720544" lon="9.397364"><ele>652.0</ele><time>2026-04-18T09:53:56.359Z</time></trkpt><trkpt lat="39.2719943" lon="9.397393"><ele>652.0</ele><time>2026-04-18T09:53:59.354Z</time></trkpt><trkpt lat="39.2719267" lon="9.3973849"><ele>652.0</ele><time>2026-04-18T09:54:22.361Z</time></trkpt><trkpt lat="39.2717899" lon="9.397408"><ele>652.0</ele><time>2026-04-18T09:54:24.356Z</time></trkpt><trkpt lat="39.2716986" lon="9.3974296"><ele>652.0</ele><time>2026-04-18T09:54:25.36Z</time></trkpt><trkpt lat="39.2716022" lon="9.3974529"><ele>652.0</ele><time>2026-04-18T09:54:26.355Z</time></trkpt><trkpt lat="39.2715042" lon="9.3974789"><ele>652.0</ele><time>2026-04-18T09:54:27.376Z</time></trkpt><trkpt lat="39.2714091" lon="9.3975187"><ele>652.0</ele><time>2026-04-18T09:54:28.368Z</time></trkpt><trkpt lat="39.271324" lon="9.3975813"><ele>652.0</ele><time>2026-04-18T09:54:29.372Z</time></trkpt><trkpt lat="39.2712563" lon="9.3976696"><ele>652.0</ele><time>2026-04-18T09:54:30.362Z</time></trkpt><trkpt lat="39.2712106" lon="9.3977771"><ele>652.1666666666667</ele><time>2026-04-18T09:54:31.357Z</time></trkpt><trkpt lat="39.2711868" lon="9.397881"><ele>652.3333333333334</ele><time>2026-04-18T09:54:32.384Z</time></trkpt><trkpt lat="39.2711757" lon="9.3979735"><ele>652.5</ele><time>2026-04-18T09:54:33.368Z</time></trkpt><trkpt lat="39.2711519" lon="9.3981045"><ele>652.6666666666666</ele><time>2026-04-18T09:54:35.369Z</time></trkpt><trkpt lat="39.2711195" lon="9.3982283"><ele>652.8333333333333</ele><time>2026-04-18T09:54:37.36Z</time></trkpt><trkpt lat="39.2710974" lon="9.3983058"><ele>653.0</ele><time>2026-04-18T09:54:38.358Z</time></trkpt><trkpt lat="39.2710767" lon="9.398392"><ele>653.0</ele><time>2026-04-18T09:54:39.362Z</time></trkpt><trkpt lat="39.2710479" lon="9.3984756"><ele>653.0</ele><time>2026-04-18T09:54:40.36Z</time></trkpt><trkpt lat="39.2710027" lon="9.39855"><ele>653.0</ele><time>2026-04-18T09:54:41.349Z</time></trkpt><trkpt lat="39.2709387" lon="9.3986059"><ele>653.0</ele><time>2026-04-18T09:54:42.355Z</time></trkpt><trkpt lat="39.2708631" lon="9.398647"><ele>653.0</ele><time>2026-04-18T09:54:43.356Z</time></trkpt><trkpt lat="39.2707815" lon="9.3986881"><ele>653.0</ele><time>2026-04-18T09:54:44.367Z</time></trkpt><trkpt lat="39.2706922" lon="9.3987308"><ele>652.4</ele><time>2026-04-18T09:54:45.355Z</time></trkpt><trkpt lat="39.2705956" lon="9.3987759"><ele>651.8</ele><time>2026-04-18T09:54:46.354Z</time></trkpt><trkpt lat="39.270497" lon="9.3988228"><ele>651.2</ele><time>2026-04-18T09:54:47.362Z</time></trkpt><trkpt lat="39.2703936" lon="9.3988878"><ele>650.6</ele><time>2026-04-18T09:54:48.36Z</time></trkpt><trkpt lat="39.2702896" lon="9.3989613"><ele>650.0</ele><time>2026-04-18T09:54:49.352Z</time></trkpt><trkpt lat="39.2701817" lon="9.3990231"><ele>650.0</ele><time>2026-04-18T09:54:50.373Z</time></trkpt><trkpt lat="39.2700651" lon="9.3990643"><ele>650.0</ele><time>2026-04-18T09:54:51.358Z</time></trkpt><trkpt lat="39.2699359" lon="9.3990834"><ele>650.0</ele><time>2026-04-18T09:54:52.36Z</time></trkpt><trkpt lat="39.2698054" lon="9.3990978"><ele>650.0</ele><time>2026-04-18T09:54:53.37Z</time></trkpt><trkpt lat="39.2696718" lon="9.3991148"><ele>651.5</ele><time>2026-04-18T09:54:54.361Z</time></trkpt><trkpt lat="39.2695329" lon="9.3991416"><ele>653.0</ele><time>2026-04-18T09:54:55.363Z</time></trkpt><trkpt lat="39.2693971" lon="9.3991647"><ele>654.5</ele><time>2026-04-18T09:54:56.346Z</time></trkpt><trkpt lat="39.2692647" lon="9.3991852"><ele>656.0</ele><time>2026-04-18T09:54:57.367Z</time></trkpt><trkpt lat="39.269134" lon="9.3992042"><ele>656.0</ele><time>2026-04-18T09:54:58.354Z</time></trkpt><trkpt lat="39.2690021" lon="9.3992145"><ele>656.0</ele><time>2026-04-18T09:54:59.355Z</time></trkpt><trkpt lat="39.2688723" lon="9.399238"><ele>656.0</ele><time>2026-04-18T09:55:00.351Z</time></trkpt><trkpt lat="39.2687467" lon="9.3992548"><ele>656.0</ele><time>2026-04-18T09:55:01.366Z</time></trkpt><trkpt lat="39.2686215" lon="9.3992507"><ele>656.75</ele><time>2026-04-18T09:55:02.35Z</time></trkpt><trkpt lat="39.2685045" lon="9.3992412"><ele>657.5</ele><time>2026-04-18T09:55:03.365Z</time></trkpt><trkpt lat="39.2683886" lon="9.3992074"><ele>658.25</ele><time>2026-04-18T09:55:04.348Z</time></trkpt><trkpt lat="39.2682777" lon="9.3991844"><ele>659.0</ele><time>2026-04-18T09:55:05.351Z</time></trkpt><trkpt lat="39.2681592" lon="9.3991968"><ele>659.75</ele><time>2026-04-18T09:55:06.354Z</time></trkpt><trkpt lat="39.2680439" lon="9.3992196"><ele>660.5</ele><time>2026-04-18T09:55:07.362Z</time></trkpt><trkpt lat="39.267929" lon="9.3992605"><ele>661.25</ele><time>2026-04-18T09:55:08.354Z</time></trkpt><trkpt lat="39.2678206" lon="9.3993078"><ele>662.0</ele><time>2026-04-18T09:55:09.347Z</time></trkpt><trkpt lat="39.2677076" lon="9.3993485"><ele>662.0</ele><time>2026-04-18T09:55:10.345Z</time></trkpt><trkpt lat="39.2675875" lon="9.399384"><ele>662.0</ele><time>2026-04-18T09:55:11.363Z</time></trkpt><trkpt lat="39.2674686" lon="9.3994239"><ele>662.0</ele><time>2026-04-18T09:55:12.358Z</time></trkpt><trkpt lat="39.2673483" lon="9.3994568"><ele>662.0</ele><time>2026-04-18T09:55:13.356Z</time></trkpt><trkpt lat="39.2672238" lon="9.3994901"><ele>663.25</ele><time>2026-04-18T09:55:14.354Z</time></trkpt><trkpt lat="39.2670991" lon="9.3995167"><ele>664.5</ele><time>2026-04-18T09:55:15.374Z</time></trkpt><trkpt lat="39.2669805" lon="9.399539"><ele>665.75</ele><time>2026-04-18T09:55:16.376Z</time></trkpt><trkpt lat="39.2668573" lon="9.3995583"><ele>667.0</ele><time>2026-04-18T09:55:17.397Z</time></trkpt><trkpt lat="39.2667259" lon="9.3995781"><ele>667.0</ele><time>2026-04-18T09:55:18.368Z</time></trkpt><trkpt lat="39.2665892" lon="9.3995868"><ele>667.0</ele><time>2026-04-18T09:55:19.375Z</time></trkpt><trkpt lat="39.2664527" lon="9.3995919"><ele>667.0</ele><time>2026-04-18T09:55:20.375Z</time></trkpt><trkpt lat="39.2663189" lon="9.3995931"><ele>667.0</ele><time>2026-04-18T09:55:21.361Z</time></trkpt><trkpt lat="39.2661831" lon="9.3995963"><ele>668.5</ele><time>2026-04-18T09:55:22.358Z</time></trkpt><trkpt lat="39.2660533" lon="9.3996126"><ele>670.0</ele><time>2026-04-18T09:55:23.368Z</time></trkpt><trkpt lat="39.2659292" lon="9.3996411"><ele>671.5</ele><time>2026-04-18T09:55:24.352Z</time></trkpt><trkpt lat="39.2658043" lon="9.3996732"><ele>673.0</ele><time>2026-04-18T09:55:25.362Z</time></trkpt><trkpt lat="39.2656933" lon="9.3997305"><ele>670.75</ele><time>2026-04-18T09:55:26.368Z</time></trkpt><trkpt lat="39.2655814" lon="9.3997893"><ele>668.5</ele><time>2026-04-18T09:55:27.362Z</time></trkpt><trkpt lat="39.2654609" lon="9.3998334"><ele>666.25</ele><time>2026-04-18T09:55:28.365Z</time></trkpt><trkpt lat="39.2653346" lon="9.3998616"><ele>664.0</ele><time>2026-04-18T09:55:29.366Z</time></trkpt><trkpt lat="39.2652055" lon="9.3998654"><ele>664.0</ele><time>2026-04-18T09:55:30.361Z</time></trkpt><trkpt lat="39.2650795" lon="9.3998598"><ele>664.0</ele><time>2026-04-18T09:55:31.367Z</time></trkpt><trkpt lat="39.2649541" lon="9.3998577"><ele>664.0</ele><time>2026-04-18T09:55:32.352Z</time></trkpt><trkpt lat="39.2648277" lon="9.3998549"><ele>664.0</ele><time>2026-04-18T09:55:33.352Z</time></trkpt><trkpt lat="39.2647109" lon="9.3998612"><ele>665.5</ele><time>2026-04-18T09:55:34.368Z</time></trkpt><trkpt lat="39.264586" lon="9.3998672"><ele>667.0</ele><time>2026-04-18T09:55:35.355Z</time></trkpt><trkpt lat="39.2644525" lon="9.3998611"><ele>668.5</ele><time>2026-04-18T09:55:36.359Z</time></trkpt><trkpt lat="39.2643252" lon="9.3998443"><ele>670.0</ele><time>2026-04-18T09:55:37.365Z</time></trkpt><trkpt lat="39.2642144" lon="9.3998272"><ele>670.0</ele><time>2026-04-18T09:55:38.36Z</time></trkpt><trkpt lat="39.2641096" lon="9.3997998"><ele>670.0</ele><time>2026-04-18T09:55:39.357Z</time></trkpt><trkpt lat="39.2640021" lon="9.3997693"><ele>670.0</ele><time>2026-04-18T09:55:40.361Z</time></trkpt><trkpt lat="39.2639061" lon="9.399725"><ele>670.0</ele><time>2026-04-18T09:55:41.369Z</time></trkpt><trkpt lat="39.2638169" lon="9.3996784"><ele>670.0</ele><time>2026-04-18T09:55:42.356Z</time></trkpt><trkpt lat="39.2637131" lon="9.3996643"><ele>672.75</ele><time>2026-04-18T09:55:43.363Z</time></trkpt><trkpt lat="39.2635907" lon="9.3996588"><ele>675.5</ele><time>2026-04-18T09:55:44.362Z</time></trkpt><trkpt lat="39.2634579" lon="9.3996483"><ele>678.25</ele><time>2026-04-18T09:55:45.358Z</time></trkpt><trkpt lat="39.2633233" lon="9.3996313"><ele>681.0</ele><time>2026-04-18T09:55:46.352Z</time></trkpt><trkpt lat="39.2632009" lon="9.3996028"><ele>681.0</ele><time>2026-04-18T09:55:47.36Z</time></trkpt><trkpt lat="39.2630883" lon="9.3995799"><ele>681.0</ele><time>2026-04-18T09:55:48.354Z</time></trkpt><trkpt lat="39.2629754" lon="9.3995577"><ele>681.0</ele><time>2026-04-18T09:55:49.372Z</time></trkpt><trkpt lat="39.2628609" lon="9.3995276"><ele>681.0</ele><time>2026-04-18T09:55:50.367Z</time></trkpt><trkpt lat="39.2627571" lon="9.3994822"><ele>681.0</ele><time>2026-04-18T09:55:51.369Z</time></trkpt><trkpt lat="39.2626438" lon="9.3994564"><ele>681.0</ele><time>2026-04-18T09:55:52.354Z</time></trkpt><trkpt lat="39.2625216" lon="9.3994447"><ele>681.0</ele><time>2026-04-18T09:55:53.363Z</time></trkpt><trkpt lat="39.2623986" lon="9.3994326"><ele>681.0</ele><time>2026-04-18T09:55:54.355Z</time></trkpt><trkpt lat="39.2622799" lon="9.399419"><ele>681.5999999999999</ele><time>2026-04-18T09:55:55.355Z</time></trkpt><trkpt lat="39.2621668" lon="9.3993865"><ele>682.2</ele><time>2026-04-18T09:55:56.361Z</time></trkpt><trkpt lat="39.2620631" lon="9.3993428"><ele>682.8</ele><time>2026-04-18T09:55:57.373Z</time></trkpt><trkpt lat="39.2619774" lon="9.399291"><ele>683.4000000000001</ele><time>2026-04-18T09:55:58.363Z</time></trkpt><trkpt lat="39.2618929" lon="9.3992498"><ele>684.0</ele><time>2026-04-18T09:55:59.348Z</time></trkpt><trkpt lat="39.2618" lon="9.3992272"><ele>684.0</ele><time>2026-04-18T09:56:00.359Z</time></trkpt><trkpt lat="39.261723" lon="9.3992063"><ele>684.0</ele><time>2026-04-18T09:56:01.378Z</time></trkpt><trkpt lat="39.2616349" lon="9.3992279"><ele>684.0</ele><time>2026-04-18T09:56:02.37Z</time></trkpt><trkpt lat="39.2615829" lon="9.3992771"><ele>684.0</ele><time>2026-04-18T09:56:03.382Z</time></trkpt><trkpt lat="39.2615346" lon="9.3993294"><ele>684.0</ele><time>2026-04-18T09:56:04.36Z</time></trkpt><trkpt lat="39.2615426" lon="9.3994798"><ele>684.0</ele><time>2026-04-18T09:56:06.368Z</time></trkpt><trkpt lat="39.2615462" lon="9.3995663"><ele>684.0</ele><time>2026-04-18T09:56:07.365Z</time></trkpt><trkpt lat="39.2615421" lon="9.3996661"><ele>684.0</ele><time>2026-04-18T09:56:08.356Z</time></trkpt><trkpt lat="39.2615116" lon="9.399747"><ele>684.0</ele><time>2026-04-18T09:56:09.358Z</time></trkpt><trkpt lat="39.2614589" lon="9.3998385"><ele>684.0</ele><time>2026-04-18T09:56:10.35Z</time></trkpt><trkpt lat="39.2613858" lon="9.3999133"><ele>684.0</ele><time>2026-04-18T09:56:11.366Z</time></trkpt><trkpt lat="39.2613001" lon="9.399994"><ele>684.0</ele><time>2026-04-18T09:56:12.366Z</time></trkpt><trkpt lat="39.2612234" lon="9.4000283"><ele>685.4000000000001</ele><time>2026-04-18T09:56:13.37Z</time></trkpt><trkpt lat="39.2611396" lon="9.4000639"><ele>686.8</ele><time>2026-04-18T09:56:14.353Z</time></trkpt><trkpt lat="39.2610498" lon="9.4000466"><ele>688.2</ele><time>2026-04-18T09:56:15.369Z</time></trkpt><trkpt lat="39.2609477" lon="9.4000287"><ele>689.5999999999999</ele><time>2026-04-18T09:56:16.356Z</time></trkpt><trkpt lat="39.2608353" lon="9.4000167"><ele>691.0</ele><time>2026-04-18T09:56:17.368Z</time></trkpt><trkpt lat="39.2607388" lon="9.4000136"><ele>691.0</ele><time>2026-04-18T09:56:18.361Z</time></trkpt><trkpt lat="39.2606711" lon="9.4000188"><ele>691.0</ele><time>2026-04-18T09:56:19.356Z</time></trkpt><trkpt lat="39.2605738" lon="9.4000384"><ele>691.0</ele><time>2026-04-18T09:56:21.362Z</time></trkpt><trkpt lat="39.260471" lon="9.4000553"><ele>691.0</ele><time>2026-04-18T09:56:23.353Z</time></trkpt><trkpt lat="39.2604066" lon="9.4000559"><ele>691.0</ele><time>2026-04-18T09:56:25.364Z</time></trkpt><trkpt lat="39.2603182" lon="9.4000522"><ele>691.0</ele><time>2026-04-18T09:56:27.356Z</time></trkpt><trkpt lat="39.2602057" lon="9.4000479"><ele>691.8</ele><time>2026-04-18T09:56:29.364Z</time></trkpt><trkpt lat="39.2600789" lon="9.4000301"><ele>692.5999999999999</ele><time>2026-04-18T09:56:31.372Z</time></trkpt><trkpt lat="39.259965" lon="9.4000489"><ele>693.4</ele><time>2026-04-18T09:56:33.363Z</time></trkpt><trkpt lat="39.2598958" lon="9.4000869"><ele>694.2</ele><time>2026-04-18T09:56:35.355Z</time></trkpt><trkpt lat="39.2598318" lon="9.4001264"><ele>695.0</ele><time>2026-04-18T09:56:37.358Z</time></trkpt><trkpt lat="39.2597856" lon="9.4001832"><ele>695.6666666666666</ele><time>2026-04-18T09:56:41.363Z</time></trkpt><trkpt lat="39.2597292" lon="9.400252"><ele>696.3333333333333</ele><time>2026-04-18T09:56:43.37Z</time></trkpt><trkpt lat="39.2596521" lon="9.4003242"><ele>697.0</ele><time>2026-04-18T09:56:45.362Z</time></trkpt><trkpt lat="39.2595778" lon="9.4003881"><ele>697.6666666666666</ele><time>2026-04-18T09:56:47.397Z</time></trkpt><trkpt lat="39.2595036" lon="9.4004367"><ele>698.3333333333334</ele><time>2026-04-18T09:56:49.365Z</time></trkpt><trkpt lat="39.2594256" lon="9.4004466"><ele>699.0</ele><time>2026-04-18T09:56:51.362Z</time></trkpt><trkpt lat="39.2593534" lon="9.4004599"><ele>699.0</ele><time>2026-04-18T09:56:53.362Z</time></trkpt><trkpt lat="39.259262" lon="9.4004325"><ele>699.0</ele><time>2026-04-18T09:56:55.359Z</time></trkpt><trkpt lat="39.2591858" lon="9.4003877"><ele>699.0</ele><time>2026-04-18T09:56:57.352Z</time></trkpt><trkpt lat="39.2590999" lon="9.400329"><ele>699.0</ele><time>2026-04-18T09:56:59.354Z</time></trkpt><trkpt lat="39.2589943" lon="9.4002991"><ele>699.0</ele><time>2026-04-18T09:57:01.359Z</time></trkpt><trkpt lat="39.2588753" lon="9.4002862"><ele>700.75</ele><time>2026-04-18T09:57:03.356Z</time></trkpt><trkpt lat="39.2587539" lon="9.4002923"><ele>702.5</ele><time>2026-04-18T09:57:05.368Z</time></trkpt><trkpt lat="39.2586304" lon="9.4003137"><ele>704.25</ele><time>2026-04-18T09:57:07.346Z</time></trkpt><trkpt lat="39.2585266" lon="9.4003682"><ele>706.0</ele><time>2026-04-18T09:57:09.352Z</time></trkpt><trkpt lat="39.2584381" lon="9.4004358"><ele>706.0</ele><time>2026-04-18T09:57:11.347Z</time></trkpt><trkpt lat="39.2583516" lon="9.4004913"><ele>706.0</ele><time>2026-04-18T09:57:13.365Z</time></trkpt><trkpt lat="39.2582608" lon="9.4005252"><ele>706.0</ele><time>2026-04-18T09:57:15.355Z</time></trkpt><trkpt lat="39.2581663" lon="9.4005979"><ele>706.0</ele><time>2026-04-18T09:57:17.387Z</time></trkpt><trkpt lat="39.2580529" lon="9.4006573"><ele>706.0</ele><time>2026-04-18T09:57:19.361Z</time></trkpt><trkpt lat="39.2579598" lon="9.4007279"><ele>708.4</ele><time>2026-04-18T09:57:21.362Z</time></trkpt><trkpt lat="39.2578707" lon="9.400775"><ele>710.8</ele><time>2026-04-18T09:57:23.363Z</time></trkpt><trkpt lat="39.2577828" lon="9.4008266"><ele>713.1999999999999</ele><time>2026-04-18T09:57:25.365Z</time></trkpt><trkpt lat="39.2576857" lon="9.4008793"><ele>715.5999999999999</ele><time>2026-04-18T09:57:27.365Z</time></trkpt><trkpt lat="39.2575753" lon="9.40091"><ele>718.0</ele><time>2026-04-18T09:57:29.367Z</time></trkpt><trkpt lat="39.2574781" lon="9.4009375"><ele>718.0</ele><time>2026-04-18T09:57:31.361Z</time></trkpt><trkpt lat="39.257389" lon="9.4009487"><ele>718.0</ele><time>2026-04-18T09:57:33.362Z</time></trkpt><trkpt lat="39.2572982" lon="9.4009178"><ele>718.0</ele><time>2026-04-18T09:57:35.356Z</time></trkpt><trkpt lat="39.257202" lon="9.4008803"><ele>718.0</ele><time>2026-04-18T09:57:37.36Z</time></trkpt><trkpt lat="39.2571075" lon="9.4008233"><ele>718.0</ele><time>2026-04-18T09:57:39.367Z</time></trkpt><trkpt lat="39.2570314" lon="9.4007762"><ele>719.8</ele><time>2026-04-18T09:57:41.35Z</time></trkpt><trkpt lat="39.2569588" lon="9.4007059"><ele>721.5999999999999</ele><time>2026-04-18T09:57:48.359Z</time></trkpt><trkpt lat="39.2568838" lon="9.4006668"><ele>723.4000000000001</ele><time>2026-04-18T09:57:50.364Z</time></trkpt><trkpt lat="39.2567754" lon="9.4006075"><ele>725.2</ele><time>2026-04-18T09:57:52.37Z</time></trkpt><trkpt lat="39.2566553" lon="9.4005636"><ele>727.0</ele><time>2026-04-18T09:57:54.365Z</time></trkpt><trkpt lat="39.2565429" lon="9.4005626"><ele>727.0</ele><time>2026-04-18T09:57:56.352Z</time></trkpt><trkpt lat="39.2564785" lon="9.4005781"><ele>727.0</ele><time>2026-04-18T09:57:57.352Z</time></trkpt><trkpt lat="39.2564091" lon="9.4005771"><ele>727.0</ele><time>2026-04-18T09:57:58.356Z</time></trkpt><trkpt lat="39.2563238" lon="9.4005581"><ele>727.0</ele><time>2026-04-18T09:57:59.357Z</time></trkpt><trkpt lat="39.2562332" lon="9.4005286"><ele>727.0</ele><time>2026-04-18T09:58:00.361Z</time></trkpt><trkpt lat="39.2561429" lon="9.4005115"><ele>727.0</ele><time>2026-04-18T09:58:01.357Z</time></trkpt><trkpt lat="39.2560505" lon="9.4004866"><ele>729.1666666666667</ele><time>2026-04-18T09:58:02.366Z</time></trkpt><trkpt lat="39.2559671" lon="9.4004548"><ele>731.3333333333334</ele><time>2026-04-18T09:58:03.363Z</time></trkpt><trkpt lat="39.2559011" lon="9.400428"><ele>733.5</ele><time>2026-04-18T09:58:04.366Z</time></trkpt><trkpt lat="39.2558232" lon="9.400397"><ele>735.6666666666666</ele><time>2026-04-18T09:58:05.353Z</time></trkpt><trkpt lat="39.2557414" lon="9.400369"><ele>737.8333333333333</ele><time>2026-04-18T09:58:06.357Z</time></trkpt><trkpt lat="39.2556521" lon="9.4003383"><ele>740.0</ele><time>2026-04-18T09:58:07.359Z</time></trkpt><trkpt lat="39.2555625" lon="9.4002979"><ele>741.1666666666666</ele><time>2026-04-18T09:58:08.372Z</time></trkpt><trkpt lat="39.2554714" lon="9.4002605"><ele>742.3333333333333</ele><time>2026-04-18T09:58:09.388Z</time></trkpt><trkpt lat="39.2553864" lon="9.4002321"><ele>743.5</ele><time>2026-04-18T09:58:10.377Z</time></trkpt><trkpt lat="39.2553085" lon="9.4001977"><ele>744.6666666666666</ele><time>2026-04-18T09:58:11.389Z</time></trkpt><trkpt lat="39.2552435" lon="9.400144"><ele>745.8333333333334</ele><time>2026-04-18T09:58:12.381Z</time></trkpt><trkpt lat="39.255183" lon="9.400084"><ele>747.0</ele><time>2026-04-18T09:58:13.368Z</time></trkpt><trkpt lat="39.2551384" lon="9.4000262"><ele>747.0</ele><time>2026-04-18T09:58:14.371Z</time></trkpt><trkpt lat="39.2550761" lon="9.3999829"><ele>747.0</ele><time>2026-04-18T09:58:15.358Z</time></trkpt><trkpt lat="39.2550129" lon="9.3999385"><ele>747.0</ele><time>2026-04-18T09:58:16.359Z</time></trkpt><trkpt lat="39.2548914" lon="9.3998431"><ele>747.0</ele><time>2026-04-18T09:58:18.356Z</time></trkpt><trkpt lat="39.2548227" lon="9.3997898"><ele>747.0</ele><time>2026-04-18T09:58:19.351Z</time></trkpt><trkpt lat="39.2547547" lon="9.3997383"><ele>747.0</ele><time>2026-04-18T09:58:20.348Z</time></trkpt><trkpt lat="39.2546956" lon="9.399689"><ele>746.1666666666666</ele><time>2026-04-18T09:58:21.364Z</time></trkpt><trkpt lat="39.2545898" lon="9.3996144"><ele>745.3333333333334</ele><time>2026-04-18T09:58:23.368Z</time></trkpt><trkpt lat="39.254525" lon="9.3995531"><ele>744.5</ele><time>2026-04-18T09:58:25.375Z</time></trkpt><trkpt lat="39.2544946" lon="9.3994706"><ele>743.6666666666667</ele><time>2026-04-18T09:58:53.355Z</time></trkpt><trkpt lat="39.2544822" lon="9.3993329"><ele>742.8333333333334</ele><time>2026-04-18T09:58:55.371Z</time></trkpt><trkpt lat="39.2544782" lon="9.3992511"><ele>742.0</ele><time>2026-04-18T09:58:56.368Z</time></trkpt><trkpt lat="39.2544748" lon="9.3991629"><ele>742.0</ele><time>2026-04-18T09:58:57.364Z</time></trkpt><trkpt lat="39.2544741" lon="9.399068"><ele>742.0</ele><time>2026-04-18T09:58:58.357Z</time></trkpt><trkpt lat="39.2544803" lon="9.3989656"><ele>742.0</ele><time>2026-04-18T09:58:59.358Z</time></trkpt><trkpt lat="39.2544884" lon="9.3988569"><ele>742.0</ele><time>2026-04-18T09:59:00.352Z</time></trkpt><trkpt lat="39.2544945" lon="9.3987415"><ele>742.0</ele><time>2026-04-18T09:59:01.357Z</time></trkpt><trkpt lat="39.2544996" lon="9.3986209"><ele>742.0</ele><time>2026-04-18T09:59:02.381Z</time></trkpt><trkpt lat="39.2545032" lon="9.3984952"><ele>741.8</ele><time>2026-04-18T09:59:03.354Z</time></trkpt><trkpt lat="39.254505" lon="9.3983657"><ele>741.6</ele><time>2026-04-18T09:59:04.359Z</time></trkpt><trkpt lat="39.2545032" lon="9.3982397"><ele>741.4</ele><time>2026-04-18T09:59:05.356Z</time></trkpt><trkpt lat="39.254488" lon="9.3981197"><ele>741.1999999999999</ele><time>2026-04-18T09:59:06.365Z</time></trkpt><trkpt lat="39.2544433" lon="9.3980132"><ele>741.0</ele><time>2026-04-18T09:59:07.355Z</time></trkpt><trkpt lat="39.2543707" lon="9.3979326"><ele>741.0</ele><time>2026-04-18T09:59:08.369Z</time></trkpt><trkpt lat="39.2542823" lon="9.3978758"><ele>741.0</ele><time>2026-04-18T09:59:09.36Z</time></trkpt><trkpt lat="39.2541893" lon="9.397825"><ele>741.0</ele><time>2026-04-18T09:59:10.35Z</time></trkpt><trkpt lat="39.2541009" lon="9.39776"><ele>741.0</ele><time>2026-04-18T09:59:11.351Z</time></trkpt><trkpt lat="39.2540277" lon="9.3976736"><ele>741.0</ele><time>2026-04-18T09:59:12.347Z</time></trkpt><trkpt lat="39.2539821" lon="9.3975638"><ele>741.0</ele><time>2026-04-18T09:59:13.353Z</time></trkpt><trkpt lat="39.2539672" lon="9.3974389"><ele>741.0</ele><time>2026-04-18T09:59:14.365Z</time></trkpt><trkpt lat="39.2539761" lon="9.3973085"><ele>741.0</ele><time>2026-04-18T09:59:15.364Z</time></trkpt><trkpt lat="39.253997" lon="9.3971767"><ele>741.0</ele><time>2026-04-18T09:59:16.359Z</time></trkpt><trkpt lat="39.254021" lon="9.3970463"><ele>741.0</ele><time>2026-04-18T09:59:17.367Z</time></trkpt><trkpt lat="39.2540402" lon="9.396918"><ele>739.5999999999999</ele><time>2026-04-18T09:59:18.354Z</time></trkpt><trkpt lat="39.2540408" lon="9.3967867"><ele>738.2</ele><time>2026-04-18T09:59:19.359Z</time></trkpt><trkpt lat="39.254014" lon="9.3966561"><ele>736.8</ele><time>2026-04-18T09:59:20.361Z</time></trkpt><trkpt lat="39.253954" lon="9.3965425"><ele>735.4000000000001</ele><time>2026-04-18T09:59:21.352Z</time></trkpt><trkpt lat="39.2538707" lon="9.3964465"><ele>734.0</ele><time>2026-04-18T09:59:22.359Z</time></trkpt><trkpt lat="39.2537747" lon="9.3963637"><ele>732.0</ele><time>2026-04-18T09:59:23.356Z</time></trkpt><trkpt lat="39.2536708" lon="9.3962947"><ele>730.0</ele><time>2026-04-18T09:59:24.37Z</time></trkpt><trkpt lat="39.2535593" lon="9.3962408"><ele>728.0</ele><time>2026-04-18T09:59:25.381Z</time></trkpt><trkpt lat="39.2534408" lon="9.3962167"><ele>726.0</ele><time>2026-04-18T09:59:26.374Z</time></trkpt><trkpt lat="39.2533207" lon="9.3962334"><ele>726.0</ele><time>2026-04-18T09:59:27.377Z</time></trkpt><trkpt lat="39.2532074" lon="9.3962903"><ele>726.0</ele><time>2026-04-18T09:59:28.369Z</time></trkpt><trkpt lat="39.2531043" lon="9.3963751"><ele>726.0</ele><time>2026-04-18T09:59:29.354Z</time></trkpt><trkpt lat="39.2530062" lon="9.3964714"><ele>726.0</ele><time>2026-04-18T09:59:30.372Z</time></trkpt><trkpt lat="39.25291" lon="9.3965657"><ele>723.75</ele><time>2026-04-18T09:59:31.366Z</time></trkpt><trkpt lat="39.252806" lon="9.3966336"><ele>721.5</ele><time>2026-04-18T09:59:32.356Z</time></trkpt><trkpt lat="39.2526987" lon="9.3966537"><ele>719.25</ele><time>2026-04-18T09:59:33.355Z</time></trkpt><trkpt lat="39.2525882" lon="9.3966353"><ele>717.0</ele><time>2026-04-18T09:59:34.363Z</time></trkpt><trkpt lat="39.2524776" lon="9.3965964"><ele>717.0</ele><time>2026-04-18T09:59:35.354Z</time></trkpt><trkpt lat="39.2523702" lon="9.3965476"><ele>717.0</ele><time>2026-04-18T09:59:36.37Z</time></trkpt><trkpt lat="39.252273" lon="9.3964989"><ele>717.0</ele><time>2026-04-18T09:59:37.357Z</time></trkpt><trkpt lat="39.2521876" lon="9.3964593"><ele>717.0</ele><time>2026-04-18T09:59:38.351Z</time></trkpt><trkpt lat="39.2521129" lon="9.396441"><ele>717.0</ele><time>2026-04-18T09:59:39.361Z</time></trkpt><trkpt lat="39.2520423" lon="9.3964543"><ele>717.4000000000001</ele><time>2026-04-18T09:59:40.361Z</time></trkpt><trkpt lat="39.2519772" lon="9.3964841"><ele>717.8000000000001</ele><time>2026-04-18T09:59:41.352Z</time></trkpt><trkpt lat="39.251856" lon="9.396535"><ele>718.2</ele><time>2026-04-18T09:59:43.362Z</time></trkpt><trkpt lat="39.251771" lon="9.396541"><ele>718.6</ele><time>2026-04-18T09:59:45.363Z</time></trkpt><trkpt lat="39.2516919" lon="9.3964519"><ele>719.0</ele><time>2026-04-18T09:59:47.363Z</time></trkpt><trkpt lat="39.2516302" lon="9.3964064"><ele>719.0</ele><time>2026-04-18T09:59:48.353Z</time></trkpt><trkpt lat="39.2515601" lon="9.3963615"><ele>719.0</ele><time>2026-04-18T09:59:49.347Z</time></trkpt><trkpt lat="39.2514637" lon="9.3963213"><ele>719.0</ele><time>2026-04-18T09:59:50.369Z</time></trkpt><trkpt lat="39.2513668" lon="9.3962608"><ele>719.0</ele><time>2026-04-18T09:59:51.357Z</time></trkpt><trkpt lat="39.2512749" lon="9.3962008"><ele>719.0</ele><time>2026-04-18T09:59:52.356Z</time></trkpt><trkpt lat="39.2511863" lon="9.396152"><ele>718.6666666666666</ele><time>2026-04-18T09:59:53.355Z</time></trkpt><trkpt lat="39.2511153" lon="9.3961197"><ele>718.3333333333333</ele><time>2026-04-18T09:59:54.362Z</time></trkpt><trkpt lat="39.251052" lon="9.3960977"><ele>718.0</ele><time>2026-04-18T09:59:55.374Z</time></trkpt><trkpt lat="39.250955" lon="9.396065"><ele>717.6666666666666</ele><time>2026-04-18T09:59:57.371Z</time></trkpt><trkpt lat="39.2508885" lon="9.396044"><ele>717.3333333333334</ele><time>2026-04-18T09:59:59.354Z</time></trkpt><trkpt lat="39.250813" lon="9.3960131"><ele>717.0</ele><time>2026-04-18T10:00:01.361Z</time></trkpt><trkpt lat="39.2506927" lon="9.3959768"><ele>717.4000000000001</ele><time>2026-04-18T10:00:03.386Z</time></trkpt><trkpt lat="39.2506095" lon="9.3959733"><ele>717.8000000000001</ele><time>2026-04-18T10:00:04.388Z</time></trkpt><trkpt lat="39.2505192" lon="9.3959543"><ele>718.2</ele><time>2026-04-18T10:00:05.374Z</time></trkpt><trkpt lat="39.2504268" lon="9.3959292"><ele>718.6</ele><time>2026-04-18T10:00:06.38Z</time></trkpt><trkpt lat="39.2503366" lon="9.3958949"><ele>719.0</ele><time>2026-04-18T10:00:07.396Z</time></trkpt><trkpt lat="39.2502488" lon="9.3958597"><ele>719.0</ele><time>2026-04-18T10:00:08.37Z</time></trkpt><trkpt lat="39.2501611" lon="9.3958384"><ele>719.0</ele><time>2026-04-18T10:00:09.36Z</time></trkpt><trkpt lat="39.2500758" lon="9.395817"><ele>719.0</ele><time>2026-04-18T10:00:10.356Z</time></trkpt><trkpt lat="39.2499899" lon="9.3958102"><ele>719.0</ele><time>2026-04-18T10:00:11.364Z</time></trkpt><trkpt lat="39.2498934" lon="9.395813"><ele>719.0</ele><time>2026-04-18T10:00:12.36Z</time></trkpt><trkpt lat="39.249784" lon="9.3958284"><ele>719.0</ele><time>2026-04-18T10:00:13.358Z</time></trkpt><trkpt lat="39.2496707" lon="9.3958485"><ele>719.0</ele><time>2026-04-18T10:00:14.362Z</time></trkpt><trkpt lat="39.2495577" lon="9.3958606"><ele>719.0</ele><time>2026-04-18T10:00:15.368Z</time></trkpt><trkpt lat="39.2494468" lon="9.3958673"><ele>719.0</ele><time>2026-04-18T10:00:16.357Z</time></trkpt><trkpt lat="39.2493457" lon="9.3958701"><ele>719.0</ele><time>2026-04-18T10:00:17.356Z</time></trkpt><trkpt lat="39.2492557" lon="9.3958628"><ele>719.0</ele><time>2026-04-18T10:00:18.377Z</time></trkpt><trkpt lat="39.2491685" lon="9.3958508"><ele>719.0</ele><time>2026-04-18T10:00:19.361Z</time></trkpt><trkpt lat="39.2490845" lon="9.3958194"><ele>719.0</ele><time>2026-04-18T10:00:20.371Z</time></trkpt><trkpt lat="39.2490018" lon="9.3957522"><ele>719.0</ele><time>2026-04-18T10:00:21.36Z</time></trkpt><trkpt lat="39.2489184" lon="9.3956834"><ele>719.0</ele><time>2026-04-18T10:00:22.361Z</time></trkpt><trkpt lat="39.2488318" lon="9.3956098"><ele>718.4000000000001</ele><time>2026-04-18T10:00:23.366Z</time></trkpt><trkpt lat="39.2487383" lon="9.3955408"><ele>717.8</ele><time>2026-04-18T10:00:24.364Z</time></trkpt><trkpt lat="39.2486505" lon="9.3954731"><ele>717.2</ele><time>2026-04-18T10:00:25.357Z</time></trkpt><trkpt lat="39.2485746" lon="9.3954104"><ele>716.5999999999999</ele><time>2026-04-18T10:00:26.359Z</time></trkpt><trkpt lat="39.2485043" lon="9.3953504"><ele>716.0</ele><time>2026-04-18T10:00:27.368Z</time></trkpt><trkpt lat="39.2484305" lon="9.3952885"><ele>716.0</ele><time>2026-04-18T10:00:28.375Z</time></trkpt><trkpt lat="39.2483566" lon="9.3952328"><ele>716.0</ele><time>2026-04-18T10:00:29.371Z</time></trkpt><trkpt lat="39.2482859" lon="9.3951812"><ele>716.0</ele><time>2026-04-18T10:00:30.376Z</time></trkpt><trkpt lat="39.2482193" lon="9.3951318"><ele>716.0</ele><time>2026-04-18T10:00:31.359Z</time></trkpt><trkpt lat="39.2481547" lon="9.3950437"><ele>716.0</ele><time>2026-04-18T10:00:33.357Z</time></trkpt><trkpt lat="39.2481331" lon="9.3949323"><ele>716.0</ele><time>2026-04-18T10:00:35.358Z</time></trkpt><trkpt lat="39.248158" lon="9.3947788"><ele>716.0</ele><time>2026-04-18T10:00:37.372Z</time></trkpt><trkpt lat="39.2482224" lon="9.3946386"><ele>716.0</ele><time>2026-04-18T10:00:39.373Z</time></trkpt><trkpt lat="39.2482545" lon="9.3945636"><ele>716.0</ele><time>2026-04-18T10:00:40.357Z</time></trkpt><trkpt lat="39.2482864" lon="9.3944881"><ele>716.0</ele><time>2026-04-18T10:00:41.374Z</time></trkpt><trkpt lat="39.2483067" lon="9.3943883"><ele>716.0</ele><time>2026-04-18T10:00:42.356Z</time></trkpt><trkpt lat="39.2483281" lon="9.3942837"><ele>716.0</ele><time>2026-04-18T10:00:43.365Z</time></trkpt><trkpt lat="39.2483475" lon="9.3941857"><ele>716.0</ele><time>2026-04-18T10:00:44.365Z</time></trkpt><trkpt lat="39.2483617" lon="9.3940873"><ele>716.0</ele><time>2026-04-18T10:00:45.366Z</time></trkpt><trkpt lat="39.2483731" lon="9.3939888"><ele>716.0</ele><time>2026-04-18T10:00:46.375Z</time></trkpt><trkpt lat="39.2483815" lon="9.3938886"><ele>716.0</ele><time>2026-04-18T10:00:47.39Z</time></trkpt><trkpt lat="39.2483995" lon="9.3937944"><ele>716.0</ele><time>2026-04-18T10:00:48.388Z</time></trkpt><trkpt lat="39.2484326" lon="9.3937058"><ele>716.0</ele><time>2026-04-18T10:00:49.379Z</time></trkpt><trkpt lat="39.248476" lon="9.393621"><ele>715.6666666666666</ele><time>2026-04-18T10:00:50.366Z</time></trkpt><trkpt lat="39.248517" lon="9.3935405"><ele>715.3333333333333</ele><time>2026-04-18T10:00:51.384Z</time></trkpt><trkpt lat="39.248544" lon="9.3934505"><ele>715.0</ele><time>2026-04-18T10:00:52.369Z</time></trkpt><trkpt lat="39.2485668" lon="9.3933718"><ele>714.6666666666666</ele><time>2026-04-18T10:00:53.359Z</time></trkpt><trkpt lat="39.2485494" lon="9.3932706"><ele>714.3333333333334</ele><time>2026-04-18T10:00:54.363Z</time></trkpt><trkpt lat="39.2485335" lon="9.3931558"><ele>714.0</ele><time>2026-04-18T10:00:55.366Z</time></trkpt><trkpt lat="39.2485177" lon="9.3930396"><ele>712.4000000000001</ele><time>2026-04-18T10:00:56.355Z</time></trkpt><trkpt lat="39.2485014" lon="9.3929299"><ele>710.8</ele><time>2026-04-18T10:00:57.36Z</time></trkpt><trkpt lat="39.2484733" lon="9.392822"><ele>709.2</ele><time>2026-04-18T10:00:58.359Z</time></trkpt><trkpt lat="39.2484316" lon="9.3927237"><ele>707.5999999999999</ele><time>2026-04-18T10:00:59.366Z</time></trkpt><trkpt lat="39.2483627" lon="9.3926347"><ele>706.0</ele><time>2026-04-18T10:01:00.362Z</time></trkpt><trkpt lat="39.2482889" lon="9.3925416"><ele>706.0</ele><time>2026-04-18T10:01:01.361Z</time></trkpt><trkpt lat="39.2482168" lon="9.392444"><ele>706.0</ele><time>2026-04-18T10:01:02.352Z</time></trkpt><trkpt lat="39.2481431" lon="9.3923478"><ele>706.0</ele><time>2026-04-18T10:01:03.357Z</time></trkpt><trkpt lat="39.2480697" lon="9.3922537"><ele>706.0</ele><time>2026-04-18T10:01:04.356Z</time></trkpt><trkpt lat="39.2479921" lon="9.3921661"><ele>706.0</ele><time>2026-04-18T10:01:05.363Z</time></trkpt><trkpt lat="39.2479162" lon="9.3920789"><ele>705.0</ele><time>2026-04-18T10:01:06.352Z</time></trkpt><trkpt lat="39.2478484" lon="9.3919969"><ele>704.0</ele><time>2026-04-18T10:01:07.36Z</time></trkpt><trkpt lat="39.2477956" lon="9.3919233"><ele>703.0</ele><time>2026-04-18T10:01:08.36Z</time></trkpt><trkpt lat="39.2477778" lon="9.3918013"><ele>702.0</ele><time>2026-04-18T10:01:10.364Z</time></trkpt><trkpt lat="39.2478436" lon="9.3916794"><ele>701.0</ele><time>2026-04-18T10:01:12.37Z</time></trkpt><trkpt lat="39.2479107" lon="9.391625"><ele>701.0</ele><time>2026-04-18T10:01:13.366Z</time></trkpt><trkpt lat="39.2479787" lon="9.3915737"><ele>701.0</ele><time>2026-04-18T10:01:14.356Z</time></trkpt><trkpt lat="39.2480366" lon="9.3915289"><ele>701.0</ele><time>2026-04-18T10:01:15.354Z</time></trkpt><trkpt lat="39.2481225" lon="9.3914957"><ele>701.0</ele><time>2026-04-18T10:01:17.364Z</time></trkpt><trkpt lat="39.2482018" lon="9.391448"><ele>701.0</ele><time>2026-04-18T10:01:19.36Z</time></trkpt><trkpt lat="39.2482306" lon="9.3913096"><ele>701.0</ele><time>2026-04-18T10:01:21.351Z</time></trkpt><trkpt lat="39.2482201" lon="9.3911389"><ele>701.1666666666666</ele><time>2026-04-18T10:01:23.362Z</time></trkpt><trkpt lat="39.2481932" lon="9.3910538"><ele>701.3333333333333</ele><time>2026-04-18T10:01:24.361Z</time></trkpt><trkpt lat="39.2481655" lon="9.3909707"><ele>701.5</ele><time>2026-04-18T10:01:25.363Z</time></trkpt><trkpt lat="39.2481446" lon="9.3908881"><ele>701.6666666666666</ele><time>2026-04-18T10:01:26.357Z</time></trkpt><trkpt lat="39.2481313" lon="9.3908004"><ele>701.8333333333334</ele><time>2026-04-18T10:01:27.353Z</time></trkpt><trkpt lat="39.2481187" lon="9.3907129"><ele>702.0</ele><time>2026-04-18T10:01:28.363Z</time></trkpt><trkpt lat="39.2480947" lon="9.3905792"><ele>702.0</ele><time>2026-04-18T10:01:30.362Z</time></trkpt><trkpt lat="39.2480848" lon="9.3904319"><ele>702.0</ele><time>2026-04-18T10:01:32.374Z</time></trkpt><trkpt lat="39.2480816" lon="9.3902929"><ele>702.0</ele><time>2026-04-18T10:01:34.385Z</time></trkpt><trkpt lat="39.2480872" lon="9.3902055"><ele>702.0</ele><time>2026-04-18T10:01:35.374Z</time></trkpt><trkpt lat="39.248081" lon="9.3901136"><ele>702.0</ele><time>2026-04-18T10:01:36.361Z</time></trkpt><trkpt lat="39.2480853" lon="9.3900126"><ele>702.0</ele><time>2026-04-18T10:01:37.355Z</time></trkpt><trkpt lat="39.2481016" lon="9.389902"><ele>702.0</ele><time>2026-04-18T10:01:38.358Z</time></trkpt><trkpt lat="39.2481104" lon="9.3897845"><ele>702.0</ele><time>2026-04-18T10:01:39.353Z</time></trkpt><trkpt lat="39.2481217" lon="9.3896628"><ele>702.0</ele><time>2026-04-18T10:01:40.351Z</time></trkpt><trkpt lat="39.2481318" lon="9.3895386"><ele>702.0</ele><time>2026-04-18T10:01:41.356Z</time></trkpt><trkpt lat="39.2481477" lon="9.389421"><ele>702.0</ele><time>2026-04-18T10:01:42.365Z</time></trkpt><trkpt lat="39.2481643" lon="9.3893048"><ele>701.6</ele><time>2026-04-18T10:01:43.375Z</time></trkpt><trkpt lat="39.2482079" lon="9.3892023"><ele>701.2</ele><time>2026-04-18T10:01:44.364Z</time></trkpt><trkpt lat="39.2482584" lon="9.3891149"><ele>700.8</ele><time>2026-04-18T10:01:45.353Z</time></trkpt><trkpt lat="39.2483005" lon="9.3890393"><ele>700.4</ele><time>2026-04-18T10:01:46.368Z</time></trkpt><trkpt lat="39.2483371" lon="9.3888964"><ele>700.0</ele><time>2026-04-18T10:01:48.365Z</time></trkpt><trkpt lat="39.2482887" lon="9.3888037"><ele>700.0</ele><time>2026-04-18T10:01:54.353Z</time></trkpt><trkpt lat="39.2482501" lon="9.3887278"><ele>700.0</ele><time>2026-04-18T10:01:56.35Z</time></trkpt><trkpt lat="39.248224" lon="9.3886538"><ele>700.0</ele><time>2026-04-18T10:01:58.383Z</time></trkpt><trkpt lat="39.2482014" lon="9.3885678"><ele>700.0</ele><time>2026-04-18T10:02:00.353Z</time></trkpt><trkpt lat="39.2481751" lon="9.3884578"><ele>700.0</ele><time>2026-04-18T10:02:02.358Z</time></trkpt><trkpt lat="39.2481517" lon="9.3883098"><ele>700.0</ele><time>2026-04-18T10:02:04.356Z</time></trkpt><trkpt lat="39.2481298" lon="9.3881956"><ele>700.2</ele><time>2026-04-18T10:02:06.37Z</time></trkpt><trkpt lat="39.2481258" lon="9.3880756"><ele>700.4</ele><time>2026-04-18T10:02:08.348Z</time></trkpt><trkpt lat="39.2481296" lon="9.3879342"><ele>700.5999999999999</ele><time>2026-04-18T10:02:10.366Z</time></trkpt><trkpt lat="39.2481571" lon="9.3878358"><ele>700.8</ele><time>2026-04-18T10:02:12.37Z</time></trkpt><trkpt lat="39.2481479" lon="9.3877226"><ele>701.0</ele><time>2026-04-18T10:02:14.358Z</time></trkpt><trkpt lat="39.2481095" lon="9.3875965"><ele>699.8</ele><time>2026-04-18T10:02:16.356Z</time></trkpt><trkpt lat="39.2480861" lon="9.3875033"><ele>698.5999999999999</ele><time>2026-04-18T10:02:18.382Z</time></trkpt><trkpt lat="39.2480551" lon="9.3873643"><ele>697.4</ele><time>2026-04-18T10:02:20.362Z</time></trkpt><trkpt lat="39.2480391" lon="9.3872816"><ele>696.2</ele><time>2026-04-18T10:02:21.359Z</time></trkpt><trkpt lat="39.2480066" lon="9.3871461"><ele>695.0</ele><time>2026-04-18T10:02:23.392Z</time></trkpt><trkpt lat="39.2479692" lon="9.3870124"><ele>694.8333333333333</ele><time>2026-04-18T10:02:25.355Z</time></trkpt><trkpt lat="39.247955" lon="9.3869331"><ele>694.6666666666666</ele><time>2026-04-18T10:02:26.357Z</time></trkpt><trkpt lat="39.2479798" lon="9.3867853"><ele>694.5</ele><time>2026-04-18T10:02:28.351Z</time></trkpt><trkpt lat="39.2479816" lon="9.3866548"><ele>694.3333333333334</ele><time>2026-04-18T10:02:30.363Z</time></trkpt><trkpt lat="39.2479483" lon="9.3865786"><ele>694.1666666666667</ele><time>2026-04-18T10:02:31.356Z</time></trkpt><trkpt lat="39.2478965" lon="9.386506"><ele>694.0</ele><time>2026-04-18T10:02:32.361Z</time></trkpt><trkpt lat="39.2478666" lon="9.386403"><ele>694.0</ele><time>2026-04-18T10:02:33.354Z</time></trkpt><trkpt lat="39.2478299" lon="9.3863064"><ele>694.0</ele><time>2026-04-18T10:02:34.357Z</time></trkpt><trkpt lat="39.2478013" lon="9.3862088"><ele>694.0</ele><time>2026-04-18T10:02:35.358Z</time></trkpt><trkpt lat="39.2477979" lon="9.3861091"><ele>694.0</ele><time>2026-04-18T10:02:36.384Z</time></trkpt><trkpt lat="39.2478027" lon="9.3859948"><ele>694.0</ele><time>2026-04-18T10:02:37.358Z</time></trkpt><trkpt lat="39.2477977" lon="9.3858706"><ele>694.0</ele><time>2026-04-18T10:02:38.356Z</time></trkpt><trkpt lat="39.2477929" lon="9.3857439"><ele>694.0</ele><time>2026-04-18T10:02:39.357Z</time></trkpt><trkpt lat="39.2477795" lon="9.3856233"><ele>694.0</ele><time>2026-04-18T10:02:40.353Z</time></trkpt><trkpt lat="39.2477704" lon="9.3854997"><ele>694.0</ele><time>2026-04-18T10:02:41.359Z</time></trkpt><trkpt lat="39.2477496" lon="9.3853913"><ele>694.0</ele><time>2026-04-18T10:02:42.356Z</time></trkpt><trkpt lat="39.2477289" lon="9.385274"><ele>694.0</ele><time>2026-04-18T10:02:43.365Z</time></trkpt><trkpt lat="39.2477153" lon="9.3851681"><ele>694.6666666666667</ele><time>2026-04-18T10:02:44.366Z</time></trkpt><trkpt lat="39.247704" lon="9.3850834"><ele>695.3333333333334</ele><time>2026-04-18T10:02:45.355Z</time></trkpt><trkpt lat="39.2477042" lon="9.3849553"><ele>696.0</ele><time>2026-04-18T10:02:47.352Z</time></trkpt><trkpt lat="39.2477243" lon="9.3848612"><ele>696.6666666666666</ele><time>2026-04-18T10:02:49.354Z</time></trkpt><trkpt lat="39.2477417" lon="9.3847778"><ele>697.3333333333333</ele><time>2026-04-18T10:02:51.382Z</time></trkpt><trkpt lat="39.2477735" lon="9.3846769"><ele>698.0</ele><time>2026-04-18T10:02:53.356Z</time></trkpt><trkpt lat="39.2478194" lon="9.3845873"><ele>698.5999999999999</ele><time>2026-04-18T10:02:55.368Z</time></trkpt><trkpt lat="39.2478379" lon="9.3844674"><ele>699.1999999999999</ele><time>2026-04-18T10:02:57.366Z</time></trkpt><trkpt lat="39.247856" lon="9.3843295"><ele>699.8</ele><time>2026-04-18T10:02:59.357Z</time></trkpt><trkpt lat="39.2478561" lon="9.3842403"><ele>700.4</ele><time>2026-04-18T10:03:02.393Z</time></trkpt><trkpt lat="39.2477743" lon="9.3841684"><ele>701.0</ele><time>2026-04-18T10:03:24.354Z</time></trkpt><trkpt lat="39.2476685" lon="9.3840876"><ele>701.0</ele><time>2026-04-18T10:03:26.368Z</time></trkpt><trkpt lat="39.2476034" lon="9.384048"><ele>701.0</ele><time>2026-04-18T10:03:27.369Z</time></trkpt><trkpt lat="39.2475274" lon="9.3840056"><ele>701.0</ele><time>2026-04-18T10:03:28.361Z</time></trkpt><trkpt lat="39.2474466" lon="9.3839627"><ele>701.0</ele><time>2026-04-18T10:03:29.354Z</time></trkpt><trkpt lat="39.2473643" lon="9.3839229"><ele>701.0</ele><time>2026-04-18T10:03:30.369Z</time></trkpt><trkpt lat="39.2472828" lon="9.3838852"><ele>701.0</ele><time>2026-04-18T10:03:31.363Z</time></trkpt><trkpt lat="39.2472061" lon="9.3838379"><ele>702.0</ele><time>2026-04-18T10:03:32.346Z</time></trkpt><trkpt lat="39.247139" lon="9.3837716"><ele>703.0</ele><time>2026-04-18T10:03:33.369Z</time></trkpt><trkpt lat="39.2470795" lon="9.3836943"><ele>704.0</ele><time>2026-04-18T10:03:34.351Z</time></trkpt><trkpt lat="39.2470143" lon="9.3836311"><ele>705.0</ele><time>2026-04-18T10:03:35.359Z</time></trkpt><trkpt lat="39.2469384" lon="9.3835894"><ele>706.0</ele><time>2026-04-18T10:03:36.359Z</time></trkpt><trkpt lat="39.2468565" lon="9.3835737"><ele>707.0</ele><time>2026-04-18T10:03:37.35Z</time></trkpt><trkpt lat="39.2467693" lon="9.3835713"><ele>707.0</ele><time>2026-04-18T10:03:38.359Z</time></trkpt><trkpt lat="39.2466791" lon="9.383567"><ele>707.0</ele><time>2026-04-18T10:03:39.349Z</time></trkpt><trkpt lat="39.2465874" lon="9.3835737"><ele>707.0</ele><time>2026-04-18T10:03:40.382Z</time></trkpt><trkpt lat="39.2464925" lon="9.3835791"><ele>707.0</ele><time>2026-04-18T10:03:41.373Z</time></trkpt><trkpt lat="39.2463933" lon="9.3835931"><ele>707.0</ele><time>2026-04-18T10:03:42.375Z</time></trkpt><trkpt lat="39.2462925" lon="9.3836058"><ele>709.0</ele><time>2026-04-18T10:03:43.38Z</time></trkpt><trkpt lat="39.2461876" lon="9.383615"><ele>711.0</ele><time>2026-04-18T10:03:44.374Z</time></trkpt><trkpt lat="39.2460808" lon="9.3836145"><ele>713.0</ele><time>2026-04-18T10:03:45.381Z</time></trkpt><trkpt lat="39.2459802" lon="9.3836122"><ele>715.0</ele><time>2026-04-18T10:03:46.361Z</time></trkpt><trkpt lat="39.2458743" lon="9.3836201"><ele>717.0</ele><time>2026-04-18T10:03:47.354Z</time></trkpt><trkpt lat="39.2457726" lon="9.3836222"><ele>717.0</ele><time>2026-04-18T10:03:48.357Z</time></trkpt><trkpt lat="39.2456635" lon="9.3836298"><ele>717.0</ele><time>2026-04-18T10:03:49.364Z</time></trkpt><trkpt lat="39.2455558" lon="9.3836238"><ele>717.0</ele><time>2026-04-18T10:03:50.355Z</time></trkpt><trkpt lat="39.2454513" lon="9.383626"><ele>717.0</ele><time>2026-04-18T10:03:51.357Z</time></trkpt><trkpt lat="39.2453549" lon="9.3836301"><ele>717.0</ele><time>2026-04-18T10:03:52.364Z</time></trkpt><trkpt lat="39.2452473" lon="9.3836359"><ele>719.25</ele><time>2026-04-18T10:03:53.373Z</time></trkpt><trkpt lat="39.2451359" lon="9.3836305"><ele>721.5</ele><time>2026-04-18T10:03:54.384Z</time></trkpt><trkpt lat="39.245026" lon="9.3836225"><ele>723.75</ele><time>2026-04-18T10:03:55.356Z</time></trkpt><trkpt lat="39.2449131" lon="9.3836067"><ele>726.0</ele><time>2026-04-18T10:03:56.364Z</time></trkpt><trkpt lat="39.2447971" lon="9.3835656"><ele>727.75</ele><time>2026-04-18T10:03:57.358Z</time></trkpt><trkpt lat="39.2446841" lon="9.3835225"><ele>729.5</ele><time>2026-04-18T10:03:58.363Z</time></trkpt><trkpt lat="39.2445645" lon="9.3834792"><ele>731.25</ele><time>2026-04-18T10:03:59.351Z</time></trkpt><trkpt lat="39.244447" lon="9.3834496"><ele>733.0</ele><time>2026-04-18T10:04:00.362Z</time></trkpt><trkpt lat="39.2443367" lon="9.3834242"><ele>701.0</ele><time>2026-04-18T10:04:01.36Z</time></trkpt><trkpt lat="39.2474466" lon="9.3839627"><ele>701.0</ele><time>2026-04-18T10:03:29.354Z</time></trkpt><trkpt lat="39.2473643" lon="9.3839229"><ele>701.0</ele><time>2026-04-18T10:03:30.369Z</time></trkpt><trkpt lat="39.2472828" lon="9.3838852"><ele>701.0</ele><time>2026-04-18T10:03:31.363Z</time></trkpt><trkpt lat="39.2472061" lon="9.3838379"><ele>701.0</ele><time>2026-04-18T10:03:32.346Z</time></trkpt><trkpt lat="39.247139" lon="9.3837716"><ele>701.0</ele><time>2026-04-18T10:03:33.369Z</time></trkpt><trkpt lat="39.2470795" lon="9.3836943"><ele>701.0</ele><time>2026-04-18T10:03:34.351Z</time></trkpt><trkpt lat="39.2470143" lon="9.3836311"><ele>702.0</ele><time>2026-04-18T10:03:35.359Z</time></trkpt><trkpt lat="39.2469384" lon="9.3835894"><ele>703.0</ele><time>2026-04-18T10:03:36.359Z</time></trkpt><trkpt lat="39.2468565" lon="9.3835737"><ele>704.0</ele><time>2026-04-18T10:03:37.35Z</time></trkpt><trkpt lat="39.2467693" lon="9.3835713"><ele>705.0</ele><time>2026-04-18T10:03:38.359Z</time></trkpt><trkpt lat="39.2466791" lon="9.383567"><ele>706.0</ele><time>2026-04-18T10:03:39.349Z</time></trkpt><trkpt lat="39.2465874" lon="9.3835737"><ele>707.0</ele><time>2026-04-18T10:03:40.382Z</time></trkpt><trkpt lat="39.2464925" lon="9.3835791"><ele>709.0</ele><time>2026-04-18T10:03:41.373Z</time></trkpt><trkpt lat="39.2463933" lon="9.3835931"><ele>711.0</ele><time>2026-04-18T10:03:42.375Z</time></trkpt><trkpt lat="39.2462925" lon="9.3836058"><ele>713.0</ele><time>2026-04-18T10:03:43.38Z</time></trkpt><trkpt lat="39.2461876" lon="9.383615"><ele>715.0</ele><time>2026-04-18T10:03:44.374Z</time></trkpt><trkpt lat="39.2460808" lon="9.3836145"><ele>717.0</ele><time>2026-04-18T10:03:45.381Z</time></trkpt><trkpt lat="39.2459802" lon="9.3836122"><ele>717.0</ele><time>2026-04-18T10:03:46.361Z</time></trkpt><trkpt lat="39.2458743" lon="9.3836201"><ele>717.0</ele><time>2026-04-18T10:03:47.354Z</time></trkpt><trkpt lat="39.2457726" lon="9.3836222"><ele>717.0</ele><time>2026-04-18T10:03:48.357Z</time></trkpt><trkpt lat="39.2456635" lon="9.3836298"><ele>717.0</ele><time>2026-04-18T10:03:49.364Z</time></trkpt><trkpt lat="39.2455558" lon="9.3836238"><ele>717.0</ele><time>2026-04-18T10:03:50.355Z</time></trkpt><trkpt lat="39.2454513" lon="9.383626"><ele>718.8</ele><time>2026-04-18T10:03:51.357Z</time></trkpt><trkpt lat="39.2453549" lon="9.3836301"><ele>720.6</ele><time>2026-04-18T10:03:52.364Z</time></trkpt><trkpt lat="39.2452473" lon="9.3836359"><ele>722.4</ele><time>2026-04-18T10:03:53.373Z</time></trkpt><trkpt lat="39.2451359" lon="9.3836305"><ele>724.1999999999999</ele><time>2026-04-18T10:03:54.384Z</time></trkpt><trkpt lat="39.245026" lon="9.3836225"><ele>726.0</ele><time>2026-04-18T10:03:55.356Z</time></trkpt><trkpt lat="39.2449131" lon="9.3836067"><ele>726.0</ele><time>2026-04-18T10:03:56.364Z</time></trkpt><trkpt lat="39.2447971" lon="9.3835656"><ele>726.0</ele><time>2026-04-18T10:03:57.358Z</time></trkpt><trkpt lat="39.2446841" lon="9.3835225"><ele>726.0</ele><time>2026-04-18T10:03:58.363Z</time></trkpt><trkpt lat="39.2445645" lon="9.3834792"><ele>726.0</ele><time>2026-04-18T10:03:59.351Z</time></trkpt><trkpt lat="39.244447" lon="9.3834496"><ele>727.75</ele><time>2026-04-18T10:04:00.362Z</time></trkpt><trkpt lat="39.2443367" lon="9.3834242"><ele>729.5</ele><time>2026-04-18T10:04:01.36Z</time></trkpt><trkpt lat="39.2442137" lon="9.3833809"><ele>731.25</ele><time>2026-04-18T10:04:02.368Z</time></trkpt><trkpt lat="39.2440912" lon="9.3833461"><ele>733.0</ele><time>2026-04-18T10:04:03.354Z</time></trkpt><trkpt lat="39.2439635" lon="9.3833059"><ele>735.0</ele><time>2026-04-18T10:04:04.353Z</time></trkpt><trkpt lat="39.2438325" lon="9.3832787"><ele>737.0</ele><time>2026-04-18T10:04:05.359Z</time></trkpt><trkpt lat="39.2437057" lon="9.3832412"><ele>739.0</ele><time>2026-04-18T10:04:06.353Z</time></trkpt><trkpt lat="39.243575" lon="9.3832007"><ele>741.0</ele><time>2026-04-18T10:04:07.351Z</time></trkpt><trkpt lat="39.2434561" lon="9.3831661"><ele>741.0</ele><time>2026-04-18T10:04:08.358Z</time></trkpt><trkpt lat="39.2433388" lon="9.3831355"><ele>741.0</ele><time>2026-04-18T10:04:09.355Z</time></trkpt><trkpt lat="39.2432253" lon="9.3831209"><ele>741.0</ele><time>2026-04-18T10:04:10.355Z</time></trkpt><trkpt lat="39.2430988" lon="9.3830877"><ele>741.0</ele><time>2026-04-18T10:04:11.369Z</time></trkpt><trkpt lat="39.2429776" lon="9.3830504"><ele>741.8</ele><time>2026-04-18T10:04:12.348Z</time></trkpt><trkpt lat="39.2428741" lon="9.3830142"><ele>742.5999999999999</ele><time>2026-04-18T10:04:13.364Z</time></trkpt><trkpt lat="39.2427997" lon="9.382976"><ele>743.4</ele><time>2026-04-18T10:04:14.364Z</time></trkpt><trkpt lat="39.242729" lon="9.3829208"><ele>744.2</ele><time>2026-04-18T10:04:15.364Z</time></trkpt><trkpt lat="39.2426527" lon="9.3828519"><ele>745.0</ele><time>2026-04-18T10:04:16.362Z</time></trkpt><trkpt lat="39.2425639" lon="9.3827824"><ele>745.6666666666667</ele><time>2026-04-18T10:04:17.362Z</time></trkpt><trkpt lat="39.2424693" lon="9.382707"><ele>746.3333333333334</ele><time>2026-04-18T10:04:18.365Z</time></trkpt><trkpt lat="39.2423816" lon="9.3826398"><ele>747.0</ele><time>2026-04-18T10:04:19.36Z</time></trkpt><trkpt lat="39.242324" lon="9.3825707"><ele>747.6666666666666</ele><time>2026-04-18T10:04:20.348Z</time></trkpt><trkpt lat="39.2422614" lon="9.3825467"><ele>748.3333333333333</ele><time>2026-04-18T10:04:21.358Z</time></trkpt><trkpt lat="39.2421976" lon="9.3825613"><ele>749.0</ele><time>2026-04-18T10:04:22.355Z</time></trkpt><trkpt lat="39.242123" lon="9.3826083"><ele>749.0</ele><time>2026-04-18T10:04:23.375Z</time></trkpt><trkpt lat="39.2420454" lon="9.3826531"><ele>749.0</ele><time>2026-04-18T10:04:24.378Z</time></trkpt><trkpt lat="39.2419145" lon="9.3826835"><ele>749.0</ele><time>2026-04-18T10:04:26.381Z</time></trkpt><trkpt lat="39.2418349" lon="9.3826955"><ele>749.0</ele><time>2026-04-18T10:04:27.385Z</time></trkpt><trkpt lat="39.2417445" lon="9.3826586"><ele>749.0</ele><time>2026-04-18T10:04:28.367Z</time></trkpt><trkpt lat="39.241654" lon="9.3825955"><ele>749.0</ele><time>2026-04-18T10:04:29.364Z</time></trkpt><trkpt lat="39.2415715" lon="9.382529"><ele>749.0</ele><time>2026-04-18T10:04:30.365Z</time></trkpt><trkpt lat="39.2415092" lon="9.3824688"><ele>749.0</ele><time>2026-04-18T10:04:31.363Z</time></trkpt><trkpt lat="39.2414399" lon="9.3824027"><ele>749.0</ele><time>2026-04-18T10:04:32.369Z</time></trkpt><trkpt lat="39.2413814" lon="9.3823412"><ele>749.0</ele><time>2026-04-18T10:04:33.356Z</time></trkpt><trkpt lat="39.2413245" lon="9.3822842"><ele>749.0</ele><time>2026-04-18T10:04:34.358Z</time></trkpt><trkpt lat="39.2412696" lon="9.3822276"><ele>747.8333333333333</ele><time>2026-04-18T10:04:35.347Z</time></trkpt><trkpt lat="39.2412143" lon="9.3821734"><ele>746.6666666666666</ele><time>2026-04-18T10:04:36.359Z</time></trkpt><trkpt lat="39.2411742" lon="9.3820884"><ele>745.5</ele><time>2026-04-18T10:04:37.372Z</time></trkpt><trkpt lat="39.2411482" lon="9.3819975"><ele>744.3333333333334</ele><time>2026-04-18T10:04:38.371Z</time></trkpt><trkpt lat="39.2411273" lon="9.3819004"><ele>743.1666666666667</ele><time>2026-04-18T10:04:39.358Z</time></trkpt><trkpt lat="39.2411198" lon="9.3817959"><ele>742.0</ele><time>2026-04-18T10:04:40.354Z</time></trkpt><trkpt lat="39.2411178" lon="9.3816852"><ele>742.0</ele><time>2026-04-18T10:04:41.361Z</time></trkpt><trkpt lat="39.241104" lon="9.3815741"><ele>742.0</ele><time>2026-04-18T10:04:42.361Z</time></trkpt><trkpt lat="39.2410901" lon="9.3814616"><ele>742.0</ele><time>2026-04-18T10:04:43.359Z</time></trkpt><trkpt lat="39.2410708" lon="9.3813438"><ele>742.0</ele><time>2026-04-18T10:04:44.366Z</time></trkpt><trkpt lat="39.241055" lon="9.3812358"><ele>742.0</ele><time>2026-04-18T10:04:45.367Z</time></trkpt><trkpt lat="39.2410055" lon="9.3811602"><ele>742.0</ele><time>2026-04-18T10:04:46.358Z</time></trkpt><trkpt lat="39.2409303" lon="9.3811129"><ele>742.0</ele><time>2026-04-18T10:04:47.363Z</time></trkpt><trkpt lat="39.2408554" lon="9.381063"><ele>742.0</ele><time>2026-04-18T10:04:48.353Z</time></trkpt><trkpt lat="39.2407561" lon="9.3810691"><ele>742.0</ele><time>2026-04-18T10:04:49.375Z</time></trkpt><trkpt lat="39.240677" lon="9.3810865"><ele>742.0</ele><time>2026-04-18T10:04:50.35Z</time></trkpt><trkpt lat="39.2406039" lon="9.3811023"><ele>742.0</ele><time>2026-04-18T10:04:51.358Z</time></trkpt><trkpt lat="39.2405271" lon="9.3810728"><ele>742.0</ele><time>2026-04-18T10:04:52.37Z</time></trkpt><trkpt lat="39.2404478" lon="9.3810311"><ele>741.1666666666667</ele><time>2026-04-18T10:04:53.352Z</time></trkpt><trkpt lat="39.2403722" lon="9.3809784"><ele>740.3333333333334</ele><time>2026-04-18T10:04:54.371Z</time></trkpt><trkpt lat="39.2402967" lon="9.3809259"><ele>739.5</ele><time>2026-04-18T10:04:55.356Z</time></trkpt><trkpt lat="39.2402422" lon="9.3808378"><ele>738.6666666666666</ele><time>2026-04-18T10:04:56.363Z</time></trkpt><trkpt lat="39.2402149" lon="9.3807343"><ele>737.8333333333333</ele><time>2026-04-18T10:04:57.372Z</time></trkpt><trkpt lat="39.2402168" lon="9.3806222"><ele>737.0</ele><time>2026-04-18T10:04:58.393Z</time></trkpt><trkpt lat="39.2402181" lon="9.3805167"><ele>735.8333333333333</ele><time>2026-04-18T10:04:59.392Z</time></trkpt><trkpt lat="39.2402459" lon="9.3804361"><ele>734.6666666666666</ele><time>2026-04-18T10:05:00.376Z</time></trkpt><trkpt lat="39.2402727" lon="9.3803578"><ele>733.5</ele><time>2026-04-18T10:05:01.384Z</time></trkpt><trkpt lat="39.2402746" lon="9.3802684"><ele>732.3333333333334</ele><time>2026-04-18T10:05:02.376Z</time></trkpt><trkpt lat="39.2402563" lon="9.3801693"><ele>731.1666666666667</ele><time>2026-04-18T10:05:03.348Z</time></trkpt><trkpt lat="39.2402182" lon="9.38007"><ele>730.0</ele><time>2026-04-18T10:05:04.36Z</time></trkpt><trkpt lat="39.2401665" lon="9.3799757"><ele>730.0</ele><time>2026-04-18T10:05:05.361Z</time></trkpt><trkpt lat="39.2401078" lon="9.379885"><ele>730.0</ele><time>2026-04-18T10:05:06.378Z</time></trkpt><trkpt lat="39.240053" lon="9.3798063"><ele>730.0</ele><time>2026-04-18T10:05:07.361Z</time></trkpt><trkpt lat="39.2399947" lon="9.3797455"><ele>730.0</ele><time>2026-04-18T10:05:08.368Z</time></trkpt><trkpt lat="39.2399243" lon="9.3797104"><ele>730.0</ele><time>2026-04-18T10:05:09.362Z</time></trkpt><trkpt lat="39.2398566" lon="9.3796718"><ele>730.0</ele><time>2026-04-18T10:05:10.352Z</time></trkpt><trkpt lat="39.2397777" lon="9.3796438"><ele>730.0</ele><time>2026-04-18T10:05:11.372Z</time></trkpt><trkpt lat="39.2396995" lon="9.3795936"><ele>730.0</ele><time>2026-04-18T10:05:12.347Z</time></trkpt><trkpt lat="39.2396186" lon="9.3795541"><ele>730.0</ele><time>2026-04-18T10:05:13.37Z</time></trkpt><trkpt lat="39.2395321" lon="9.3795146"><ele>730.0</ele><time>2026-04-18T10:05:14.354Z</time></trkpt><trkpt lat="39.2394347" lon="9.3795206"><ele>730.0</ele><time>2026-04-18T10:05:15.351Z</time></trkpt><trkpt lat="39.2393402" lon="9.3795037"><ele>730.0</ele><time>2026-04-18T10:05:16.353Z</time></trkpt><trkpt lat="39.2392449" lon="9.3794823"><ele>730.0</ele><time>2026-04-18T10:05:17.362Z</time></trkpt><trkpt lat="39.2391511" lon="9.3794337"><ele>730.0</ele><time>2026-04-18T10:05:18.351Z</time></trkpt><trkpt lat="39.2390608" lon="9.3793874"><ele>730.0</ele><time>2026-04-18T10:05:19.355Z</time></trkpt><trkpt lat="39.2389746" lon="9.3793254"><ele>730.0</ele><time>2026-04-18T10:05:20.363Z</time></trkpt><trkpt lat="39.2388927" lon="9.3792615"><ele>731.6</ele><time>2026-04-18T10:05:21.359Z</time></trkpt><trkpt lat="39.2388133" lon="9.3791972"><ele>733.2</ele><time>2026-04-18T10:05:22.361Z</time></trkpt><trkpt lat="39.2387303" lon="9.3791418"><ele>734.8</ele><time>2026-04-18T10:05:23.353Z</time></trkpt><trkpt lat="39.2386381" lon="9.379107"><ele>736.4</ele><time>2026-04-18T10:05:24.362Z</time></trkpt><trkpt lat="39.2385398" lon="9.3790997"><ele>738.0</ele><time>2026-04-18T10:05:25.353Z</time></trkpt><trkpt lat="39.2384397" lon="9.3791194"><ele>738.0</ele><time>2026-04-18T10:05:26.356Z</time></trkpt><trkpt lat="39.2383324" lon="9.3791531"><ele>738.0</ele><time>2026-04-18T10:05:27.354Z</time></trkpt><trkpt lat="39.2382205" lon="9.3791919"><ele>738.0</ele><time>2026-04-18T10:05:28.367Z</time></trkpt><trkpt lat="39.2381051" lon="9.3792311"><ele>738.0</ele><time>2026-04-18T10:05:29.359Z</time></trkpt><trkpt lat="39.2379883" lon="9.3792641"><ele>739.75</ele><time>2026-04-18T10:05:30.392Z</time></trkpt><trkpt lat="39.2378651" lon="9.3792943"><ele>741.5</ele><time>2026-04-18T10:05:31.361Z</time></trkpt><trkpt lat="39.2377379" lon="9.3793281"><ele>743.25</ele><time>2026-04-18T10:05:32.37Z</time></trkpt><trkpt lat="39.2376097" lon="9.3793608"><ele>745.0</ele><time>2026-04-18T10:05:33.385Z</time></trkpt><trkpt lat="39.237486" lon="9.379391"><ele>745.0</ele><time>2026-04-18T10:05:34.395Z</time></trkpt><trkpt lat="39.2373673" lon="9.3794213"><ele>745.0</ele><time>2026-04-18T10:05:35.356Z</time></trkpt><trkpt lat="39.2372656" lon="9.3794527"><ele>745.0</ele><time>2026-04-18T10:05:36.363Z</time></trkpt><trkpt lat="39.2371657" lon="9.3794813"><ele>745.0</ele><time>2026-04-18T10:05:37.365Z</time></trkpt><trkpt lat="39.2370777" lon="9.3795147"><ele>745.0</ele><time>2026-04-18T10:05:38.369Z</time></trkpt><trkpt lat="39.2370075" lon="9.3795416"><ele>743.6</ele><time>2026-04-18T10:05:39.361Z</time></trkpt><trkpt lat="39.2369384" lon="9.37948"><ele>742.2</ele><time>2026-04-18T10:05:41.356Z</time></trkpt><trkpt lat="39.2369423" lon="9.3793429"><ele>740.8</ele><time>2026-04-18T10:05:43.358Z</time></trkpt><trkpt lat="39.2369661" lon="9.379246"><ele>739.4</ele><time>2026-04-18T10:05:44.354Z</time></trkpt><trkpt lat="39.2369895" lon="9.3791321"><ele>738.0</ele><time>2026-04-18T10:05:45.355Z</time></trkpt><trkpt lat="39.2370388" lon="9.3790234"><ele>738.0</ele><time>2026-04-18T10:05:46.362Z</time></trkpt><trkpt lat="39.2370881" lon="9.3789153"><ele>738.0</ele><time>2026-04-18T10:05:47.347Z</time></trkpt><trkpt lat="39.2371542" lon="9.3787858"><ele>738.0</ele><time>2026-04-18T10:05:48.368Z</time></trkpt><trkpt lat="39.2372192" lon="9.3786561"><ele>738.0</ele><time>2026-04-18T10:05:49.355Z</time></trkpt><trkpt lat="39.2372925" lon="9.3785464"><ele>738.0</ele><time>2026-04-18T10:05:50.364Z</time></trkpt><trkpt lat="39.2373769" lon="9.3784563"><ele>740.5</ele><time>2026-04-18T10:05:51.365Z</time></trkpt><trkpt lat="39.2374636" lon="9.3783639"><ele>743.0</ele><time>2026-04-18T10:05:52.375Z</time></trkpt><trkpt lat="39.2375704" lon="9.3782955"><ele>745.5</ele><time>2026-04-18T10:05:53.373Z</time></trkpt><trkpt lat="39.2376881" lon="9.378222"><ele>748.0</ele><time>2026-04-18T10:05:54.36Z</time></trkpt><trkpt lat="39.2377987" lon="9.3781536"><ele>748.0</ele><time>2026-04-18T10:05:55.362Z</time></trkpt><trkpt lat="39.2378889" lon="9.3780903"><ele>748.0</ele><time>2026-04-18T10:05:56.359Z</time></trkpt><trkpt lat="39.2379686" lon="9.3780199"><ele>748.0</ele><time>2026-04-18T10:05:57.368Z</time></trkpt><trkpt lat="39.2380258" lon="9.3779448"><ele>748.0</ele><time>2026-04-18T10:05:58.356Z</time></trkpt><trkpt lat="39.2380567" lon="9.3778716"><ele>748.0</ele><time>2026-04-18T10:05:59.351Z</time></trkpt><trkpt lat="39.2380301" lon="9.3777042"><ele>748.0</ele><time>2026-04-18T10:06:01.365Z</time></trkpt><trkpt lat="39.2379948" lon="9.3776076"><ele>748.0</ele><time>2026-04-18T10:06:02.367Z</time></trkpt><trkpt lat="39.2379709" lon="9.3774945"><ele>748.0</ele><time>2026-04-18T10:06:03.355Z</time></trkpt><trkpt lat="39.2379707" lon="9.3773609"><ele>748.0</ele><time>2026-04-18T10:06:04.364Z</time></trkpt><trkpt lat="39.2379744" lon="9.3772237"><ele>748.0</ele><time>2026-04-18T10:06:05.368Z</time></trkpt><trkpt lat="39.2379638" lon="9.3771024"><ele>749.1666666666667</ele><time>2026-04-18T10:06:06.364Z</time></trkpt><trkpt lat="39.2379528" lon="9.3769887"><ele>750.3333333333334</ele><time>2026-04-18T10:06:07.354Z</time></trkpt><trkpt lat="39.2379101" lon="9.3768834"><ele>751.5</ele><time>2026-04-18T10:06:08.367Z</time></trkpt><trkpt lat="39.2378701" lon="9.3767793"><ele>752.6666666666666</ele><time>2026-04-18T10:06:09.356Z</time></trkpt><trkpt lat="39.237832" lon="9.3766767"><ele>753.8333333333333</ele><time>2026-04-18T10:06:10.388Z</time></trkpt><trkpt lat="39.2378154" lon="9.3765868"><ele>755.0</ele><time>2026-04-18T10:06:11.369Z</time></trkpt><trkpt lat="39.2378234" lon="9.3764409"><ele>756.6</ele><time>2026-04-18T10:06:13.388Z</time></trkpt><trkpt lat="39.2378432" lon="9.3763007"><ele>758.2</ele><time>2026-04-18T10:06:15.36Z</time></trkpt><trkpt lat="39.2377994" lon="9.3761989"><ele>759.8</ele><time>2026-04-18T10:06:17.361Z</time></trkpt><trkpt lat="39.2377034" lon="9.3761201"><ele>761.4</ele><time>2026-04-18T10:06:19.366Z</time></trkpt><trkpt lat="39.2376515" lon="9.3760001"><ele>763.0</ele><time>2026-04-18T10:06:21.36Z</time></trkpt><trkpt lat="39.2376199" lon="9.3758944"><ele>763.0</ele><time>2026-04-18T10:06:23.354Z</time></trkpt><trkpt lat="39.2376872" lon="9.3758254"><ele>763.0</ele><time>2026-04-18T10:06:26.351Z</time></trkpt><trkpt lat="39.2377975" lon="9.3758304"><ele>763.0</ele><time>2026-04-18T10:06:28.355Z</time></trkpt><trkpt lat="39.2378873" lon="9.3758073"><ele>763.0</ele><time>2026-04-18T10:06:30.369Z</time></trkpt><trkpt lat="39.2379578" lon="9.3757901"><ele>763.0</ele><time>2026-04-18T10:06:32.369Z</time></trkpt><trkpt lat="39.23802" lon="9.3758055"><ele>763.0</ele><time>2026-04-18T10:06:35.36Z</time></trkpt><trkpt lat="39.2379621" lon="9.3757691"><ele>763.0</ele><time>2026-04-18T10:22:58.358Z</time></trkpt><trkpt lat="39.2378833" lon="9.3757862"><ele>763.0</ele><time>2026-04-18T10:23:15.368Z</time></trkpt><trkpt lat="39.23777" lon="9.3758172"><ele>763.0</ele><time>2026-04-18T10:23:17.368Z</time></trkpt><trkpt lat="39.2376661" lon="9.3758243"><ele>763.0</ele><time>2026-04-18T10:23:19.367Z</time></trkpt><trkpt lat="39.2375803" lon="9.3758178"><ele>763.0</ele><time>2026-04-18T10:23:21.36Z</time></trkpt><trkpt lat="39.2375624" lon="9.3759078"><ele>763.0</ele><time>2026-04-18T10:23:25.357Z</time></trkpt><trkpt lat="39.2375855" lon="9.375998"><ele>763.0</ele><time>2026-04-18T10:23:28.369Z</time></trkpt><trkpt lat="39.2376124" lon="9.376086"><ele>763.0</ele><time>2026-04-18T10:23:31.354Z</time></trkpt><trkpt lat="39.2376497" lon="9.3761694"><ele>763.0</ele><time>2026-04-18T10:23:34.362Z</time></trkpt><trkpt lat="39.2376882" lon="9.3762346"><ele>763.0</ele><time>2026-04-18T10:23:47.365Z</time></trkpt><trkpt lat="39.2377461" lon="9.3762723"><ele>763.0</ele><time>2026-04-18T10:23:49.36Z</time></trkpt><trkpt lat="39.2377581" lon="9.3763711"><ele>763.0</ele><time>2026-04-18T10:23:51.372Z</time></trkpt><trkpt lat="39.2377325" lon="9.3764738"><ele>761.4</ele><time>2026-04-18T10:23:53.359Z</time></trkpt><trkpt lat="39.2377337" lon="9.3766199"><ele>759.8</ele><time>2026-04-18T10:23:55.369Z</time></trkpt><trkpt lat="39.2377625" lon="9.3767071"><ele>758.2</ele><time>2026-04-18T10:23:56.375Z</time></trkpt><trkpt lat="39.2377974" lon="9.3768093"><ele>756.6</ele><time>2026-04-18T10:23:57.357Z</time></trkpt><trkpt lat="39.2378377" lon="9.3769138"><ele>755.0</ele><time>2026-04-18T10:23:58.353Z</time></trkpt><trkpt lat="39.2378778" lon="9.3770154"><ele>755.0</ele><time>2026-04-18T10:23:59.359Z</time></trkpt><trkpt lat="39.2379091" lon="9.3771172"><ele>755.0</ele><time>2026-04-18T10:24:00.35Z</time></trkpt><trkpt lat="39.23792" lon="9.377208"><ele>755.0</ele><time>2026-04-18T10:24:01.356Z</time></trkpt><trkpt lat="39.2379148" lon="9.3773111"><ele>755.0</ele><time>2026-04-18T10:24:02.36Z</time></trkpt><trkpt lat="39.237907" lon="9.3774171"><ele>755.0</ele><time>2026-04-18T10:24:03.357Z</time></trkpt><trkpt lat="39.2379031" lon="9.377514"><ele>755.0</ele><time>2026-04-18T10:24:04.364Z</time></trkpt><trkpt lat="39.2379002" lon="9.3776114"><ele>753.6</ele><time>2026-04-18T10:24:05.372Z</time></trkpt><trkpt lat="39.2379216" lon="9.3776951"><ele>752.2</ele><time>2026-04-18T10:24:06.367Z</time></trkpt><trkpt lat="39.2379903" lon="9.3778267"><ele>750.8</ele><time>2026-04-18T10:24:08.37Z</time></trkpt><trkpt lat="39.2379677" lon="9.3779851"><ele>749.4</ele><time>2026-04-18T10:24:10.362Z</time></trkpt><trkpt lat="39.2379217" lon="9.3780566"><ele>748.0</ele><time>2026-04-18T10:24:11.358Z</time></trkpt><trkpt lat="39.2378565" lon="9.3781209"><ele>748.0</ele><time>2026-04-18T10:24:12.365Z</time></trkpt><trkpt lat="39.2377785" lon="9.3781797"><ele>748.0</ele><time>2026-04-18T10:24:13.363Z</time></trkpt><trkpt lat="39.2376911" lon="9.378233"><ele>748.0</ele><time>2026-04-18T10:24:14.367Z</time></trkpt><trkpt lat="39.237602" lon="9.3782882"><ele>748.0</ele><time>2026-04-18T10:24:15.352Z</time></trkpt><trkpt lat="39.237514" lon="9.3783459"><ele>748.0</ele><time>2026-04-18T10:24:16.361Z</time></trkpt><trkpt lat="39.2374362" lon="9.3784034"><ele>748.0</ele><time>2026-04-18T10:24:17.355Z</time></trkpt><trkpt lat="39.2373631" lon="9.3784658"><ele>748.0</ele><time>2026-04-18T10:24:18.374Z</time></trkpt><trkpt lat="39.2372926" lon="9.3785289"><ele>748.0</ele><time>2026-04-18T10:24:19.37Z</time></trkpt><trkpt lat="39.2372338" lon="9.3785915"><ele>748.0</ele><time>2026-04-18T10:24:20.356Z</time></trkpt><trkpt lat="39.2371893" lon="9.3786538"><ele>748.0</ele><time>2026-04-18T10:24:21.36Z</time></trkpt><trkpt lat="39.2371305" lon="9.3787743"><ele>748.0</ele><time>2026-04-18T10:24:23.36Z</time></trkpt><trkpt lat="39.2370785" lon="9.3788761"><ele>746.0</ele><time>2026-04-18T10:24:25.368Z</time></trkpt><trkpt lat="39.2370269" lon="9.3789762"><ele>744.0</ele><time>2026-04-18T10:24:27.376Z</time></trkpt><trkpt lat="39.2369732" lon="9.3790706"><ele>742.0</ele><time>2026-04-18T10:24:29.359Z</time></trkpt><trkpt lat="39.236927" lon="9.3791691"><ele>740.0</ele><time>2026-04-18T10:24:31.363Z</time></trkpt><trkpt lat="39.2369014" lon="9.3792914"><ele>738.0</ele><time>2026-04-18T10:24:33.37Z</time></trkpt><trkpt lat="39.2368653" lon="9.3794441"><ele>738.0</ele><time>2026-04-18T10:24:35.361Z</time></trkpt><trkpt lat="39.236861" lon="9.3795589"><ele>738.0</ele><time>2026-04-18T10:24:37.357Z</time></trkpt><trkpt lat="39.23693" lon="9.3795974"><ele>738.0</ele><time>2026-04-18T10:24:39.37Z</time></trkpt><trkpt lat="39.2370336" lon="9.3795713"><ele>738.0</ele><time>2026-04-18T10:24:41.369Z</time></trkpt><trkpt lat="39.2370948" lon="9.3795466"><ele>738.0</ele><time>2026-04-18T10:24:42.362Z</time></trkpt><trkpt lat="39.2371592" lon="9.3795183"><ele>738.0</ele><time>2026-04-18T10:24:43.367Z</time></trkpt><trkpt lat="39.2372338" lon="9.3794967"><ele>739.1666666666666</ele><time>2026-04-18T10:24:44.362Z</time></trkpt><trkpt lat="39.2373096" lon="9.3794821"><ele>740.3333333333334</ele><time>2026-04-18T10:24:45.381Z</time></trkpt><trkpt lat="39.2373811" lon="9.3794658"><ele>741.5</ele><time>2026-04-18T10:24:46.352Z</time></trkpt><trkpt lat="39.23745" lon="9.3794492"><ele>742.6666666666667</ele><time>2026-04-18T10:24:47.362Z</time></trkpt><trkpt lat="39.2375617" lon="9.3794117"><ele>743.8333333333334</ele><time>2026-04-18T10:24:49.358Z</time></trkpt><trkpt lat="39.2376728" lon="9.3793756"><ele>745.0</ele><time>2026-04-18T10:24:51.351Z</time></trkpt><trkpt lat="39.2377451" lon="9.3793545"><ele>745.0</ele><time>2026-04-18T10:24:52.356Z</time></trkpt><trkpt lat="39.2378288" lon="9.3793333"><ele>745.0</ele><time>2026-04-18T10:24:53.352Z</time></trkpt><trkpt lat="39.2379148" lon="9.3793153"><ele>745.0</ele><time>2026-04-18T10:24:54.371Z</time></trkpt><trkpt lat="39.2379967" lon="9.3792901"><ele>745.0</ele><time>2026-04-18T10:24:55.354Z</time></trkpt><trkpt lat="39.2380732" lon="9.3792564"><ele>745.0</ele><time>2026-04-18T10:24:56.372Z</time></trkpt><trkpt lat="39.2381492" lon="9.3792213"><ele>745.0</ele><time>2026-04-18T10:24:57.35Z</time></trkpt><trkpt lat="39.2382274" lon="9.3791912"><ele>744.0</ele><time>2026-04-18T10:24:58.356Z</time></trkpt><trkpt lat="39.2383024" lon="9.3791633"><ele>743.0</ele><time>2026-04-18T10:24:59.359Z</time></trkpt><trkpt lat="39.2383719" lon="9.3791438"><ele>742.0</ele><time>2026-04-18T10:25:00.358Z</time></trkpt><trkpt lat="39.238444" lon="9.3791352"><ele>741.0</ele><time>2026-04-18T10:25:01.363Z</time></trkpt><trkpt lat="39.23852" lon="9.3791401"><ele>740.0</ele><time>2026-04-18T10:25:02.362Z</time></trkpt><trkpt lat="39.2385924" lon="9.3791602"><ele>739.0</ele><time>2026-04-18T10:25:03.37Z</time></trkpt><trkpt lat="39.2386633" lon="9.3792013"><ele>738.0</ele><time>2026-04-18T10:25:04.351Z</time></trkpt><trkpt lat="39.2387285" lon="9.3792589"><ele>738.0</ele><time>2026-04-18T10:25:05.365Z</time></trkpt><trkpt lat="39.2387994" lon="9.379323"><ele>738.0</ele><time>2026-04-18T10:25:06.365Z</time></trkpt><trkpt lat="39.2388822" lon="9.3793837"><ele>738.0</ele><time>2026-04-18T10:25:07.35Z</time></trkpt><trkpt lat="39.2389739" lon="9.3794443"><ele>738.0</ele><time>2026-04-18T10:25:08.359Z</time></trkpt><trkpt lat="39.2390719" lon="9.3795038"><ele>738.0</ele><time>2026-04-18T10:25:09.376Z</time></trkpt><trkpt lat="39.2391727" lon="9.3795547"><ele>736.4</ele><time>2026-04-18T10:25:10.371Z</time></trkpt><trkpt lat="39.2392737" lon="9.3795848"><ele>734.8</ele><time>2026-04-18T10:25:11.388Z</time></trkpt><trkpt lat="39.239373" lon="9.3795953"><ele>733.2</ele><time>2026-04-18T10:25:12.371Z</time></trkpt><trkpt lat="39.2394684" lon="9.3796034"><ele>731.6</ele><time>2026-04-18T10:25:13.369Z</time></trkpt><trkpt lat="39.2395574" lon="9.3796123"><ele>730.0</ele><time>2026-04-18T10:25:14.388Z</time></trkpt><trkpt lat="39.2396387" lon="9.3796475"><ele>730.0</ele><time>2026-04-18T10:25:15.391Z</time></trkpt><trkpt lat="39.2397144" lon="9.3796901"><ele>730.0</ele><time>2026-04-18T10:25:16.366Z</time></trkpt><trkpt lat="39.2397876" lon="9.3797189"><ele>730.0</ele><time>2026-04-18T10:25:17.361Z</time></trkpt><trkpt lat="39.2398553" lon="9.3797332"><ele>730.0</ele><time>2026-04-18T10:25:18.368Z</time></trkpt><trkpt lat="39.2399666" lon="9.3798028"><ele>730.0</ele><time>2026-04-18T10:25:20.363Z</time></trkpt><trkpt lat="39.2400148" lon="9.3798649"><ele>730.0</ele><time>2026-04-18T10:25:21.364Z</time></trkpt><trkpt lat="39.2400565" lon="9.3799278"><ele>730.0</ele><time>2026-04-18T10:25:22.363Z</time></trkpt><trkpt lat="39.2401214" lon="9.3800356"><ele>730.0</ele><time>2026-04-18T10:25:24.352Z</time></trkpt><trkpt lat="39.2401859" lon="9.3801535"><ele>730.0</ele><time>2026-04-18T10:25:26.362Z</time></trkpt><trkpt lat="39.2402088" lon="9.3802449"><ele>730.0</ele><time>2026-04-18T10:25:27.361Z</time></trkpt><trkpt lat="39.2402131" lon="9.3803384"><ele>730.0</ele><time>2026-04-18T10:25:28.361Z</time></trkpt><trkpt lat="39.240196" lon="9.3804263"><ele>730.0</ele><time>2026-04-18T10:25:29.365Z</time></trkpt><trkpt lat="39.2401673" lon="9.3805049"><ele>731.1666666666667</ele><time>2026-04-18T10:25:30.35Z</time></trkpt><trkpt lat="39.2401409" lon="9.3805911"><ele>732.3333333333334</ele><time>2026-04-18T10:25:31.358Z</time></trkpt><trkpt lat="39.2401294" lon="9.380687"><ele>733.5</ele><time>2026-04-18T10:25:32.349Z</time></trkpt><trkpt lat="39.2401362" lon="9.3807814"><ele>734.6666666666666</ele><time>2026-04-18T10:25:33.361Z</time></trkpt><trkpt lat="39.2401642" lon="9.3808696"><ele>735.8333333333333</ele><time>2026-04-18T10:25:34.358Z</time></trkpt><trkpt lat="39.2402147" lon="9.3809473"><ele>737.0</ele><time>2026-04-18T10:25:35.375Z</time></trkpt><trkpt lat="39.240267" lon="9.3810253"><ele>737.0</ele><time>2026-04-18T10:25:36.371Z</time></trkpt><trkpt lat="39.2403568" lon="9.381085"><ele>737.0</ele><time>2026-04-18T10:25:37.354Z</time></trkpt><trkpt lat="39.2404416" lon="9.3811283"><ele>737.0</ele><time>2026-04-18T10:25:38.37Z</time></trkpt><trkpt lat="39.2405124" lon="9.3811626"><ele>737.0</ele><time>2026-04-18T10:25:39.374Z</time></trkpt><trkpt lat="39.240579" lon="9.3811721"><ele>737.0</ele><time>2026-04-18T10:25:40.364Z</time></trkpt><trkpt lat="39.240657" lon="9.3811422"><ele>737.0</ele><time>2026-04-18T10:25:41.359Z</time></trkpt><trkpt lat="39.2407445" lon="9.3811191"><ele>737.8333333333333</ele><time>2026-04-18T10:25:42.368Z</time></trkpt><trkpt lat="39.2408329" lon="9.3811175"><ele>738.6666666666666</ele><time>2026-04-18T10:25:43.353Z</time></trkpt><trkpt lat="39.2409064" lon="9.3811572"><ele>739.5</ele><time>2026-04-18T10:25:44.368Z</time></trkpt><trkpt lat="39.2409524" lon="9.3812187"><ele>740.3333333333334</ele><time>2026-04-18T10:25:45.357Z</time></trkpt><trkpt lat="39.2409832" lon="9.3813094"><ele>741.1666666666667</ele><time>2026-04-18T10:25:46.361Z</time></trkpt><trkpt lat="39.2410112" lon="9.3814069"><ele>742.0</ele><time>2026-04-18T10:25:47.355Z</time></trkpt><trkpt lat="39.241029" lon="9.381526"><ele>742.0</ele><time>2026-04-18T10:25:48.383Z</time></trkpt><trkpt lat="39.2410414" lon="9.3816529"><ele>742.0</ele><time>2026-04-18T10:25:49.365Z</time></trkpt><trkpt lat="39.2410504" lon="9.381781"><ele>742.0</ele><time>2026-04-18T10:25:50.368Z</time></trkpt><trkpt lat="39.2410575" lon="9.3819071"><ele>742.0</ele><time>2026-04-18T10:25:51.37Z</time></trkpt><trkpt lat="39.2410673" lon="9.3820304"><ele>742.0</ele><time>2026-04-18T10:25:52.371Z</time></trkpt><trkpt lat="39.2411071" lon="9.3821341"><ele>743.4000000000001</ele><time>2026-04-18T10:25:53.367Z</time></trkpt><trkpt lat="39.2411573" lon="9.3822217"><ele>744.8000000000001</ele><time>2026-04-18T10:25:54.369Z</time></trkpt><trkpt lat="39.2412101" lon="9.3823061"><ele>746.2</ele><time>2026-04-18T10:25:55.373Z</time></trkpt><trkpt lat="39.241299" lon="9.382385"><ele>747.6</ele><time>2026-04-18T10:25:56.365Z</time></trkpt><trkpt lat="39.2413961" lon="9.3824671"><ele>749.0</ele><time>2026-04-18T10:25:57.36Z</time></trkpt><trkpt lat="39.2414904" lon="9.3825436"><ele>749.0</ele><time>2026-04-18T10:25:58.377Z</time></trkpt><trkpt lat="39.2415837" lon="9.3826203"><ele>749.0</ele><time>2026-04-18T10:25:59.363Z</time></trkpt><trkpt lat="39.241675" lon="9.3826863"><ele>749.0</ele><time>2026-04-18T10:26:00.356Z</time></trkpt><trkpt lat="39.2417571" lon="9.382733"><ele>749.0</ele><time>2026-04-18T10:26:01.359Z</time></trkpt><trkpt lat="39.2418292" lon="9.382746"><ele>749.0</ele><time>2026-04-18T10:26:02.36Z</time></trkpt><trkpt lat="39.2419029" lon="9.3827572"><ele>749.0</ele><time>2026-04-18T10:26:03.351Z</time></trkpt><trkpt lat="39.2419735" lon="9.3827182"><ele>749.0</ele><time>2026-04-18T10:26:04.355Z</time></trkpt><trkpt lat="39.2420467" lon="9.3826772"><ele>749.0</ele><time>2026-04-18T10:26:05.364Z</time></trkpt><trkpt lat="39.2421226" lon="9.3826449"><ele>749.0</ele><time>2026-04-18T10:26:06.358Z</time></trkpt><trkpt lat="39.2421918" lon="9.3826202"><ele>749.0</ele><time>2026-04-18T10:26:07.367Z</time></trkpt><trkpt lat="39.2422984" lon="9.3826651"><ele>749.0</ele><time>2026-04-18T10:26:09.37Z</time></trkpt><trkpt lat="39.2423454" lon="9.3827207"><ele>749.0</ele><time>2026-04-18T10:26:10.367Z</time></trkpt><trkpt lat="39.242393" lon="9.3827803"><ele>749.0</ele><time>2026-04-18T10:26:11.365Z</time></trkpt><trkpt lat="39.2424565" lon="9.3828435"><ele>749.0</ele><time>2026-04-18T10:26:12.369Z</time></trkpt><trkpt lat="39.2425482" lon="9.382892"><ele>749.0</ele><time>2026-04-18T10:26:13.364Z</time></trkpt><trkpt lat="39.2426296" lon="9.3829525"><ele>749.0</ele><time>2026-04-18T10:26:14.364Z</time></trkpt><trkpt lat="39.2427055" lon="9.3830167"><ele>749.0</ele><time>2026-04-18T10:26:15.367Z</time></trkpt><trkpt lat="39.2427637" lon="9.3830712"><ele>748.2</ele><time>2026-04-18T10:26:16.372Z</time></trkpt><trkpt lat="39.2428403" lon="9.3831054"><ele>747.4000000000001</ele><time>2026-04-18T10:26:17.356Z</time></trkpt><trkpt lat="39.2429194" lon="9.3831396"><ele>746.6</ele><time>2026-04-18T10:26:18.365Z</time></trkpt><trkpt lat="39.2430267" lon="9.3831685"><ele>745.8</ele><time>2026-04-18T10:26:19.356Z</time></trkpt><trkpt lat="39.2431302" lon="9.3831968"><ele>745.0</ele><time>2026-04-18T10:26:20.359Z</time></trkpt><trkpt lat="39.2432266" lon="9.3832212"><ele>744.3333333333334</ele><time>2026-04-18T10:26:21.35Z</time></trkpt><trkpt lat="39.243318" lon="9.3832444"><ele>743.6666666666667</ele><time>2026-04-18T10:26:22.351Z</time></trkpt><trkpt lat="39.2434018" lon="9.3832456"><ele>743.0</ele><time>2026-04-18T10:26:23.36Z</time></trkpt><trkpt lat="39.2434891" lon="9.3832535"><ele>742.3333333333334</ele><time>2026-04-18T10:26:24.372Z</time></trkpt><trkpt lat="39.2435786" lon="9.3832734"><ele>741.6666666666666</ele><time>2026-04-18T10:26:25.36Z</time></trkpt><trkpt lat="39.2436697" lon="9.3832975"><ele>741.0</ele><time>2026-04-18T10:26:26.357Z</time></trkpt><trkpt lat="39.2437654" lon="9.3833234"><ele>741.0</ele><time>2026-04-18T10:26:27.364Z</time></trkpt><trkpt lat="39.2438725" lon="9.3833489"><ele>741.0</ele><time>2026-04-18T10:26:28.358Z</time></trkpt><trkpt lat="39.243981" lon="9.3833754"><ele>741.0</ele><time>2026-04-18T10:26:29.354Z</time></trkpt><trkpt lat="39.244091" lon="9.3834047"><ele>741.0</ele><time>2026-04-18T10:26:30.356Z</time></trkpt><trkpt lat="39.2442008" lon="9.3834379"><ele>741.0</ele><time>2026-04-18T10:26:31.36Z</time></trkpt><trkpt lat="39.2443116" lon="9.3834708"><ele>739.4</ele><time>2026-04-18T10:26:32.354Z</time></trkpt><trkpt lat="39.244423" lon="9.3834944"><ele>737.8</ele><time>2026-04-18T10:26:33.354Z</time></trkpt><trkpt lat="39.2445313" lon="9.3835192"><ele>736.1999999999999</ele><time>2026-04-18T10:26:34.359Z</time></trkpt><trkpt lat="39.2446339" lon="9.3835487"><ele>734.5999999999999</ele><time>2026-04-18T10:26:35.354Z</time></trkpt><trkpt lat="39.2447365" lon="9.3835787"><ele>733.0</ele><time>2026-04-18T10:26:36.373Z</time></trkpt><trkpt lat="39.2448439" lon="9.3836121"><ele>731.5999999999999</ele><time>2026-04-18T10:26:37.358Z</time></trkpt><trkpt lat="39.2449494" lon="9.3836446"><ele>730.1999999999999</ele><time>2026-04-18T10:26:38.361Z</time></trkpt><trkpt lat="39.2450499" lon="9.3836664"><ele>728.8</ele><time>2026-04-18T10:26:39.364Z</time></trkpt><trkpt lat="39.2451455" lon="9.3836873"><ele>727.4</ele><time>2026-04-18T10:26:40.372Z</time></trkpt><trkpt lat="39.2452423" lon="9.3836894"><ele>726.0</ele><time>2026-04-18T10:26:41.362Z</time></trkpt><trkpt lat="39.2453331" lon="9.3836829"><ele>726.0</ele><time>2026-04-18T10:26:42.372Z</time></trkpt><trkpt lat="39.2454251" lon="9.3836735"><ele>726.0</ele><time>2026-04-18T10:26:43.356Z</time></trkpt><trkpt lat="39.2455318" lon="9.3836547"><ele>726.0</ele><time>2026-04-18T10:26:44.343Z</time></trkpt><trkpt lat="39.2456347" lon="9.3836353"><ele>726.0</ele><time>2026-04-18T10:26:45.36Z</time></trkpt><trkpt lat="39.2457496" lon="9.3836299"><ele>726.0</ele><time>2026-04-18T10:26:46.359Z</time></trkpt><trkpt lat="39.2458733" lon="9.3836084"><ele>723.75</ele><time>2026-04-18T10:26:47.363Z</time></trkpt><trkpt lat="39.2460017" lon="9.3836017"><ele>721.5</ele><time>2026-04-18T10:26:48.346Z</time></trkpt><trkpt lat="39.2461222" lon="9.3835972"><ele>719.25</ele><time>2026-04-18T10:26:49.357Z</time></trkpt><trkpt lat="39.2462327" lon="9.3835904"><ele>717.0</ele><time>2026-04-18T10:26:50.348Z</time></trkpt><trkpt lat="39.2463273" lon="9.3835722"><ele>717.0</ele><time>2026-04-18T10:26:51.356Z</time></trkpt><trkpt lat="39.2464136" lon="9.3835568"><ele>717.0</ele><time>2026-04-18T10:26:52.365Z</time></trkpt><trkpt lat="39.2465003" lon="9.3835422"><ele>717.0</ele><time>2026-04-18T10:26:53.353Z</time></trkpt><trkpt lat="39.2465924" lon="9.3835254"><ele>717.0</ele><time>2026-04-18T10:26:54.37Z</time></trkpt><trkpt lat="39.2466894" lon="9.3835103"><ele>717.0</ele><time>2026-04-18T10:26:55.359Z</time></trkpt><trkpt lat="39.2467878" lon="9.3835133"><ele>715.0</ele><time>2026-04-18T10:26:56.362Z</time></trkpt><trkpt lat="39.2468845" lon="9.3835177"><ele>713.0</ele><time>2026-04-18T10:26:57.36Z</time></trkpt><trkpt lat="39.2469743" lon="9.3835518"><ele>711.0</ele><time>2026-04-18T10:26:58.372Z</time></trkpt><trkpt lat="39.247062" lon="9.3835886"><ele>709.0</ele><time>2026-04-18T10:26:59.373Z</time></trkpt><trkpt lat="39.2471271" lon="9.3836645"><ele>707.0</ele><time>2026-04-18T10:27:00.361Z</time></trkpt><trkpt lat="39.2471886" lon="9.3837383"><ele>707.0</ele><time>2026-04-18T10:27:01.361Z</time></trkpt><trkpt lat="39.2472507" lon="9.3838143"><ele>707.0</ele><time>2026-04-18T10:27:02.356Z</time></trkpt><trkpt lat="39.2473255" lon="9.3838647"><ele>707.0</ele><time>2026-04-18T10:27:03.358Z</time></trkpt><trkpt lat="39.2474061" lon="9.3838974"><ele>707.0</ele><time>2026-04-18T10:27:04.364Z</time></trkpt><trkpt lat="39.2474848" lon="9.3839268"><ele>707.0</ele><time>2026-04-18T10:27:05.358Z</time></trkpt><trkpt lat="39.2475443" lon="9.383961"><ele>707.0</ele><time>2026-04-18T10:27:06.355Z</time></trkpt><trkpt lat="39.2476405" lon="9.3840221"><ele>706.0</ele><time>2026-04-18T10:27:08.353Z</time></trkpt><trkpt lat="39.2477171" lon="9.3840742"><ele>705.0</ele><time>2026-04-18T10:27:10.352Z</time></trkpt><trkpt lat="39.2477788" lon="9.3841317"><ele>704.0</ele><time>2026-04-18T10:27:13.366Z</time></trkpt><trkpt lat="39.2478466" lon="9.3842131"><ele>703.0</ele><time>2026-04-18T10:27:32.354Z</time></trkpt><trkpt lat="39.247838" lon="9.3843292"><ele>702.0</ele><time>2026-04-18T10:27:34.369Z</time></trkpt><trkpt lat="39.2478003" lon="9.3844465"><ele>701.0</ele><time>2026-04-18T10:27:36.352Z</time></trkpt><trkpt lat="39.2477211" lon="9.3845199"><ele>701.0</ele><time>2026-04-18T10:27:38.368Z</time></trkpt><trkpt lat="39.2476684" lon="9.3846353"><ele>701.0</ele><time>2026-04-18T10:27:40.36Z</time></trkpt><trkpt lat="39.2476204" lon="9.3847818"><ele>701.0</ele><time>2026-04-18T10:27:42.352Z</time></trkpt><trkpt lat="39.2475735" lon="9.3848969"><ele>701.0</ele><time>2026-04-18T10:27:44.391Z</time></trkpt><trkpt lat="39.2476188" lon="9.3849647"><ele>701.0</ele><time>2026-04-18T10:27:47.348Z</time></trkpt><trkpt lat="39.2476804" lon="9.3850357"><ele>700.4</ele><time>2026-04-18T10:27:49.355Z</time></trkpt><trkpt lat="39.2476973" lon="9.3851948"><ele>699.8</ele><time>2026-04-18T10:27:51.362Z</time></trkpt><trkpt lat="39.2477111" lon="9.3853067"><ele>699.1999999999999</ele><time>2026-04-18T10:27:52.352Z</time></trkpt><trkpt lat="39.2477308" lon="9.3854209"><ele>698.5999999999999</ele><time>2026-04-18T10:27:53.347Z</time></trkpt><trkpt lat="39.2477549" lon="9.3855416"><ele>698.0</ele><time>2026-04-18T10:27:54.378Z</time></trkpt><trkpt lat="39.2477711" lon="9.3856726"><ele>697.3333333333333</ele><time>2026-04-18T10:27:55.351Z</time></trkpt><trkpt lat="39.2477891" lon="9.3857966"><ele>696.6666666666666</ele><time>2026-04-18T10:27:56.37Z</time></trkpt><trkpt lat="39.2477983" lon="9.3859149"><ele>696.0</ele><time>2026-04-18T10:27:57.355Z</time></trkpt><trkpt lat="39.2478066" lon="9.386031"><ele>695.3333333333334</ele><time>2026-04-18T10:27:58.358Z</time></trkpt><trkpt lat="39.2478115" lon="9.3861322"><ele>694.6666666666667</ele><time>2026-04-18T10:27:59.354Z</time></trkpt><trkpt lat="39.24783" lon="9.3862272"><ele>694.0</ele><time>2026-04-18T10:28:00.37Z</time></trkpt><trkpt lat="39.2478654" lon="9.3863167"><ele>694.0</ele><time>2026-04-18T10:28:01.358Z</time></trkpt><trkpt lat="39.247898" lon="9.3864045"><ele>694.0</ele><time>2026-04-18T10:28:02.361Z</time></trkpt><trkpt lat="39.2479288" lon="9.3864955"><ele>694.0</ele><time>2026-04-18T10:28:03.361Z</time></trkpt><trkpt lat="39.2479723" lon="9.3865773"><ele>694.0</ele><time>2026-04-18T10:28:04.359Z</time></trkpt><trkpt lat="39.2480068" lon="9.3866463"><ele>694.0</ele><time>2026-04-18T10:28:05.363Z</time></trkpt><trkpt lat="39.2480317" lon="9.3867648"><ele>694.0</ele><time>2026-04-18T10:28:07.359Z</time></trkpt><trkpt lat="39.2480012" lon="9.3869114"><ele>694.0</ele><time>2026-04-18T10:28:09.369Z</time></trkpt><trkpt lat="39.2479904" lon="9.3870059"><ele>694.0</ele><time>2026-04-18T10:28:10.37Z</time></trkpt><trkpt lat="39.2480109" lon="9.3871246"><ele>694.0</ele><time>2026-04-18T10:28:12.362Z</time></trkpt><trkpt lat="39.2480479" lon="9.3872511"><ele>694.0</ele><time>2026-04-18T10:28:14.363Z</time></trkpt><trkpt lat="39.2480699" lon="9.387379"><ele>694.0</ele><time>2026-04-18T10:28:16.366Z</time></trkpt><trkpt lat="39.2480937" lon="9.3874848"><ele>694.2</ele><time>2026-04-18T10:28:18.35Z</time></trkpt><trkpt lat="39.248128" lon="9.3876143"><ele>694.4000000000001</ele><time>2026-04-18T10:28:20.372Z</time></trkpt><trkpt lat="39.248156" lon="9.3877584"><ele>694.6</ele><time>2026-04-18T10:28:22.358Z</time></trkpt><trkpt lat="39.2481317" lon="9.3878603"><ele>694.8</ele><time>2026-04-18T10:28:24.356Z</time></trkpt><trkpt lat="39.2481148" lon="9.3880001"><ele>695.0</ele><time>2026-04-18T10:28:26.383Z</time></trkpt><trkpt lat="39.2481078" lon="9.3881474"><ele>695.8333333333333</ele><time>2026-04-18T10:28:28.375Z</time></trkpt><trkpt lat="39.2481073" lon="9.3882333"><ele>696.6666666666666</ele><time>2026-04-18T10:28:29.379Z</time></trkpt><trkpt lat="39.248112" lon="9.3883248"><ele>697.5</ele><time>2026-04-18T10:28:30.362Z</time></trkpt><trkpt lat="39.248121" lon="9.3884163"><ele>698.3333333333334</ele><time>2026-04-18T10:28:31.37Z</time></trkpt><trkpt lat="39.2481548" lon="9.38856"><ele>699.1666666666667</ele><time>2026-04-18T10:28:33.367Z</time></trkpt><trkpt lat="39.24818" lon="9.3886525"><ele>700.0</ele><time>2026-04-18T10:28:35.375Z</time></trkpt><trkpt lat="39.2482057" lon="9.3887593"><ele>700.0</ele><time>2026-04-18T10:28:38.351Z</time></trkpt><trkpt lat="39.2482489" lon="9.3888217"><ele>700.0</ele><time>2026-04-18T10:28:41.356Z</time></trkpt><trkpt lat="39.2482882" lon="9.3888925"><ele>700.0</ele><time>2026-04-18T10:28:44.352Z</time></trkpt><trkpt lat="39.2482565" lon="9.3890076"><ele>700.0</ele><time>2026-04-18T10:28:46.346Z</time></trkpt><trkpt lat="39.2482107" lon="9.3890924"><ele>700.0</ele><time>2026-04-18T10:28:47.362Z</time></trkpt><trkpt lat="39.2481624" lon="9.3891841"><ele>700.0</ele><time>2026-04-18T10:28:48.356Z</time></trkpt><trkpt lat="39.248128" lon="9.3892955"><ele>700.4</ele><time>2026-04-18T10:28:49.362Z</time></trkpt><trkpt lat="39.2481071" lon="9.3894202"><ele>700.8</ele><time>2026-04-18T10:28:50.371Z</time></trkpt><trkpt lat="39.2480928" lon="9.3895526"><ele>701.2</ele><time>2026-04-18T10:28:51.364Z</time></trkpt><trkpt lat="39.2480816" lon="9.3896882"><ele>701.6</ele><time>2026-04-18T10:28:52.37Z</time></trkpt><trkpt lat="39.2480718" lon="9.3898173"><ele>702.0</ele><time>2026-04-18T10:28:53.353Z</time></trkpt><trkpt lat="39.2480551" lon="9.3899358"><ele>702.0</ele><time>2026-04-18T10:28:54.36Z</time></trkpt><trkpt lat="39.2480468" lon="9.390044"><ele>702.0</ele><time>2026-04-18T10:28:55.37Z</time></trkpt><trkpt lat="39.2480586" lon="9.3901603"><ele>702.0</ele><time>2026-04-18T10:28:56.352Z</time></trkpt><trkpt lat="39.2480714" lon="9.3902801"><ele>702.0</ele><time>2026-04-18T10:28:57.353Z</time></trkpt><trkpt lat="39.2480726" lon="9.3903949"><ele>702.0</ele><time>2026-04-18T10:28:58.361Z</time></trkpt><trkpt lat="39.2480707" lon="9.3905073"><ele>702.0</ele><time>2026-04-18T10:28:59.366Z</time></trkpt><trkpt lat="39.2480695" lon="9.3906149"><ele>702.0</ele><time>2026-04-18T10:29:00.361Z</time></trkpt><trkpt lat="39.2480873" lon="9.3907138"><ele>702.0</ele><time>2026-04-18T10:29:01.35Z</time></trkpt><trkpt lat="39.248099" lon="9.3908251"><ele>702.0</ele><time>2026-04-18T10:29:02.366Z</time></trkpt><trkpt lat="39.2481238" lon="9.3909375"><ele>702.0</ele><time>2026-04-18T10:29:03.356Z</time></trkpt><trkpt lat="39.2481581" lon="9.3910468"><ele>702.0</ele><time>2026-04-18T10:29:04.368Z</time></trkpt><trkpt lat="39.248184" lon="9.3911415"><ele>702.0</ele><time>2026-04-18T10:29:05.355Z</time></trkpt><trkpt lat="39.2481999" lon="9.3912323"><ele>702.0</ele><time>2026-04-18T10:29:06.352Z</time></trkpt><trkpt lat="39.2482002" lon="9.3913793"><ele>702.0</ele><time>2026-04-18T10:29:08.352Z</time></trkpt><trkpt lat="39.2481517" lon="9.3914453"><ele>702.0</ele><time>2026-04-18T10:29:10.377Z</time></trkpt><trkpt lat="39.2480644" lon="9.3914902"><ele>702.0</ele><time>2026-04-18T10:29:12.355Z</time></trkpt><trkpt lat="39.2480012" lon="9.3915116"><ele>702.0</ele><time>2026-04-18T10:29:13.341Z</time></trkpt><trkpt lat="39.2479329" lon="9.391549"><ele>702.0</ele><time>2026-04-18T10:29:14.384Z</time></trkpt><trkpt lat="39.2478636" lon="9.3916056"><ele>701.8333333333334</ele><time>2026-04-18T10:29:15.368Z</time></trkpt><trkpt lat="39.247805" lon="9.3916662"><ele>701.6666666666666</ele><time>2026-04-18T10:29:16.377Z</time></trkpt><trkpt lat="39.2477528" lon="9.3917222"><ele>701.5</ele><time>2026-04-18T10:29:17.382Z</time></trkpt><trkpt lat="39.2477066" lon="9.391834"><ele>701.3333333333333</ele><time>2026-04-18T10:29:19.368Z</time></trkpt><trkpt lat="39.2477447" lon="9.391903"><ele>701.1666666666666</ele><time>2026-04-18T10:29:20.362Z</time></trkpt><trkpt lat="39.2477971" lon="9.3919828"><ele>701.0</ele><time>2026-04-18T10:29:21.377Z</time></trkpt><trkpt lat="39.2478773" lon="9.392075"><ele>701.0</ele><time>2026-04-18T10:29:22.353Z</time></trkpt><trkpt lat="39.2479539" lon="9.3921691"><ele>701.0</ele><time>2026-04-18T10:29:23.366Z</time></trkpt><trkpt lat="39.248024" lon="9.3922567"><ele>701.0</ele><time>2026-04-18T10:29:24.36Z</time></trkpt><trkpt lat="39.2480917" lon="9.3923381"><ele>701.0</ele><time>2026-04-18T10:29:25.36Z</time></trkpt><trkpt lat="39.2481575" lon="9.392419"><ele>701.0</ele><time>2026-04-18T10:29:26.376Z</time></trkpt><trkpt lat="39.2482235" lon="9.3925011"><ele>701.8333333333333</ele><time>2026-04-18T10:29:27.37Z</time></trkpt><trkpt lat="39.2482898" lon="9.3925799"><ele>702.6666666666666</ele><time>2026-04-18T10:29:28.357Z</time></trkpt><trkpt lat="39.2483517" lon="9.3926599"><ele>703.5</ele><time>2026-04-18T10:29:29.38Z</time></trkpt><trkpt lat="39.2484" lon="9.3927506"><ele>704.3333333333334</ele><time>2026-04-18T10:29:30.351Z</time></trkpt><trkpt lat="39.2484478" lon="9.3928445"><ele>705.1666666666667</ele><time>2026-04-18T10:29:31.368Z</time></trkpt><trkpt lat="39.2484698" lon="9.3929568"><ele>706.0</ele><time>2026-04-18T10:29:32.351Z</time></trkpt><trkpt lat="39.2484917" lon="9.3930735"><ele>707.3333333333334</ele><time>2026-04-18T10:29:33.364Z</time></trkpt><trkpt lat="39.2485139" lon="9.3931877"><ele>708.6666666666667</ele><time>2026-04-18T10:29:34.373Z</time></trkpt><trkpt lat="39.248528" lon="9.3932951"><ele>710.0</ele><time>2026-04-18T10:29:35.369Z</time></trkpt><trkpt lat="39.2485192" lon="9.3933967"><ele>711.3333333333334</ele><time>2026-04-18T10:29:36.361Z</time></trkpt><trkpt lat="39.2484918" lon="9.3934905"><ele>712.6666666666666</ele><time>2026-04-18T10:29:37.362Z</time></trkpt><trkpt lat="39.2484644" lon="9.393579"><ele>714.0</ele><time>2026-04-18T10:29:38.349Z</time></trkpt><trkpt lat="39.248423" lon="9.3936618"><ele>714.0</ele><time>2026-04-18T10:29:39.356Z</time></trkpt><trkpt lat="39.2483845" lon="9.3937677"><ele>714.0</ele><time>2026-04-18T10:29:40.361Z</time></trkpt><trkpt lat="39.2483657" lon="9.3938792"><ele>714.0</ele><time>2026-04-18T10:29:41.351Z</time></trkpt><trkpt lat="39.2483573" lon="9.3939967"><ele>714.0</ele><time>2026-04-18T10:29:42.348Z</time></trkpt><trkpt lat="39.2483462" lon="9.3941142"><ele>714.0</ele><time>2026-04-18T10:29:43.355Z</time></trkpt><trkpt lat="39.2483259" lon="9.3942336"><ele>714.3333333333334</ele><time>2026-04-18T10:29:44.37Z</time></trkpt><trkpt lat="39.2483031" lon="9.3943523"><ele>714.6666666666666</ele><time>2026-04-18T10:29:45.354Z</time></trkpt><trkpt lat="39.2482812" lon="9.3944591"><ele>715.0</ele><time>2026-04-18T10:29:46.365Z</time></trkpt><trkpt lat="39.2482532" lon="9.3945528"><ele>715.3333333333333</ele><time>2026-04-18T10:29:47.363Z</time></trkpt><trkpt lat="39.2482236" lon="9.3946456"><ele>715.6666666666666</ele><time>2026-04-18T10:29:48.367Z</time></trkpt><trkpt lat="39.2481783" lon="9.3947266"><ele>716.0</ele><time>2026-04-18T10:29:49.363Z</time></trkpt><trkpt lat="39.248135" lon="9.3948129"><ele>716.0</ele><time>2026-04-18T10:29:50.371Z</time></trkpt><trkpt lat="39.2481064" lon="9.3948894"><ele>716.0</ele><time>2026-04-18T10:29:51.353Z</time></trkpt><trkpt lat="39.2480886" lon="9.3950327"><ele>716.0</ele><time>2026-04-18T10:29:53.359Z</time></trkpt><trkpt lat="39.2481913" lon="9.3951577"><ele>716.0</ele><time>2026-04-18T10:29:55.359Z</time></trkpt><trkpt lat="39.2482812" lon="9.3952218"><ele>716.0</ele><time>2026-04-18T10:29:56.357Z</time></trkpt><trkpt lat="39.2483807" lon="9.3952902"><ele>716.0</ele><time>2026-04-18T10:29:57.363Z</time></trkpt><trkpt lat="39.248479" lon="9.395358"><ele>716.0</ele><time>2026-04-18T10:29:58.358Z</time></trkpt><trkpt lat="39.2485675" lon="9.3954298"><ele>716.0</ele><time>2026-04-18T10:29:59.354Z</time></trkpt><trkpt lat="39.2486538" lon="9.3955037"><ele>716.0</ele><time>2026-04-18T10:30:00.366Z</time></trkpt><trkpt lat="39.2487416" lon="9.3955861"><ele>716.0</ele><time>2026-04-18T10:30:01.356Z</time></trkpt><trkpt lat="39.2488319" lon="9.3956666"><ele>716.5</ele><time>2026-04-18T10:30:02.38Z</time></trkpt><trkpt lat="39.2489184" lon="9.3957386"><ele>717.0</ele><time>2026-04-18T10:30:03.374Z</time></trkpt><trkpt lat="39.249001" lon="9.3958099"><ele>717.5</ele><time>2026-04-18T10:30:04.369Z</time></trkpt><trkpt lat="39.2490839" lon="9.3958546"><ele>718.0</ele><time>2026-04-18T10:30:05.391Z</time></trkpt><trkpt lat="39.2491574" lon="9.3958768"><ele>718.5</ele><time>2026-04-18T10:30:06.374Z</time></trkpt><trkpt lat="39.249231" lon="9.3958784"><ele>719.0</ele><time>2026-04-18T10:30:07.36Z</time></trkpt><trkpt lat="39.2493169" lon="9.3958824"><ele>719.0</ele><time>2026-04-18T10:30:08.357Z</time></trkpt><trkpt lat="39.2494056" lon="9.3958875"><ele>719.0</ele><time>2026-04-18T10:30:09.362Z</time></trkpt><trkpt lat="39.2494985" lon="9.3958811"><ele>719.0</ele><time>2026-04-18T10:30:10.372Z</time></trkpt><trkpt lat="39.2495956" lon="9.3958648"><ele>719.0</ele><time>2026-04-18T10:30:11.36Z</time></trkpt><trkpt lat="39.2496973" lon="9.3958467"><ele>719.0</ele><time>2026-04-18T10:30:12.374Z</time></trkpt><trkpt lat="39.2497993" lon="9.3958295"><ele>719.0</ele><time>2026-04-18T10:30:13.365Z</time></trkpt><trkpt lat="39.2498926" lon="9.3958151"><ele>719.0</ele><time>2026-04-18T10:30:14.38Z</time></trkpt><trkpt lat="39.2499731" lon="9.3958114"><ele>719.0</ele><time>2026-04-18T10:30:15.361Z</time></trkpt><trkpt lat="39.2500583" lon="9.395816"><ele>719.0</ele><time>2026-04-18T10:30:16.356Z</time></trkpt><trkpt lat="39.250146" lon="9.3958209"><ele>719.0</ele><time>2026-04-18T10:30:17.366Z</time></trkpt><trkpt lat="39.2502481" lon="9.3958517"><ele>719.0</ele><time>2026-04-18T10:30:18.35Z</time></trkpt><trkpt lat="39.2503509" lon="9.3958916"><ele>719.0</ele><time>2026-04-18T10:30:19.371Z</time></trkpt><trkpt lat="39.2504476" lon="9.3959259"><ele>719.0</ele><time>2026-04-18T10:30:20.373Z</time></trkpt><trkpt lat="39.2505396" lon="9.3959469"><ele>719.0</ele><time>2026-04-18T10:30:21.361Z</time></trkpt><trkpt lat="39.2506201" lon="9.3959466"><ele>719.0</ele><time>2026-04-18T10:30:22.359Z</time></trkpt><trkpt lat="39.2506861" lon="9.3959464"><ele>719.0</ele><time>2026-04-18T10:30:23.367Z</time></trkpt><trkpt lat="39.2507795" lon="9.3959915"><ele>718.6</ele><time>2026-04-18T10:30:25.356Z</time></trkpt><trkpt lat="39.2508765" lon="9.3960368"><ele>718.2</ele><time>2026-04-18T10:30:27.378Z</time></trkpt><trkpt lat="39.250952" lon="9.3960566"><ele>717.8000000000001</ele><time>2026-04-18T10:30:28.361Z</time></trkpt><trkpt lat="39.2510351" lon="9.3960888"><ele>717.4000000000001</ele><time>2026-04-18T10:30:29.361Z</time></trkpt><trkpt lat="39.251147" lon="9.3961415"><ele>717.0</ele><time>2026-04-18T10:30:30.352Z</time></trkpt><trkpt lat="39.2512691" lon="9.3962039"><ele>717.0</ele><time>2026-04-18T10:30:31.358Z</time></trkpt><trkpt lat="39.2513845" lon="9.396278"><ele>717.0</ele><time>2026-04-18T10:30:32.367Z</time></trkpt><trkpt lat="39.2514866" lon="9.3963401"><ele>717.0</ele><time>2026-04-18T10:30:33.38Z</time></trkpt><trkpt lat="39.2515736" lon="9.3963836"><ele>717.0</ele><time>2026-04-18T10:30:34.363Z</time></trkpt><trkpt lat="39.2516484" lon="9.3964215"><ele>717.0</ele><time>2026-04-18T10:30:35.365Z</time></trkpt><trkpt lat="39.2517287" lon="9.3964996"><ele>717.3333333333334</ele><time>2026-04-18T10:30:37.367Z</time></trkpt><trkpt lat="39.2517974" lon="9.3965184"><ele>717.6666666666666</ele><time>2026-04-18T10:30:39.349Z</time></trkpt><trkpt lat="39.251885" lon="9.3964949"><ele>718.0</ele><time>2026-04-18T10:30:41.355Z</time></trkpt><trkpt lat="39.2519559" lon="9.3964641"><ele>718.3333333333333</ele><time>2026-04-18T10:30:42.362Z</time></trkpt><trkpt lat="39.2520541" lon="9.3964535"><ele>718.6666666666666</ele><time>2026-04-18T10:30:44.361Z</time></trkpt><trkpt lat="39.2521205" lon="9.3964529"><ele>719.0</ele><time>2026-04-18T10:31:01.358Z</time></trkpt><trkpt lat="39.2522171" lon="9.3964803"><ele>719.0</ele><time>2026-04-18T10:31:03.36Z</time></trkpt><trkpt lat="39.2522766" lon="9.3965078"><ele>719.0</ele><time>2026-04-18T10:31:04.364Z</time></trkpt><trkpt lat="39.2523426" lon="9.3965373"><ele>719.0</ele><time>2026-04-18T10:31:05.37Z</time></trkpt><trkpt lat="39.252416" lon="9.3965686"><ele>719.0</ele><time>2026-04-18T10:31:06.369Z</time></trkpt><trkpt lat="39.2524925" lon="9.3965995"><ele>719.0</ele><time>2026-04-18T10:31:07.362Z</time></trkpt><trkpt lat="39.2525745" lon="9.3966271"><ele>719.0</ele><time>2026-04-18T10:31:08.362Z</time></trkpt><trkpt lat="39.2526593" lon="9.3966351"><ele>718.8000000000001</ele><time>2026-04-18T10:31:09.351Z</time></trkpt><trkpt lat="39.2527487" lon="9.3966117"><ele>718.6</ele><time>2026-04-18T10:31:10.351Z</time></trkpt><trkpt lat="39.2528387" lon="9.3965562"><ele>718.4</ele><time>2026-04-18T10:31:11.339Z</time></trkpt><trkpt lat="39.2529198" lon="9.3964762"><ele>718.2</ele><time>2026-04-18T10:31:12.351Z</time></trkpt><trkpt lat="39.2529986" lon="9.3963927"><ele>718.0</ele><time>2026-04-18T10:31:13.373Z</time></trkpt><trkpt lat="39.2530761" lon="9.3963115"><ele>719.5999999999999</ele><time>2026-04-18T10:31:14.361Z</time></trkpt><trkpt lat="39.2531575" lon="9.3962489"><ele>721.1999999999999</ele><time>2026-04-18T10:31:15.355Z</time></trkpt><trkpt lat="39.2532459" lon="9.3962098"><ele>722.8</ele><time>2026-04-18T10:31:16.362Z</time></trkpt><trkpt lat="39.2533448" lon="9.39619"><ele>724.4</ele><time>2026-04-18T10:31:17.349Z</time></trkpt><trkpt lat="39.2534494" lon="9.3961979"><ele>726.0</ele><time>2026-04-18T10:31:18.355Z</time></trkpt><trkpt lat="39.2535525" lon="9.3962307"><ele>726.0</ele><time>2026-04-18T10:31:19.352Z</time></trkpt><trkpt lat="39.2536511" lon="9.3962859"><ele>726.0</ele><time>2026-04-18T10:31:20.355Z</time></trkpt><trkpt lat="39.2537427" lon="9.3963612"><ele>726.0</ele><time>2026-04-18T10:31:21.358Z</time></trkpt><trkpt lat="39.2538322" lon="9.3964461"><ele>726.0</ele><time>2026-04-18T10:31:22.352Z</time></trkpt><trkpt lat="39.2539115" lon="9.3965386"><ele>726.0</ele><time>2026-04-18T10:31:23.355Z</time></trkpt><trkpt lat="39.2539674" lon="9.3966515"><ele>726.0</ele><time>2026-04-18T10:31:24.358Z</time></trkpt><trkpt lat="39.2539927" lon="9.3967815"><ele>726.0</ele><time>2026-04-18T10:31:25.351Z</time></trkpt><trkpt lat="39.2539914" lon="9.3969193"><ele>726.0</ele><time>2026-04-18T10:31:26.356Z</time></trkpt><trkpt lat="39.2539721" lon="9.3970604"><ele>726.0</ele><time>2026-04-18T10:31:27.356Z</time></trkpt><trkpt lat="39.2539453" lon="9.3971988"><ele>726.0</ele><time>2026-04-18T10:31:28.377Z</time></trkpt><trkpt lat="39.2539213" lon="9.397335"><ele>726.0</ele><time>2026-04-18T10:31:29.397Z</time></trkpt><trkpt lat="39.2539107" lon="9.3974739"><ele>726.0</ele><time>2026-04-18T10:31:30.368Z</time></trkpt><trkpt lat="39.2539308" lon="9.3976058"><ele>726.0</ele><time>2026-04-18T10:31:31.372Z</time></trkpt><trkpt lat="39.2539857" lon="9.3977183"><ele>726.0</ele><time>2026-04-18T10:31:32.354Z</time></trkpt><trkpt lat="39.254065" lon="9.3977974"><ele>726.0</ele><time>2026-04-18T10:31:33.36Z</time></trkpt><trkpt lat="39.2541622" lon="9.3978513"><ele>728.5999999999999</ele><time>2026-04-18T10:31:34.361Z</time></trkpt><trkpt lat="39.2542606" lon="9.3978992"><ele>731.2</ele><time>2026-04-18T10:31:35.353Z</time></trkpt><trkpt lat="39.254344" lon="9.3979659"><ele>733.8</ele><time>2026-04-18T10:31:36.359Z</time></trkpt><trkpt lat="39.2544002" lon="9.3980625"><ele>736.4000000000001</ele><time>2026-04-18T10:31:37.353Z</time></trkpt><trkpt lat="39.2544287" lon="9.3981825"><ele>739.0</ele><time>2026-04-18T10:31:38.352Z</time></trkpt><trkpt lat="39.2544355" lon="9.3983165"><ele>739.0</ele><time>2026-04-18T10:31:39.356Z</time></trkpt><trkpt lat="39.2544345" lon="9.39846"><ele>739.0</ele><time>2026-04-18T10:31:40.361Z</time></trkpt><trkpt lat="39.2544321" lon="9.3986119"><ele>739.0</ele><time>2026-04-18T10:31:41.364Z</time></trkpt><trkpt lat="39.2544286" lon="9.3987684"><ele>739.0</ele><time>2026-04-18T10:31:42.349Z</time></trkpt><trkpt lat="39.2544238" lon="9.3989281"><ele>739.6</ele><time>2026-04-18T10:31:43.36Z</time></trkpt><trkpt lat="39.2544175" lon="9.399087"><ele>740.2</ele><time>2026-04-18T10:31:44.396Z</time></trkpt><trkpt lat="39.2544205" lon="9.39923"><ele>740.8000000000001</ele><time>2026-04-18T10:31:45.359Z</time></trkpt><trkpt lat="39.2544399" lon="9.3993653"><ele>741.4000000000001</ele><time>2026-04-18T10:31:46.37Z</time></trkpt><trkpt lat="39.2544847" lon="9.399492"><ele>742.0</ele><time>2026-04-18T10:31:47.367Z</time></trkpt><trkpt lat="39.2545518" lon="9.3996044"><ele>742.3333333333334</ele><time>2026-04-18T10:31:48.357Z</time></trkpt><trkpt lat="39.2546266" lon="9.399681"><ele>742.6666666666667</ele><time>2026-04-18T10:31:49.36Z</time></trkpt><trkpt lat="39.2546952" lon="9.3997315"><ele>743.0</ele><time>2026-04-18T10:31:50.356Z</time></trkpt><trkpt lat="39.2547536" lon="9.3997698"><ele>743.3333333333334</ele><time>2026-04-18T10:31:51.368Z</time></trkpt><trkpt lat="39.2548436" lon="9.3998165"><ele>743.6666666666666</ele><time>2026-04-18T10:31:53.354Z</time></trkpt><trkpt lat="39.2549097" lon="9.3998472"><ele>744.0</ele><time>2026-04-18T10:31:56.359Z</time></trkpt><trkpt lat="39.2549628" lon="9.3998987"><ele>744.6</ele><time>2026-04-18T10:32:09.388Z</time></trkpt><trkpt lat="39.2550465" lon="9.4000036"><ele>745.2</ele><time>2026-04-18T10:32:12.356Z</time></trkpt><trkpt lat="39.2551538" lon="9.4000891"><ele>745.8000000000001</ele><time>2026-04-18T10:32:14.363Z</time></trkpt><trkpt lat="39.2552101" lon="9.4001418"><ele>746.4000000000001</ele><time>2026-04-18T10:32:15.36Z</time></trkpt><trkpt lat="39.2553081" lon="9.4002377"><ele>747.0</ele><time>2026-04-18T10:32:17.353Z</time></trkpt><trkpt lat="39.2554259" lon="9.4002928"><ele>747.0</ele><time>2026-04-18T10:32:19.352Z</time></trkpt><trkpt lat="39.2555443" lon="9.400349"><ele>747.0</ele><time>2026-04-18T10:32:21.359Z</time></trkpt><trkpt lat="39.2556648" lon="9.4003989"><ele>747.0</ele><time>2026-04-18T10:32:23.358Z</time></trkpt><trkpt lat="39.2557295" lon="9.4004256"><ele>747.0</ele><time>2026-04-18T10:32:24.36Z</time></trkpt><trkpt lat="39.2557965" lon="9.4004487"><ele>747.0</ele><time>2026-04-18T10:32:25.359Z</time></trkpt><trkpt lat="39.2558747" lon="9.4004713"><ele>746.0</ele><time>2026-04-18T10:32:26.35Z</time></trkpt><trkpt lat="39.2559458" lon="9.4004854"><ele>745.0</ele><time>2026-04-18T10:32:27.36Z</time></trkpt><trkpt lat="39.2560088" lon="9.400499"><ele>744.0</ele><time>2026-04-18T10:32:28.359Z</time></trkpt><trkpt lat="39.2561398" lon="9.400518"><ele>743.0</ele><time>2026-04-18T10:32:30.361Z</time></trkpt><trkpt lat="39.256207" lon="9.4005196"><ele>742.0</ele><time>2026-04-18T10:32:31.36Z</time></trkpt><trkpt lat="39.2563116" lon="9.4005411"><ele>741.0</ele><time>2026-04-18T10:32:33.348Z</time></trkpt><trkpt lat="39.2564155" lon="9.4005516"><ele>738.6666666666666</ele><time>2026-04-18T10:32:35.369Z</time></trkpt><trkpt lat="39.25648" lon="9.4005449"><ele>736.3333333333334</ele><time>2026-04-18T10:32:36.367Z</time></trkpt><trkpt lat="39.2565619" lon="9.4005435"><ele>734.0</ele><time>2026-04-18T10:32:37.349Z</time></trkpt><trkpt lat="39.2566355" lon="9.400548"><ele>731.6666666666667</ele><time>2026-04-18T10:32:38.358Z</time></trkpt><trkpt lat="39.2567026" lon="9.4005623"><ele>729.3333333333334</ele><time>2026-04-18T10:32:39.361Z</time></trkpt><trkpt lat="39.2567837" lon="9.4006337"><ele>727.0</ele><time>2026-04-18T10:32:41.368Z</time></trkpt><trkpt lat="39.2568459" lon="9.4006603"><ele>727.0</ele><time>2026-04-18T10:32:43.363Z</time></trkpt><trkpt lat="39.2569098" lon="9.4007013"><ele>727.0</ele><time>2026-04-18T10:32:45.361Z</time></trkpt><trkpt lat="39.2569712" lon="9.4007635"><ele>727.0</ele><time>2026-04-18T10:32:47.363Z</time></trkpt><trkpt lat="39.2570692" lon="9.4008282"><ele>727.0</ele><time>2026-04-18T10:32:49.351Z</time></trkpt><trkpt lat="39.2571776" lon="9.4008906"><ele>727.0</ele><time>2026-04-18T10:32:51.373Z</time></trkpt><trkpt lat="39.2572702" lon="9.4009312"><ele>725.2</ele><time>2026-04-18T10:32:53.385Z</time></trkpt><trkpt lat="39.257352" lon="9.400946"><ele>723.4000000000001</ele><time>2026-04-18T10:32:55.373Z</time></trkpt><trkpt lat="39.2574544" lon="9.400935"><ele>721.5999999999999</ele><time>2026-04-18T10:32:57.375Z</time></trkpt><trkpt lat="39.2575586" lon="9.4009013"><ele>719.8</ele><time>2026-04-18T10:32:59.371Z</time></trkpt><trkpt lat="39.2576691" lon="9.4008554"><ele>718.0</ele><time>2026-04-18T10:33:01.352Z</time></trkpt><trkpt lat="39.257766" lon="9.4008052"><ele>718.0</ele><time>2026-04-18T10:33:03.363Z</time></trkpt><trkpt lat="39.2578644" lon="9.4007532"><ele>718.0</ele><time>2026-04-18T10:33:05.363Z</time></trkpt><trkpt lat="39.2579504" lon="9.400696"><ele>718.0</ele><time>2026-04-18T10:33:07.367Z</time></trkpt><trkpt lat="39.2580235" lon="9.4006443"><ele>718.0</ele><time>2026-04-18T10:33:09.359Z</time></trkpt><trkpt lat="39.2581159" lon="9.400596"><ele>718.0</ele><time>2026-04-18T10:33:11.367Z</time></trkpt><trkpt lat="39.258196" lon="9.4005395"><ele>715.5999999999999</ele><time>2026-04-18T10:33:13.376Z</time></trkpt><trkpt lat="39.2582912" lon="9.400478"><ele>713.1999999999999</ele><time>2026-04-18T10:33:15.363Z</time></trkpt><trkpt lat="39.2583741" lon="9.4004601"><ele>710.8</ele><time>2026-04-18T10:33:17.349Z</time></trkpt><trkpt lat="39.2584508" lon="9.4003961"><ele>708.4</ele><time>2026-04-18T10:33:19.359Z</time></trkpt><trkpt lat="39.2585366" lon="9.400333"><ele>706.0</ele><time>2026-04-18T10:33:21.369Z</time></trkpt><trkpt lat="39.2586422" lon="9.4002951"><ele>706.0</ele><time>2026-04-18T10:33:23.361Z</time></trkpt><trkpt lat="39.2587616" lon="9.4002833"><ele>706.0</ele><time>2026-04-18T10:33:25.357Z</time></trkpt><trkpt lat="39.2588272" lon="9.4002824"><ele>706.0</ele><time>2026-04-18T10:33:26.364Z</time></trkpt><trkpt lat="39.2588923" lon="9.4002871"><ele>706.0</ele><time>2026-04-18T10:33:27.358Z</time></trkpt><trkpt lat="39.2589582" lon="9.4002994"><ele>706.0</ele><time>2026-04-18T10:33:28.365Z</time></trkpt><trkpt lat="39.2590213" lon="9.4003137"><ele>706.0</ele><time>2026-04-18T10:33:29.364Z</time></trkpt><trkpt lat="39.2590839" lon="9.4003323"><ele>706.0</ele><time>2026-04-18T10:33:30.349Z</time></trkpt><trkpt lat="39.2591875" lon="9.4003771"><ele>704.5999999999999</ele><time>2026-04-18T10:33:32.365Z</time></trkpt><trkpt lat="39.259267" lon="9.400427"><ele>703.2</ele><time>2026-04-18T10:33:35.388Z</time></trkpt><trkpt lat="39.2593561" lon="9.4004824"><ele>701.8</ele><time>2026-04-18T10:33:37.373Z</time></trkpt><trkpt lat="39.2594348" lon="9.4004586"><ele>700.4000000000001</ele><time>2026-04-18T10:33:39.389Z</time></trkpt><trkpt lat="39.2595181" lon="9.4004083"><ele>699.0</ele><time>2026-04-18T10:33:41.352Z</time></trkpt><trkpt lat="39.2596047" lon="9.4003358"><ele>699.0</ele><time>2026-04-18T10:33:43.356Z</time></trkpt><trkpt lat="39.2596941" lon="9.400255"><ele>699.0</ele><time>2026-04-18T10:33:45.356Z</time></trkpt><trkpt lat="39.2597473" lon="9.4001958"><ele>699.0</ele><time>2026-04-18T10:33:47.349Z</time></trkpt><trkpt lat="39.2598043" lon="9.4001227"><ele>699.0</ele><time>2026-04-18T10:33:49.37Z</time></trkpt><trkpt lat="39.2598722" lon="9.4000825"><ele>699.0</ele><time>2026-04-18T10:33:52.364Z</time></trkpt><trkpt lat="39.2599342" lon="9.4000405"><ele>699.0</ele><time>2026-04-18T10:33:54.359Z</time></trkpt><trkpt lat="39.2600161" lon="9.399994"><ele>698.2</ele><time>2026-04-18T10:33:56.356Z</time></trkpt><trkpt lat="39.2601233" lon="9.3999745"><ele>697.4000000000001</ele><time>2026-04-18T10:33:58.355Z</time></trkpt><trkpt lat="39.2602342" lon="9.3999916"><ele>696.6</ele><time>2026-04-18T10:34:00.355Z</time></trkpt><trkpt lat="39.2603284" lon="9.3999922"><ele>695.8</ele><time>2026-04-18T10:34:02.352Z</time></trkpt><trkpt lat="39.2604278" lon="9.3999979"><ele>695.0</ele><time>2026-04-18T10:34:04.353Z</time></trkpt><trkpt lat="39.2605348" lon="9.3999948"><ele>694.2</ele><time>2026-04-18T10:34:06.364Z</time></trkpt><trkpt lat="39.2606646" lon="9.3999772"><ele>693.4</ele><time>2026-04-18T10:34:08.354Z</time></trkpt><trkpt lat="39.2607487" lon="9.3999757"><ele>692.5999999999999</ele><time>2026-04-18T10:34:09.355Z</time></trkpt><trkpt lat="39.2608382" lon="9.3999855"><ele>691.8</ele><time>2026-04-18T10:34:10.367Z</time></trkpt><trkpt lat="39.2609247" lon="9.3999965"><ele>691.0</ele><time>2026-04-18T10:34:11.357Z</time></trkpt><trkpt lat="39.261009" lon="9.4000189"><ele>691.0</ele><time>2026-04-18T10:34:12.361Z</time></trkpt><trkpt lat="39.2610891" lon="9.4000312"><ele>691.0</ele><time>2026-04-18T10:34:13.355Z</time></trkpt><trkpt lat="39.2611691" lon="9.4000411"><ele>691.0</ele><time>2026-04-18T10:34:14.349Z</time></trkpt><trkpt lat="39.2612415" lon="9.4000064"><ele>691.0</ele><time>2026-04-18T10:34:15.361Z</time></trkpt><trkpt lat="39.2613037" lon="9.399953"><ele>691.0</ele><time>2026-04-18T10:34:16.368Z</time></trkpt><trkpt lat="39.261364" lon="9.3998973"><ele>691.0</ele><time>2026-04-18T10:34:17.368Z</time></trkpt><trkpt lat="39.2614144" lon="9.3998392"><ele>689.8333333333334</ele><time>2026-04-18T10:34:18.351Z</time></trkpt><trkpt lat="39.2614649" lon="9.39978"><ele>688.6666666666667</ele><time>2026-04-18T10:34:19.363Z</time></trkpt><trkpt lat="39.261526" lon="9.3996713"><ele>687.5</ele><time>2026-04-18T10:34:21.358Z</time></trkpt><trkpt lat="39.261551" lon="9.3995777"><ele>686.3333333333334</ele><time>2026-04-18T10:34:24.362Z</time></trkpt><trkpt lat="39.2615273" lon="9.3994888"><ele>685.1666666666666</ele><time>2026-04-18T10:34:40.351Z</time></trkpt><trkpt lat="39.2615008" lon="9.3993779"><ele>684.0</ele><time>2026-04-18T10:34:42.367Z</time></trkpt><trkpt lat="39.261571" lon="9.3992628"><ele>684.0</ele><time>2026-04-18T10:34:44.364Z</time></trkpt><trkpt lat="39.2616626" lon="9.3992383"><ele>684.0</ele><time>2026-04-18T10:34:45.362Z</time></trkpt><trkpt lat="39.2617643" lon="9.3992414"><ele>684.0</ele><time>2026-04-18T10:34:46.365Z</time></trkpt><trkpt lat="39.2618644" lon="9.399248"><ele>684.0</ele><time>2026-04-18T10:34:47.361Z</time></trkpt><trkpt lat="39.26196" lon="9.3993091"><ele>684.0</ele><time>2026-04-18T10:34:48.357Z</time></trkpt><trkpt lat="39.2620625" lon="9.3993576"><ele>684.0</ele><time>2026-04-18T10:34:49.357Z</time></trkpt><trkpt lat="39.2621799" lon="9.3993865"><ele>684.0</ele><time>2026-04-18T10:34:50.362Z</time></trkpt><trkpt lat="39.2623031" lon="9.3994123"><ele>684.0</ele><time>2026-04-18T10:34:51.36Z</time></trkpt><trkpt lat="39.262427" lon="9.3994313"><ele>684.0</ele><time>2026-04-18T10:34:52.354Z</time></trkpt><trkpt lat="39.2625533" lon="9.3994459"><ele>683.25</ele><time>2026-04-18T10:34:53.363Z</time></trkpt><trkpt lat="39.2626788" lon="9.3994641"><ele>682.5</ele><time>2026-04-18T10:34:54.357Z</time></trkpt><trkpt lat="39.2627969" lon="9.3995017"><ele>681.75</ele><time>2026-04-18T10:34:55.365Z</time></trkpt><trkpt lat="39.2629024" lon="9.3995517"><ele>681.0</ele><time>2026-04-18T10:34:56.369Z</time></trkpt><trkpt lat="39.263007" lon="9.3996032"><ele>681.0</ele><time>2026-04-18T10:34:57.351Z</time></trkpt><trkpt lat="39.2631116" lon="9.3996423"><ele>681.0</ele><time>2026-04-18T10:34:58.362Z</time></trkpt><trkpt lat="39.263223" lon="9.3996661"><ele>681.0</ele><time>2026-04-18T10:34:59.356Z</time></trkpt><trkpt lat="39.2633406" lon="9.3996819"><ele>681.0</ele><time>2026-04-18T10:35:00.346Z</time></trkpt><trkpt lat="39.2634541" lon="9.399706"><ele>680.5999999999999</ele><time>2026-04-18T10:35:01.369Z</time></trkpt><trkpt lat="39.2635692" lon="9.3997283"><ele>680.2</ele><time>2026-04-18T10:35:02.354Z</time></trkpt><trkpt lat="39.2636788" lon="9.3997379"><ele>679.8</ele><time>2026-04-18T10:35:03.355Z</time></trkpt><trkpt lat="39.2637813" lon="9.3997561"><ele>679.4000000000001</ele><time>2026-04-18T10:35:04.35Z</time></trkpt><trkpt lat="39.2638852" lon="9.3997754"><ele>679.0</ele><time>2026-04-18T10:35:05.362Z</time></trkpt><trkpt lat="39.2639768" lon="9.3998165"><ele>677.2</ele><time>2026-04-18T10:35:06.351Z</time></trkpt><trkpt lat="39.264073" lon="9.3998536"><ele>675.4000000000001</ele><time>2026-04-18T10:35:07.352Z</time></trkpt><trkpt lat="39.2641781" lon="9.399883"><ele>673.6</ele><time>2026-04-18T10:35:08.365Z</time></trkpt><trkpt lat="39.2642869" lon="9.3999049"><ele>671.8</ele><time>2026-04-18T10:35:09.36Z</time></trkpt><trkpt lat="39.2643989" lon="9.3999181"><ele>670.0</ele><time>2026-04-18T10:35:10.367Z</time></trkpt><trkpt lat="39.2645157" lon="9.3999211"><ele>670.0</ele><time>2026-04-18T10:35:11.355Z</time></trkpt><trkpt lat="39.2646339" lon="9.3999159"><ele>670.0</ele><time>2026-04-18T10:35:12.355Z</time></trkpt><trkpt lat="39.2647494" lon="9.3999096"><ele>670.0</ele><time>2026-04-18T10:35:13.368Z</time></trkpt><trkpt lat="39.2648655" lon="9.3999092"><ele>670.0</ele><time>2026-04-18T10:35:14.354Z</time></trkpt><trkpt lat="39.2649785" lon="9.3999071"><ele>668.5</ele><time>2026-04-18T10:35:15.375Z</time></trkpt><trkpt lat="39.2650907" lon="9.3999089"><ele>667.0</ele><time>2026-04-18T10:35:16.383Z</time></trkpt><trkpt lat="39.2652058" lon="9.399909"><ele>665.5</ele><time>2026-04-18T10:35:17.376Z</time></trkpt><trkpt lat="39.2653223" lon="9.399894"><ele>664.0</ele><time>2026-04-18T10:35:18.368Z</time></trkpt><trkpt lat="39.2654396" lon="9.3998517"><ele>664.0</ele><time>2026-04-18T10:35:19.365Z</time></trkpt><trkpt lat="39.2655632" lon="9.3998063"><ele>664.0</ele><time>2026-04-18T10:35:20.357Z</time></trkpt><trkpt lat="39.2656877" lon="9.3997483"><ele>664.0</ele><time>2026-04-18T10:35:21.36Z</time></trkpt><trkpt lat="39.2658143" lon="9.3996977"><ele>664.0</ele><time>2026-04-18T10:35:22.359Z</time></trkpt><trkpt lat="39.2659486" lon="9.3996654"><ele>664.75</ele><time>2026-04-18T10:35:23.363Z</time></trkpt><trkpt lat="39.2660951" lon="9.3996461"><ele>665.5</ele><time>2026-04-18T10:35:24.357Z</time></trkpt><trkpt lat="39.2662398" lon="9.399638"><ele>666.25</ele><time>2026-04-18T10:35:25.354Z</time></trkpt><trkpt lat="39.26638" lon="9.399638"><ele>667.0</ele><time>2026-04-18T10:35:26.354Z</time></trkpt><trkpt lat="39.266518" lon="9.3996344"><ele>667.0</ele><time>2026-04-18T10:35:27.359Z</time></trkpt><trkpt lat="39.2666536" lon="9.3996191"><ele>667.0</ele><time>2026-04-18T10:35:28.374Z</time></trkpt><trkpt lat="39.2667863" lon="9.3995925"><ele>667.0</ele><time>2026-04-18T10:35:29.351Z</time></trkpt><trkpt lat="39.2669161" lon="9.3995589"><ele>667.0</ele><time>2026-04-18T10:35:30.356Z</time></trkpt><trkpt lat="39.2670414" lon="9.3995272"><ele>667.0</ele><time>2026-04-18T10:35:31.358Z</time></trkpt><trkpt lat="39.2671613" lon="9.3995011"><ele>667.0</ele><time>2026-04-18T10:35:32.356Z</time></trkpt><trkpt lat="39.2672825" lon="9.399474"><ele>667.0</ele><time>2026-04-18T10:35:33.365Z</time></trkpt><trkpt lat="39.2674028" lon="9.3994385"><ele>667.0</ele><time>2026-04-18T10:35:34.362Z</time></trkpt><trkpt lat="39.267523" lon="9.3994019"><ele>665.75</ele><time>2026-04-18T10:35:35.363Z</time></trkpt><trkpt lat="39.2676439" lon="9.399365"><ele>664.5</ele><time>2026-04-18T10:35:36.361Z</time></trkpt><trkpt lat="39.2677712" lon="9.3993261"><ele>663.25</ele><time>2026-04-18T10:35:37.364Z</time></trkpt><trkpt lat="39.2678985" lon="9.3992871"><ele>662.0</ele><time>2026-04-18T10:35:38.364Z</time></trkpt><trkpt lat="39.2680215" lon="9.3992519"><ele>661.25</ele><time>2026-04-18T10:35:39.363Z</time></trkpt><trkpt lat="39.2681393" lon="9.3992192"><ele>660.5</ele><time>2026-04-18T10:35:40.373Z</time></trkpt><trkpt lat="39.2682687" lon="9.3992016"><ele>659.75</ele><time>2026-04-18T10:35:41.356Z</time></trkpt><trkpt lat="39.2683947" lon="9.3992133"><ele>659.0</ele><time>2026-04-18T10:35:42.352Z</time></trkpt><trkpt lat="39.2685154" lon="9.3992279"><ele>659.0</ele><time>2026-04-18T10:35:43.358Z</time></trkpt><trkpt lat="39.2686384" lon="9.3992546"><ele>659.0</ele><time>2026-04-18T10:35:44.36Z</time></trkpt><trkpt lat="39.268766" lon="9.399258"><ele>659.0</ele><time>2026-04-18T10:35:45.358Z</time></trkpt><trkpt lat="39.2689043" lon="9.3992375"><ele>659.0</ele><time>2026-04-18T10:35:46.356Z</time></trkpt><trkpt lat="39.2690458" lon="9.3992136"><ele>658.25</ele><time>2026-04-18T10:35:47.366Z</time></trkpt><trkpt lat="39.269187" lon="9.3991971"><ele>657.5</ele><time>2026-04-18T10:35:48.355Z</time></trkpt><trkpt lat="39.2693243" lon="9.399183"><ele>656.75</ele><time>2026-04-18T10:35:49.351Z</time></trkpt><trkpt lat="39.269464" lon="9.3991637"><ele>656.0</ele><time>2026-04-18T10:35:50.362Z</time></trkpt><trkpt lat="39.2696044" lon="9.3991357"><ele>656.0</ele><time>2026-04-18T10:35:51.367Z</time></trkpt><trkpt lat="39.2697462" lon="9.399114"><ele>656.0</ele><time>2026-04-18T10:35:52.362Z</time></trkpt><trkpt lat="39.2698841" lon="9.3991004"><ele>656.0</ele><time>2026-04-18T10:35:53.356Z</time></trkpt><trkpt lat="39.2700201" lon="9.399077"><ele>656.0</ele><time>2026-04-18T10:35:54.365Z</time></trkpt><trkpt lat="39.2701519" lon="9.3990281"><ele>655.25</ele><time>2026-04-18T10:35:55.36Z</time></trkpt><trkpt lat="39.2702796" lon="9.3989543"><ele>654.5</ele><time>2026-04-18T10:35:56.368Z</time></trkpt><trkpt lat="39.2703967" lon="9.3988701"><ele>653.75</ele><time>2026-04-18T10:35:57.361Z</time></trkpt><trkpt lat="39.2705095" lon="9.3987959"><ele>653.0</ele><time>2026-04-18T10:35:58.353Z</time></trkpt><trkpt lat="39.2706246" lon="9.3987218"><ele>653.0</ele><time>2026-04-18T10:35:59.379Z</time></trkpt><trkpt lat="39.2707429" lon="9.3986716"><ele>653.0</ele><time>2026-04-18T10:36:00.355Z</time></trkpt><trkpt lat="39.2708474" lon="9.39862"><ele>653.0</ele><time>2026-04-18T10:36:01.358Z</time></trkpt><trkpt lat="39.2709337" lon="9.3985496"><ele>653.0</ele><time>2026-04-18T10:36:02.366Z</time></trkpt><trkpt lat="39.2709972" lon="9.398453"><ele>653.0</ele><time>2026-04-18T10:36:03.36Z</time></trkpt><trkpt lat="39.2710414" lon="9.3983235"><ele>653.0</ele><time>2026-04-18T10:36:04.383Z</time></trkpt><trkpt lat="39.2710753" lon="9.3981703"><ele>653.0</ele><time>2026-04-18T10:36:05.361Z</time></trkpt><trkpt lat="39.271112" lon="9.3980204"><ele>653.0</ele><time>2026-04-18T10:36:06.37Z</time></trkpt><trkpt lat="39.2711409" lon="9.3978843"><ele>653.0</ele><time>2026-04-18T10:36:07.387Z</time></trkpt><trkpt lat="39.2711707" lon="9.3977623"><ele>652.8333333333333</ele><time>2026-04-18T10:36:08.382Z</time></trkpt><trkpt lat="39.2712052" lon="9.3976591"><ele>652.6666666666666</ele><time>2026-04-18T10:36:09.355Z</time></trkpt><trkpt lat="39.2712565" lon="9.3975778"><ele>652.5</ele><time>2026-04-18T10:36:10.37Z</time></trkpt><trkpt lat="39.271323" lon="9.3975206"><ele>652.3333333333334</ele><time>2026-04-18T10:36:11.37Z</time></trkpt><trkpt lat="39.2714" lon="9.3974861"><ele>652.1666666666667</ele><time>2026-04-18T10:36:12.357Z</time></trkpt><trkpt lat="39.2714855" lon="9.3974582"><ele>652.0</ele><time>2026-04-18T10:36:13.366Z</time></trkpt><trkpt lat="39.2715762" lon="9.3974346"><ele>652.0</ele><time>2026-04-18T10:36:14.362Z</time></trkpt><trkpt lat="39.2716698" lon="9.3974142"><ele>652.0</ele><time>2026-04-18T10:36:15.361Z</time></trkpt><trkpt lat="39.2717619" lon="9.3973973"><ele>652.0</ele><time>2026-04-18T10:36:16.355Z</time></trkpt><trkpt lat="39.2718533" lon="9.397377"><ele>652.0</ele><time>2026-04-18T10:36:17.364Z</time></trkpt><trkpt lat="39.2719383" lon="9.3973492"><ele>652.0</ele><time>2026-04-18T10:36:18.369Z</time></trkpt><trkpt lat="39.2720168" lon="9.3973244"><ele>652.0</ele><time>2026-04-18T10:36:19.359Z</time></trkpt><trkpt lat="39.2721081" lon="9.3972833"><ele>652.0</ele><time>2026-04-18T10:36:21.36Z</time></trkpt><trkpt lat="39.2721761" lon="9.3972721"><ele>652.0</ele><time>2026-04-18T10:36:24.353Z</time></trkpt><trkpt lat="39.2721559" lon="9.3973578"><ele>652.0</ele><time>2026-04-18T10:36:29.364Z</time></trkpt><trkpt lat="39.2721291" lon="9.397458"><ele>652.0</ele><time>2026-04-18T10:37:35.354Z</time></trkpt><trkpt lat="39.2720617" lon="9.3976027"><ele>652.0</ele><time>2026-04-18T10:37:37.364Z</time></trkpt><trkpt lat="39.2720149" lon="9.3976968"><ele>652.0</ele><time>2026-04-18T10:37:38.35Z</time></trkpt><trkpt lat="39.2719701" lon="9.3977897"><ele>652.0</ele><time>2026-04-18T10:37:39.363Z</time></trkpt><trkpt lat="39.271935" lon="9.3978923"><ele>652.0</ele><time>2026-04-18T10:37:40.368Z</time></trkpt><trkpt lat="39.2719163" lon="9.3980168"><ele>652.0</ele><time>2026-04-18T10:37:41.354Z</time></trkpt><trkpt lat="39.2719056" lon="9.3981564"><ele>652.0</ele><time>2026-04-18T10:37:42.354Z</time></trkpt><trkpt lat="39.2718882" lon="9.3982922"><ele>652.0</ele><time>2026-04-18T10:37:43.356Z</time></trkpt><trkpt lat="39.2718801" lon="9.3984202"><ele>651.4000000000001</ele><time>2026-04-18T10:37:44.382Z</time></trkpt><trkpt lat="39.2718668" lon="9.3985501"><ele>650.8000000000001</ele><time>2026-04-18T10:37:45.37Z</time></trkpt><trkpt lat="39.2718964" lon="9.3986948"><ele>650.2</ele><time>2026-04-18T10:37:46.381Z</time></trkpt><trkpt lat="39.271937" lon="9.3988327"><ele>649.6</ele><time>2026-04-18T10:37:47.366Z</time></trkpt><trkpt lat="39.2719846" lon="9.3989593"><ele>649.0</ele><time>2026-04-18T10:37:48.363Z</time></trkpt><trkpt lat="39.2720355" lon="9.3990583"><ele>649.0</ele><time>2026-04-18T10:37:49.355Z</time></trkpt><trkpt lat="39.2720906" lon="9.3991259"><ele>649.0</ele><time>2026-04-18T10:37:50.36Z</time></trkpt><trkpt lat="39.2721466" lon="9.3991717"><ele>649.0</ele><time>2026-04-18T10:37:51.364Z</time></trkpt><trkpt lat="39.2722256" lon="9.3992394"><ele>649.0</ele><time>2026-04-18T10:37:53.356Z</time></trkpt><trkpt lat="39.272269" lon="9.3993007"><ele>649.0</ele><time>2026-04-18T10:37:55.36Z</time></trkpt><trkpt lat="39.2723274" lon="9.3993915"><ele>649.0</ele><time>2026-04-18T10:37:57.356Z</time></trkpt><trkpt lat="39.272374" lon="9.3994657"><ele>649.0</ele><time>2026-04-18T10:37:58.354Z</time></trkpt><trkpt lat="39.2724244" lon="9.3995625"><ele>649.0</ele><time>2026-04-18T10:37:59.363Z</time></trkpt><trkpt lat="39.2724722" lon="9.3996688"><ele>649.0</ele><time>2026-04-18T10:38:00.371Z</time></trkpt><trkpt lat="39.2725227" lon="9.3997798"><ele>649.0</ele><time>2026-04-18T10:38:01.358Z</time></trkpt><trkpt lat="39.2726048" lon="9.3998772"><ele>649.0</ele><time>2026-04-18T10:38:02.354Z</time></trkpt><trkpt lat="39.2726938" lon="9.3999781"><ele>649.25</ele><time>2026-04-18T10:38:03.369Z</time></trkpt><trkpt lat="39.2727955" lon="9.4000632"><ele>649.5</ele><time>2026-04-18T10:38:04.352Z</time></trkpt><trkpt lat="39.2729021" lon="9.4001229"><ele>649.75</ele><time>2026-04-18T10:38:05.367Z</time></trkpt><trkpt lat="39.2730206" lon="9.4001659"><ele>650.0</ele><time>2026-04-18T10:38:06.355Z</time></trkpt><trkpt lat="39.2731389" lon="9.4002101"><ele>651.2</ele><time>2026-04-18T10:38:07.375Z</time></trkpt><trkpt lat="39.2732345" lon="9.4002878"><ele>652.4</ele><time>2026-04-18T10:38:08.364Z</time></trkpt><trkpt lat="39.2733227" lon="9.4003627"><ele>653.5999999999999</ele><time>2026-04-18T10:38:09.36Z</time></trkpt><trkpt lat="39.2733914" lon="9.4004641"><ele>654.8</ele><time>2026-04-18T10:38:10.359Z</time></trkpt><trkpt lat="39.273449" lon="9.4005795"><ele>656.0</ele><time>2026-04-18T10:38:11.367Z</time></trkpt><trkpt lat="39.2734703" lon="9.4007004"><ele>656.0</ele><time>2026-04-18T10:38:12.365Z</time></trkpt><trkpt lat="39.2734659" lon="9.4008257"><ele>656.0</ele><time>2026-04-18T10:38:13.357Z</time></trkpt><trkpt lat="39.2734667" lon="9.4009592"><ele>656.0</ele><time>2026-04-18T10:38:14.347Z</time></trkpt><trkpt lat="39.2734821" lon="9.4010873"><ele>656.0</ele><time>2026-04-18T10:38:15.36Z</time></trkpt><trkpt lat="39.2735176" lon="9.4011941"><ele>656.0</ele><time>2026-04-18T10:38:16.355Z</time></trkpt><trkpt lat="39.273557" lon="9.4012985"><ele>658.0</ele><time>2026-04-18T10:38:17.355Z</time></trkpt><trkpt lat="39.2736257" lon="9.4013986"><ele>660.0</ele><time>2026-04-18T10:38:18.371Z</time></trkpt><trkpt lat="39.2736962" lon="9.4015089"><ele>662.0</ele><time>2026-04-18T10:38:19.365Z</time></trkpt><trkpt lat="39.2737578" lon="9.4016284"><ele>664.0</ele><time>2026-04-18T10:38:20.363Z</time></trkpt><trkpt lat="39.2738198" lon="9.4017468"><ele>666.0</ele><time>2026-04-18T10:38:21.367Z</time></trkpt><trkpt lat="39.2738745" lon="9.4018584"><ele>666.0</ele><time>2026-04-18T10:38:22.36Z</time></trkpt><trkpt lat="39.2739233" lon="9.4019609"><ele>666.0</ele><time>2026-04-18T10:38:23.367Z</time></trkpt><trkpt lat="39.2739425" lon="9.4020551"><ele>666.0</ele><time>2026-04-18T10:38:24.361Z</time></trkpt><trkpt lat="39.273948" lon="9.4021983"><ele>666.0</ele><time>2026-04-18T10:38:26.349Z</time></trkpt><trkpt lat="39.2739521" lon="9.4022843"><ele>666.0</ele><time>2026-04-18T10:38:27.355Z</time></trkpt><trkpt lat="39.2739655" lon="9.4023731"><ele>666.0</ele><time>2026-04-18T10:38:28.362Z</time></trkpt><trkpt lat="39.2739834" lon="9.4024677"><ele>667.0</ele><time>2026-04-18T10:38:29.36Z</time></trkpt><trkpt lat="39.2740166" lon="9.4025768"><ele>668.0</ele><time>2026-04-18T10:38:30.345Z</time></trkpt><trkpt lat="39.2740482" lon="9.4026853"><ele>669.0</ele><time>2026-04-18T10:38:31.364Z</time></trkpt><trkpt lat="39.2740866" lon="9.402786"><ele>670.0</ele><time>2026-04-18T10:38:32.358Z</time></trkpt><trkpt lat="39.2741228" lon="9.4028912"><ele>671.0</ele><time>2026-04-18T10:38:33.37Z</time></trkpt><trkpt lat="39.2741736" lon="9.4029912"><ele>672.0</ele><time>2026-04-18T10:38:34.382Z</time></trkpt><trkpt lat="39.2742076" lon="9.4031031"><ele>674.6</ele><time>2026-04-18T10:38:35.385Z</time></trkpt><trkpt lat="39.2742334" lon="9.4032245"><ele>677.2</ele><time>2026-04-18T10:38:36.364Z</time></trkpt><trkpt lat="39.2742597" lon="9.4033428"><ele>679.8</ele><time>2026-04-18T10:38:37.364Z</time></trkpt><trkpt lat="39.2742727" lon="9.4034637"><ele>682.4</ele><time>2026-04-18T10:38:38.355Z</time></trkpt><trkpt lat="39.2742835" lon="9.4035932"><ele>685.0</ele><time>2026-04-18T10:38:39.36Z</time></trkpt><trkpt lat="39.2742927" lon="9.4037245"><ele>687.0</ele><time>2026-04-18T10:38:40.367Z</time></trkpt><trkpt lat="39.2743035" lon="9.4038416"><ele>689.0</ele><time>2026-04-18T10:38:41.369Z</time></trkpt><trkpt lat="39.2743269" lon="9.4039536"><ele>691.0</ele><time>2026-04-18T10:38:42.362Z</time></trkpt><trkpt lat="39.2743716" lon="9.4040557"><ele>693.0</ele><time>2026-04-18T10:38:43.369Z</time></trkpt><trkpt lat="39.2744201" lon="9.4041738"><ele>695.0</ele><time>2026-04-18T10:38:44.356Z</time></trkpt><trkpt lat="39.2744496" lon="9.4043074"><ele>695.0</ele><time>2026-04-18T10:38:45.361Z</time></trkpt><trkpt lat="39.2744663" lon="9.4044346"><ele>695.0</ele><time>2026-04-18T10:38:46.36Z</time></trkpt><trkpt lat="39.2744781" lon="9.4045604"><ele>695.0</ele><time>2026-04-18T10:38:47.357Z</time></trkpt><trkpt lat="39.2744777" lon="9.4046906"><ele>695.0</ele><time>2026-04-18T10:38:48.356Z</time></trkpt><trkpt lat="39.274479" lon="9.4048352"><ele>695.0</ele><time>2026-04-18T10:38:49.357Z</time></trkpt><trkpt lat="39.2744729" lon="9.4049674"><ele>696.6</ele><time>2026-04-18T10:38:50.356Z</time></trkpt><trkpt lat="39.2744506" lon="9.4050958"><ele>698.2</ele><time>2026-04-18T10:38:51.357Z</time></trkpt><trkpt lat="39.2744226" lon="9.4052275"><ele>699.8</ele><time>2026-04-18T10:38:52.371Z</time></trkpt><trkpt lat="39.2743972" lon="9.4053576"><ele>701.4</ele><time>2026-04-18T10:38:53.36Z</time></trkpt><trkpt lat="39.2743788" lon="9.4054816"><ele>703.0</ele><time>2026-04-18T10:38:54.353Z</time></trkpt><trkpt lat="39.2743504" lon="9.4056021"><ele>703.5999999999999</ele><time>2026-04-18T10:38:55.363Z</time></trkpt><trkpt lat="39.2743106" lon="9.4057207"><ele>704.1999999999999</ele><time>2026-04-18T10:38:56.355Z</time></trkpt><trkpt lat="39.2742754" lon="9.4058474"><ele>704.8</ele><time>2026-04-18T10:38:57.35Z</time></trkpt><trkpt lat="39.274246" lon="9.4059893"><ele>705.4</ele><time>2026-04-18T10:38:58.361Z</time></trkpt><trkpt lat="39.2742246" lon="9.4061366"><ele>706.0</ele><time>2026-04-18T10:38:59.367Z</time></trkpt><trkpt lat="39.2741974" lon="9.4062652"><ele>705.3333333333334</ele><time>2026-04-18T10:39:00.375Z</time></trkpt><trkpt lat="39.2741639" lon="9.4063615"><ele>704.6666666666667</ele><time>2026-04-18T10:39:01.357Z</time></trkpt><trkpt lat="39.2741318" lon="9.4064348"><ele>704.0</ele><time>2026-04-18T10:39:02.36Z</time></trkpt><trkpt lat="39.2741278" lon="9.4065477"><ele>703.3333333333334</ele><time>2026-04-18T10:39:04.352Z</time></trkpt><trkpt lat="39.2741322" lon="9.4066354"><ele>702.6666666666666</ele><time>2026-04-18T10:39:06.36Z</time></trkpt><trkpt lat="39.2740857" lon="9.4068137"><ele>702.0</ele><time>2026-04-18T10:39:08.359Z</time></trkpt><trkpt lat="39.2740356" lon="9.4069092"><ele>702.0</ele><time>2026-04-18T10:39:09.358Z</time></trkpt><trkpt lat="39.2739727" lon="9.4070024"><ele>702.0</ele><time>2026-04-18T10:39:10.365Z</time></trkpt><trkpt lat="39.2738884" lon="9.4070934"><ele>702.0</ele><time>2026-04-18T10:39:11.356Z</time></trkpt><trkpt lat="39.2738041" lon="9.4071918"><ele>702.0</ele><time>2026-04-18T10:39:12.364Z</time></trkpt><trkpt lat="39.273722" lon="9.407294"><ele>702.0</ele><time>2026-04-18T10:39:13.352Z</time></trkpt><trkpt lat="39.2736478" lon="9.4074038"><ele>705.0</ele><time>2026-04-18T10:39:14.353Z</time></trkpt><trkpt lat="39.2735811" lon="9.4075097"><ele>708.0</ele><time>2026-04-18T10:39:15.356Z</time></trkpt><trkpt lat="39.2735211" lon="9.4076141"><ele>711.0</ele><time>2026-04-18T10:39:16.358Z</time></trkpt><trkpt lat="39.2734739" lon="9.407725"><ele>714.0</ele><time>2026-04-18T10:39:17.38Z</time></trkpt><trkpt lat="39.2734367" lon="9.4078443"><ele>717.0</ele><time>2026-04-18T10:39:18.361Z</time></trkpt><trkpt lat="39.2733989" lon="9.4079605"><ele>712.0</ele><time>2026-04-18T10:39:19.364Z</time></trkpt><trkpt lat="39.2733564" lon="9.4080812"><ele>707.0</ele><time>2026-04-18T10:39:20.38Z</time></trkpt><trkpt lat="39.2733235" lon="9.4082377"><ele>702.0</ele><time>2026-04-18T10:39:21.354Z</time></trkpt><trkpt lat="39.2732816" lon="9.4083882"><ele>697.0</ele><time>2026-04-18T10:39:22.381Z</time></trkpt><trkpt lat="39.2732417" lon="9.4085193"><ele>697.0</ele><time>2026-04-18T10:39:23.366Z</time></trkpt><trkpt lat="39.2732013" lon="9.4086366"><ele>697.0</ele><time>2026-04-18T10:39:24.379Z</time></trkpt><trkpt lat="39.2731661" lon="9.4087445"><ele>697.0</ele><time>2026-04-18T10:39:25.362Z</time></trkpt><trkpt lat="39.2731286" lon="9.4088347"><ele>697.0</ele><time>2026-04-18T10:39:26.363Z</time></trkpt><trkpt lat="39.2730937" lon="9.4089367"><ele>697.0</ele><time>2026-04-18T10:39:27.361Z</time></trkpt><trkpt lat="39.2730514" lon="9.409052"><ele>699.0</ele><time>2026-04-18T10:39:28.361Z</time></trkpt><trkpt lat="39.2729912" lon="9.409154"><ele>701.0</ele><time>2026-04-18T10:39:29.357Z</time></trkpt><trkpt lat="39.2729146" lon="9.4092602"><ele>703.0</ele><time>2026-04-18T10:39:30.359Z</time></trkpt><trkpt lat="39.2728288" lon="9.4093429"><ele>705.0</ele><time>2026-04-18T10:39:31.36Z</time></trkpt><trkpt lat="39.2727413" lon="9.4094017"><ele>707.0</ele><time>2026-04-18T10:39:32.353Z</time></trkpt><trkpt lat="39.2726641" lon="9.4094497"><ele>707.0</ele><time>2026-04-18T10:39:33.35Z</time></trkpt><trkpt lat="39.2725876" lon="9.4094877"><ele>707.0</ele><time>2026-04-18T10:39:34.354Z</time></trkpt><trkpt lat="39.2725244" lon="9.4095287"><ele>707.0</ele><time>2026-04-18T10:39:35.355Z</time></trkpt><trkpt lat="39.2724396" lon="9.4095651"><ele>707.0</ele><time>2026-04-18T10:39:36.364Z</time></trkpt><trkpt lat="39.2723552" lon="9.4095947"><ele>707.0</ele><time>2026-04-18T10:39:37.36Z</time></trkpt><trkpt lat="39.2722732" lon="9.4096241"><ele>707.0</ele><time>2026-04-18T10:39:38.357Z</time></trkpt><trkpt lat="39.2721925" lon="9.4096505"><ele>707.6</ele><time>2026-04-18T10:39:39.353Z</time></trkpt><trkpt lat="39.2721292" lon="9.4096762"><ele>708.2</ele><time>2026-04-18T10:39:40.365Z</time></trkpt><trkpt lat="39.2720451" lon="9.4098191"><ele>708.8</ele><time>2026-04-18T10:39:42.361Z</time></trkpt><trkpt lat="39.2720138" lon="9.4099449"><ele>709.4</ele><time>2026-04-18T10:39:43.357Z</time></trkpt><trkpt lat="39.271966" lon="9.4100777"><ele>710.0</ele><time>2026-04-18T10:39:44.355Z</time></trkpt><trkpt lat="39.271912" lon="9.4101888"><ele>710.0</ele><time>2026-04-18T10:39:45.356Z</time></trkpt><trkpt lat="39.2718591" lon="9.4102875"><ele>710.0</ele><time>2026-04-18T10:39:46.36Z</time></trkpt><trkpt lat="39.2717888" lon="9.4103748"><ele>710.0</ele><time>2026-04-18T10:39:47.356Z</time></trkpt><trkpt lat="39.2717306" lon="9.4104362"><ele>710.0</ele><time>2026-04-18T10:39:48.356Z</time></trkpt><trkpt lat="39.2716822" lon="9.410523"><ele>710.0</ele><time>2026-04-18T10:39:49.364Z</time></trkpt><trkpt lat="39.2716411" lon="9.4106296"><ele>710.0</ele><time>2026-04-18T10:39:50.347Z</time></trkpt><trkpt lat="39.2715941" lon="9.4107259"><ele>710.4</ele><time>2026-04-18T10:39:51.355Z</time></trkpt><trkpt lat="39.2715496" lon="9.4108173"><ele>710.8</ele><time>2026-04-18T10:39:52.361Z</time></trkpt><trkpt lat="39.2714956" lon="9.4109078"><ele>711.2</ele><time>2026-04-18T10:39:53.348Z</time></trkpt><trkpt lat="39.2714268" lon="9.4109742"><ele>711.6</ele><time>2026-04-18T10:39:54.36Z</time></trkpt><trkpt lat="39.2713427" lon="9.4110468"><ele>712.0</ele><time>2026-04-18T10:39:55.363Z</time></trkpt><trkpt lat="39.2712568" lon="9.4111319"><ele>712.0</ele><time>2026-04-18T10:39:56.356Z</time></trkpt><trkpt lat="39.2711737" lon="9.4112311"><ele>712.0</ele><time>2026-04-18T10:39:57.364Z</time></trkpt><trkpt lat="39.2710969" lon="9.4113098"><ele>712.0</ele><time>2026-04-18T10:39:58.357Z</time></trkpt><trkpt lat="39.2710242" lon="9.4113578"><ele>712.0</ele><time>2026-04-18T10:39:59.361Z</time></trkpt><trkpt lat="39.2709528" lon="9.4114036"><ele>712.0</ele><time>2026-04-18T10:40:00.368Z</time></trkpt><trkpt lat="39.2708655" lon="9.4114214"><ele>711.8333333333334</ele><time>2026-04-18T10:40:01.355Z</time></trkpt><trkpt lat="39.2707852" lon="9.4114376"><ele>711.6666666666667</ele><time>2026-04-18T10:40:02.35Z</time></trkpt><trkpt lat="39.2707186" lon="9.4114505"><ele>711.5</ele><time>2026-04-18T10:40:03.36Z</time></trkpt><trkpt lat="39.2706558" lon="9.4114586"><ele>711.3333333333334</ele><time>2026-04-18T10:40:04.358Z</time></trkpt><trkpt lat="39.2705414" lon="9.4114651"><ele>711.1666666666666</ele><time>2026-04-18T10:40:06.351Z</time></trkpt><trkpt lat="39.2704753" lon="9.4115711"><ele>711.0</ele><time>2026-04-18T10:40:08.364Z</time></trkpt><trkpt lat="39.2704578" lon="9.4116621"><ele>711.0</ele><time>2026-04-18T10:40:09.374Z</time></trkpt><trkpt lat="39.2704341" lon="9.4117655"><ele>711.0</ele><time>2026-04-18T10:40:10.373Z</time></trkpt><trkpt lat="39.2703907" lon="9.411873"><ele>711.0</ele><time>2026-04-18T10:40:11.375Z</time></trkpt><trkpt lat="39.2703394" lon="9.4119799"><ele>711.0</ele><time>2026-04-18T10:40:12.362Z</time></trkpt><trkpt lat="39.2702774" lon="9.4120905"><ele>711.0</ele><time>2026-04-18T10:40:13.358Z</time></trkpt><trkpt lat="39.2702183" lon="9.4121944"><ele>708.0</ele><time>2026-04-18T10:40:14.362Z</time></trkpt><trkpt lat="39.2701483" lon="9.4122602"><ele>705.0</ele><time>2026-04-18T10:40:15.36Z</time></trkpt><trkpt lat="39.2700627" lon="9.4123021"><ele>702.0</ele><time>2026-04-18T10:40:16.349Z</time></trkpt><trkpt lat="39.2699692" lon="9.4123447"><ele>699.0</ele><time>2026-04-18T10:40:17.356Z</time></trkpt><trkpt lat="39.2698754" lon="9.4123939"><ele>696.0</ele><time>2026-04-18T10:40:18.351Z</time></trkpt><trkpt lat="39.2697873" lon="9.4124326"><ele>700.0</ele><time>2026-04-18T10:40:19.357Z</time></trkpt><trkpt lat="39.2697131" lon="9.4124614"><ele>704.0</ele><time>2026-04-18T10:40:20.348Z</time></trkpt><trkpt lat="39.269625" lon="9.4125051"><ele>708.0</ele><time>2026-04-18T10:40:22.348Z</time></trkpt><trkpt lat="39.2696232" lon="9.4126509"><ele>712.0</ele><time>2026-04-18T10:40:25.351Z</time></trkpt><trkpt lat="39.2696955" lon="9.4127618"><ele>716.0</ele><time>2026-04-18T10:40:26.357Z</time></trkpt><trkpt lat="39.2697585" lon="9.4128957"><ele>711.8</ele><time>2026-04-18T10:40:27.38Z</time></trkpt><trkpt lat="39.269817" lon="9.4130198"><ele>707.5999999999999</ele><time>2026-04-18T10:40:28.36Z</time></trkpt><trkpt lat="39.2698634" lon="9.4131278"><ele>703.4</ele><time>2026-04-18T10:40:29.358Z</time></trkpt><trkpt lat="39.2698813" lon="9.4132475"><ele>699.2</ele><time>2026-04-18T10:40:30.35Z</time></trkpt><trkpt lat="39.2698596" lon="9.4133782"><ele>695.0</ele><time>2026-04-18T10:40:31.344Z</time></trkpt><trkpt lat="39.2698352" lon="9.4135366"><ele>695.0</ele><time>2026-04-18T10:40:32.362Z</time></trkpt><trkpt lat="39.2697978" lon="9.4136976"><ele>695.0</ele><time>2026-04-18T10:40:33.359Z</time></trkpt><trkpt lat="39.2697599" lon="9.4138537"><ele>695.0</ele><time>2026-04-18T10:40:34.354Z</time></trkpt><trkpt lat="39.2697183" lon="9.4140024"><ele>695.0</ele><time>2026-04-18T10:40:35.353Z</time></trkpt><trkpt lat="39.2696823" lon="9.4141478"><ele>695.0</ele><time>2026-04-18T10:40:36.359Z</time></trkpt><trkpt lat="39.2696405" lon="9.4142848"><ele>695.0</ele><time>2026-04-18T10:40:37.364Z</time></trkpt><trkpt lat="39.2695872" lon="9.4144157"><ele>695.0</ele><time>2026-04-18T10:40:38.351Z</time></trkpt><trkpt lat="39.2695344" lon="9.414528"><ele>695.0</ele><time>2026-04-18T10:40:39.36Z</time></trkpt><trkpt lat="39.2694856" lon="9.4146235"><ele>695.0</ele><time>2026-04-18T10:40:40.359Z</time></trkpt><trkpt lat="39.2694414" lon="9.4147085"><ele>695.0</ele><time>2026-04-18T10:40:41.349Z</time></trkpt><trkpt lat="39.2693677" lon="9.4147487"><ele>695.0</ele><time>2026-04-18T10:40:42.347Z</time></trkpt><trkpt lat="39.2692882" lon="9.4147889"><ele>695.0</ele><time>2026-04-18T10:40:43.362Z</time></trkpt><trkpt lat="39.2692005" lon="9.4147935"><ele>695.0</ele><time>2026-04-18T10:40:44.361Z</time></trkpt><trkpt lat="39.2691102" lon="9.4148013"><ele>695.0</ele><time>2026-04-18T10:40:45.356Z</time></trkpt><trkpt lat="39.2690162" lon="9.4148301"><ele>695.0</ele><time>2026-04-18T10:40:46.364Z</time></trkpt><trkpt lat="39.2689043" lon="9.4148989"><ele>699.75</ele><time>2026-04-18T10:40:47.369Z</time></trkpt><trkpt lat="39.2687941" lon="9.4149672"><ele>704.5</ele><time>2026-04-18T10:40:48.364Z</time></trkpt><trkpt lat="39.2686892" lon="9.4150633"><ele>709.25</ele><time>2026-04-18T10:40:49.364Z</time></trkpt><trkpt lat="39.2685906" lon="9.4151547"><ele>714.0</ele><time>2026-04-18T10:40:50.364Z</time></trkpt><trkpt lat="39.2685134" lon="9.4152597"><ele>714.0</ele><time>2026-04-18T10:40:51.363Z</time></trkpt><trkpt lat="39.2684604" lon="9.4153596"><ele>714.0</ele><time>2026-04-18T10:40:52.356Z</time></trkpt><trkpt lat="39.268398" lon="9.415425"><ele>714.0</ele><time>2026-04-18T10:40:53.36Z</time></trkpt><trkpt lat="39.2683407" lon="9.415482"><ele>714.0</ele><time>2026-04-18T10:40:54.36Z</time></trkpt><trkpt lat="39.2682655" lon="9.4155147"><ele>714.0</ele><time>2026-04-18T10:40:55.359Z</time></trkpt><trkpt lat="39.2681852" lon="9.4155506"><ele>714.0</ele><time>2026-04-18T10:40:56.373Z</time></trkpt><trkpt lat="39.2681038" lon="9.4155918"><ele>709.0</ele><time>2026-04-18T10:40:57.37Z</time></trkpt><trkpt lat="39.2680235" lon="9.4156433"><ele>704.0</ele><time>2026-04-18T10:40:58.378Z</time></trkpt><trkpt lat="39.2679318" lon="9.4156717"><ele>699.0</ele><time>2026-04-18T10:40:59.394Z</time></trkpt><trkpt lat="39.2678359" lon="9.4156868"><ele>694.0</ele><time>2026-04-18T10:41:00.349Z</time></trkpt><trkpt lat="39.2677443" lon="9.4156885"><ele>689.0</ele><time>2026-04-18T10:41:01.354Z</time></trkpt><trkpt lat="39.2676591" lon="9.4156916"><ele>689.0</ele><time>2026-04-18T10:41:02.368Z</time></trkpt><trkpt lat="39.2675769" lon="9.415693"><ele>689.0</ele><time>2026-04-18T10:41:03.357Z</time></trkpt><trkpt lat="39.2674929" lon="9.4156994"><ele>689.0</ele><time>2026-04-18T10:41:04.359Z</time></trkpt><trkpt lat="39.2674107" lon="9.4157593"><ele>689.0</ele><time>2026-04-18T10:41:05.349Z</time></trkpt><trkpt lat="39.2673449" lon="9.4158393"><ele>689.0</ele><time>2026-04-18T10:41:06.367Z</time></trkpt><trkpt lat="39.2673028" lon="9.4159273"><ele>689.0</ele><time>2026-04-18T10:41:07.36Z</time></trkpt><trkpt lat="39.2672916" lon="9.4160286"><ele>689.0</ele><time>2026-04-18T10:41:08.363Z</time></trkpt><trkpt lat="39.2672985" lon="9.4161551"><ele>689.0</ele><time>2026-04-18T10:41:09.351Z</time></trkpt><trkpt lat="39.2673119" lon="9.4163028"><ele>689.0</ele><time>2026-04-18T10:41:10.356Z</time></trkpt><trkpt lat="39.2673127" lon="9.4164385"><ele>689.0</ele><time>2026-04-18T10:41:11.35Z</time></trkpt><trkpt lat="39.2672971" lon="9.4165696"><ele>689.0</ele><time>2026-04-18T10:41:12.346Z</time></trkpt><trkpt lat="39.2672826" lon="9.4167111"><ele>689.4000000000001</ele><time>2026-04-18T10:41:13.355Z</time></trkpt><trkpt lat="39.2672608" lon="9.4168496"><ele>689.8</ele><time>2026-04-18T10:41:14.36Z</time></trkpt><trkpt lat="39.2672145" lon="9.4169556"><ele>690.2</ele><time>2026-04-18T10:41:15.358Z</time></trkpt><trkpt lat="39.2671715" lon="9.4170571"><ele>690.5999999999999</ele><time>2026-04-18T10:41:16.357Z</time></trkpt><trkpt lat="39.2671261" lon="9.4171548"><ele>691.0</ele><time>2026-04-18T10:41:17.367Z</time></trkpt><trkpt lat="39.2670786" lon="9.4172707"><ele>691.0</ele><time>2026-04-18T10:41:18.354Z</time></trkpt><trkpt lat="39.2670361" lon="9.4173804"><ele>691.0</ele><time>2026-04-18T10:41:19.359Z</time></trkpt><trkpt lat="39.2669826" lon="9.4174973"><ele>691.0</ele><time>2026-04-18T10:41:20.348Z</time></trkpt><trkpt lat="39.26693" lon="9.4176139"><ele>691.0</ele><time>2026-04-18T10:41:21.352Z</time></trkpt><trkpt lat="39.2668772" lon="9.4177325"><ele>691.0</ele><time>2026-04-18T10:41:22.364Z</time></trkpt><trkpt lat="39.2668057" lon="9.4178418"><ele>691.0</ele><time>2026-04-18T10:41:23.375Z</time></trkpt><trkpt lat="39.2667331" lon="9.417942"><ele>691.0</ele><time>2026-04-18T10:41:24.368Z</time></trkpt><trkpt lat="39.2666631" lon="9.418042"><ele>691.0</ele><time>2026-04-18T10:41:25.356Z</time></trkpt><trkpt lat="39.2666098" lon="9.4181215"><ele>691.0</ele><time>2026-04-18T10:41:26.36Z</time></trkpt><trkpt lat="39.2665762" lon="9.4182093"><ele>691.0</ele><time>2026-04-18T10:41:27.373Z</time></trkpt><trkpt lat="39.2665741" lon="9.4183173"><ele>688.0</ele><time>2026-04-18T10:41:28.363Z</time></trkpt><trkpt lat="39.2665732" lon="9.418429"><ele>685.0</ele><time>2026-04-18T10:41:29.365Z</time></trkpt><trkpt lat="39.2666117" lon="9.4185431"><ele>682.0</ele><time>2026-04-18T10:41:30.349Z</time></trkpt><trkpt lat="39.2666804" lon="9.4186414"><ele>679.0</ele><time>2026-04-18T10:41:31.364Z</time></trkpt><trkpt lat="39.2667687" lon="9.418722"><ele>676.0</ele><time>2026-04-18T10:41:32.354Z</time></trkpt><trkpt lat="39.2668529" lon="9.4187984"><ele>676.8</ele><time>2026-04-18T10:41:33.354Z</time></trkpt><trkpt lat="39.2669333" lon="9.4188646"><ele>677.5999999999999</ele><time>2026-04-18T10:41:34.363Z</time></trkpt><trkpt lat="39.2670246" lon="9.418923"><ele>678.4</ele><time>2026-04-18T10:41:35.356Z</time></trkpt><trkpt lat="39.2671266" lon="9.4189871"><ele>679.2</ele><time>2026-04-18T10:41:36.363Z</time></trkpt><trkpt lat="39.2672363" lon="9.4190536"><ele>680.0</ele><time>2026-04-18T10:41:37.355Z</time></trkpt><trkpt lat="39.2673386" lon="9.4190961"><ele>680.0</ele><time>2026-04-18T10:41:38.358Z</time></trkpt><trkpt lat="39.267438" lon="9.4191334"><ele>680.0</ele><time>2026-04-18T10:41:39.357Z</time></trkpt><trkpt lat="39.2675329" lon="9.4191456"><ele>680.0</ele><time>2026-04-18T10:41:40.346Z</time></trkpt><trkpt lat="39.2676257" lon="9.4191616"><ele>680.0</ele><time>2026-04-18T10:41:41.359Z</time></trkpt><trkpt lat="39.2677123" lon="9.4191781"><ele>680.0</ele><time>2026-04-18T10:41:42.374Z</time></trkpt><trkpt lat="39.2678068" lon="9.4192367"><ele>680.0</ele><time>2026-04-18T10:41:43.364Z</time></trkpt><trkpt lat="39.267908" lon="9.4193116"><ele>680.0</ele><time>2026-04-18T10:41:44.372Z</time></trkpt><trkpt lat="39.2680142" lon="9.419375"><ele>680.0</ele><time>2026-04-18T10:41:45.386Z</time></trkpt><trkpt lat="39.2681379" lon="9.4194023"><ele>680.0</ele><time>2026-04-18T10:41:46.352Z</time></trkpt><trkpt lat="39.2682647" lon="9.4194184"><ele>679.0</ele><time>2026-04-18T10:41:47.357Z</time></trkpt><trkpt lat="39.2683847" lon="9.4194313"><ele>678.0</ele><time>2026-04-18T10:41:48.354Z</time></trkpt><trkpt lat="39.2684871" lon="9.4194561"><ele>677.0</ele><time>2026-04-18T10:41:49.359Z</time></trkpt><trkpt lat="39.2685779" lon="9.419492"><ele>676.0</ele><time>2026-04-18T10:41:50.367Z</time></trkpt><trkpt lat="39.2686662" lon="9.4195338"><ele>675.0</ele><time>2026-04-18T10:41:51.347Z</time></trkpt><trkpt lat="39.2687544" lon="9.4195995"><ele>677.0</ele><time>2026-04-18T10:41:52.355Z</time></trkpt><trkpt lat="39.2688427" lon="9.4196644"><ele>679.0</ele><time>2026-04-18T10:41:53.351Z</time></trkpt><trkpt lat="39.2689108" lon="9.4197307"><ele>681.0</ele><time>2026-04-18T10:41:54.361Z</time></trkpt><trkpt lat="39.2689709" lon="9.4197928"><ele>683.0</ele><time>2026-04-18T10:41:55.347Z</time></trkpt><trkpt lat="39.2690209" lon="9.4198493"><ele>685.0</ele><time>2026-04-18T10:41:56.352Z</time></trkpt><trkpt lat="39.2690719" lon="9.4199124"><ele>687.0</ele><time>2026-04-18T10:41:57.358Z</time></trkpt><trkpt lat="39.269119" lon="9.4200196"><ele>687.0</ele><time>2026-04-18T10:41:58.354Z</time></trkpt><trkpt lat="39.2691387" lon="9.4201667"><ele>687.0</ele><time>2026-04-18T10:41:59.372Z</time></trkpt><trkpt lat="39.2691585" lon="9.4203264"><ele>687.0</ele><time>2026-04-18T10:42:00.357Z</time></trkpt><trkpt lat="39.2691844" lon="9.4204837"><ele>687.0</ele><time>2026-04-18T10:42:01.357Z</time></trkpt><trkpt lat="39.2692069" lon="9.4206262"><ele>688.4000000000001</ele><time>2026-04-18T10:42:02.354Z</time></trkpt><trkpt lat="39.269196" lon="9.4207399"><ele>689.8000000000001</ele><time>2026-04-18T10:42:03.358Z</time></trkpt><trkpt lat="39.2691588" lon="9.4208535"><ele>691.2</ele><time>2026-04-18T10:42:04.356Z</time></trkpt><trkpt lat="39.2691194" lon="9.4209686"><ele>692.6</ele><time>2026-04-18T10:42:05.358Z</time></trkpt><trkpt lat="39.2690809" lon="9.4210781"><ele>694.0</ele><time>2026-04-18T10:42:06.355Z</time></trkpt><trkpt lat="39.2690429" lon="9.4211995"><ele>693.75</ele><time>2026-04-18T10:42:07.351Z</time></trkpt><trkpt lat="39.2690307" lon="9.4213627"><ele>693.5</ele><time>2026-04-18T10:42:08.357Z</time></trkpt><trkpt lat="39.2690219" lon="9.4215293"><ele>693.25</ele><time>2026-04-18T10:42:09.358Z</time></trkpt><trkpt lat="39.2690107" lon="9.4216835"><ele>693.0</ele><time>2026-04-18T10:42:10.355Z</time></trkpt><trkpt lat="39.269001" lon="9.4218276"><ele>693.0</ele><time>2026-04-18T10:42:11.36Z</time></trkpt><trkpt lat="39.2689926" lon="9.421956"><ele>693.0</ele><time>2026-04-18T10:42:12.356Z</time></trkpt><trkpt lat="39.2689738" lon="9.4220658"><ele>693.0</ele><time>2026-04-18T10:42:13.364Z</time></trkpt><trkpt lat="39.2689595" lon="9.4221651"><ele>693.0</ele><time>2026-04-18T10:42:14.353Z</time></trkpt><trkpt lat="39.2689471" lon="9.4222593"><ele>693.0</ele><time>2026-04-18T10:42:15.35Z</time></trkpt><trkpt lat="39.2689575" lon="9.4223446"><ele>693.0</ele><time>2026-04-18T10:42:16.351Z</time></trkpt><trkpt lat="39.2690319" lon="9.4224154"><ele>694.5</ele><time>2026-04-18T10:42:17.361Z</time></trkpt><trkpt lat="39.2691427" lon="9.4224684"><ele>696.0</ele><time>2026-04-18T10:42:18.356Z</time></trkpt><trkpt lat="39.2692696" lon="9.4225131"><ele>697.5</ele><time>2026-04-18T10:42:19.363Z</time></trkpt><trkpt lat="39.269403" lon="9.4225285"><ele>699.0</ele><time>2026-04-18T10:42:20.355Z</time></trkpt><trkpt lat="39.2695371" lon="9.4225476"><ele>699.0</ele><time>2026-04-18T10:42:21.362Z</time></trkpt><trkpt lat="39.2696447" lon="9.4225671"><ele>699.0</ele><time>2026-04-18T10:42:22.362Z</time></trkpt><trkpt lat="39.2697317" lon="9.4225982"><ele>699.0</ele><time>2026-04-18T10:42:23.353Z</time></trkpt><trkpt lat="39.2697956" lon="9.4226817"><ele>699.0</ele><time>2026-04-18T10:42:24.363Z</time></trkpt><trkpt lat="39.2698327" lon="9.4227935"><ele>699.0</ele><time>2026-04-18T10:42:25.358Z</time></trkpt><trkpt lat="39.2698448" lon="9.4229172"><ele>700.8333333333334</ele><time>2026-04-18T10:42:26.368Z</time></trkpt><trkpt lat="39.2698404" lon="9.4230408"><ele>702.6666666666666</ele><time>2026-04-18T10:42:27.384Z</time></trkpt><trkpt lat="39.2698358" lon="9.4231578"><ele>704.5</ele><time>2026-04-18T10:42:28.364Z</time></trkpt><trkpt lat="39.2698244" lon="9.4232622"><ele>706.3333333333333</ele><time>2026-04-18T10:42:29.375Z</time></trkpt><trkpt lat="39.2698175" lon="9.4233637"><ele>708.1666666666666</ele><time>2026-04-18T10:42:30.401Z</time></trkpt><trkpt lat="39.2698398" lon="9.4234728"><ele>710.0</ele><time>2026-04-18T10:42:31.357Z</time></trkpt><trkpt lat="39.2698825" lon="9.4235837"><ele>710.0</ele><time>2026-04-18T10:42:32.363Z</time></trkpt><trkpt lat="39.2699083" lon="9.4236993"><ele>710.0</ele><time>2026-04-18T10:42:33.368Z</time></trkpt><trkpt lat="39.2699371" lon="9.4238119"><ele>710.0</ele><time>2026-04-18T10:42:34.353Z</time></trkpt><trkpt lat="39.2699589" lon="9.4239294"><ele>710.0</ele><time>2026-04-18T10:42:35.372Z</time></trkpt><trkpt lat="39.2699795" lon="9.4240463"><ele>710.0</ele><time>2026-04-18T10:42:36.352Z</time></trkpt><trkpt lat="39.269963" lon="9.4241678"><ele>709.4</ele><time>2026-04-18T10:42:37.359Z</time></trkpt><trkpt lat="39.2699285" lon="9.42429"><ele>708.8</ele><time>2026-04-18T10:42:38.364Z</time></trkpt><trkpt lat="39.2698854" lon="9.4244149"><ele>708.2</ele><time>2026-04-18T10:42:39.365Z</time></trkpt><trkpt lat="39.2698415" lon="9.424542"><ele>707.6</ele><time>2026-04-18T10:42:40.352Z</time></trkpt><trkpt lat="39.2697992" lon="9.424679"><ele>707.0</ele><time>2026-04-18T10:42:41.354Z</time></trkpt><trkpt lat="39.26977" lon="9.4248318"><ele>709.6</ele><time>2026-04-18T10:42:42.364Z</time></trkpt><trkpt lat="39.2697401" lon="9.424986"><ele>712.2</ele><time>2026-04-18T10:42:43.362Z</time></trkpt><trkpt lat="39.2696996" lon="9.425098"><ele>714.8</ele><time>2026-04-18T10:42:44.361Z</time></trkpt><trkpt lat="39.2696594" lon="9.4252079"><ele>717.4</ele><time>2026-04-18T10:42:45.363Z</time></trkpt><trkpt lat="39.2696296" lon="9.4253147"><ele>720.0</ele><time>2026-04-18T10:42:46.368Z</time></trkpt><trkpt lat="39.2696129" lon="9.4254464"><ele>719.6</ele><time>2026-04-18T10:42:47.377Z</time></trkpt><trkpt lat="39.2696034" lon="9.4255641"><ele>719.2</ele><time>2026-04-18T10:42:48.355Z</time></trkpt><trkpt lat="39.2696025" lon="9.4256687"><ele>718.8</ele><time>2026-04-18T10:42:49.351Z</time></trkpt><trkpt lat="39.2696357" lon="9.425776"><ele>718.4</ele><time>2026-04-18T10:42:50.346Z</time></trkpt><trkpt lat="39.269694" lon="9.4258857"><ele>718.0</ele><time>2026-04-18T10:42:51.363Z</time></trkpt><trkpt lat="39.2697495" lon="9.4259917"><ele>715.3333333333334</ele><time>2026-04-18T10:42:52.373Z</time></trkpt><trkpt lat="39.2697948" lon="9.4261038"><ele>712.6666666666667</ele><time>2026-04-18T10:42:53.351Z</time></trkpt><trkpt lat="39.2698359" lon="9.4262183"><ele>710.0</ele><time>2026-04-18T10:42:54.349Z</time></trkpt><trkpt lat="39.2698587" lon="9.4263274"><ele>707.3333333333334</ele><time>2026-04-18T10:42:55.362Z</time></trkpt><trkpt lat="39.2698858" lon="9.4264222"><ele>704.6666666666666</ele><time>2026-04-18T10:42:56.367Z</time></trkpt><trkpt lat="39.2699079" lon="9.4265092"><ele>702.0</ele><time>2026-04-18T10:42:57.363Z</time></trkpt><trkpt lat="39.2699276" lon="9.4266557"><ele>702.0000000000001</ele><time>2026-04-18T10:42:59.355Z</time></trkpt><trkpt lat="39.2699406" lon="9.4267549"><ele>702.0</ele><time>2026-04-18T10:43:01.358Z</time></trkpt><trkpt lat="39.2699678" lon="9.4268372"><ele>702.0</ele><time>2026-04-18T10:47:27.373Z</time></trkpt><trkpt lat="39.270009" lon="9.4269052"><ele>702.0</ele><time>2026-04-18T10:47:30.376Z</time></trkpt><trkpt lat="39.2700317" lon="9.4269877"><ele>702.0</ele><time>2026-04-18T10:54:30.359Z</time></trkpt><trkpt lat="39.2700632" lon="9.4269136"><ele>702.0000000000001</ele><time>2026-04-18T10:54:33.369Z</time></trkpt><trkpt lat="39.2700457" lon="9.4268327"><ele>702.0</ele><time>2026-04-18T10:54:35.365Z</time></trkpt><trkpt lat="39.2700189" lon="9.4267445"><ele>702.0000000000001</ele><time>2026-04-18T10:54:37.354Z</time></trkpt><trkpt lat="39.2699808" lon="9.4266706"><ele>702.0</ele><time>2026-04-18T10:54:39.363Z</time></trkpt><trkpt lat="39.269952" lon="9.426593"><ele>702.0</ele><time>2026-04-18T10:54:41.372Z</time></trkpt><trkpt lat="39.2699246" lon="9.4265073"><ele>702.0</ele><time>2026-04-18T10:54:43.357Z</time></trkpt><trkpt lat="39.2699017" lon="9.4264238"><ele>702.0</ele><time>2026-04-18T10:54:45.364Z</time></trkpt><trkpt lat="39.2698801" lon="9.4263376"><ele>702.0000000000001</ele><time>2026-04-18T10:54:47.378Z</time></trkpt><trkpt lat="39.269852" lon="9.4262345"><ele>702.0</ele><time>2026-04-18T10:54:49.353Z</time></trkpt><trkpt lat="39.2698243" lon="9.4261304"><ele>701.3333333333334</ele><time>2026-04-18T10:54:51.363Z</time></trkpt><trkpt lat="39.269789" lon="9.426032"><ele>700.6666666666666</ele><time>2026-04-18T10:54:53.372Z</time></trkpt><trkpt lat="39.2697309" lon="9.4259088"><ele>700.0</ele><time>2026-04-18T10:54:55.353Z</time></trkpt><trkpt lat="39.2696983" lon="9.4258375"><ele>699.3333333333333</ele><time>2026-04-18T10:54:56.363Z</time></trkpt><trkpt lat="39.2696643" lon="9.4257637"><ele>698.6666666666666</ele><time>2026-04-18T10:54:57.38Z</time></trkpt><trkpt lat="39.2696303" lon="9.425689"><ele>698.0</ele><time>2026-04-18T10:54:58.365Z</time></trkpt><trkpt lat="39.2695972" lon="9.4256148"><ele>701.3333333333333</ele><time>2026-04-18T10:54:59.349Z</time></trkpt><trkpt lat="39.2695989" lon="9.4255156"><ele>704.6666666666666</ele><time>2026-04-18T10:55:00.356Z</time></trkpt><trkpt lat="39.2696145" lon="9.4254122"><ele>708.0</ele><time>2026-04-18T10:55:01.364Z</time></trkpt><trkpt lat="39.2696299" lon="9.4253124"><ele>711.3333333333334</ele><time>2026-04-18T10:55:02.363Z</time></trkpt><trkpt lat="39.2696441" lon="9.4252101"><ele>714.6666666666667</ele><time>2026-04-18T10:55:03.356Z</time></trkpt><trkpt lat="39.2696665" lon="9.4250956"><ele>718.0</ele><time>2026-04-18T10:55:04.355Z</time></trkpt><trkpt lat="39.2697011" lon="9.4249839"><ele>718.4</ele><time>2026-04-18T10:55:05.36Z</time></trkpt><trkpt lat="39.2697441" lon="9.4248876"><ele>718.8</ele><time>2026-04-18T10:55:06.358Z</time></trkpt><trkpt lat="39.2697834" lon="9.4247841"><ele>719.2</ele><time>2026-04-18T10:55:07.36Z</time></trkpt><trkpt lat="39.2698132" lon="9.4246644"><ele>719.6</ele><time>2026-04-18T10:55:08.359Z</time></trkpt><trkpt lat="39.2698346" lon="9.4245499"><ele>720.0</ele><time>2026-04-18T10:55:09.386Z</time></trkpt><trkpt lat="39.2698545" lon="9.4244418"><ele>717.4</ele><time>2026-04-18T10:55:10.387Z</time></trkpt><trkpt lat="39.2698775" lon="9.4243304"><ele>714.8</ele><time>2026-04-18T10:55:11.369Z</time></trkpt><trkpt lat="39.2699168" lon="9.424218"><ele>712.2</ele><time>2026-04-18T10:55:12.393Z</time></trkpt><trkpt lat="39.2699511" lon="9.424106"><ele>709.6</ele><time>2026-04-18T10:55:13.356Z</time></trkpt><trkpt lat="39.2699824" lon="9.4239959"><ele>707.0</ele><time>2026-04-18T10:55:14.349Z</time></trkpt><trkpt lat="39.2699875" lon="9.4238865"><ele>707.5</ele><time>2026-04-18T10:55:15.355Z</time></trkpt><trkpt lat="39.269991" lon="9.4237861"><ele>708.0</ele><time>2026-04-18T10:55:16.353Z</time></trkpt><trkpt lat="39.2699922" lon="9.4236971"><ele>708.5</ele><time>2026-04-18T10:55:17.364Z</time></trkpt><trkpt lat="39.269939" lon="9.4235989"><ele>709.0</ele><time>2026-04-18T10:55:19.357Z</time></trkpt><trkpt lat="39.2698654" lon="9.4234539"><ele>709.5</ele><time>2026-04-18T10:55:21.358Z</time></trkpt><trkpt lat="39.2698521" lon="9.4233705"><ele>710.0</ele><time>2026-04-18T10:55:22.362Z</time></trkpt><trkpt lat="39.2698427" lon="9.4232845"><ele>710.0</ele><time>2026-04-18T10:55:23.355Z</time></trkpt><trkpt lat="39.2698431" lon="9.4231704"><ele>710.0</ele><time>2026-04-18T10:55:24.359Z</time></trkpt><trkpt lat="39.2698418" lon="9.4230563"><ele>710.0</ele><time>2026-04-18T10:55:25.368Z</time></trkpt><trkpt lat="39.2698425" lon="9.4229403"><ele>710.0</ele><time>2026-04-18T10:55:26.354Z</time></trkpt><trkpt lat="39.2698436" lon="9.4228281"><ele>710.0</ele><time>2026-04-18T10:55:27.36Z</time></trkpt><trkpt lat="39.2698273" lon="9.4227231"><ele>710.0</ele><time>2026-04-18T10:55:28.342Z</time></trkpt><trkpt lat="39.269782" lon="9.4226321"><ele>707.8</ele><time>2026-04-18T10:55:29.353Z</time></trkpt><trkpt lat="39.2697128" lon="9.4225783"><ele>705.6</ele><time>2026-04-18T10:55:30.355Z</time></trkpt><trkpt lat="39.2696401" lon="9.4225248"><ele>703.4000000000001</ele><time>2026-04-18T10:55:31.374Z</time></trkpt><trkpt lat="39.2695505" lon="9.4225215"><ele>701.2</ele><time>2026-04-18T10:55:32.352Z</time></trkpt><trkpt lat="39.2694497" lon="9.4225184"><ele>699.0</ele><time>2026-04-18T10:55:33.363Z</time></trkpt><trkpt lat="39.2693453" lon="9.4225003"><ele>699.0</ele><time>2026-04-18T10:55:34.354Z</time></trkpt><trkpt lat="39.2692427" lon="9.4224882"><ele>699.0</ele><time>2026-04-18T10:55:35.368Z</time></trkpt><trkpt lat="39.2691529" lon="9.4224439"><ele>699.0</ele><time>2026-04-18T10:55:36.37Z</time></trkpt><trkpt lat="39.2690708" lon="9.4223994"><ele>699.0</ele><time>2026-04-18T10:55:37.347Z</time></trkpt><trkpt lat="39.2690137" lon="9.4223398"><ele>699.0</ele><time>2026-04-18T10:55:38.36Z</time></trkpt><trkpt lat="39.2689791" lon="9.4222547"><ele>699.0</ele><time>2026-04-18T10:55:39.354Z</time></trkpt><trkpt lat="39.2689733" lon="9.4221521"><ele>697.8000000000001</ele><time>2026-04-18T10:55:40.352Z</time></trkpt><trkpt lat="39.2689916" lon="9.4220405"><ele>696.6</ele><time>2026-04-18T10:55:41.358Z</time></trkpt><trkpt lat="39.2690145" lon="9.4219301"><ele>695.4</ele><time>2026-04-18T10:55:42.372Z</time></trkpt><trkpt lat="39.2690328" lon="9.4218118"><ele>694.2</ele><time>2026-04-18T10:55:43.358Z</time></trkpt><trkpt lat="39.269042" lon="9.4216607"><ele>693.0</ele><time>2026-04-18T10:55:44.354Z</time></trkpt><trkpt lat="39.2690513" lon="9.4215085"><ele>693.0</ele><time>2026-04-18T10:55:45.395Z</time></trkpt><trkpt lat="39.2690593" lon="9.4213566"><ele>693.0</ele><time>2026-04-18T10:55:46.374Z</time></trkpt><trkpt lat="39.2690662" lon="9.4212071"><ele>693.0</ele><time>2026-04-18T10:55:47.368Z</time></trkpt><trkpt lat="39.2690938" lon="9.4210762"><ele>693.0</ele><time>2026-04-18T10:55:48.374Z</time></trkpt><trkpt lat="39.2691221" lon="9.420947"><ele>693.0</ele><time>2026-04-18T10:55:49.366Z</time></trkpt><trkpt lat="39.2691617" lon="9.420819"><ele>693.2</ele><time>2026-04-18T10:55:50.36Z</time></trkpt><trkpt lat="39.2691795" lon="9.4207011"><ele>693.4</ele><time>2026-04-18T10:55:51.353Z</time></trkpt><trkpt lat="39.2691792" lon="9.4205768"><ele>693.6</ele><time>2026-04-18T10:55:52.357Z</time></trkpt><trkpt lat="39.269179" lon="9.4204458"><ele>693.8000000000001</ele><time>2026-04-18T10:55:53.355Z</time></trkpt><trkpt lat="39.2691526" lon="9.4203174"><ele>694.0</ele><time>2026-04-18T10:55:54.351Z</time></trkpt><trkpt lat="39.2691224" lon="9.4201801"><ele>692.8333333333334</ele><time>2026-04-18T10:55:55.359Z</time></trkpt><trkpt lat="39.2690949" lon="9.4200617"><ele>691.6666666666667</ele><time>2026-04-18T10:55:56.358Z</time></trkpt><trkpt lat="39.2690717" lon="9.419983"><ele>690.5</ele><time>2026-04-18T10:55:57.353Z</time></trkpt><trkpt lat="39.2690304" lon="9.4199173"><ele>689.3333333333334</ele><time>2026-04-18T10:55:58.358Z</time></trkpt><trkpt lat="39.2689657" lon="9.4198039"><ele>688.1666666666666</ele><time>2026-04-18T10:56:00.357Z</time></trkpt><trkpt lat="39.268906" lon="9.4197639"><ele>687.0</ele><time>2026-04-18T10:56:01.356Z</time></trkpt><trkpt lat="39.2688344" lon="9.4196927"><ele>684.6</ele><time>2026-04-18T10:56:02.364Z</time></trkpt><trkpt lat="39.2687564" lon="9.4196223"><ele>682.2</ele><time>2026-04-18T10:56:03.352Z</time></trkpt><trkpt lat="39.2686699" lon="9.4195632"><ele>679.8</ele><time>2026-04-18T10:56:04.355Z</time></trkpt><trkpt lat="39.2685839" lon="9.4195061"><ele>677.4</ele><time>2026-04-18T10:56:05.35Z</time></trkpt><trkpt lat="39.2685008" lon="9.4194695"><ele>675.0</ele><time>2026-04-18T10:56:06.356Z</time></trkpt><trkpt lat="39.2684178" lon="9.4194458"><ele>675.0</ele><time>2026-04-18T10:56:07.353Z</time></trkpt><trkpt lat="39.2683262" lon="9.4194149"><ele>675.0</ele><time>2026-04-18T10:56:08.359Z</time></trkpt><trkpt lat="39.2682234" lon="9.4194003"><ele>675.0</ele><time>2026-04-18T10:56:09.356Z</time></trkpt><trkpt lat="39.2681099" lon="9.4193862"><ele>675.0</ele><time>2026-04-18T10:56:10.361Z</time></trkpt><trkpt lat="39.2679948" lon="9.4193504"><ele>675.0</ele><time>2026-04-18T10:56:11.357Z</time></trkpt><trkpt lat="39.2678854" lon="9.4192979"><ele>676.0</ele><time>2026-04-18T10:56:12.354Z</time></trkpt><trkpt lat="39.2677828" lon="9.41925"><ele>677.0</ele><time>2026-04-18T10:56:13.363Z</time></trkpt><trkpt lat="39.2676904" lon="9.4192054"><ele>678.0</ele><time>2026-04-18T10:56:14.361Z</time></trkpt><trkpt lat="39.2676063" lon="9.419166"><ele>679.0</ele><time>2026-04-18T10:56:15.352Z</time></trkpt><trkpt lat="39.2675187" lon="9.419148"><ele>680.0</ele><time>2026-04-18T10:56:16.357Z</time></trkpt><trkpt lat="39.2674155" lon="9.4191211"><ele>680.0</ele><time>2026-04-18T10:56:17.352Z</time></trkpt><trkpt lat="39.2673227" lon="9.4190972"><ele>680.0</ele><time>2026-04-18T10:56:18.362Z</time></trkpt><trkpt lat="39.2672316" lon="9.4190597"><ele>680.0</ele><time>2026-04-18T10:56:19.356Z</time></trkpt><trkpt lat="39.2671497" lon="9.4190085"><ele>680.0</ele><time>2026-04-18T10:56:20.361Z</time></trkpt><trkpt lat="39.2670687" lon="9.4189625"><ele>680.0</ele><time>2026-04-18T10:56:21.372Z</time></trkpt><trkpt lat="39.2669833" lon="9.418917"><ele>679.2</ele><time>2026-04-18T10:56:22.362Z</time></trkpt><trkpt lat="39.266902" lon="9.4188725"><ele>678.4</ele><time>2026-04-18T10:56:23.363Z</time></trkpt><trkpt lat="39.2668256" lon="9.4188087"><ele>677.5999999999999</ele><time>2026-04-18T10:56:24.353Z</time></trkpt><trkpt lat="39.2667496" lon="9.4187337"><ele>676.8</ele><time>2026-04-18T10:56:25.363Z</time></trkpt><trkpt lat="39.2666723" lon="9.4186583"><ele>676.0</ele><time>2026-04-18T10:56:26.369Z</time></trkpt><trkpt lat="39.2666093" lon="9.4185742"><ele>676.0</ele><time>2026-04-18T10:56:27.36Z</time></trkpt><trkpt lat="39.2665537" lon="9.4184879"><ele>676.0</ele><time>2026-04-18T10:56:28.369Z</time></trkpt><trkpt lat="39.2665378" lon="9.4183824"><ele>676.0</ele><time>2026-04-18T10:56:29.39Z</time></trkpt><trkpt lat="39.2665345" lon="9.4182817"><ele>676.0</ele><time>2026-04-18T10:56:30.349Z</time></trkpt><trkpt lat="39.2665463" lon="9.4181801"><ele>676.0</ele><time>2026-04-18T10:56:31.372Z</time></trkpt><trkpt lat="39.2666101" lon="9.4180942"><ele>676.0</ele><time>2026-04-18T10:56:32.372Z</time></trkpt><trkpt lat="39.2666848" lon="9.4179893"><ele>679.0</ele><time>2026-04-18T10:56:33.374Z</time></trkpt><trkpt lat="39.2667644" lon="9.4178896"><ele>682.0</ele><time>2026-04-18T10:56:34.354Z</time></trkpt><trkpt lat="39.26684" lon="9.4177819"><ele>685.0</ele><time>2026-04-18T10:56:35.372Z</time></trkpt><trkpt lat="39.2669007" lon="9.4176637"><ele>688.0</ele><time>2026-04-18T10:56:36.362Z</time></trkpt><trkpt lat="39.2669546" lon="9.4175386"><ele>691.0</ele><time>2026-04-18T10:56:37.354Z</time></trkpt><trkpt lat="39.2670156" lon="9.4174108"><ele>691.0</ele><time>2026-04-18T10:56:38.369Z</time></trkpt><trkpt lat="39.2670639" lon="9.4172795"><ele>691.0</ele><time>2026-04-18T10:56:39.356Z</time></trkpt><trkpt lat="39.2670988" lon="9.4171521"><ele>691.0</ele><time>2026-04-18T10:56:40.364Z</time></trkpt><trkpt lat="39.2671442" lon="9.4170393"><ele>691.0</ele><time>2026-04-18T10:56:41.358Z</time></trkpt><trkpt lat="39.2672214" lon="9.4169499"><ele>691.0</ele><time>2026-04-18T10:56:42.365Z</time></trkpt><trkpt lat="39.2672771" lon="9.4168522"><ele>690.5999999999999</ele><time>2026-04-18T10:56:43.361Z</time></trkpt><trkpt lat="39.2673145" lon="9.4167365"><ele>690.2</ele><time>2026-04-18T10:56:44.364Z</time></trkpt><trkpt lat="39.267314" lon="9.4165965"><ele>689.8</ele><time>2026-04-18T10:56:45.363Z</time></trkpt><trkpt lat="39.2673175" lon="9.416463"><ele>689.4000000000001</ele><time>2026-04-18T10:56:46.363Z</time></trkpt><trkpt lat="39.2673202" lon="9.4163475"><ele>689.0</ele><time>2026-04-18T10:56:47.359Z</time></trkpt><trkpt lat="39.2673196" lon="9.4162264"><ele>689.0</ele><time>2026-04-18T10:56:48.363Z</time></trkpt><trkpt lat="39.2673089" lon="9.416119"><ele>689.0</ele><time>2026-04-18T10:56:49.369Z</time></trkpt><trkpt lat="39.2672931" lon="9.4160219"><ele>689.0</ele><time>2026-04-18T10:56:50.357Z</time></trkpt><trkpt lat="39.2673066" lon="9.4159219"><ele>689.0</ele><time>2026-04-18T10:56:51.362Z</time></trkpt><trkpt lat="39.2673477" lon="9.4158338"><ele>689.0</ele><time>2026-04-18T10:56:52.359Z</time></trkpt><trkpt lat="39.2674176" lon="9.415767"><ele>689.0</ele><time>2026-04-18T10:56:53.354Z</time></trkpt><trkpt lat="39.2675034" lon="9.4157144"><ele>689.0</ele><time>2026-04-18T10:56:54.37Z</time></trkpt><trkpt lat="39.2675891" lon="9.4156659"><ele>689.0</ele><time>2026-04-18T10:56:55.358Z</time></trkpt><trkpt lat="39.2676699" lon="9.4156606"><ele>689.0</ele><time>2026-04-18T10:56:56.355Z</time></trkpt><trkpt lat="39.2677663" lon="9.4156699"><ele>689.0</ele><time>2026-04-18T10:56:57.357Z</time></trkpt><trkpt lat="39.2678615" lon="9.415657"><ele>689.0</ele><time>2026-04-18T10:56:58.359Z</time></trkpt><trkpt lat="39.2679561" lon="9.4156485"><ele>689.0</ele><time>2026-04-18T10:56:59.35Z</time></trkpt><trkpt lat="39.2680534" lon="9.4156154"><ele>689.0</ele><time>2026-04-18T10:57:00.363Z</time></trkpt><trkpt lat="39.2681361" lon="9.4155536"><ele>689.0</ele><time>2026-04-18T10:57:01.365Z</time></trkpt><trkpt lat="39.2682111" lon="9.4154911"><ele>689.0</ele><time>2026-04-18T10:57:02.357Z</time></trkpt><trkpt lat="39.268292" lon="9.4154477"><ele>689.0</ele><time>2026-04-18T10:57:03.367Z</time></trkpt><trkpt lat="39.2683736" lon="9.4154059"><ele>694.0</ele><time>2026-04-18T10:57:04.364Z</time></trkpt><trkpt lat="39.2684617" lon="9.4153657"><ele>699.0</ele><time>2026-04-18T10:57:05.366Z</time></trkpt><trkpt lat="39.2685274" lon="9.4152819"><ele>704.0</ele><time>2026-04-18T10:57:06.376Z</time></trkpt><trkpt lat="39.2685813" lon="9.4151815"><ele>709.0</ele><time>2026-04-18T10:57:07.382Z</time></trkpt><trkpt lat="39.2686527" lon="9.4150969"><ele>714.0</ele><time>2026-04-18T10:57:08.363Z</time></trkpt><trkpt lat="39.2687423" lon="9.4150161"><ele>714.0</ele><time>2026-04-18T10:57:09.351Z</time></trkpt><trkpt lat="39.2688311" lon="9.4149347"><ele>714.0</ele><time>2026-04-18T10:57:10.368Z</time></trkpt><trkpt lat="39.2689347" lon="9.4148591"><ele>714.0</ele><time>2026-04-18T10:57:11.35Z</time></trkpt><trkpt lat="39.2690314" lon="9.4147892"><ele>714.0</ele><time>2026-04-18T10:57:12.369Z</time></trkpt><trkpt lat="39.2691265" lon="9.414739"><ele>714.0</ele><time>2026-04-18T10:57:13.363Z</time></trkpt><trkpt lat="39.2692272" lon="9.4147182"><ele>714.0</ele><time>2026-04-18T10:57:14.356Z</time></trkpt><trkpt lat="39.2693223" lon="9.4146932"><ele>714.0</ele><time>2026-04-18T10:57:15.37Z</time></trkpt><trkpt lat="39.2694032" lon="9.4146721"><ele>714.0</ele><time>2026-04-18T10:57:16.366Z</time></trkpt><trkpt lat="39.2694653" lon="9.4146507"><ele>714.0</ele><time>2026-04-18T10:57:17.372Z</time></trkpt><trkpt lat="39.2695194" lon="9.414609"><ele>714.0</ele><time>2026-04-18T10:57:18.391Z</time></trkpt><trkpt lat="39.2695678" lon="9.414524"><ele>714.0</ele><time>2026-04-18T10:57:19.369Z</time></trkpt><trkpt lat="39.2696039" lon="9.4144294"><ele>714.0</ele><time>2026-04-18T10:57:20.362Z</time></trkpt><trkpt lat="39.2696442" lon="9.414326"><ele>714.0</ele><time>2026-04-18T10:57:21.361Z</time></trkpt><trkpt lat="39.2696834" lon="9.4142231"><ele>714.0</ele><time>2026-04-18T10:57:22.359Z</time></trkpt><trkpt lat="39.2697086" lon="9.4141135"><ele>714.0</ele><time>2026-04-18T10:57:23.355Z</time></trkpt><trkpt lat="39.26973" lon="9.4140062"><ele>714.0</ele><time>2026-04-18T10:57:24.366Z</time></trkpt><trkpt lat="39.2697584" lon="9.4138993"><ele>714.0</ele><time>2026-04-18T10:57:25.365Z</time></trkpt><trkpt lat="39.2697832" lon="9.4137942"><ele>710.2</ele><time>2026-04-18T10:57:26.368Z</time></trkpt><trkpt lat="39.2698117" lon="9.4136707"><ele>706.4000000000001</ele><time>2026-04-18T10:57:27.37Z</time></trkpt><trkpt lat="39.2698327" lon="9.4135457"><ele>702.6</ele><time>2026-04-18T10:57:28.37Z</time></trkpt><trkpt lat="39.2698491" lon="9.4134262"><ele>698.8</ele><time>2026-04-18T10:57:29.356Z</time></trkpt><trkpt lat="39.2698522" lon="9.4133028"><ele>695.0</ele><time>2026-04-18T10:57:30.372Z</time></trkpt><trkpt lat="39.2698526" lon="9.4131866"><ele>695.0</ele><time>2026-04-18T10:57:31.348Z</time></trkpt><trkpt lat="39.2698479" lon="9.4130824"><ele>695.0</ele><time>2026-04-18T10:57:32.353Z</time></trkpt><trkpt lat="39.2697904" lon="9.4129832"><ele>695.0</ele><time>2026-04-18T10:57:33.358Z</time></trkpt><trkpt lat="39.2697337" lon="9.4128967"><ele>695.0</ele><time>2026-04-18T10:57:34.364Z</time></trkpt><trkpt lat="39.269682" lon="9.412808"><ele>695.0</ele><time>2026-04-18T10:57:35.358Z</time></trkpt><trkpt lat="39.2696354" lon="9.4127229"><ele>695.0</ele><time>2026-04-18T10:57:36.361Z</time></trkpt><trkpt lat="39.2695948" lon="9.4126551"><ele>695.2</ele><time>2026-04-18T10:57:37.357Z</time></trkpt><trkpt lat="39.269557" lon="9.412545"><ele>695.4</ele><time>2026-04-18T10:57:39.362Z</time></trkpt><trkpt lat="39.2696693" lon="9.4124682"><ele>695.5999999999999</ele><time>2026-04-18T10:57:41.349Z</time></trkpt><trkpt lat="39.2697551" lon="9.4124441"><ele>695.8</ele><time>2026-04-18T10:57:42.365Z</time></trkpt><trkpt lat="39.2698433" lon="9.412409"><ele>696.0</ele><time>2026-04-18T10:57:43.361Z</time></trkpt><trkpt lat="39.2699443" lon="9.4123379"><ele>696.0</ele><time>2026-04-18T10:57:44.361Z</time></trkpt><trkpt lat="39.2700507" lon="9.4122899"><ele>696.0</ele><time>2026-04-18T10:57:45.354Z</time></trkpt><trkpt lat="39.2701476" lon="9.412247"><ele>696.0</ele><time>2026-04-18T10:57:46.352Z</time></trkpt><trkpt lat="39.2702166" lon="9.4121981"><ele>696.0</ele><time>2026-04-18T10:57:47.352Z</time></trkpt><trkpt lat="39.2702776" lon="9.412114"><ele>696.0</ele><time>2026-04-18T10:57:48.369Z</time></trkpt><trkpt lat="39.270336" lon="9.412002"><ele>698.5</ele><time>2026-04-18T10:57:49.365Z</time></trkpt><trkpt lat="39.2703725" lon="9.4118944"><ele>701.0</ele><time>2026-04-18T10:57:50.353Z</time></trkpt><trkpt lat="39.270411" lon="9.4117934"><ele>703.5</ele><time>2026-04-18T10:57:51.364Z</time></trkpt><trkpt lat="39.2704593" lon="9.4116958"><ele>706.0</ele><time>2026-04-18T10:57:52.367Z</time></trkpt><trkpt lat="39.2704797" lon="9.4116122"><ele>708.5</ele><time>2026-04-18T10:57:53.376Z</time></trkpt><trkpt lat="39.2705072" lon="9.411512"><ele>711.0</ele><time>2026-04-18T10:57:55.367Z</time></trkpt><trkpt lat="39.2705996" lon="9.4114848"><ele>706.8</ele><time>2026-04-18T10:57:58.35Z</time></trkpt><trkpt lat="39.2707254" lon="9.4114688"><ele>702.5999999999999</ele><time>2026-04-18T10:58:00.354Z</time></trkpt><trkpt lat="39.2707976" lon="9.4114337"><ele>698.4</ele><time>2026-04-18T10:58:01.375Z</time></trkpt><trkpt lat="39.2708741" lon="9.4113952"><ele>694.2</ele><time>2026-04-18T10:58:02.376Z</time></trkpt><trkpt lat="39.2709566" lon="9.4113785"><ele>690.0</ele><time>2026-04-18T10:58:03.368Z</time></trkpt><trkpt lat="39.2710413" lon="9.4113534"><ele>690.4</ele><time>2026-04-18T10:58:04.365Z</time></trkpt><trkpt lat="39.271129" lon="9.4112758"><ele>690.8</ele><time>2026-04-18T10:58:05.375Z</time></trkpt><trkpt lat="39.2712226" lon="9.4111951"><ele>691.2</ele><time>2026-04-18T10:58:06.367Z</time></trkpt><trkpt lat="39.2713053" lon="9.4111067"><ele>691.6</ele><time>2026-04-18T10:58:07.361Z</time></trkpt><trkpt lat="39.2713781" lon="9.4110282"><ele>692.0</ele><time>2026-04-18T10:58:08.366Z</time></trkpt><trkpt lat="39.2714505" lon="9.4109545"><ele>692.0</ele><time>2026-04-18T10:58:09.363Z</time></trkpt><trkpt lat="39.2715131" lon="9.4108812"><ele>692.0</ele><time>2026-04-18T10:58:10.364Z</time></trkpt><trkpt lat="39.2715678" lon="9.4108132"><ele>692.0</ele><time>2026-04-18T10:58:11.364Z</time></trkpt><trkpt lat="39.2716112" lon="9.4107314"><ele>692.0</ele><time>2026-04-18T10:58:12.352Z</time></trkpt><trkpt lat="39.2716457" lon="9.4106414"><ele>692.0</ele><time>2026-04-18T10:58:13.354Z</time></trkpt><trkpt lat="39.2716816" lon="9.4105589"><ele>692.0</ele><time>2026-04-18T10:58:14.348Z</time></trkpt><trkpt lat="39.2717296" lon="9.4104664"><ele>695.0</ele><time>2026-04-18T10:58:15.362Z</time></trkpt><trkpt lat="39.2717801" lon="9.4103824"><ele>698.0</ele><time>2026-04-18T10:58:16.356Z</time></trkpt><trkpt lat="39.2718495" lon="9.410303"><ele>701.0</ele><time>2026-04-18T10:58:17.352Z</time></trkpt><trkpt lat="39.271914" lon="9.4102286"><ele>704.0</ele><time>2026-04-18T10:58:18.351Z</time></trkpt><trkpt lat="39.271963" lon="9.4101463"><ele>707.0</ele><time>2026-04-18T10:58:19.364Z</time></trkpt><trkpt lat="39.2720061" lon="9.4100397"><ele>710.0</ele><time>2026-04-18T10:58:20.354Z</time></trkpt><trkpt lat="39.2720354" lon="9.4099414"><ele>710.0</ele><time>2026-04-18T10:58:21.347Z</time></trkpt><trkpt lat="39.2720586" lon="9.4098389"><ele>710.0</ele><time>2026-04-18T10:58:22.358Z</time></trkpt><trkpt lat="39.2720809" lon="9.4097346"><ele>710.0</ele><time>2026-04-18T10:58:23.36Z</time></trkpt><trkpt lat="39.2721189" lon="9.4096684"><ele>710.0</ele><time>2026-04-18T10:58:24.372Z</time></trkpt><trkpt lat="39.2721795" lon="9.4096363"><ele>710.0</ele><time>2026-04-18T10:58:25.363Z</time></trkpt><trkpt lat="39.2722637" lon="9.409609"><ele>710.0</ele><time>2026-04-18T10:58:26.355Z</time></trkpt><trkpt lat="39.2723678" lon="9.4095728"><ele>709.4</ele><time>2026-04-18T10:58:27.359Z</time></trkpt><trkpt lat="39.2724644" lon="9.4095378"><ele>708.8</ele><time>2026-04-18T10:58:28.362Z</time></trkpt><trkpt lat="39.2725651" lon="9.4094787"><ele>708.2</ele><time>2026-04-18T10:58:29.36Z</time></trkpt><trkpt lat="39.2726361" lon="9.4094156"><ele>707.6</ele><time>2026-04-18T10:58:30.359Z</time></trkpt><trkpt lat="39.2727192" lon="9.4093515"><ele>707.0</ele><time>2026-04-18T10:58:31.354Z</time></trkpt><trkpt lat="39.2728059" lon="9.4092981"><ele>707.0</ele><time>2026-04-18T10:58:32.349Z</time></trkpt><trkpt lat="39.2728909" lon="9.4092342"><ele>707.0</ele><time>2026-04-18T10:58:33.356Z</time></trkpt><trkpt lat="39.2729572" lon="9.4091487"><ele>707.0</ele><time>2026-04-18T10:58:34.366Z</time></trkpt><trkpt lat="39.2730143" lon="9.4090591"><ele>707.0</ele><time>2026-04-18T10:58:35.355Z</time></trkpt><trkpt lat="39.2730709" lon="9.4089714"><ele>707.0</ele><time>2026-04-18T10:58:36.349Z</time></trkpt><trkpt lat="39.2731126" lon="9.4088713"><ele>705.0</ele><time>2026-04-18T10:58:37.357Z</time></trkpt><trkpt lat="39.2731584" lon="9.4087639"><ele>703.0</ele><time>2026-04-18T10:58:38.365Z</time></trkpt><trkpt lat="39.2731947" lon="9.4086555"><ele>701.0</ele><time>2026-04-18T10:58:39.364Z</time></trkpt><trkpt lat="39.273237" lon="9.4085493"><ele>699.0</ele><time>2026-04-18T10:58:40.362Z</time></trkpt><trkpt lat="39.2732791" lon="9.4084297"><ele>697.0</ele><time>2026-04-18T10:58:41.372Z</time></trkpt><trkpt lat="39.2733182" lon="9.4083042"><ele>697.0</ele><time>2026-04-18T10:58:42.365Z</time></trkpt><trkpt lat="39.2733547" lon="9.4081815"><ele>697.0</ele><time>2026-04-18T10:58:43.358Z</time></trkpt><trkpt lat="39.2733827" lon="9.4080561"><ele>697.0</ele><time>2026-04-18T10:58:44.364Z</time></trkpt><trkpt lat="39.2734126" lon="9.4079373"><ele>697.0</ele><time>2026-04-18T10:58:45.363Z</time></trkpt><trkpt lat="39.2734417" lon="9.4078436"><ele>697.0</ele><time>2026-04-18T10:58:46.361Z</time></trkpt><trkpt lat="39.2734782" lon="9.4077392"><ele>701.0</ele><time>2026-04-18T10:58:47.353Z</time></trkpt><trkpt lat="39.2735216" lon="9.4076121"><ele>705.0</ele><time>2026-04-18T10:58:48.365Z</time></trkpt><trkpt lat="39.2735686" lon="9.4075006"><ele>709.0</ele><time>2026-04-18T10:58:49.378Z</time></trkpt><trkpt lat="39.27364" lon="9.4074116"><ele>713.0</ele><time>2026-04-18T10:58:50.382Z</time></trkpt><trkpt lat="39.2737099" lon="9.4073149"><ele>717.0</ele><time>2026-04-18T10:58:51.368Z</time></trkpt><trkpt lat="39.2737782" lon="9.4072184"><ele>719.0</ele><time>2026-04-18T10:58:52.382Z</time></trkpt><trkpt lat="39.273855" lon="9.4071158"><ele>721.0</ele><time>2026-04-18T10:58:53.365Z</time></trkpt><trkpt lat="39.2739286" lon="9.4070176"><ele>723.0</ele><time>2026-04-18T10:58:54.364Z</time></trkpt><trkpt lat="39.2739999" lon="9.4069296"><ele>725.0</ele><time>2026-04-18T10:58:55.361Z</time></trkpt><trkpt lat="39.2740688" lon="9.4068435"><ele>727.0</ele><time>2026-04-18T10:58:56.363Z</time></trkpt><trkpt lat="39.27413" lon="9.4067673"><ele>722.8</ele><time>2026-04-18T10:58:57.359Z</time></trkpt><trkpt lat="39.2741793" lon="9.4066961"><ele>718.6</ele><time>2026-04-18T10:58:58.356Z</time></trkpt><trkpt lat="39.274221" lon="9.406629"><ele>714.4</ele><time>2026-04-18T10:58:59.363Z</time></trkpt><trkpt lat="39.2742386" lon="9.4064878"><ele>710.1999999999999</ele><time>2026-04-18T10:59:01.353Z</time></trkpt><trkpt lat="39.2741873" lon="9.4063678"><ele>706.0</ele><time>2026-04-18T10:59:03.37Z</time></trkpt><trkpt lat="39.2742054" lon="9.4062325"><ele>706.0</ele><time>2026-04-18T10:59:05.369Z</time></trkpt><trkpt lat="39.2742482" lon="9.4060626"><ele>706.0</ele><time>2026-04-18T10:59:07.382Z</time></trkpt><trkpt lat="39.2742627" lon="9.4059527"><ele>706.0</ele><time>2026-04-18T10:59:08.364Z</time></trkpt><trkpt lat="39.2742824" lon="9.4058436"><ele>706.0</ele><time>2026-04-18T10:59:09.362Z</time></trkpt><trkpt lat="39.2743018" lon="9.4057317"><ele>706.0</ele><time>2026-04-18T10:59:10.367Z</time></trkpt><trkpt lat="39.2743194" lon="9.4056219"><ele>706.0</ele><time>2026-04-18T10:59:11.363Z</time></trkpt><trkpt lat="39.2743363" lon="9.40552"><ele>706.0</ele><time>2026-04-18T10:59:12.369Z</time></trkpt><trkpt lat="39.2743741" lon="9.4054294"><ele>706.0</ele><time>2026-04-18T10:59:13.373Z</time></trkpt><trkpt lat="39.2743948" lon="9.4053072"><ele>706.0</ele><time>2026-04-18T10:59:14.366Z</time></trkpt><trkpt lat="39.2744021" lon="9.4051757"><ele>706.0</ele><time>2026-04-18T10:59:15.359Z</time></trkpt><trkpt lat="39.2744117" lon="9.4050448"><ele>705.5</ele><time>2026-04-18T10:59:16.358Z</time></trkpt><trkpt lat="39.274436" lon="9.4049185"><ele>705.0</ele><time>2026-04-18T10:59:17.35Z</time></trkpt><trkpt lat="39.2744547" lon="9.4047999"><ele>704.5</ele><time>2026-04-18T10:59:18.376Z</time></trkpt><trkpt lat="39.2744509" lon="9.4046851"><ele>704.0</ele><time>2026-04-18T10:59:19.368Z</time></trkpt><trkpt lat="39.2744437" lon="9.4045813"><ele>703.5</ele><time>2026-04-18T10:59:20.353Z</time></trkpt><trkpt lat="39.2744437" lon="9.4044789"><ele>703.0</ele><time>2026-04-18T10:59:21.36Z</time></trkpt><trkpt lat="39.2744425" lon="9.4043818"><ele>701.4</ele><time>2026-04-18T10:59:22.367Z</time></trkpt><trkpt lat="39.2744381" lon="9.4042806"><ele>699.8</ele><time>2026-04-18T10:59:23.363Z</time></trkpt><trkpt lat="39.2744093" lon="9.4041612"><ele>698.2</ele><time>2026-04-18T10:59:24.36Z</time></trkpt><trkpt lat="39.2743759" lon="9.4040336"><ele>696.6</ele><time>2026-04-18T10:59:25.357Z</time></trkpt><trkpt lat="39.2743463" lon="9.4039123"><ele>695.0</ele><time>2026-04-18T10:59:26.375Z</time></trkpt><trkpt lat="39.2743198" lon="9.4037961"><ele>693.0</ele><time>2026-04-18T10:59:27.355Z</time></trkpt><trkpt lat="39.274294" lon="9.4036766"><ele>691.0</ele><time>2026-04-18T10:59:28.36Z</time></trkpt><trkpt lat="39.2742739" lon="9.4035573"><ele>689.0</ele><time>2026-04-18T10:59:29.36Z</time></trkpt><trkpt lat="39.2742623" lon="9.4034462"><ele>687.0</ele><time>2026-04-18T10:59:30.363Z</time></trkpt><trkpt lat="39.2742379" lon="9.4033277"><ele>685.0</ele><time>2026-04-18T10:59:31.357Z</time></trkpt><trkpt lat="39.2742074" lon="9.403205"><ele>685.0</ele><time>2026-04-18T10:59:32.379Z</time></trkpt><trkpt lat="39.2741786" lon="9.4030808"><ele>685.0</ele><time>2026-04-18T10:59:33.369Z</time></trkpt><trkpt lat="39.2741457" lon="9.4029637"><ele>685.0</ele><time>2026-04-18T10:59:34.355Z</time></trkpt><trkpt lat="39.2741032" lon="9.4028573"><ele>685.0</ele><time>2026-04-18T10:59:35.355Z</time></trkpt><trkpt lat="39.2740628" lon="9.4027562"><ele>685.0</ele><time>2026-04-18T10:59:36.379Z</time></trkpt><trkpt lat="39.2740246" lon="9.4026512"><ele>684.5</ele><time>2026-04-18T10:59:37.358Z</time></trkpt><trkpt lat="39.2739845" lon="9.4025424"><ele>684.0</ele><time>2026-04-18T10:59:38.382Z</time></trkpt><trkpt lat="39.2739463" lon="9.4024344"><ele>683.5</ele><time>2026-04-18T10:59:39.357Z</time></trkpt><trkpt lat="39.2739173" lon="9.4023295"><ele>683.0</ele><time>2026-04-18T10:59:40.389Z</time></trkpt><trkpt lat="39.2738916" lon="9.4022322"><ele>682.5</ele><time>2026-04-18T10:59:41.343Z</time></trkpt><trkpt lat="39.2738996" lon="9.4021371"><ele>682.0</ele><time>2026-04-18T10:59:42.355Z</time></trkpt><trkpt lat="39.273909" lon="9.4020392"><ele>679.3333333333334</ele><time>2026-04-18T10:59:43.352Z</time></trkpt><trkpt lat="39.2738852" lon="9.4019453"><ele>676.6666666666667</ele><time>2026-04-18T10:59:44.353Z</time></trkpt><trkpt lat="39.2738421" lon="9.4018549"><ele>674.0</ele><time>2026-04-18T10:59:45.348Z</time></trkpt><trkpt lat="39.2737918" lon="9.401765"><ele>671.3333333333334</ele><time>2026-04-18T10:59:46.369Z</time></trkpt><trkpt lat="39.2737452" lon="9.4016763"><ele>668.6666666666666</ele><time>2026-04-18T10:59:47.349Z</time></trkpt><trkpt lat="39.2737027" lon="9.4015832"><ele>666.0</ele><time>2026-04-18T10:59:48.354Z</time></trkpt><trkpt lat="39.2736574" lon="9.4014931"><ele>666.0</ele><time>2026-04-18T10:59:49.346Z</time></trkpt><trkpt lat="39.2736106" lon="9.4014009"><ele>666.0</ele><time>2026-04-18T10:59:50.361Z</time></trkpt><trkpt lat="39.2735695" lon="9.4013105"><ele>666.0</ele><time>2026-04-18T10:59:51.366Z</time></trkpt><trkpt lat="39.273527" lon="9.401223"><ele>666.0</ele><time>2026-04-18T10:59:52.362Z</time></trkpt><trkpt lat="39.2734922" lon="9.4011347"><ele>666.0</ele><time>2026-04-18T10:59:53.368Z</time></trkpt><trkpt lat="39.2734688" lon="9.4010409"><ele>666.0</ele><time>2026-04-18T10:59:54.364Z</time></trkpt><trkpt lat="39.2734539" lon="9.400942"><ele>664.3333333333334</ele><time>2026-04-18T10:59:55.368Z</time></trkpt><trkpt lat="39.2734456" lon="9.4008367"><ele>662.6666666666666</ele><time>2026-04-18T10:59:56.366Z</time></trkpt><trkpt lat="39.2734376" lon="9.4007308"><ele>661.0</ele><time>2026-04-18T10:59:57.368Z</time></trkpt><trkpt lat="39.2734288" lon="9.4006335"><ele>659.3333333333333</ele><time>2026-04-18T10:59:58.375Z</time></trkpt><trkpt lat="39.273414" lon="9.4005295"><ele>657.6666666666666</ele><time>2026-04-18T10:59:59.358Z</time></trkpt><trkpt lat="39.2733696" lon="9.4004277"><ele>656.0</ele><time>2026-04-18T11:00:00.362Z</time></trkpt><trkpt lat="39.2733097" lon="9.4003406"><ele>656.0</ele><time>2026-04-18T11:00:01.357Z</time></trkpt><trkpt lat="39.2732442" lon="9.4002498"><ele>656.0</ele><time>2026-04-18T11:00:02.377Z</time></trkpt><trkpt lat="39.2731705" lon="9.400187"><ele>656.0</ele><time>2026-04-18T11:00:03.359Z</time></trkpt><trkpt lat="39.2730629" lon="9.400139"><ele>656.0</ele><time>2026-04-18T11:00:04.362Z</time></trkpt><trkpt lat="39.2729543" lon="9.4001"><ele>656.0</ele><time>2026-04-18T11:00:05.362Z</time></trkpt><trkpt lat="39.2728604" lon="9.4000512"><ele>654.8</ele><time>2026-04-18T11:00:06.359Z</time></trkpt><trkpt lat="39.2727803" lon="9.3999833"><ele>653.5999999999999</ele><time>2026-04-18T11:00:07.362Z</time></trkpt><trkpt lat="39.2727012" lon="9.3999142"><ele>652.4</ele><time>2026-04-18T11:00:08.354Z</time></trkpt><trkpt lat="39.272622" lon="9.399847"><ele>651.2</ele><time>2026-04-18T11:00:09.363Z</time></trkpt><trkpt lat="39.272553" lon="9.3997787"><ele>650.0</ele><time>2026-04-18T11:00:10.358Z</time></trkpt><trkpt lat="39.2724943" lon="9.399699"><ele>649.8333333333333</ele><time>2026-04-18T11:00:11.366Z</time></trkpt><trkpt lat="39.2724443" lon="9.3996115"><ele>649.6666666666666</ele><time>2026-04-18T11:00:12.353Z</time></trkpt><trkpt lat="39.2724036" lon="9.3995184"><ele>649.5</ele><time>2026-04-18T11:00:13.356Z</time></trkpt><trkpt lat="39.2723666" lon="9.3994332"><ele>649.3333333333334</ele><time>2026-04-18T11:00:14.361Z</time></trkpt><trkpt lat="39.2723111" lon="9.3993439"><ele>649.1666666666667</ele><time>2026-04-18T11:00:16.373Z</time></trkpt><trkpt lat="39.2722394" lon="9.3992452"><ele>649.0</ele><time>2026-04-18T11:00:19.352Z</time></trkpt><trkpt lat="39.2721328" lon="9.3991546"><ele>649.0</ele><time>2026-04-18T11:00:21.369Z</time></trkpt><trkpt lat="39.2720574" lon="9.3990606"><ele>649.0</ele><time>2026-04-18T11:00:22.349Z</time></trkpt><trkpt lat="39.2719968" lon="9.398915"><ele>649.0</ele><time>2026-04-18T11:00:23.378Z</time></trkpt><trkpt lat="39.2719282" lon="9.3987537"><ele>649.0</ele><time>2026-04-18T11:00:24.371Z</time></trkpt><trkpt lat="39.2718761" lon="9.3985843"><ele>649.0</ele><time>2026-04-18T11:00:25.37Z</time></trkpt><trkpt lat="39.2718518" lon="9.3984337"><ele>649.0</ele><time>2026-04-18T11:00:26.386Z</time></trkpt><trkpt lat="39.271865" lon="9.398282"><ele>649.0</ele><time>2026-04-18T11:00:27.401Z</time></trkpt><trkpt lat="39.271881" lon="9.3981228"><ele>649.0</ele><time>2026-04-18T11:00:28.351Z</time></trkpt><trkpt lat="39.2718942" lon="9.3979819"><ele>649.6</ele><time>2026-04-18T11:00:29.372Z</time></trkpt><trkpt lat="39.2719087" lon="9.3978509"><ele>650.2</ele><time>2026-04-18T11:00:30.364Z</time></trkpt><trkpt lat="39.2719632" lon="9.3977244"><ele>650.8000000000001</ele><time>2026-04-18T11:00:31.358Z</time></trkpt><trkpt lat="39.2720196" lon="9.3976135"><ele>651.4000000000001</ele><time>2026-04-18T11:00:32.35Z</time></trkpt><trkpt lat="39.2720682" lon="9.3975188"><ele>652.0</ele><time>2026-04-18T11:00:33.366Z</time></trkpt><trkpt lat="39.2721063" lon="9.3974389"><ele>652.0</ele><time>2026-04-18T11:00:34.352Z</time></trkpt><trkpt lat="39.2721636" lon="9.3973194"><ele>652.0</ele><time>2026-04-18T11:00:36.359Z</time></trkpt><trkpt lat="39.2722017" lon="9.3972534"><ele>652.0</ele><time>2026-04-18T11:00:38.375Z</time></trkpt><trkpt lat="39.2722995" lon="9.3972083"><ele>652.0</ele><time>2026-04-18T11:01:15.391Z</time></trkpt><trkpt lat="39.272414" lon="9.3971692"><ele>652.0</ele><time>2026-04-18T11:01:17.358Z</time></trkpt><trkpt lat="39.2725474" lon="9.3971127"><ele>654.2</ele><time>2026-04-18T11:01:19.359Z</time></trkpt><trkpt lat="39.272638" lon="9.3970703"><ele>656.4000000000001</ele><time>2026-04-18T11:01:20.37Z</time></trkpt><trkpt lat="39.2727376" lon="9.3970237"><ele>658.5999999999999</ele><time>2026-04-18T11:01:21.359Z</time></trkpt><trkpt lat="39.272846" lon="9.396974"><ele>660.8</ele><time>2026-04-18T11:01:22.361Z</time></trkpt><trkpt lat="39.2729617" lon="9.3969199"><ele>663.0</ele><time>2026-04-18T11:01:23.353Z</time></trkpt><trkpt lat="39.2730839" lon="9.3968615"><ele>661.5</ele><time>2026-04-18T11:01:24.371Z</time></trkpt><trkpt lat="39.2732106" lon="9.3968048"><ele>660.0</ele><time>2026-04-18T11:01:25.366Z</time></trkpt><trkpt lat="39.2733427" lon="9.3967474"><ele>658.5</ele><time>2026-04-18T11:01:26.37Z</time></trkpt><trkpt lat="39.273481" lon="9.3966948"><ele>657.0</ele><time>2026-04-18T11:01:27.355Z</time></trkpt><trkpt lat="39.2736253" lon="9.3966532"><ele>657.0</ele><time>2026-04-18T11:01:28.354Z</time></trkpt><trkpt lat="39.2737737" lon="9.3966189"><ele>657.0</ele><time>2026-04-18T11:01:29.359Z</time></trkpt><trkpt lat="39.2739244" lon="9.3965868"><ele>657.0</ele><time>2026-04-18T11:01:30.357Z</time></trkpt><trkpt lat="39.2740773" lon="9.3965549"><ele>656.6666666666666</ele><time>2026-04-18T11:01:31.364Z</time></trkpt><trkpt lat="39.2742318" lon="9.3965212"><ele>656.3333333333333</ele><time>2026-04-18T11:01:32.356Z</time></trkpt><trkpt lat="39.2743868" lon="9.3964881"><ele>656.0</ele><time>2026-04-18T11:01:33.362Z</time></trkpt><trkpt lat="39.2745381" lon="9.3964575"><ele>656.0</ele><time>2026-04-18T11:01:34.357Z</time></trkpt><trkpt lat="39.2746776" lon="9.3964242"><ele>656.0</ele><time>2026-04-18T11:01:35.364Z</time></trkpt><trkpt lat="39.2747998" lon="9.3963634"><ele>656.0</ele><time>2026-04-18T11:01:36.361Z</time></trkpt><trkpt lat="39.2749093" lon="9.3962633"><ele>656.0</ele><time>2026-04-18T11:01:37.368Z</time></trkpt><trkpt lat="39.2750047" lon="9.3961333"><ele>657.0</ele><time>2026-04-18T11:01:38.364Z</time></trkpt><trkpt lat="39.2750888" lon="9.3959859"><ele>658.0</ele><time>2026-04-18T11:01:39.368Z</time></trkpt><trkpt lat="39.2751636" lon="9.3958478"><ele>659.0</ele><time>2026-04-18T11:01:40.357Z</time></trkpt><trkpt lat="39.2752245" lon="9.3957194"><ele>660.0</ele><time>2026-04-18T11:01:41.364Z</time></trkpt><trkpt lat="39.2752676" lon="9.3955878"><ele>660.0</ele><time>2026-04-18T11:01:42.364Z</time></trkpt><trkpt lat="39.2753107" lon="9.3954518"><ele>660.0</ele><time>2026-04-18T11:01:43.351Z</time></trkpt><trkpt lat="39.2753174" lon="9.3952876"><ele>660.0</ele><time>2026-04-18T11:01:44.368Z</time></trkpt><trkpt lat="39.2753112" lon="9.3951145"><ele>660.0</ele><time>2026-04-18T11:01:45.353Z</time></trkpt><trkpt lat="39.275296" lon="9.3949361"><ele>660.0</ele><time>2026-04-18T11:01:46.363Z</time></trkpt><trkpt lat="39.2752761" lon="9.3947523"><ele>660.0</ele><time>2026-04-18T11:01:47.366Z</time></trkpt><trkpt lat="39.2752551" lon="9.3945685"><ele>660.0</ele><time>2026-04-18T11:01:48.367Z</time></trkpt><trkpt lat="39.2752414" lon="9.3943888"><ele>660.0</ele><time>2026-04-18T11:01:49.368Z</time></trkpt><trkpt lat="39.2752526" lon="9.3942112"><ele>659.75</ele><time>2026-04-18T11:01:50.366Z</time></trkpt><trkpt lat="39.2752943" lon="9.3940433"><ele>659.5</ele><time>2026-04-18T11:01:51.344Z</time></trkpt><trkpt lat="39.2753542" lon="9.3938929"><ele>659.25</ele><time>2026-04-18T11:01:52.355Z</time></trkpt><trkpt lat="39.2754307" lon="9.3937633"><ele>659.0</ele><time>2026-04-18T11:01:53.348Z</time></trkpt><trkpt lat="39.2755321" lon="9.3936601"><ele>656.5</ele><time>2026-04-18T11:01:54.351Z</time></trkpt><trkpt lat="39.2756505" lon="9.3935843"><ele>654.0</ele><time>2026-04-18T11:01:55.348Z</time></trkpt><trkpt lat="39.2757785" lon="9.3935217"><ele>651.5</ele><time>2026-04-18T11:01:56.361Z</time></trkpt><trkpt lat="39.2759112" lon="9.3934602"><ele>649.0</ele><time>2026-04-18T11:01:57.374Z</time></trkpt><trkpt lat="39.2760493" lon="9.3933949"><ele>649.0</ele><time>2026-04-18T11:01:58.369Z</time></trkpt><trkpt lat="39.2761925" lon="9.3933266"><ele>649.0</ele><time>2026-04-18T11:01:59.363Z</time></trkpt><trkpt lat="39.2763392" lon="9.3932551"><ele>649.0</ele><time>2026-04-18T11:02:00.376Z</time></trkpt><trkpt lat="39.2764888" lon="9.3931816"><ele>647.0</ele><time>2026-04-18T11:02:01.376Z</time></trkpt><trkpt lat="39.2766407" lon="9.3931063"><ele>645.0</ele><time>2026-04-18T11:02:02.379Z</time></trkpt><trkpt lat="39.2767967" lon="9.3930297"><ele>643.0</ele><time>2026-04-18T11:02:03.364Z</time></trkpt><trkpt lat="39.276955" lon="9.392954"><ele>644.0</ele><time>2026-04-18T11:02:04.364Z</time></trkpt><trkpt lat="39.2771156" lon="9.3928779"><ele>645.0</ele><time>2026-04-18T11:02:05.351Z</time></trkpt><trkpt lat="39.2772769" lon="9.3928003"><ele>646.0</ele><time>2026-04-18T11:02:06.365Z</time></trkpt><trkpt lat="39.2774397" lon="9.392723"><ele>646.0</ele><time>2026-04-18T11:02:07.351Z</time></trkpt><trkpt lat="39.2776047" lon="9.3926504"><ele>646.0</ele><time>2026-04-18T11:02:08.376Z</time></trkpt><trkpt lat="39.2777698" lon="9.3925832"><ele>646.0</ele><time>2026-04-18T11:02:09.368Z</time></trkpt><trkpt lat="39.277932" lon="9.3925126"><ele>646.0</ele><time>2026-04-18T11:02:10.373Z</time></trkpt><trkpt lat="39.278088" lon="9.3924315"><ele>646.0</ele><time>2026-04-18T11:02:11.368Z</time></trkpt><trkpt lat="39.2782342" lon="9.3923248"><ele>646.0</ele><time>2026-04-18T11:02:12.362Z</time></trkpt><trkpt lat="39.2783681" lon="9.3921976"><ele>647.6666666666667</ele><time>2026-04-18T11:02:13.356Z</time></trkpt><trkpt lat="39.2784931" lon="9.3920487"><ele>649.3333333333334</ele><time>2026-04-18T11:02:14.375Z</time></trkpt><trkpt lat="39.2786129" lon="9.3918899"><ele>651.0</ele><time>2026-04-18T11:02:15.357Z</time></trkpt><trkpt lat="39.2787331" lon="9.3917319"><ele>651.0</ele><time>2026-04-18T11:02:16.361Z</time></trkpt><trkpt lat="39.278853" lon="9.3915754"><ele>651.0</ele><time>2026-04-18T11:02:17.353Z</time></trkpt><trkpt lat="39.2789718" lon="9.3914202"><ele>651.0</ele><time>2026-04-18T11:02:18.353Z</time></trkpt><trkpt lat="39.2790949" lon="9.3912738"><ele>648.75</ele><time>2026-04-18T11:02:19.354Z</time></trkpt><trkpt lat="39.2791983" lon="9.3911359"><ele>646.5</ele><time>2026-04-18T11:02:20.345Z</time></trkpt><trkpt lat="39.2792923" lon="9.3910182"><ele>644.25</ele><time>2026-04-18T11:02:21.359Z</time></trkpt><trkpt lat="39.279383" lon="9.3908992"><ele>642.0</ele><time>2026-04-18T11:02:22.362Z</time></trkpt><trkpt lat="39.2794749" lon="9.3907758"><ele>642.0</ele><time>2026-04-18T11:02:23.346Z</time></trkpt><trkpt lat="39.2795766" lon="9.3906416"><ele>642.0</ele><time>2026-04-18T11:02:24.366Z</time></trkpt><trkpt lat="39.2796888" lon="9.3905198"><ele>642.0</ele><time>2026-04-18T11:02:25.358Z</time></trkpt><trkpt lat="39.2798072" lon="9.3903899"><ele>642.0</ele><time>2026-04-18T11:02:26.348Z</time></trkpt><trkpt lat="39.279929" lon="9.3902522"><ele>640.0</ele><time>2026-04-18T11:02:27.365Z</time></trkpt><trkpt lat="39.2800533" lon="9.3901182"><ele>638.0</ele><time>2026-04-18T11:02:28.36Z</time></trkpt><trkpt lat="39.2801792" lon="9.3899818"><ele>636.0</ele><time>2026-04-18T11:02:29.355Z</time></trkpt><trkpt lat="39.2803059" lon="9.3898432"><ele>636.0</ele><time>2026-04-18T11:02:30.36Z</time></trkpt><trkpt lat="39.2804337" lon="9.389707"><ele>636.0</ele><time>2026-04-18T11:02:31.366Z</time></trkpt><trkpt lat="39.280562" lon="9.3895713"><ele>636.0</ele><time>2026-04-18T11:02:32.361Z</time></trkpt><trkpt lat="39.2806917" lon="9.3894326"><ele>633.6666666666666</ele><time>2026-04-18T11:02:33.361Z</time></trkpt><trkpt lat="39.2808226" lon="9.3892902"><ele>631.3333333333333</ele><time>2026-04-18T11:02:34.368Z</time></trkpt><trkpt lat="39.2809516" lon="9.3891452"><ele>629.0</ele><time>2026-04-18T11:02:35.347Z</time></trkpt><trkpt lat="39.2810793" lon="9.3889936"><ele>629.3333333333333</ele><time>2026-04-18T11:02:36.348Z</time></trkpt><trkpt lat="39.2812073" lon="9.3888397"><ele>629.6666666666666</ele><time>2026-04-18T11:02:37.352Z</time></trkpt><trkpt lat="39.2813384" lon="9.3886889"><ele>630.0</ele><time>2026-04-18T11:02:38.361Z</time></trkpt><trkpt lat="39.2814718" lon="9.3885439"><ele>627.6666666666666</ele><time>2026-04-18T11:02:39.356Z</time></trkpt><trkpt lat="39.2816039" lon="9.3883981"><ele>625.3333333333333</ele><time>2026-04-18T11:02:40.365Z</time></trkpt><trkpt lat="39.281733" lon="9.3882556"><ele>623.0</ele><time>2026-04-18T11:02:41.357Z</time></trkpt><trkpt lat="39.2818605" lon="9.3881166"><ele>622.6666666666666</ele><time>2026-04-18T11:02:42.357Z</time></trkpt><trkpt lat="39.2819876" lon="9.3879831"><ele>622.3333333333334</ele><time>2026-04-18T11:02:43.373Z</time></trkpt><trkpt lat="39.2821271" lon="9.3878711"><ele>622.0</ele><time>2026-04-18T11:02:44.38Z</time></trkpt><trkpt lat="39.2822764" lon="9.3877795"><ele>622.0</ele><time>2026-04-18T11:02:45.373Z</time></trkpt><trkpt lat="39.2824352" lon="9.3877024"><ele>622.0</ele><time>2026-04-18T11:02:46.365Z</time></trkpt><trkpt lat="39.2825967" lon="9.387622"><ele>622.0</ele><time>2026-04-18T11:02:47.388Z</time></trkpt><trkpt lat="39.282754" lon="9.3875389"><ele>622.0</ele><time>2026-04-18T11:02:48.361Z</time></trkpt><trkpt lat="39.2829134" lon="9.3874496"><ele>622.0</ele><time>2026-04-18T11:02:49.365Z</time></trkpt><trkpt lat="39.2830705" lon="9.3873595"><ele>622.0</ele><time>2026-04-18T11:02:50.362Z</time></trkpt><trkpt lat="39.2832277" lon="9.387266"><ele>622.75</ele><time>2026-04-18T11:02:51.359Z</time></trkpt><trkpt lat="39.283375" lon="9.3871746"><ele>623.5</ele><time>2026-04-18T11:02:52.371Z</time></trkpt><trkpt lat="39.2835102" lon="9.3870977"><ele>624.25</ele><time>2026-04-18T11:02:53.357Z</time></trkpt><trkpt lat="39.283641" lon="9.387048"><ele>625.0</ele><time>2026-04-18T11:02:54.353Z</time></trkpt><trkpt lat="39.2837717" lon="9.387042"><ele>625.0</ele><time>2026-04-18T11:02:55.356Z</time></trkpt><trkpt lat="39.2838977" lon="9.3870892"><ele>625.0</ele><time>2026-04-18T11:02:56.359Z</time></trkpt><trkpt lat="39.2840137" lon="9.3871728"><ele>625.0</ele><time>2026-04-18T11:02:57.368Z</time></trkpt><trkpt lat="39.2841165" lon="9.3872782"><ele>625.0</ele><time>2026-04-18T11:02:58.357Z</time></trkpt><trkpt lat="39.2842202" lon="9.3873689"><ele>623.5</ele><time>2026-04-18T11:02:59.356Z</time></trkpt><trkpt lat="39.2843415" lon="9.3874024"><ele>622.0</ele><time>2026-04-18T11:03:00.362Z</time></trkpt><trkpt lat="39.284472" lon="9.3873981"><ele>620.5</ele><time>2026-04-18T11:03:01.358Z</time></trkpt><trkpt lat="39.2846085" lon="9.3873801"><ele>619.0</ele><time>2026-04-18T11:03:02.363Z</time></trkpt><trkpt lat="39.284751" lon="9.3873819"><ele>620.25</ele><time>2026-04-18T11:03:03.36Z</time></trkpt><trkpt lat="39.2848969" lon="9.3874019"><ele>621.5</ele><time>2026-04-18T11:03:04.362Z</time></trkpt><trkpt lat="39.2850432" lon="9.3874271"><ele>622.75</ele><time>2026-04-18T11:03:05.36Z</time></trkpt><trkpt lat="39.2851877" lon="9.3874466"><ele>624.0</ele><time>2026-04-18T11:03:06.375Z</time></trkpt><trkpt lat="39.2853304" lon="9.3874473"><ele>624.0</ele><time>2026-04-18T11:03:07.356Z</time></trkpt><trkpt lat="39.2854718" lon="9.3874197"><ele>624.0</ele><time>2026-04-18T11:03:08.365Z</time></trkpt><trkpt lat="39.2856129" lon="9.3873714"><ele>624.0</ele><time>2026-04-18T11:03:09.357Z</time></trkpt><trkpt lat="39.2857506" lon="9.3873033"><ele>624.0</ele><time>2026-04-18T11:03:10.359Z</time></trkpt><trkpt lat="39.2858827" lon="9.3872142"><ele>626.25</ele><time>2026-04-18T11:03:11.352Z</time></trkpt><trkpt lat="39.286003" lon="9.3871121"><ele>628.5</ele><time>2026-04-18T11:03:12.36Z</time></trkpt><trkpt lat="39.2860928" lon="9.3869978"><ele>630.75</ele><time>2026-04-18T11:03:13.356Z</time></trkpt><trkpt lat="39.2861538" lon="9.3868751"><ele>633.0</ele><time>2026-04-18T11:03:14.358Z</time></trkpt><trkpt lat="39.2861885" lon="9.3867384"><ele>633.0</ele><time>2026-04-18T11:03:15.346Z</time></trkpt><trkpt lat="39.2862066" lon="9.3865893"><ele>633.0</ele><time>2026-04-18T11:03:16.36Z</time></trkpt><trkpt lat="39.2862177" lon="9.386432"><ele>633.0</ele><time>2026-04-18T11:03:17.37Z</time></trkpt><trkpt lat="39.2862228" lon="9.3862684"><ele>633.0</ele><time>2026-04-18T11:03:18.358Z</time></trkpt><trkpt lat="39.2862231" lon="9.3861022"><ele>634.0</ele><time>2026-04-18T11:03:19.357Z</time></trkpt><trkpt lat="39.2862269" lon="9.3859474"><ele>635.0</ele><time>2026-04-18T11:03:20.36Z</time></trkpt><trkpt lat="39.2862453" lon="9.3858153"><ele>636.0</ele><time>2026-04-18T11:03:21.346Z</time></trkpt><trkpt lat="39.2862909" lon="9.3857036"><ele>637.0</ele><time>2026-04-18T11:03:22.364Z</time></trkpt><trkpt lat="39.2863694" lon="9.3856143"><ele>638.0</ele><time>2026-04-18T11:03:23.356Z</time></trkpt><trkpt lat="39.2864744" lon="9.3855488"><ele>637.0</ele><time>2026-04-18T11:03:24.352Z</time></trkpt><trkpt lat="39.286599" lon="9.385503"><ele>636.0</ele><time>2026-04-18T11:03:25.357Z</time></trkpt><trkpt lat="39.2867348" lon="9.3854663"><ele>635.0</ele><time>2026-04-18T11:03:26.365Z</time></trkpt><trkpt lat="39.2868757" lon="9.3854298"><ele>634.0</ele><time>2026-04-18T11:03:27.373Z</time></trkpt><trkpt lat="39.2870169" lon="9.3853846"><ele>634.0</ele><time>2026-04-18T11:03:28.355Z</time></trkpt><trkpt lat="39.2871544" lon="9.3853252"><ele>634.0</ele><time>2026-04-18T11:03:29.356Z</time></trkpt><trkpt lat="39.2872819" lon="9.3852468"><ele>634.0</ele><time>2026-04-18T11:03:30.391Z</time></trkpt><trkpt lat="39.2873915" lon="9.3851442"><ele>634.0</ele><time>2026-04-18T11:03:31.36Z</time></trkpt><trkpt lat="39.2874884" lon="9.385024"><ele>631.4</ele><time>2026-04-18T11:03:32.379Z</time></trkpt><trkpt lat="39.2875716" lon="9.3849064"><ele>628.8</ele><time>2026-04-18T11:03:33.379Z</time></trkpt><trkpt lat="39.2876458" lon="9.3848157"><ele>626.2</ele><time>2026-04-18T11:03:34.365Z</time></trkpt><trkpt lat="39.2877344" lon="9.3847751"><ele>623.6</ele><time>2026-04-18T11:03:35.355Z</time></trkpt><trkpt lat="39.287837" lon="9.3847905"><ele>621.0</ele><time>2026-04-18T11:03:36.348Z</time></trkpt><trkpt lat="39.2879443" lon="9.3848145"><ele>621.0</ele><time>2026-04-18T11:03:37.349Z</time></trkpt><trkpt lat="39.2880393" lon="9.3849153"><ele>621.0</ele><time>2026-04-18T11:03:38.362Z</time></trkpt><trkpt lat="39.288136" lon="9.385029"><ele>621.0</ele><time>2026-04-18T11:03:39.356Z</time></trkpt><trkpt lat="39.2882387" lon="9.3851443"><ele>621.0</ele><time>2026-04-18T11:03:40.35Z</time></trkpt><trkpt lat="39.2883457" lon="9.3852601"><ele>620.75</ele><time>2026-04-18T11:03:41.369Z</time></trkpt><trkpt lat="39.288456" lon="9.385377"><ele>620.5</ele><time>2026-04-18T11:03:42.351Z</time></trkpt><trkpt lat="39.2885634" lon="9.3855063"><ele>620.25</ele><time>2026-04-18T11:03:43.352Z</time></trkpt><trkpt lat="39.2886804" lon="9.3856263"><ele>620.0</ele><time>2026-04-18T11:03:44.352Z</time></trkpt><trkpt lat="39.2887984" lon="9.3857439"><ele>619.5</ele><time>2026-04-18T11:03:45.369Z</time></trkpt><trkpt lat="39.2889168" lon="9.3858588"><ele>619.0</ele><time>2026-04-18T11:03:46.356Z</time></trkpt><trkpt lat="39.2890328" lon="9.3859675"><ele>618.5</ele><time>2026-04-18T11:03:47.358Z</time></trkpt><trkpt lat="39.2891375" lon="9.3860806"><ele>618.0</ele><time>2026-04-18T11:03:48.346Z</time></trkpt><trkpt lat="39.2892247" lon="9.386206"><ele>616.5</ele><time>2026-04-18T11:03:49.355Z</time></trkpt><trkpt lat="39.2892842" lon="9.3863529"><ele>615.0</ele><time>2026-04-18T11:03:50.372Z</time></trkpt><trkpt lat="39.2893127" lon="9.3865082"><ele>613.5</ele><time>2026-04-18T11:03:51.364Z</time></trkpt><trkpt lat="39.2893298" lon="9.3866596"><ele>612.0</ele><time>2026-04-18T11:03:52.361Z</time></trkpt><trkpt lat="39.289352" lon="9.3868013"><ele>612.0</ele><time>2026-04-18T11:03:53.359Z</time></trkpt><trkpt lat="39.2894211" lon="9.3869204"><ele>612.0</ele><time>2026-04-18T11:03:54.352Z</time></trkpt><trkpt lat="39.2895134" lon="9.3870302"><ele>612.0</ele><time>2026-04-18T11:03:55.352Z</time></trkpt><trkpt lat="39.289607" lon="9.3871336"><ele>612.0</ele><time>2026-04-18T11:03:56.364Z</time></trkpt><trkpt lat="39.2896986" lon="9.387241"><ele>613.25</ele><time>2026-04-18T11:03:57.353Z</time></trkpt><trkpt lat="39.2897886" lon="9.3873441"><ele>614.5</ele><time>2026-04-18T11:03:58.36Z</time></trkpt><trkpt lat="39.2898481" lon="9.3874807"><ele>615.75</ele><time>2026-04-18T11:03:59.361Z</time></trkpt><trkpt lat="39.2898983" lon="9.3876223"><ele>617.0</ele><time>2026-04-18T11:04:00.354Z</time></trkpt><trkpt lat="39.2899574" lon="9.3877547"><ele>617.0</ele><time>2026-04-18T11:04:01.362Z</time></trkpt><trkpt lat="39.2900237" lon="9.3878694"><ele>617.0</ele><time>2026-04-18T11:04:02.362Z</time></trkpt><trkpt lat="39.2900956" lon="9.3879726"><ele>617.0</ele><time>2026-04-18T11:04:03.355Z</time></trkpt><trkpt lat="39.2901816" lon="9.3880601"><ele>617.0</ele><time>2026-04-18T11:04:04.356Z</time></trkpt><trkpt lat="39.2902855" lon="9.3881153"><ele>617.0</ele><time>2026-04-18T11:04:05.354Z</time></trkpt><trkpt lat="39.2904014" lon="9.3881425"><ele>617.0</ele><time>2026-04-18T11:04:06.359Z</time></trkpt><trkpt lat="39.2905198" lon="9.3881528"><ele>617.0</ele><time>2026-04-18T11:04:07.354Z</time></trkpt><trkpt lat="39.2906335" lon="9.3881418"><ele>617.0</ele><time>2026-04-18T11:04:08.357Z</time></trkpt><trkpt lat="39.2907406" lon="9.3880863"><ele>617.0</ele><time>2026-04-18T11:04:09.351Z</time></trkpt><trkpt lat="39.2908403" lon="9.3879878"><ele>620.0</ele><time>2026-04-18T11:04:10.357Z</time></trkpt><trkpt lat="39.2882387" lon="9.3851443"><ele>620.0</ele><time>2026-04-18T11:03:40.35Z</time></trkpt><trkpt lat="39.2883457" lon="9.3852601"><ele>620.0</ele><time>2026-04-18T11:03:41.369Z</time></trkpt><trkpt lat="39.288456" lon="9.385377"><ele>620.0</ele><time>2026-04-18T11:03:42.351Z</time></trkpt><trkpt lat="39.2885634" lon="9.3855063"><ele>620.0</ele><time>2026-04-18T11:03:43.352Z</time></trkpt><trkpt lat="39.2886804" lon="9.3856263"><ele>619.5</ele><time>2026-04-18T11:03:44.352Z</time></trkpt><trkpt lat="39.2887984" lon="9.3857439"><ele>619.0</ele><time>2026-04-18T11:03:45.369Z</time></trkpt><trkpt lat="39.2889168" lon="9.3858588"><ele>618.5</ele><time>2026-04-18T11:03:46.356Z</time></trkpt><trkpt lat="39.2890328" lon="9.3859675"><ele>618.0</ele><time>2026-04-18T11:03:47.358Z</time></trkpt><trkpt lat="39.2891375" lon="9.3860806"><ele>618.0</ele><time>2026-04-18T11:03:48.346Z</time></trkpt><trkpt lat="39.2892247" lon="9.386206"><ele>618.0</ele><time>2026-04-18T11:03:49.355Z</time></trkpt><trkpt lat="39.2892842" lon="9.3863529"><ele>618.0</ele><time>2026-04-18T11:03:50.372Z</time></trkpt><trkpt lat="39.2893127" lon="9.3865082"><ele>618.0</ele><time>2026-04-18T11:03:51.364Z</time></trkpt><trkpt lat="39.2893298" lon="9.3866596"><ele>616.5</ele><time>2026-04-18T11:03:52.361Z</time></trkpt><trkpt lat="39.289352" lon="9.3868013"><ele>615.0</ele><time>2026-04-18T11:03:53.359Z</time></trkpt><trkpt lat="39.2894211" lon="9.3869204"><ele>613.5</ele><time>2026-04-18T11:03:54.352Z</time></trkpt><trkpt lat="39.2895134" lon="9.3870302"><ele>612.0</ele><time>2026-04-18T11:03:55.352Z</time></trkpt><trkpt lat="39.289607" lon="9.3871336"><ele>610.75</ele><time>2026-04-18T11:03:56.364Z</time></trkpt><trkpt lat="39.2896986" lon="9.387241"><ele>609.5</ele><time>2026-04-18T11:03:57.353Z</time></trkpt><trkpt lat="39.2897886" lon="9.3873441"><ele>608.25</ele><time>2026-04-18T11:03:58.36Z</time></trkpt><trkpt lat="39.2898481" lon="9.3874807"><ele>607.0</ele><time>2026-04-18T11:03:59.361Z</time></trkpt><trkpt lat="39.2898983" lon="9.3876223"><ele>607.8000000000001</ele><time>2026-04-18T11:04:00.354Z</time></trkpt><trkpt lat="39.2899574" lon="9.3877547"><ele>608.6</ele><time>2026-04-18T11:04:01.362Z</time></trkpt><trkpt lat="39.2900237" lon="9.3878694"><ele>609.4000000000001</ele><time>2026-04-18T11:04:02.362Z</time></trkpt><trkpt lat="39.2900956" lon="9.3879726"><ele>610.2</ele><time>2026-04-18T11:04:03.355Z</time></trkpt><trkpt lat="39.2901816" lon="9.3880601"><ele>611.0</ele><time>2026-04-18T11:04:04.356Z</time></trkpt><trkpt lat="39.2902855" lon="9.3881153"><ele>611.0</ele><time>2026-04-18T11:04:05.354Z</time></trkpt><trkpt lat="39.2904014" lon="9.3881425"><ele>611.0</ele><time>2026-04-18T11:04:06.359Z</time></trkpt><trkpt lat="39.2905198" lon="9.3881528"><ele>611.0</ele><time>2026-04-18T11:04:07.354Z</time></trkpt><trkpt lat="39.2906335" lon="9.3881418"><ele>611.0</ele><time>2026-04-18T11:04:08.357Z</time></trkpt><trkpt lat="39.2907406" lon="9.3880863"><ele>612.5</ele><time>2026-04-18T11:04:09.351Z</time></trkpt><trkpt lat="39.2908403" lon="9.3879878"><ele>614.0</ele><time>2026-04-18T11:04:10.357Z</time></trkpt><trkpt lat="39.2909466" lon="9.3878843"><ele>615.5</ele><time>2026-04-18T11:04:11.362Z</time></trkpt><trkpt lat="39.2910476" lon="9.3877655"><ele>617.0</ele><time>2026-04-18T11:04:12.357Z</time></trkpt><trkpt lat="39.2911595" lon="9.3876581"><ele>617.0</ele><time>2026-04-18T11:04:13.354Z</time></trkpt><trkpt lat="39.2912784" lon="9.3875647"><ele>617.0</ele><time>2026-04-18T11:04:14.352Z</time></trkpt><trkpt lat="39.2914014" lon="9.3874848"><ele>617.0</ele><time>2026-04-18T11:04:15.368Z</time></trkpt><trkpt lat="39.2915256" lon="9.3874066"><ele>617.0</ele><time>2026-04-18T11:04:16.355Z</time></trkpt><trkpt lat="39.2916492" lon="9.3873258"><ele>617.5</ele><time>2026-04-18T11:04:17.39Z</time></trkpt><trkpt lat="39.2917714" lon="9.3872415"><ele>618.0</ele><time>2026-04-18T11:04:18.361Z</time></trkpt><trkpt lat="39.2918941" lon="9.3871602"><ele>618.5</ele><time>2026-04-18T11:04:19.373Z</time></trkpt><trkpt lat="39.2920092" lon="9.3870946"><ele>619.0</ele><time>2026-04-18T11:04:20.356Z</time></trkpt><trkpt lat="39.2921157" lon="9.3870599"><ele>619.0</ele><time>2026-04-18T11:04:21.354Z</time></trkpt><trkpt lat="39.292203" lon="9.3870681"><ele>619.0</ele><time>2026-04-18T11:04:22.357Z</time></trkpt><trkpt lat="39.2922665" lon="9.3871055"><ele>619.0</ele><time>2026-04-18T11:04:23.347Z</time></trkpt><trkpt lat="39.2923073" lon="9.3871767"><ele>619.0</ele><time>2026-04-18T11:04:24.355Z</time></trkpt><trkpt lat="39.29231" lon="9.3872814"><ele>619.0</ele><time>2026-04-18T11:04:25.367Z</time></trkpt><trkpt lat="39.2922695" lon="9.387383"><ele>619.0</ele><time>2026-04-18T11:04:26.356Z</time></trkpt><trkpt lat="39.2921958" lon="9.3874526"><ele>615.8</ele><time>2026-04-18T11:04:27.354Z</time></trkpt><trkpt lat="39.2921085" lon="9.3874839"><ele>612.5999999999999</ele><time>2026-04-18T11:04:28.361Z</time></trkpt><trkpt lat="39.2920146" lon="9.3875077"><ele>609.4</ele><time>2026-04-18T11:04:29.36Z</time></trkpt><trkpt lat="39.291919" lon="9.3875495"><ele>606.1999999999999</ele><time>2026-04-18T11:04:30.349Z</time></trkpt><trkpt lat="39.2918332" lon="9.3876329"><ele>603.0</ele><time>2026-04-18T11:04:31.357Z</time></trkpt><trkpt lat="39.2917659" lon="9.3877512"><ele>603.0</ele><time>2026-04-18T11:04:32.354Z</time></trkpt><trkpt lat="39.2917202" lon="9.38789"><ele>603.0</ele><time>2026-04-18T11:04:33.347Z</time></trkpt><trkpt lat="39.2916978" lon="9.3880457"><ele>603.0</ele><time>2026-04-18T11:04:34.354Z</time></trkpt><trkpt lat="39.2917064" lon="9.3882094"><ele>603.0</ele><time>2026-04-18T11:04:35.354Z</time></trkpt><trkpt lat="39.2917417" lon="9.3883743"><ele>602.0</ele><time>2026-04-18T11:04:36.349Z</time></trkpt><trkpt lat="39.2917898" lon="9.3885378"><ele>601.0</ele><time>2026-04-18T11:04:37.356Z</time></trkpt><trkpt lat="39.2918453" lon="9.3887018"><ele>600.0</ele><time>2026-04-18T11:04:38.36Z</time></trkpt><trkpt lat="39.2919069" lon="9.3888647"><ele>599.0</ele><time>2026-04-18T11:04:39.345Z</time></trkpt><trkpt lat="39.2919756" lon="9.3890216"><ele>599.0</ele><time>2026-04-18T11:04:40.355Z</time></trkpt><trkpt lat="39.2920456" lon="9.3891677"><ele>599.0</ele><time>2026-04-18T11:04:41.358Z</time></trkpt><trkpt lat="39.2920995" lon="9.3893111"><ele>599.0</ele><time>2026-04-18T11:04:42.357Z</time></trkpt><trkpt lat="39.2921486" lon="9.389453"><ele>599.0</ele><time>2026-04-18T11:04:43.361Z</time></trkpt><trkpt lat="39.2921428" lon="9.3896089"><ele>600.75</ele><time>2026-04-18T11:04:44.358Z</time></trkpt><trkpt lat="39.2921305" lon="9.38976"><ele>602.5</ele><time>2026-04-18T11:04:45.363Z</time></trkpt><trkpt lat="39.2921344" lon="9.3899081"><ele>604.25</ele><time>2026-04-18T11:04:46.354Z</time></trkpt><trkpt lat="39.2921656" lon="9.3900559"><ele>606.0</ele><time>2026-04-18T11:04:47.364Z</time></trkpt><trkpt lat="39.2922224" lon="9.3901939"><ele>601.25</ele><time>2026-04-18T11:04:48.348Z</time></trkpt><trkpt lat="39.2923057" lon="9.3903151"><ele>596.5</ele><time>2026-04-18T11:04:49.351Z</time></trkpt><trkpt lat="39.2924113" lon="9.3904136"><ele>591.75</ele><time>2026-04-18T11:04:50.355Z</time></trkpt><trkpt lat="39.292531" lon="9.3904951"><ele>587.0</ele><time>2026-04-18T11:04:51.359Z</time></trkpt><trkpt lat="39.2926574" lon="9.3905699"><ele>587.0</ele><time>2026-04-18T11:04:52.36Z</time></trkpt><trkpt lat="39.2927883" lon="9.3906406"><ele>587.0</ele><time>2026-04-18T11:04:53.368Z</time></trkpt><trkpt lat="39.2929209" lon="9.3907072"><ele>587.0</ele><time>2026-04-18T11:04:54.355Z</time></trkpt><trkpt lat="39.2930561" lon="9.3907634"><ele>587.0</ele><time>2026-04-18T11:04:55.361Z</time></trkpt><trkpt lat="39.2931922" lon="9.3908154"><ele>580.5</ele><time>2026-04-18T11:04:56.359Z</time></trkpt><trkpt lat="39.2933251" lon="9.3908792"><ele>574.0</ele><time>2026-04-18T11:04:57.357Z</time></trkpt><trkpt lat="39.2934501" lon="9.390963"><ele>567.5</ele><time>2026-04-18T11:04:58.356Z</time></trkpt><trkpt lat="39.2935664" lon="9.3910583"><ele>561.0</ele><time>2026-04-18T11:04:59.357Z</time></trkpt><trkpt lat="39.2936839" lon="9.3911427"><ele>561.0</ele><time>2026-04-18T11:05:00.362Z</time></trkpt><trkpt lat="39.2938084" lon="9.3912123"><ele>561.0</ele><time>2026-04-18T11:05:01.375Z</time></trkpt><trkpt lat="39.2939395" lon="9.3912701"><ele>561.0</ele><time>2026-04-18T11:05:02.376Z</time></trkpt><trkpt lat="39.2940734" lon="9.3913098"><ele>561.0</ele><time>2026-04-18T11:05:03.378Z</time></trkpt><trkpt lat="39.294206" lon="9.3913488"><ele>560.5</ele><time>2026-04-18T11:05:04.365Z</time></trkpt><trkpt lat="39.2943407" lon="9.3913689"><ele>560.0</ele><time>2026-04-18T11:05:05.353Z</time></trkpt><trkpt lat="39.2944741" lon="9.3914161"><ele>559.5</ele><time>2026-04-18T11:05:06.349Z</time></trkpt><trkpt lat="39.2945991" lon="9.3914753"><ele>559.0</ele><time>2026-04-18T11:05:07.351Z</time></trkpt><trkpt lat="39.2947256" lon="9.3915328"><ele>557.0</ele><time>2026-04-18T11:05:08.354Z</time></trkpt><trkpt lat="39.294856" lon="9.3915815"><ele>555.0</ele><time>2026-04-18T11:05:09.35Z</time></trkpt><trkpt lat="39.2949842" lon="9.391625"><ele>553.0</ele><time>2026-04-18T11:05:10.352Z</time></trkpt><trkpt lat="39.2951074" lon="9.3916675"><ele>551.0</ele><time>2026-04-18T11:05:11.371Z</time></trkpt><trkpt lat="39.2952245" lon="9.3917076"><ele>551.0</ele><time>2026-04-18T11:05:12.376Z</time></trkpt><trkpt lat="39.2953304" lon="9.391744"><ele>551.0</ele><time>2026-04-18T11:05:13.352Z</time></trkpt><trkpt lat="39.2954281" lon="9.3917748"><ele>551.0</ele><time>2026-04-18T11:05:14.369Z</time></trkpt><trkpt lat="39.2955205" lon="9.3917966"><ele>551.0</ele><time>2026-04-18T11:05:15.36Z</time></trkpt><trkpt lat="39.2956082" lon="9.391804"><ele>551.0</ele><time>2026-04-18T11:05:16.378Z</time></trkpt><trkpt lat="39.2956932" lon="9.3918075"><ele>548.6666666666666</ele><time>2026-04-18T11:05:17.357Z</time></trkpt><trkpt lat="39.2957725" lon="9.3918173"><ele>546.3333333333333</ele><time>2026-04-18T11:05:18.361Z</time></trkpt><trkpt lat="39.2958433" lon="9.3918351"><ele>544.0</ele><time>2026-04-18T11:05:19.368Z</time></trkpt><trkpt lat="39.2959035" lon="9.3918645"><ele>541.6666666666666</ele><time>2026-04-18T11:05:20.356Z</time></trkpt><trkpt lat="39.2959868" lon="9.3919417"><ele>539.3333333333334</ele><time>2026-04-18T11:05:22.35Z</time></trkpt><trkpt lat="39.2960343" lon="9.3920086"><ele>537.0</ele><time>2026-04-18T11:05:24.359Z</time></trkpt><trkpt lat="39.2960772" lon="9.3920688"><ele>537.0</ele><time>2026-04-18T11:05:26.358Z</time></trkpt><trkpt lat="39.2961286" lon="9.3921371"><ele>537.0</ele><time>2026-04-18T11:05:29.352Z</time></trkpt><trkpt lat="39.2961915" lon="9.3920857"><ele>537.0</ele><time>2026-04-18T11:05:50.372Z</time></trkpt><trkpt lat="39.2962384" lon="9.3920049"><ele>537.0</ele><time>2026-04-18T11:05:54.36Z</time></trkpt><trkpt lat="39.2961538" lon="9.3919151"><ele>537.0</ele><time>2026-04-18T11:05:57.361Z</time></trkpt><trkpt lat="39.2960596" lon="9.3918343"><ele>537.0</ele><time>2026-04-18T11:05:59.365Z</time></trkpt><trkpt lat="39.2959547" lon="9.3917461"><ele>537.0</ele><time>2026-04-18T11:06:01.356Z</time></trkpt><trkpt lat="39.295887" lon="9.391711"><ele>537.0</ele><time>2026-04-18T11:06:02.357Z</time></trkpt><trkpt lat="39.2958104" lon="9.3916804"><ele>537.0</ele><time>2026-04-18T11:06:03.353Z</time></trkpt><trkpt lat="39.2957408" lon="9.3916478"><ele>537.0</ele><time>2026-04-18T11:06:04.36Z</time></trkpt><trkpt lat="39.2956726" lon="9.3916131"><ele>537.0</ele><time>2026-04-18T11:06:05.37Z</time></trkpt><trkpt lat="39.2956089" lon="9.3915631"><ele>537.0</ele><time>2026-04-18T11:06:06.371Z</time></trkpt><trkpt lat="39.295544" lon="9.3915005"><ele>535.0</ele><time>2026-04-18T11:06:07.351Z</time></trkpt><trkpt lat="39.2954818" lon="9.3914225"><ele>533.0</ele><time>2026-04-18T11:06:08.363Z</time></trkpt><trkpt lat="39.2954226" lon="9.391351"><ele>531.0</ele><time>2026-04-18T11:06:09.357Z</time></trkpt><trkpt lat="39.2953676" lon="9.3912895"><ele>529.0</ele><time>2026-04-18T11:06:10.354Z</time></trkpt><trkpt lat="39.295326" lon="9.3912098"><ele>527.0</ele><time>2026-04-18T11:06:11.361Z</time></trkpt><trkpt lat="39.2952883" lon="9.3911216"><ele>525.0</ele><time>2026-04-18T11:06:12.36Z</time></trkpt><trkpt lat="39.2952313" lon="9.3910452"><ele>525.0</ele><time>2026-04-18T11:06:13.36Z</time></trkpt><trkpt lat="39.2951673" lon="9.3909835"><ele>525.0</ele><time>2026-04-18T11:06:14.347Z</time></trkpt><trkpt lat="39.2951076" lon="9.3909273"><ele>525.0</ele><time>2026-04-18T11:06:15.363Z</time></trkpt><trkpt lat="39.295037" lon="9.3908857"><ele>525.0</ele><time>2026-04-18T11:06:16.361Z</time></trkpt><trkpt lat="39.2949631" lon="9.3908465"><ele>525.0</ele><time>2026-04-18T11:06:17.353Z</time></trkpt><trkpt lat="39.2948854" lon="9.3908292"><ele>525.0</ele><time>2026-04-18T11:06:18.354Z</time></trkpt><trkpt lat="39.2948145" lon="9.3908206"><ele>527.6</ele><time>2026-04-18T11:06:19.363Z</time></trkpt><trkpt lat="39.2946912" lon="9.3907961"><ele>530.2</ele><time>2026-04-18T11:06:21.368Z</time></trkpt><trkpt lat="39.294626" lon="9.3907691"><ele>532.8</ele><time>2026-04-18T11:06:22.355Z</time></trkpt><trkpt lat="39.2945317" lon="9.3907141"><ele>535.4</ele><time>2026-04-18T11:06:24.358Z</time></trkpt><trkpt lat="39.2944694" lon="9.390668"><ele>538.0</ele><time>2026-04-18T11:06:26.366Z</time></trkpt><trkpt lat="39.2943833" lon="9.3906192"><ele>538.0</ele><time>2026-04-18T11:06:29.355Z</time></trkpt><trkpt lat="39.294304" lon="9.3905952"><ele>538.0</ele><time>2026-04-18T11:06:31.351Z</time></trkpt><trkpt lat="39.2942222" lon="9.3905784"><ele>538.0</ele><time>2026-04-18T11:06:33.372Z</time></trkpt><trkpt lat="39.2941442" lon="9.3904993"><ele>538.0</ele><time>2026-04-18T11:06:35.373Z</time></trkpt><trkpt lat="39.294062" lon="9.3903928"><ele>538.0</ele><time>2026-04-18T11:06:37.359Z</time></trkpt><trkpt lat="39.2940032" lon="9.3902957"><ele>537.0</ele><time>2026-04-18T11:06:39.364Z</time></trkpt><trkpt lat="39.2939533" lon="9.3901719"><ele>536.0</ele><time>2026-04-18T11:06:41.367Z</time></trkpt><trkpt lat="39.2939093" lon="9.3900477"><ele>535.0</ele><time>2026-04-18T11:06:43.357Z</time></trkpt><trkpt lat="39.2938655" lon="9.3899376"><ele>534.0</ele><time>2026-04-18T11:06:45.359Z</time></trkpt><trkpt lat="39.2938241" lon="9.3898255"><ele>533.0</ele><time>2026-04-18T11:06:47.349Z</time></trkpt><trkpt lat="39.2937725" lon="9.3897221"><ele>532.6666666666666</ele><time>2026-04-18T11:06:49.355Z</time></trkpt><trkpt lat="39.2937312" lon="9.3896352"><ele>532.3333333333333</ele><time>2026-04-18T11:06:50.355Z</time></trkpt><trkpt lat="39.2936967" lon="9.3895612"><ele>532.0</ele><time>2026-04-18T11:06:51.358Z</time></trkpt><trkpt lat="39.2936658" lon="9.3894798"><ele>531.6666666666666</ele><time>2026-04-18T11:06:53.35Z</time></trkpt><trkpt lat="39.2937198" lon="9.3893977"><ele>531.3333333333334</ele><time>2026-04-18T11:06:55.354Z</time></trkpt><trkpt lat="39.2938399" lon="9.3893766"><ele>531.0</ele><time>2026-04-18T11:06:57.36Z</time></trkpt><trkpt lat="39.2939361" lon="9.389355"><ele>526.8333333333334</ele><time>2026-04-18T11:06:59.351Z</time></trkpt><trkpt lat="39.2940292" lon="9.3892964"><ele>522.6666666666666</ele><time>2026-04-18T11:07:01.364Z</time></trkpt><trkpt lat="39.2940857" lon="9.3892553"><ele>518.5</ele><time>2026-04-18T11:07:02.361Z</time></trkpt><trkpt lat="39.2941468" lon="9.3892152"><ele>514.3333333333333</ele><time>2026-04-18T11:07:03.369Z</time></trkpt><trkpt lat="39.2942085" lon="9.3891729"><ele>510.16666666666663</ele><time>2026-04-18T11:07:04.362Z</time></trkpt><trkpt lat="39.2942633" lon="9.3891262"><ele>506.0</ele><time>2026-04-18T11:07:05.35Z</time></trkpt><trkpt lat="39.2943295" lon="9.3890187"><ele>506.00000000000006</ele><time>2026-04-18T11:07:07.351Z</time></trkpt><trkpt lat="39.294394" lon="9.3890006"><ele>506.0</ele><time>2026-04-18T11:07:08.36Z</time></trkpt><trkpt lat="39.2944629" lon="9.388996"><ele>506.00000000000006</ele><time>2026-04-18T11:07:09.364Z</time></trkpt><trkpt lat="39.294534" lon="9.3889909"><ele>506.00000000000006</ele><time>2026-04-18T11:07:10.367Z</time></trkpt><trkpt lat="39.2946108" lon="9.3889868"><ele>506.0</ele><time>2026-04-18T11:07:11.363Z</time></trkpt><trkpt lat="39.2946885" lon="9.3889917"><ele>506.00000000000006</ele><time>2026-04-18T11:07:12.352Z</time></trkpt><trkpt lat="39.2947598" lon="9.3889879"><ele>506.00000000000006</ele><time>2026-04-18T11:07:13.369Z</time></trkpt><trkpt lat="39.2948245" lon="9.3889789"><ele>506.49999999999994</ele><time>2026-04-18T11:07:14.357Z</time></trkpt><trkpt lat="39.2949396" lon="9.3889773"><ele>507.0</ele><time>2026-04-18T11:07:16.351Z</time></trkpt><trkpt lat="39.2950662" lon="9.3889784"><ele>507.5</ele><time>2026-04-18T11:07:18.36Z</time></trkpt><trkpt lat="39.2951274" lon="9.388944"><ele>508.0</ele><time>2026-04-18T11:07:19.369Z</time></trkpt><trkpt lat="39.2951878" lon="9.3889057"><ele>508.49999999999994</ele><time>2026-04-18T11:07:20.356Z</time></trkpt><trkpt lat="39.2952448" lon="9.3888633"><ele>509.0</ele><time>2026-04-18T11:07:21.352Z</time></trkpt><trkpt lat="39.2953396" lon="9.3887805"><ele>509.0</ele><time>2026-04-18T11:07:23.365Z</time></trkpt><trkpt lat="39.2954263" lon="9.3886794"><ele>509.0</ele><time>2026-04-18T11:07:25.384Z</time></trkpt><trkpt lat="39.2954845" lon="9.3885313"><ele>509.0</ele><time>2026-04-18T11:07:27.381Z</time></trkpt><trkpt lat="39.2955125" lon="9.3884295"><ele>509.0</ele><time>2026-04-18T11:07:28.364Z</time></trkpt><trkpt lat="39.2955377" lon="9.3883462"><ele>509.0</ele><time>2026-04-18T11:07:29.366Z</time></trkpt><trkpt lat="39.2955897" lon="9.3882297"><ele>509.16666666666663</ele><time>2026-04-18T11:07:31.368Z</time></trkpt><trkpt lat="39.2957008" lon="9.388115"><ele>509.3333333333333</ele><time>2026-04-18T11:07:33.371Z</time></trkpt><trkpt lat="39.2957673" lon="9.388068"><ele>509.5</ele><time>2026-04-18T11:07:34.358Z</time></trkpt><trkpt lat="39.2958306" lon="9.388023"><ele>509.66666666666663</ele><time>2026-04-18T11:07:35.354Z</time></trkpt><trkpt lat="39.2958952" lon="9.3879867"><ele>509.8333333333333</ele><time>2026-04-18T11:07:36.353Z</time></trkpt><trkpt lat="39.2959605" lon="9.3879523"><ele>510.0</ele><time>2026-04-18T11:07:37.36Z</time></trkpt><trkpt lat="39.2960311" lon="9.3879217"><ele>510.0</ele><time>2026-04-18T11:07:38.354Z</time></trkpt><trkpt lat="39.296107" lon="9.3878914"><ele>510.0</ele><time>2026-04-18T11:07:39.352Z</time></trkpt><trkpt lat="39.2961865" lon="9.3878638"><ele>510.0</ele><time>2026-04-18T11:07:40.359Z</time></trkpt><trkpt lat="39.2962698" lon="9.3878433"><ele>510.0</ele><time>2026-04-18T11:07:41.355Z</time></trkpt><trkpt lat="39.296349" lon="9.387824"><ele>510.0</ele><time>2026-04-18T11:07:42.356Z</time></trkpt><trkpt lat="39.2964135" lon="9.3878131"><ele>510.0</ele><time>2026-04-18T11:07:43.357Z</time></trkpt><trkpt lat="39.2965078" lon="9.3877363"><ele>505.2</ele><time>2026-04-18T11:07:45.35Z</time></trkpt><trkpt lat="39.2965949" lon="9.3877096"><ele>500.4</ele><time>2026-04-18T11:07:47.356Z</time></trkpt><trkpt lat="39.2966694" lon="9.3876817"><ele>495.6</ele><time>2026-04-18T11:07:49.357Z</time></trkpt><trkpt lat="39.2967026" lon="9.3875319"><ele>490.8</ele><time>2026-04-18T11:07:51.351Z</time></trkpt><trkpt lat="39.2967093" lon="9.3874193"><ele>486.0</ele><time>2026-04-18T11:07:52.359Z</time></trkpt><trkpt lat="39.2967111" lon="9.3872956"><ele>485.3333333333333</ele><time>2026-04-18T11:07:53.352Z</time></trkpt><trkpt lat="39.2967152" lon="9.3871747"><ele>484.66666666666663</ele><time>2026-04-18T11:07:54.359Z</time></trkpt><trkpt lat="39.2967184" lon="9.3870702"><ele>484.0</ele><time>2026-04-18T11:07:55.353Z</time></trkpt><trkpt lat="39.2967186" lon="9.3869714"><ele>483.3333333333333</ele><time>2026-04-18T11:07:56.357Z</time></trkpt><trkpt lat="39.2967056" lon="9.3868813"><ele>482.66666666666663</ele><time>2026-04-18T11:07:57.353Z</time></trkpt><trkpt lat="39.2967119" lon="9.3867328"><ele>482.0</ele><time>2026-04-18T11:07:59.35Z</time></trkpt><trkpt lat="39.2967742" lon="9.3866035"><ele>481.99999999999994</ele><time>2026-04-18T11:08:01.371Z</time></trkpt><trkpt lat="39.2968116" lon="9.3865374"><ele>482.0</ele><time>2026-04-18T11:08:02.353Z</time></trkpt><trkpt lat="39.2968494" lon="9.3864407"><ele>482.0</ele><time>2026-04-18T11:08:04.347Z</time></trkpt><trkpt lat="39.2968055" lon="9.3862895"><ele>482.0</ele><time>2026-04-18T11:08:06.35Z</time></trkpt><trkpt lat="39.2967758" lon="9.3862057"><ele>481.99999999999994</ele><time>2026-04-18T11:08:07.354Z</time></trkpt><trkpt lat="39.2967552" lon="9.3861256"><ele>482.0</ele><time>2026-04-18T11:08:08.363Z</time></trkpt><trkpt lat="39.2967445" lon="9.3859691"><ele>480.8333333333333</ele><time>2026-04-18T11:08:10.371Z</time></trkpt><trkpt lat="39.2967392" lon="9.3858705"><ele>479.66666666666663</ele><time>2026-04-18T11:08:12.389Z</time></trkpt><trkpt lat="39.2967536" lon="9.3857806"><ele>478.5</ele><time>2026-04-18T11:08:14.365Z</time></trkpt><trkpt lat="39.2967808" lon="9.3856799"><ele>477.33333333333337</ele><time>2026-04-18T11:08:17.352Z</time></trkpt><trkpt lat="39.2967909" lon="9.3855874"><ele>476.1666666666667</ele><time>2026-04-18T11:08:19.356Z</time></trkpt><trkpt lat="39.2967943" lon="9.3854774"><ele>475.0</ele><time>2026-04-18T11:08:21.352Z</time></trkpt><trkpt lat="39.296794" lon="9.3853791"><ele>471.33333333333337</ele><time>2026-04-18T11:08:23.351Z</time></trkpt><trkpt lat="39.2967782" lon="9.3852749"><ele>467.6666666666667</ele><time>2026-04-18T11:08:25.37Z</time></trkpt><trkpt lat="39.2967523" lon="9.3851545"><ele>464.0</ele><time>2026-04-18T11:08:27.378Z</time></trkpt><trkpt lat="39.2966886" lon="9.3850338"><ele>460.33333333333337</ele><time>2026-04-18T11:08:29.36Z</time></trkpt><trkpt lat="39.2966469" lon="9.3849674"><ele>456.6666666666667</ele><time>2026-04-18T11:08:30.357Z</time></trkpt><trkpt lat="39.2966021" lon="9.3848995"><ele>453.0</ele><time>2026-04-18T11:08:31.36Z</time></trkpt><trkpt lat="39.2965176" lon="9.3848021"><ele>453.0</ele><time>2026-04-18T11:08:33.358Z</time></trkpt><trkpt lat="39.2964474" lon="9.3846795"><ele>452.99999999999994</ele><time>2026-04-18T11:08:35.358Z</time></trkpt><trkpt lat="39.2963813" lon="9.3845586"><ele>452.99999999999994</ele><time>2026-04-18T11:08:37.348Z</time></trkpt><trkpt lat="39.2963222" lon="9.3844687"><ele>453.0</ele><time>2026-04-18T11:08:39.357Z</time></trkpt><trkpt lat="39.296239" lon="9.3844296"><ele>453.0</ele><time>2026-04-18T11:08:41.361Z</time></trkpt><trkpt lat="39.29614" lon="9.3844161"><ele>455.59999999999997</ele><time>2026-04-18T11:08:43.379Z</time></trkpt><trkpt lat="39.2960478" lon="9.3843901"><ele>458.19999999999993</ele><time>2026-04-18T11:08:45.358Z</time></trkpt><trkpt lat="39.2960067" lon="9.3842773"><ele>460.8</ele><time>2026-04-18T11:08:48.365Z</time></trkpt><trkpt lat="39.2960176" lon="9.3841538"><ele>463.4</ele><time>2026-04-18T11:08:50.358Z</time></trkpt><trkpt lat="39.2960569" lon="9.3840537"><ele>466.0</ele><time>2026-04-18T11:08:52.378Z</time></trkpt><trkpt lat="39.2960452" lon="9.3839224"><ele>465.50000000000006</ele><time>2026-04-18T11:08:55.37Z</time></trkpt><trkpt lat="39.2960447" lon="9.3838204"><ele>465.0</ele><time>2026-04-18T11:08:57.402Z</time></trkpt><trkpt lat="39.2960492" lon="9.3836776"><ele>464.5</ele><time>2026-04-18T11:08:59.376Z</time></trkpt><trkpt lat="39.2960529" lon="9.383582"><ele>464.0</ele><time>2026-04-18T11:09:00.364Z</time></trkpt><trkpt lat="39.296055" lon="9.3834857"><ele>463.50000000000006</ele><time>2026-04-18T11:09:01.358Z</time></trkpt><trkpt lat="39.2960495" lon="9.3833968"><ele>463.0</ele><time>2026-04-18T11:09:02.355Z</time></trkpt><trkpt lat="39.2960502" lon="9.3833128"><ele>463.0</ele><time>2026-04-18T11:09:03.365Z</time></trkpt><trkpt lat="39.2960527" lon="9.3832243"><ele>462.99999999999994</ele><time>2026-04-18T11:09:04.359Z</time></trkpt><trkpt lat="39.2960929" lon="9.3830915"><ele>462.99999999999994</ele><time>2026-04-18T11:09:06.356Z</time></trkpt><trkpt lat="39.2962018" lon="9.3830203"><ele>463.0</ele><time>2026-04-18T11:09:08.362Z</time></trkpt><trkpt lat="39.2963059" lon="9.3829829"><ele>463.0</ele><time>2026-04-18T11:09:10.355Z</time></trkpt><trkpt lat="39.296412" lon="9.3829081"><ele>456.79999999999995</ele><time>2026-04-18T11:09:12.357Z</time></trkpt><trkpt lat="39.2964999" lon="9.3828402"><ele>450.59999999999997</ele><time>2026-04-18T11:09:14.355Z</time></trkpt><trkpt lat="39.2965892" lon="9.3827689"><ele>444.40000000000003</ele><time>2026-04-18T11:09:16.352Z</time></trkpt><trkpt lat="39.2966832" lon="9.3827054"><ele>438.20000000000005</ele><time>2026-04-18T11:09:18.364Z</time></trkpt><trkpt lat="39.2967762" lon="9.3826431"><ele>432.0</ele><time>2026-04-18T11:09:20.364Z</time></trkpt><trkpt lat="39.2968502" lon="9.382578"><ele>432.0</ele><time>2026-04-18T11:09:22.367Z</time></trkpt><trkpt lat="39.2969197" lon="9.3824935"><ele>432.0</ele><time>2026-04-18T11:09:24.363Z</time></trkpt><trkpt lat="39.296949" lon="9.3824063"><ele>432.0</ele><time>2026-04-18T11:09:26.352Z</time></trkpt><trkpt lat="39.2969675" lon="9.3823002"><ele>432.0</ele><time>2026-04-18T11:09:29.364Z</time></trkpt><trkpt lat="39.2970431" lon="9.3823124"><ele>432.0</ele><time>2026-04-18T11:09:33.36Z</time></trkpt><trkpt lat="39.2970981" lon="9.3823537"><ele>432.0</ele><time>2026-04-18T11:09:35.354Z</time></trkpt><trkpt lat="39.2971649" lon="9.3823871"><ele>428.0</ele><time>2026-04-18T11:09:38.353Z</time></trkpt><trkpt lat="39.2972616" lon="9.3823783"><ele>424.0</ele><time>2026-04-18T11:09:40.36Z</time></trkpt><trkpt lat="39.297334" lon="9.3823946"><ele>420.0</ele><time>2026-04-18T11:09:42.362Z</time></trkpt><trkpt lat="39.297394" lon="9.3823514"><ele>416.0</ele><time>2026-04-18T11:09:47.358Z</time></trkpt><trkpt lat="39.2974552" lon="9.3823175"><ele>412.0</ele><time>2026-04-18T11:09:51.364Z</time></trkpt><trkpt lat="39.2975133" lon="9.3823553"><ele>408.0</ele><time>2026-04-18T11:09:55.378Z</time></trkpt><trkpt lat="39.2975109" lon="9.3824566"><ele>404.0</ele><time>2026-04-18T11:09:58.357Z</time></trkpt><trkpt lat="39.2974684" lon="9.3825719"><ele>404.0</ele><time>2026-04-18T11:10:01.364Z</time></trkpt><trkpt lat="39.2974177" lon="9.3826729"><ele>404.0</ele><time>2026-04-18T11:10:03.361Z</time></trkpt><trkpt lat="39.2973502" lon="9.3827688"><ele>404.0</ele><time>2026-04-18T11:10:05.36Z</time></trkpt><trkpt lat="39.2972561" lon="9.3828723"><ele>404.0</ele><time>2026-04-18T11:10:07.356Z</time></trkpt><trkpt lat="39.2972069" lon="9.3829263"><ele>404.0</ele><time>2026-04-18T11:10:08.348Z</time></trkpt><trkpt lat="39.2971315" lon="9.3830387"><ele>406.8333333333333</ele><time>2026-04-18T11:10:10.345Z</time></trkpt><trkpt lat="39.2970644" lon="9.383139"><ele>409.66666666666663</ele><time>2026-04-18T11:10:12.359Z</time></trkpt><trkpt lat="39.2969965" lon="9.383232"><ele>412.5</ele><time>2026-04-18T11:10:14.357Z</time></trkpt><trkpt lat="39.2969475" lon="9.3833396"><ele>415.33333333333337</ele><time>2026-04-18T11:10:16.362Z</time></trkpt><trkpt lat="39.296911" lon="9.3834329"><ele>418.1666666666667</ele><time>2026-04-18T11:10:18.354Z</time></trkpt><trkpt lat="39.296882" lon="9.3835084"><ele>421.0</ele><time>2026-04-18T11:10:22.357Z</time></trkpt><trkpt lat="39.2969293" lon="9.3836033"><ele>421.00000000000006</ele><time>2026-04-18T11:12:35.358Z</time></trkpt><trkpt lat="39.2970014" lon="9.3836476"><ele>421.0</ele><time>2026-04-18T11:12:45.357Z</time></trkpt><trkpt lat="39.2970668" lon="9.3836514"><ele>421.0</ele><time>2026-04-18T11:12:56.363Z</time></trkpt><trkpt lat="39.2971307" lon="9.3836625"><ele>421.0</ele><time>2026-04-18T11:13:00.351Z</time></trkpt><trkpt lat="39.2972127" lon="9.3836968"><ele>421.00000000000006</ele><time>2026-04-18T11:13:12.362Z</time></trkpt><trkpt lat="39.2973004" lon="9.3837298"><ele>421.0</ele><time>2026-04-18T11:13:15.371Z</time></trkpt><trkpt lat="39.2973904" lon="9.3837972"><ele>417.00000000000006</ele><time>2026-04-18T11:13:18.354Z</time></trkpt><trkpt lat="39.2974495" lon="9.3838413"><ele>413.0</ele><time>2026-04-18T11:13:20.351Z</time></trkpt><trkpt lat="39.2975207" lon="9.3838712"><ele>409.0</ele><time>2026-04-18T11:13:23.356Z</time></trkpt><trkpt lat="39.2975835" lon="9.3839038"><ele>405.0</ele><time>2026-04-18T11:13:27.37Z</time></trkpt><trkpt lat="39.2976591" lon="9.3838994"><ele>401.0</ele><time>2026-04-18T11:13:30.351Z</time></trkpt><trkpt lat="39.297725" lon="9.3839156"><ele>397.00000000000006</ele><time>2026-04-18T11:13:33.353Z</time></trkpt><trkpt lat="39.2977845" lon="9.383962"><ele>393.0</ele><time>2026-04-18T11:13:35.366Z</time></trkpt><trkpt lat="39.2978362" lon="9.3840232"><ele>393.00000000000006</ele><time>2026-04-18T11:13:38.371Z</time></trkpt><trkpt lat="39.2978831" lon="9.3840978"><ele>393.0</ele><time>2026-04-18T11:13:55.38Z</time></trkpt><trkpt lat="39.2979564" lon="9.3840921"><ele>393.0</ele><time>2026-04-18T11:14:00.375Z</time></trkpt><trkpt lat="39.2980093" lon="9.3840478"><ele>393.0</ele><time>2026-04-18T11:14:03.361Z</time></trkpt><trkpt lat="39.2979757" lon="9.3839504"><ele>393.0</ele><time>2026-04-18T11:14:07.357Z</time></trkpt><trkpt lat="39.297972" lon="9.3838615"><ele>393.00000000000006</ele><time>2026-04-18T11:14:18.351Z</time></trkpt><trkpt lat="39.2980395" lon="9.3838784"><ele>393.0</ele><time>2026-04-18T11:14:38.344Z</time></trkpt><trkpt lat="39.2981116" lon="9.3838748"><ele>389.28571428571433</ele><time>2026-04-18T11:15:36.358Z</time></trkpt><trkpt lat="39.2981897" lon="9.3838667"><ele>385.57142857142856</ele><time>2026-04-18T11:15:50.368Z</time></trkpt><trkpt lat="39.2982634" lon="9.3838526"><ele>381.8571428571429</ele><time>2026-04-18T11:15:53.354Z</time></trkpt><trkpt lat="39.2983447" lon="9.3838303"><ele>378.14285714285717</ele><time>2026-04-18T11:15:57.357Z</time></trkpt><trkpt lat="39.2984285" lon="9.3838308"><ele>374.42857142857144</ele><time>2026-04-18T11:16:00.352Z</time></trkpt><trkpt lat="39.298491" lon="9.3838422"><ele>370.7142857142857</ele><time>2026-04-18T11:16:02.362Z</time></trkpt><trkpt lat="39.298554" lon="9.3838628"><ele>367.0</ele><time>2026-04-18T11:16:04.352Z</time></trkpt><trkpt lat="39.298617" lon="9.3838707"><ele>367.0</ele><time>2026-04-18T11:16:06.353Z</time></trkpt><trkpt lat="39.2986883" lon="9.3839134"><ele>367.0</ele><time>2026-04-18T11:16:17.355Z</time></trkpt><trkpt lat="39.298771" lon="9.3839597"><ele>367.0</ele><time>2026-04-18T11:16:20.361Z</time></trkpt><trkpt lat="39.2988516" lon="9.3839097"><ele>367.0</ele><time>2026-04-18T11:16:23.355Z</time></trkpt><trkpt lat="39.2989325" lon="9.3838974"><ele>367.0</ele><time>2026-04-18T11:16:26.355Z</time></trkpt><trkpt lat="39.2990066" lon="9.3839044"><ele>367.0</ele><time>2026-04-18T11:16:29.366Z</time></trkpt><trkpt lat="39.299094" lon="9.3839455"><ele>363.5</ele><time>2026-04-18T11:16:33.366Z</time></trkpt><trkpt lat="39.2991797" lon="9.3839743"><ele>360.0</ele><time>2026-04-18T11:16:36.371Z</time></trkpt><trkpt lat="39.2992543" lon="9.3839912"><ele>356.5</ele><time>2026-04-18T11:16:39.36Z</time></trkpt><trkpt lat="39.2993081" lon="9.3839214"><ele>353.0</ele><time>2026-04-18T11:16:42.353Z</time></trkpt><trkpt lat="39.2993567" lon="9.3838395"><ele>349.5</ele><time>2026-04-18T11:16:45.368Z</time></trkpt><trkpt lat="39.2994053" lon="9.3837567"><ele>346.0</ele><time>2026-04-18T11:16:48.352Z</time></trkpt><trkpt lat="39.2994224" lon="9.3836772"><ele>345.3333333333333</ele><time>2026-04-18T11:16:50.363Z</time></trkpt><trkpt lat="39.2994519" lon="9.3835748"><ele>344.66666666666663</ele><time>2026-04-18T11:16:53.36Z</time></trkpt><trkpt lat="39.2995338" lon="9.3835726"><ele>344.0</ele><time>2026-04-18T11:16:56.364Z</time></trkpt><trkpt lat="39.2996181" lon="9.3835585"><ele>343.3333333333333</ele><time>2026-04-18T11:16:59.361Z</time></trkpt><trkpt lat="39.2996838" lon="9.3835427"><ele>342.6666666666667</ele><time>2026-04-18T11:17:01.356Z</time></trkpt><trkpt lat="39.2997641" lon="9.3835349"><ele>342.0</ele><time>2026-04-18T11:17:04.361Z</time></trkpt><trkpt lat="39.2998228" lon="9.3835998"><ele>338.5</ele><time>2026-04-18T11:17:07.363Z</time></trkpt><trkpt lat="39.2998842" lon="9.383633"><ele>335.0</ele><time>2026-04-18T11:17:10.373Z</time></trkpt><trkpt lat="39.2999637" lon="9.3836143"><ele>331.5</ele><time>2026-04-18T11:17:14.353Z</time></trkpt><trkpt lat="39.3000331" lon="9.3835554"><ele>328.0</ele><time>2026-04-18T11:17:17.353Z</time></trkpt><trkpt lat="39.3001157" lon="9.3835231"><ele>324.5</ele><time>2026-04-18T11:17:20.364Z</time></trkpt><trkpt lat="39.3002" lon="9.3834981"><ele>321.0</ele><time>2026-04-18T11:17:23.361Z</time></trkpt><trkpt lat="39.3002755" lon="9.3834923"><ele>320.99999999999994</ele><time>2026-04-18T11:17:25.349Z</time></trkpt><trkpt lat="39.3003368" lon="9.3835251"><ele>321.0</ele><time>2026-04-18T11:17:27.366Z</time></trkpt><trkpt lat="39.3004" lon="9.3835228"><ele>321.0</ele><time>2026-04-18T11:17:29.364Z</time></trkpt><trkpt lat="39.3004722" lon="9.3835421"><ele>321.0</ele><time>2026-04-18T11:17:32.357Z</time></trkpt><trkpt lat="39.3005493" lon="9.3835606"><ele>321.0</ele><time>2026-04-18T11:17:35.36Z</time></trkpt><trkpt lat="39.3006353" lon="9.3835619"><ele>320.99999999999994</ele><time>2026-04-18T11:17:38.361Z</time></trkpt><trkpt lat="39.3007094" lon="9.3835635"><ele>321.0</ele><time>2026-04-18T11:17:41.356Z</time></trkpt><trkpt lat="39.3007775" lon="9.3835119"><ele>317.5</ele><time>2026-04-18T11:17:44.355Z</time></trkpt><trkpt lat="39.3007908" lon="9.3834264"><ele>314.0</ele><time>2026-04-18T11:17:48.355Z</time></trkpt><trkpt lat="39.3007981" lon="9.383283"><ele>310.5</ele><time>2026-04-18T11:18:03.354Z</time></trkpt><trkpt lat="39.300843" lon="9.383185"><ele>307.0</ele><time>2026-04-18T11:18:05.349Z</time></trkpt><trkpt lat="39.300894" lon="9.3831303"><ele>303.5</ele><time>2026-04-18T11:18:07.346Z</time></trkpt><trkpt lat="39.3009038" lon="9.383043"><ele>300.0</ele><time>2026-04-18T11:18:09.387Z</time></trkpt><trkpt lat="39.3009104" lon="9.3829251"><ele>299.2</ele><time>2026-04-18T11:18:11.365Z</time></trkpt><trkpt lat="39.3009294" lon="9.3827941"><ele>298.4</ele><time>2026-04-18T11:18:13.38Z</time></trkpt><trkpt lat="39.3009433" lon="9.382653"><ele>297.6</ele><time>2026-04-18T11:18:15.358Z</time></trkpt><trkpt lat="39.3009431" lon="9.382524"><ele>296.8</ele><time>2026-04-18T11:18:17.374Z</time></trkpt><trkpt lat="39.300946" lon="9.3824185"><ele>296.0</ele><time>2026-04-18T11:18:19.354Z</time></trkpt><trkpt lat="39.3009767" lon="9.3823323"><ele>296.0</ele><time>2026-04-18T11:18:21.359Z</time></trkpt><trkpt lat="39.3009533" lon="9.3822174"><ele>296.0</ele><time>2026-04-18T11:18:23.348Z</time></trkpt><trkpt lat="39.3009243" lon="9.3820966"><ele>296.0</ele><time>2026-04-18T11:18:25.356Z</time></trkpt><trkpt lat="39.3009264" lon="9.3819895"><ele>296.0</ele><time>2026-04-18T11:18:27.354Z</time></trkpt><trkpt lat="39.3009039" lon="9.3818576"><ele>296.0</ele><time>2026-04-18T11:18:30.361Z</time></trkpt><trkpt lat="39.3008477" lon="9.3817631"><ele>297.33333333333337</ele><time>2026-04-18T11:18:32.356Z</time></trkpt><trkpt lat="39.3007936" lon="9.3816795"><ele>298.6666666666667</ele><time>2026-04-18T11:18:34.361Z</time></trkpt><trkpt lat="39.3007213" lon="9.381628"><ele>300.0</ele><time>2026-04-18T11:18:36.36Z</time></trkpt><trkpt lat="39.300658" lon="9.3816005"><ele>301.3333333333333</ele><time>2026-04-18T11:18:38.362Z</time></trkpt><trkpt lat="39.3005915" lon="9.3815996"><ele>302.66666666666663</ele><time>2026-04-18T11:18:40.354Z</time></trkpt><trkpt lat="39.3005266" lon="9.3815762"><ele>304.0</ele><time>2026-04-18T11:18:42.348Z</time></trkpt><trkpt lat="39.3004998" lon="9.381461"><ele>304.0</ele><time>2026-04-18T11:18:45.354Z</time></trkpt><trkpt lat="39.3004928" lon="9.3813731"><ele>304.0</ele><time>2026-04-18T11:18:47.355Z</time></trkpt><trkpt lat="39.3004982" lon="9.3812909"><ele>304.0</ele><time>2026-04-18T11:18:49.355Z</time></trkpt><trkpt lat="39.3005263" lon="9.3812042"><ele>304.0</ele><time>2026-04-18T11:18:52.356Z</time></trkpt><trkpt lat="39.3005425" lon="9.381123"><ele>304.0</ele><time>2026-04-18T11:18:56.367Z</time></trkpt><trkpt lat="39.3005147" lon="9.3810195"><ele>304.0</ele><time>2026-04-18T11:19:03.358Z</time></trkpt><trkpt lat="39.3004992" lon="9.3808937"><ele>302.3333333333333</ele><time>2026-04-18T11:19:05.379Z</time></trkpt><trkpt lat="39.300506" lon="9.3808119"><ele>300.66666666666663</ele><time>2026-04-18T11:19:09.354Z</time></trkpt><trkpt lat="39.3005392" lon="9.3807333"><ele>299.0</ele><time>2026-04-18T11:19:32.354Z</time></trkpt><trkpt lat="39.3005828" lon="9.380651"><ele>297.3333333333333</ele><time>2026-04-18T11:19:34.366Z</time></trkpt><trkpt lat="39.3005813" lon="9.3805591"><ele>295.6666666666667</ele><time>2026-04-18T11:19:36.348Z</time></trkpt><trkpt lat="39.3005297" lon="9.3804396"><ele>294.0</ele><time>2026-04-18T11:19:38.369Z</time></trkpt><trkpt lat="39.3005026" lon="9.3803352"><ele>293.0</ele><time>2026-04-18T11:19:40.352Z</time></trkpt><trkpt lat="39.3004815" lon="9.3802241"><ele>292.0</ele><time>2026-04-18T11:19:42.378Z</time></trkpt><trkpt lat="39.3004641" lon="9.3801025"><ele>291.0</ele><time>2026-04-18T11:19:44.356Z</time></trkpt><trkpt lat="39.3004328" lon="9.3799846"><ele>290.0</ele><time>2026-04-18T11:19:46.357Z</time></trkpt><trkpt lat="39.3004386" lon="9.3798528"><ele>289.0</ele><time>2026-04-18T11:19:48.368Z</time></trkpt><trkpt lat="39.3004489" lon="9.3797221"><ele>287.66666666666663</ele><time>2026-04-18T11:19:50.369Z</time></trkpt><trkpt lat="39.3004901" lon="9.3796004"><ele>286.3333333333333</ele><time>2026-04-18T11:19:52.347Z</time></trkpt><trkpt lat="39.3005032" lon="9.3794786"><ele>285.0</ele><time>2026-04-18T11:19:54.363Z</time></trkpt><trkpt lat="39.3005296" lon="9.3793636"><ele>283.6666666666667</ele><time>2026-04-18T11:19:56.351Z</time></trkpt><trkpt lat="39.3005457" lon="9.3792655"><ele>282.33333333333337</ele><time>2026-04-18T11:19:58.356Z</time></trkpt><trkpt lat="39.3005258" lon="9.3791798"><ele>281.0</ele><time>2026-04-18T11:20:01.356Z</time></trkpt><trkpt lat="39.3005308" lon="9.3790489"><ele>281.0</ele><time>2026-04-18T11:20:04.357Z</time></trkpt><trkpt lat="39.3005179" lon="9.3789144"><ele>281.0</ele><time>2026-04-18T11:20:06.357Z</time></trkpt><trkpt lat="39.3004823" lon="9.3787854"><ele>281.0</ele><time>2026-04-18T11:20:08.359Z</time></trkpt><trkpt lat="39.3004573" lon="9.3786715"><ele>281.0</ele><time>2026-04-18T11:20:10.35Z</time></trkpt><trkpt lat="39.3004605" lon="9.3785319"><ele>281.0</ele><time>2026-04-18T11:20:12.36Z</time></trkpt><trkpt lat="39.3004562" lon="9.3783934"><ele>280.33333333333337</ele><time>2026-04-18T11:20:14.348Z</time></trkpt><trkpt lat="39.3004582" lon="9.3782463"><ele>279.6666666666667</ele><time>2026-04-18T11:20:16.346Z</time></trkpt><trkpt lat="39.3004658" lon="9.3780959"><ele>279.0</ele><time>2026-04-18T11:20:18.349Z</time></trkpt><trkpt lat="39.3004795" lon="9.3780097"><ele>278.3333333333333</ele><time>2026-04-18T11:20:19.357Z</time></trkpt><trkpt lat="39.300509" lon="9.377924"><ele>277.66666666666663</ele><time>2026-04-18T11:20:20.36Z</time></trkpt><trkpt lat="39.3005265" lon="9.377841"><ele>277.0</ele><time>2026-04-18T11:20:21.362Z</time></trkpt><trkpt lat="39.300542" lon="9.3777563"><ele>276.16666666666663</ele><time>2026-04-18T11:20:22.362Z</time></trkpt><trkpt lat="39.3005472" lon="9.3776659"><ele>275.3333333333333</ele><time>2026-04-18T11:20:23.349Z</time></trkpt><trkpt lat="39.3005529" lon="9.3775011"><ele>274.5</ele><time>2026-04-18T11:20:25.358Z</time></trkpt><trkpt lat="39.3005502" lon="9.3774154"><ele>273.6666666666667</ele><time>2026-04-18T11:20:26.362Z</time></trkpt><trkpt lat="39.3005332" lon="9.3773207"><ele>272.83333333333337</ele><time>2026-04-18T11:20:27.372Z</time></trkpt><trkpt lat="39.3005194" lon="9.3772215"><ele>272.0</ele><time>2026-04-18T11:20:28.363Z</time></trkpt><trkpt lat="39.3005255" lon="9.3771273"><ele>270.83333333333337</ele><time>2026-04-18T11:20:29.349Z</time></trkpt><trkpt lat="39.300517" lon="9.3770365"><ele>269.6666666666667</ele><time>2026-04-18T11:20:30.371Z</time></trkpt><trkpt lat="39.300459" lon="9.3769279"><ele>268.5</ele><time>2026-04-18T11:20:32.358Z</time></trkpt><trkpt lat="39.3003881" lon="9.3768669"><ele>267.3333333333333</ele><time>2026-04-18T11:20:35.349Z</time></trkpt><trkpt lat="39.3003949" lon="9.376776"><ele>266.16666666666663</ele><time>2026-04-18T11:20:49.367Z</time></trkpt><trkpt lat="39.3004349" lon="9.3766777"><ele>265.0</ele><time>2026-04-18T11:20:52.371Z</time></trkpt><trkpt lat="39.300469" lon="9.3766027"><ele>265.0</ele><time>2026-04-18T11:20:54.358Z</time></trkpt><trkpt lat="39.3004904" lon="9.3765225"><ele>265.0</ele><time>2026-04-18T11:20:56.361Z</time></trkpt><trkpt lat="39.3004856" lon="9.3764245"><ele>265.0</ele><time>2026-04-18T11:20:58.359Z</time></trkpt><trkpt lat="39.3004704" lon="9.3763008"><ele>265.0</ele><time>2026-04-18T11:21:00.377Z</time></trkpt><trkpt lat="39.300432" lon="9.3761716"><ele>265.0</ele><time>2026-04-18T11:21:02.365Z</time></trkpt><trkpt lat="39.3003826" lon="9.3760984"><ele>265.0</ele><time>2026-04-18T11:21:03.372Z</time></trkpt><trkpt lat="39.3003255" lon="9.3760181"><ele>263.3333333333333</ele><time>2026-04-18T11:21:04.36Z</time></trkpt><trkpt lat="39.3002671" lon="9.3759395"><ele>261.66666666666663</ele><time>2026-04-18T11:21:05.355Z</time></trkpt><trkpt lat="39.3002107" lon="9.3758618"><ele>260.0</ele><time>2026-04-18T11:21:06.35Z</time></trkpt><trkpt lat="39.3001556" lon="9.3757857"><ele>258.3333333333333</ele><time>2026-04-18T11:21:07.36Z</time></trkpt><trkpt lat="39.3000992" lon="9.3757002"><ele>256.6666666666667</ele><time>2026-04-18T11:21:08.354Z</time></trkpt><trkpt lat="39.3000348" lon="9.3756174"><ele>255.0</ele><time>2026-04-18T11:21:09.357Z</time></trkpt><trkpt lat="39.299973" lon="9.3755359"><ele>254.0</ele><time>2026-04-18T11:21:10.366Z</time></trkpt><trkpt lat="39.299919" lon="9.3754625"><ele>253.0</ele><time>2026-04-18T11:21:11.362Z</time></trkpt><trkpt lat="39.2998893" lon="9.3753756"><ele>252.0</ele><time>2026-04-18T11:21:12.362Z</time></trkpt><trkpt lat="39.2998854" lon="9.3752932"><ele>251.0</ele><time>2026-04-18T11:21:13.367Z</time></trkpt><trkpt lat="39.2998595" lon="9.3751395"><ele>250.0</ele><time>2026-04-18T11:21:15.357Z</time></trkpt><trkpt lat="39.2998102" lon="9.3750614"><ele>249.0</ele><time>2026-04-18T11:21:16.348Z</time></trkpt><trkpt lat="39.2997616" lon="9.3749684"><ele>249.66666666666666</ele><time>2026-04-18T11:21:17.383Z</time></trkpt><trkpt lat="39.2997339" lon="9.3748718"><ele>250.33333333333331</ele><time>2026-04-18T11:21:18.387Z</time></trkpt><trkpt lat="39.299709" lon="9.3747832"><ele>251.0</ele><time>2026-04-18T11:21:19.36Z</time></trkpt><trkpt lat="39.299678" lon="9.3746951"><ele>251.66666666666666</ele><time>2026-04-18T11:21:20.36Z</time></trkpt><trkpt lat="39.2996458" lon="9.3746148"><ele>252.33333333333331</ele><time>2026-04-18T11:21:21.376Z</time></trkpt><trkpt lat="39.2996109" lon="9.3745214"><ele>253.0</ele><time>2026-04-18T11:21:22.364Z</time></trkpt><trkpt lat="39.2995703" lon="9.3744267"><ele>252.99999999999997</ele><time>2026-04-18T11:21:23.365Z</time></trkpt><trkpt lat="39.2995124" lon="9.3743262"><ele>253.0</ele><time>2026-04-18T11:21:24.357Z</time></trkpt><trkpt lat="39.2994565" lon="9.3742492"><ele>253.0</ele><time>2026-04-18T11:21:25.362Z</time></trkpt><trkpt lat="39.2994143" lon="9.3741639"><ele>253.0</ele><time>2026-04-18T11:21:26.359Z</time></trkpt><trkpt lat="39.2993766" lon="9.3740845"><ele>252.99999999999997</ele><time>2026-04-18T11:21:27.377Z</time></trkpt><trkpt lat="39.2993451" lon="9.3740078"><ele>253.0</ele><time>2026-04-18T11:21:28.355Z</time></trkpt><trkpt lat="39.2992923" lon="9.3738822"><ele>252.49999999999997</ele><time>2026-04-18T11:21:30.356Z</time></trkpt><trkpt lat="39.2992758" lon="9.3737533"><ele>252.0</ele><time>2026-04-18T11:21:32.365Z</time></trkpt><trkpt lat="39.2992388" lon="9.373613"><ele>251.5</ele><time>2026-04-18T11:21:34.372Z</time></trkpt><trkpt lat="39.2991991" lon="9.373537"><ele>251.0</ele><time>2026-04-18T11:21:35.357Z</time></trkpt><trkpt lat="39.299159" lon="9.3734582"><ele>250.49999999999997</ele><time>2026-04-18T11:21:36.357Z</time></trkpt><trkpt lat="39.299118" lon="9.3733778"><ele>250.0</ele><time>2026-04-18T11:21:37.359Z</time></trkpt><trkpt lat="39.2990798" lon="9.3732865"><ele>249.99999999999997</ele><time>2026-04-18T11:21:38.362Z</time></trkpt><trkpt lat="39.2990443" lon="9.3731848"><ele>250.0</ele><time>2026-04-18T11:21:39.361Z</time></trkpt><trkpt lat="39.2990095" lon="9.3730792"><ele>250.0</ele><time>2026-04-18T11:21:40.362Z</time></trkpt><trkpt lat="39.2989856" lon="9.3729738"><ele>250.0</ele><time>2026-04-18T11:21:41.348Z</time></trkpt><trkpt lat="39.2989691" lon="9.372867"><ele>249.99999999999997</ele><time>2026-04-18T11:21:42.358Z</time></trkpt><trkpt lat="39.2989476" lon="9.3727692"><ele>250.0</ele><time>2026-04-18T11:21:43.369Z</time></trkpt><trkpt lat="39.2989257" lon="9.3726736"><ele>248.66666666666666</ele><time>2026-04-18T11:21:44.357Z</time></trkpt><trkpt lat="39.2989179" lon="9.3725691"><ele>247.33333333333331</ele><time>2026-04-18T11:21:45.358Z</time></trkpt><trkpt lat="39.2989354" lon="9.3724639"><ele>246.0</ele><time>2026-04-18T11:21:46.363Z</time></trkpt><trkpt lat="39.2989604" lon="9.3723595"><ele>244.66666666666669</ele><time>2026-04-18T11:21:47.351Z</time></trkpt><trkpt lat="39.2989854" lon="9.372255"><ele>243.33333333333334</ele><time>2026-04-18T11:21:48.375Z</time></trkpt><trkpt lat="39.298988" lon="9.3721442"><ele>242.0</ele><time>2026-04-18T11:21:49.36Z</time></trkpt><trkpt lat="39.2989847" lon="9.3720267"><ele>242.00000000000003</ele><time>2026-04-18T11:21:50.359Z</time></trkpt><trkpt lat="39.2989761" lon="9.3719122"><ele>242.0</ele><time>2026-04-18T11:21:51.353Z</time></trkpt><trkpt lat="39.2989745" lon="9.371798"><ele>242.0</ele><time>2026-04-18T11:21:52.365Z</time></trkpt><trkpt lat="39.298982" lon="9.3716844"><ele>242.0</ele><time>2026-04-18T11:21:53.366Z</time></trkpt><trkpt lat="39.2989883" lon="9.3715718"><ele>242.00000000000003</ele><time>2026-04-18T11:21:54.357Z</time></trkpt><trkpt lat="39.2989926" lon="9.37146"><ele>242.0</ele><time>2026-04-18T11:21:55.366Z</time></trkpt><trkpt lat="39.298975" lon="9.3713496"><ele>241.33333333333334</ele><time>2026-04-18T11:21:56.366Z</time></trkpt><trkpt lat="39.2989598" lon="9.3712459"><ele>240.66666666666669</ele><time>2026-04-18T11:21:57.374Z</time></trkpt><trkpt lat="39.2989477" lon="9.371151"><ele>240.0</ele><time>2026-04-18T11:21:58.354Z</time></trkpt><trkpt lat="39.2989431" lon="9.371054"><ele>239.33333333333331</ele><time>2026-04-18T11:21:59.353Z</time></trkpt><trkpt lat="39.2989455" lon="9.3709539"><ele>238.66666666666666</ele><time>2026-04-18T11:22:00.365Z</time></trkpt><trkpt lat="39.2989406" lon="9.3708441"><ele>238.0</ele><time>2026-04-18T11:22:01.369Z</time></trkpt><trkpt lat="39.2989404" lon="9.3707393"><ele>237.99999999999997</ele><time>2026-04-18T11:22:02.355Z</time></trkpt><trkpt lat="39.2989429" lon="9.3706224"><ele>238.0</ele><time>2026-04-18T11:22:03.375Z</time></trkpt><trkpt lat="39.2989538" lon="9.3705066"><ele>238.0</ele><time>2026-04-18T11:22:04.38Z</time></trkpt><trkpt lat="39.2989668" lon="9.3703937"><ele>238.0</ele><time>2026-04-18T11:22:05.366Z</time></trkpt><trkpt lat="39.2989817" lon="9.3702813"><ele>237.99999999999997</ele><time>2026-04-18T11:22:06.375Z</time></trkpt><trkpt lat="39.2990006" lon="9.3701724"><ele>238.0</ele><time>2026-04-18T11:22:07.386Z</time></trkpt><trkpt lat="39.2990194" lon="9.370067"><ele>236.99999999999997</ele><time>2026-04-18T11:22:08.369Z</time></trkpt><trkpt lat="39.2990441" lon="9.3699648"><ele>236.0</ele><time>2026-04-18T11:22:09.352Z</time></trkpt><trkpt lat="39.2990803" lon="9.369864"><ele>235.0</ele><time>2026-04-18T11:22:10.365Z</time></trkpt><trkpt lat="39.2991096" lon="9.3697603"><ele>234.0</ele><time>2026-04-18T11:22:11.369Z</time></trkpt><trkpt lat="39.2991623" lon="9.3696812"><ele>232.99999999999997</ele><time>2026-04-18T11:22:12.364Z</time></trkpt><trkpt lat="39.2992116" lon="9.3696053"><ele>232.0</ele><time>2026-04-18T11:22:13.365Z</time></trkpt><trkpt lat="39.2992483" lon="9.3695236"><ele>230.8571428571429</ele><time>2026-04-18T11:22:14.357Z</time></trkpt><trkpt lat="39.2992626" lon="9.3694341"><ele>229.71428571428572</ele><time>2026-04-18T11:22:15.374Z</time></trkpt><trkpt lat="39.29925" lon="9.3693407"><ele>228.57142857142858</ele><time>2026-04-18T11:22:16.368Z</time></trkpt><trkpt lat="39.2992205" lon="9.3692509"><ele>227.42857142857144</ele><time>2026-04-18T11:22:17.368Z</time></trkpt><trkpt lat="39.2991891" lon="9.3691661"><ele>226.28571428571428</ele><time>2026-04-18T11:22:18.352Z</time></trkpt><trkpt lat="39.2991334" lon="9.3691024"><ele>225.14285714285714</ele><time>2026-04-18T11:22:19.361Z</time></trkpt><trkpt lat="39.2990811" lon="9.3690402"><ele>224.0</ele><time>2026-04-18T11:22:20.363Z</time></trkpt><trkpt lat="39.2990262" lon="9.3689677"><ele>224.00000000000003</ele><time>2026-04-18T11:22:21.359Z</time></trkpt><trkpt lat="39.2989674" lon="9.3688885"><ele>224.0</ele><time>2026-04-18T11:22:22.36Z</time></trkpt><trkpt lat="39.2989204" lon="9.368791"><ele>224.0</ele><time>2026-04-18T11:22:23.36Z</time></trkpt><trkpt lat="39.2988753" lon="9.3686944"><ele>224.0</ele><time>2026-04-18T11:22:24.358Z</time></trkpt><trkpt lat="39.2988511" lon="9.3685855"><ele>224.00000000000003</ele><time>2026-04-18T11:22:25.365Z</time></trkpt><trkpt lat="39.29883" lon="9.3684873"><ele>224.0</ele><time>2026-04-18T11:22:26.368Z</time></trkpt><trkpt lat="39.298808" lon="9.3683983"><ele>224.50000000000003</ele><time>2026-04-18T11:22:27.368Z</time></trkpt><trkpt lat="39.2987647" lon="9.3683207"><ele>225.0</ele><time>2026-04-18T11:22:28.366Z</time></trkpt><trkpt lat="39.2987014" lon="9.3682565"><ele>225.5</ele><time>2026-04-18T11:22:29.358Z</time></trkpt><trkpt lat="39.298641" lon="9.3681958"><ele>226.0</ele><time>2026-04-18T11:22:30.364Z</time></trkpt><trkpt lat="39.2985893" lon="9.368134"><ele>226.50000000000003</ele><time>2026-04-18T11:22:31.363Z</time></trkpt><trkpt lat="39.2985486" lon="9.3680415"><ele>227.0</ele><time>2026-04-18T11:22:32.35Z</time></trkpt><trkpt lat="39.2985078" lon="9.3679465"><ele>225.83333333333334</ele><time>2026-04-18T11:22:33.357Z</time></trkpt><trkpt lat="39.2984681" lon="9.3678386"><ele>224.66666666666669</ele><time>2026-04-18T11:22:34.357Z</time></trkpt><trkpt lat="39.2984128" lon="9.3677392"><ele>223.5</ele><time>2026-04-18T11:22:35.344Z</time></trkpt><trkpt lat="39.2983609" lon="9.3676494"><ele>222.33333333333331</ele><time>2026-04-18T11:22:36.351Z</time></trkpt><trkpt lat="39.298316" lon="9.3675586"><ele>221.16666666666666</ele><time>2026-04-18T11:22:37.349Z</time></trkpt><trkpt lat="39.2982675" lon="9.3674728"><ele>220.0</ele><time>2026-04-18T11:22:38.362Z</time></trkpt><trkpt lat="39.2982181" lon="9.36738"><ele>219.99999999999997</ele><time>2026-04-18T11:22:39.36Z</time></trkpt><trkpt lat="39.2981694" lon="9.3672941"><ele>220.0</ele><time>2026-04-18T11:22:40.353Z</time></trkpt><trkpt lat="39.2981208" lon="9.3672105"><ele>220.0</ele><time>2026-04-18T11:22:41.36Z</time></trkpt><trkpt lat="39.2980793" lon="9.3671258"><ele>220.0</ele><time>2026-04-18T11:22:42.364Z</time></trkpt><trkpt lat="39.2980372" lon="9.3670473"><ele>219.99999999999997</ele><time>2026-04-18T11:22:43.369Z</time></trkpt><trkpt lat="39.2980194" lon="9.3669613"><ele>220.0</ele><time>2026-04-18T11:22:44.357Z</time></trkpt><trkpt lat="39.2980053" lon="9.3668721"><ele>220.49999999999997</ele><time>2026-04-18T11:22:45.385Z</time></trkpt><trkpt lat="39.2979968" lon="9.3667744"><ele>221.0</ele><time>2026-04-18T11:22:46.36Z</time></trkpt><trkpt lat="39.2979906" lon="9.3666721"><ele>221.5</ele><time>2026-04-18T11:22:47.36Z</time></trkpt><trkpt lat="39.2979842" lon="9.366567"><ele>222.0</ele><time>2026-04-18T11:22:48.359Z</time></trkpt><trkpt lat="39.2979789" lon="9.366462"><ele>222.49999999999997</ele><time>2026-04-18T11:22:49.354Z</time></trkpt><trkpt lat="39.2979756" lon="9.3663558"><ele>223.0</ele><time>2026-04-18T11:22:50.352Z</time></trkpt><trkpt lat="39.2979718" lon="9.3662478"><ele>223.16666666666666</ele><time>2026-04-18T11:22:51.362Z</time></trkpt><trkpt lat="39.2979676" lon="9.3661356"><ele>223.33333333333331</ele><time>2026-04-18T11:22:52.368Z</time></trkpt><trkpt lat="39.2979744" lon="9.3660251"><ele>223.5</ele><time>2026-04-18T11:22:53.363Z</time></trkpt><trkpt lat="39.2979854" lon="9.3659176"><ele>223.66666666666669</ele><time>2026-04-18T11:22:54.379Z</time></trkpt><trkpt lat="39.297997" lon="9.3658072"><ele>223.83333333333334</ele><time>2026-04-18T11:22:55.372Z</time></trkpt><trkpt lat="39.2980079" lon="9.3656946"><ele>224.0</ele><time>2026-04-18T11:22:56.388Z</time></trkpt><trkpt lat="39.2980178" lon="9.365581"><ele>224.33333333333334</ele><time>2026-04-18T11:22:57.357Z</time></trkpt><trkpt lat="39.2980315" lon="9.3654678"><ele>224.66666666666669</ele><time>2026-04-18T11:22:58.361Z</time></trkpt><trkpt lat="39.2980463" lon="9.3653612"><ele>225.0</ele><time>2026-04-18T11:22:59.355Z</time></trkpt><trkpt lat="39.29806" lon="9.3652589"><ele>225.33333333333331</ele><time>2026-04-18T11:23:00.366Z</time></trkpt><trkpt lat="39.2980754" lon="9.3651626"><ele>225.66666666666666</ele><time>2026-04-18T11:23:01.357Z</time></trkpt><trkpt lat="39.2980913" lon="9.3650805"><ele>226.0</ele><time>2026-04-18T11:23:02.365Z</time></trkpt><trkpt lat="39.2981117" lon="9.3649615"><ele>225.99999999999997</ele><time>2026-04-18T11:23:04.355Z</time></trkpt><trkpt lat="39.298104" lon="9.364863"><ele>226.0</ele><time>2026-04-18T11:23:07.35Z</time></trkpt><trkpt lat="39.2980581" lon="9.3647484"><ele>226.0</ele><time>2026-04-18T11:23:34.368Z</time></trkpt><trkpt lat="39.2980253" lon="9.3646758"><ele>226.0</ele><time>2026-04-18T11:23:35.348Z</time></trkpt><trkpt lat="39.2979983" lon="9.3645878"><ele>225.99999999999997</ele><time>2026-04-18T11:23:36.371Z</time></trkpt><trkpt lat="39.2979763" lon="9.3644701"><ele>226.0</ele><time>2026-04-18T11:23:37.365Z</time></trkpt><trkpt lat="39.2979567" lon="9.364354"><ele>224.83333333333331</ele><time>2026-04-18T11:23:38.369Z</time></trkpt><trkpt lat="39.2979461" lon="9.3642531"><ele>223.66666666666666</ele><time>2026-04-18T11:23:39.35Z</time></trkpt><trkpt lat="39.2979413" lon="9.3641662"><ele>222.5</ele><time>2026-04-18T11:23:40.36Z</time></trkpt><trkpt lat="39.2979372" lon="9.3640409"><ele>221.33333333333331</ele><time>2026-04-18T11:23:42.368Z</time></trkpt><trkpt lat="39.2979615" lon="9.3639177"><ele>220.16666666666666</ele><time>2026-04-18T11:23:44.353Z</time></trkpt><trkpt lat="39.2980041" lon="9.3638386"><ele>219.0</ele><time>2026-04-18T11:23:47.356Z</time></trkpt><trkpt lat="39.2980264" lon="9.363747"><ele>217.83333333333334</ele><time>2026-04-18T11:23:50.355Z</time></trkpt><trkpt lat="39.2980322" lon="9.3636606"><ele>216.66666666666669</ele><time>2026-04-18T11:23:52.364Z</time></trkpt><trkpt lat="39.2979826" lon="9.3635812"><ele>215.5</ele><time>2026-04-18T11:23:56.352Z</time></trkpt><trkpt lat="39.2979683" lon="9.3634666"><ele>214.33333333333334</ele><time>2026-04-18T11:23:59.355Z</time></trkpt><trkpt lat="39.2979128" lon="9.3633637"><ele>213.16666666666669</ele><time>2026-04-18T11:24:01.349Z</time></trkpt><trkpt lat="39.2978476" lon="9.3632407"><ele>212.0</ele><time>2026-04-18T11:24:03.356Z</time></trkpt><trkpt lat="39.297795" lon="9.3631388"><ele>212.0</ele><time>2026-04-18T11:24:05.353Z</time></trkpt><trkpt lat="39.2977269" lon="9.3630512"><ele>212.0</ele><time>2026-04-18T11:24:07.358Z</time></trkpt><trkpt lat="39.297649" lon="9.3629722"><ele>212.0</ele><time>2026-04-18T11:24:09.354Z</time></trkpt><trkpt lat="39.2977132" lon="9.3629091"><ele>212.0</ele><time>2026-04-18T11:24:12.37Z</time></trkpt><trkpt lat="39.2978016" lon="9.3628772"><ele>212.0</ele><time>2026-04-18T11:24:14.365Z</time></trkpt><trkpt lat="39.297844" lon="9.3627702"><ele>211.0</ele><time>2026-04-18T11:24:16.365Z</time></trkpt><trkpt lat="39.2979037" lon="9.3626775"><ele>210.0</ele><time>2026-04-18T11:24:18.368Z</time></trkpt><trkpt lat="39.2979532" lon="9.3626"><ele>209.0</ele><time>2026-04-18T11:24:20.352Z</time></trkpt><trkpt lat="39.2979248" lon="9.3624411"><ele>208.0</ele><time>2026-04-18T11:24:22.363Z</time></trkpt><trkpt lat="39.2978966" lon="9.3623432"><ele>207.0</ele><time>2026-04-18T11:24:23.369Z</time></trkpt><trkpt lat="39.2978653" lon="9.3622462"><ele>206.14285714285717</ele><time>2026-04-18T11:24:24.37Z</time></trkpt><trkpt lat="39.2978331" lon="9.3621674"><ele>205.28571428571428</ele><time>2026-04-18T11:24:25.368Z</time></trkpt><trkpt lat="39.2977888" lon="9.3620982"><ele>204.42857142857144</ele><time>2026-04-18T11:24:26.346Z</time></trkpt><trkpt lat="39.2977388" lon="9.3620323"><ele>203.57142857142858</ele><time>2026-04-18T11:24:27.371Z</time></trkpt><trkpt lat="39.2976942" lon="9.3619634"><ele>202.71428571428572</ele><time>2026-04-18T11:24:28.383Z</time></trkpt><trkpt lat="39.2976582" lon="9.3618942"><ele>201.85714285714286</ele><time>2026-04-18T11:24:29.381Z</time></trkpt><trkpt lat="39.2976264" lon="9.3618196"><ele>201.0</ele><time>2026-04-18T11:24:30.357Z</time></trkpt><trkpt lat="39.2975305" lon="9.3617272"><ele>201.0</ele><time>2026-04-18T11:24:32.355Z</time></trkpt><trkpt lat="39.2974487" lon="9.3616975"><ele>201.0</ele><time>2026-04-18T11:24:34.357Z</time></trkpt><trkpt lat="39.2973683" lon="9.3616528"><ele>201.0</ele><time>2026-04-18T11:24:47.347Z</time></trkpt><trkpt lat="39.2972771" lon="9.361584"><ele>201.0</ele><time>2026-04-18T11:24:49.346Z</time></trkpt><trkpt lat="39.2972136" lon="9.3615422"><ele>201.0</ele><time>2026-04-18T11:24:50.374Z</time></trkpt><trkpt lat="39.2971481" lon="9.3614893"><ele>201.0</ele><time>2026-04-18T11:24:51.354Z</time></trkpt><trkpt lat="39.2970845" lon="9.3614268"><ele>200.16666666666666</ele><time>2026-04-18T11:24:52.362Z</time></trkpt><trkpt lat="39.2970233" lon="9.3613576"><ele>199.33333333333331</ele><time>2026-04-18T11:24:53.356Z</time></trkpt><trkpt lat="39.2969601" lon="9.3612833"><ele>198.5</ele><time>2026-04-18T11:24:54.361Z</time></trkpt><trkpt lat="39.2969013" lon="9.3612026"><ele>197.66666666666666</ele><time>2026-04-18T11:24:55.359Z</time></trkpt><trkpt lat="39.2968474" lon="9.3611129"><ele>196.83333333333331</ele><time>2026-04-18T11:24:56.348Z</time></trkpt><trkpt lat="39.2967934" lon="9.3610204"><ele>196.0</ele><time>2026-04-18T11:24:57.355Z</time></trkpt><trkpt lat="39.2967278" lon="9.3609387"><ele>196.0</ele><time>2026-04-18T11:24:58.352Z</time></trkpt><trkpt lat="39.2966533" lon="9.3608683"><ele>196.0</ele><time>2026-04-18T11:24:59.355Z</time></trkpt><trkpt lat="39.2965909" lon="9.3607888"><ele>196.0</ele><time>2026-04-18T11:25:00.36Z</time></trkpt><trkpt lat="39.2965364" lon="9.3606933"><ele>196.0</ele><time>2026-04-18T11:25:01.345Z</time></trkpt><trkpt lat="39.2964769" lon="9.3605951"><ele>196.0</ele><time>2026-04-18T11:25:02.366Z</time></trkpt><trkpt lat="39.2964097" lon="9.3604918"><ele>196.20000000000002</ele><time>2026-04-18T11:25:03.352Z</time></trkpt><trkpt lat="39.2963445" lon="9.3603854"><ele>196.4</ele><time>2026-04-18T11:25:04.353Z</time></trkpt><trkpt lat="39.2962771" lon="9.3602767"><ele>196.6</ele><time>2026-04-18T11:25:05.347Z</time></trkpt><trkpt lat="39.2962055" lon="9.360165"><ele>196.8</ele><time>2026-04-18T11:25:06.362Z</time></trkpt><trkpt lat="39.2961283" lon="9.3600702"><ele>197.0</ele><time>2026-04-18T11:25:07.364Z</time></trkpt><trkpt lat="39.2960543" lon="9.3599748"><ele>197.0</ele><time>2026-04-18T11:25:08.349Z</time></trkpt><trkpt lat="39.2959815" lon="9.3598801"><ele>197.0</ele><time>2026-04-18T11:25:09.366Z</time></trkpt><trkpt lat="39.2959072" lon="9.3597895"><ele>197.0</ele><time>2026-04-18T11:25:10.351Z</time></trkpt><trkpt lat="39.2958371" lon="9.3597009"><ele>197.0</ele><time>2026-04-18T11:25:11.358Z</time></trkpt><trkpt lat="39.2957695" lon="9.3596111"><ele>197.0</ele><time>2026-04-18T11:25:12.349Z</time></trkpt><trkpt lat="39.2957007" lon="9.3595109"><ele>196.2</ele><time>2026-04-18T11:25:13.369Z</time></trkpt><trkpt lat="39.2956328" lon="9.3594092"><ele>195.39999999999998</ele><time>2026-04-18T11:25:14.394Z</time></trkpt><trkpt lat="39.2955671" lon="9.3593077"><ele>194.60000000000002</ele><time>2026-04-18T11:25:15.387Z</time></trkpt><trkpt lat="39.2955099" lon="9.3592033"><ele>193.8</ele><time>2026-04-18T11:25:16.37Z</time></trkpt><trkpt lat="39.2954588" lon="9.3591053"><ele>193.0</ele><time>2026-04-18T11:25:17.366Z</time></trkpt><trkpt lat="39.2954251" lon="9.3590089"><ele>193.00000000000003</ele><time>2026-04-18T11:25:18.368Z</time></trkpt><trkpt lat="39.2954015" lon="9.3589139"><ele>193.0</ele><time>2026-04-18T11:25:19.365Z</time></trkpt><trkpt lat="39.2953879" lon="9.3588238"><ele>193.0</ele><time>2026-04-18T11:25:20.356Z</time></trkpt><trkpt lat="39.2953795" lon="9.3587307"><ele>193.0</ele><time>2026-04-18T11:25:21.359Z</time></trkpt><trkpt lat="39.2953705" lon="9.3586368"><ele>193.0</ele><time>2026-04-18T11:25:22.353Z</time></trkpt><trkpt lat="39.2953565" lon="9.3585484"><ele>193.00000000000003</ele><time>2026-04-18T11:25:23.371Z</time></trkpt><trkpt lat="39.295352" lon="9.3584665"><ele>193.0</ele><time>2026-04-18T11:25:24.352Z</time></trkpt><trkpt lat="39.2953572" lon="9.3583454"><ele>191.33333333333331</ele><time>2026-04-18T11:25:26.385Z</time></trkpt><trkpt lat="39.2953698" lon="9.3582634"><ele>189.66666666666666</ele><time>2026-04-18T11:25:28.361Z</time></trkpt><trkpt lat="39.2953803" lon="9.3581507"><ele>188.0</ele><time>2026-04-18T11:25:31.357Z</time></trkpt><trkpt lat="39.2953938" lon="9.3580537"><ele>186.33333333333331</ele><time>2026-04-18T11:25:33.362Z</time></trkpt><trkpt lat="39.2953896" lon="9.3579398"><ele>184.66666666666666</ele><time>2026-04-18T11:25:35.356Z</time></trkpt><trkpt lat="39.2953467" lon="9.3577895"><ele>183.0</ele><time>2026-04-18T11:25:37.362Z</time></trkpt><trkpt lat="39.2953253" lon="9.3576835"><ele>182.5</ele><time>2026-04-18T11:25:38.355Z</time></trkpt><trkpt lat="39.2952925" lon="9.3575907"><ele>182.0</ele><time>2026-04-18T11:25:39.345Z</time></trkpt><trkpt lat="39.2952666" lon="9.3575057"><ele>181.5</ele><time>2026-04-18T11:25:40.369Z</time></trkpt><trkpt lat="39.2951978" lon="9.3574216"><ele>181.0</ele><time>2026-04-18T11:25:42.366Z</time></trkpt><trkpt lat="39.295187" lon="9.3573135"><ele>180.5</ele><time>2026-04-18T11:25:45.366Z</time></trkpt><trkpt lat="39.2952114" lon="9.3572265"><ele>180.0</ele><time>2026-04-18T11:26:19.358Z</time></trkpt><trkpt lat="39.2951853" lon="9.3571266"><ele>180.0</ele><time>2026-04-18T11:26:23.366Z</time></trkpt><trkpt lat="39.2951407" lon="9.3570238"><ele>180.0</ele><time>2026-04-18T11:26:24.355Z</time></trkpt><trkpt lat="39.2950815" lon="9.3569232"><ele>180.0</ele><time>2026-04-18T11:26:25.36Z</time></trkpt><trkpt lat="39.2950103" lon="9.3568198"><ele>180.0</ele><time>2026-04-18T11:26:26.358Z</time></trkpt><trkpt lat="39.2949319" lon="9.356714"><ele>180.0</ele><time>2026-04-18T11:26:27.361Z</time></trkpt><trkpt lat="39.2948477" lon="9.3566138"><ele>180.0</ele><time>2026-04-18T11:26:28.36Z</time></trkpt><trkpt lat="39.2947592" lon="9.3565187"><ele>180.0</ele><time>2026-04-18T11:26:29.363Z</time></trkpt><trkpt lat="39.2946686" lon="9.3564283"><ele>180.0</ele><time>2026-04-18T11:26:30.357Z</time></trkpt><trkpt lat="39.2945789" lon="9.3563395"><ele>180.0</ele><time>2026-04-18T11:26:31.362Z</time></trkpt><trkpt lat="39.2944907" lon="9.3562521"><ele>180.2</ele><time>2026-04-18T11:26:32.366Z</time></trkpt><trkpt lat="39.294402" lon="9.3561659"><ele>180.4</ele><time>2026-04-18T11:26:33.369Z</time></trkpt><trkpt lat="39.2943144" lon="9.3560777"><ele>180.60000000000002</ele><time>2026-04-18T11:26:34.368Z</time></trkpt><trkpt lat="39.2942306" lon="9.3559864"><ele>180.8</ele><time>2026-04-18T11:26:35.367Z</time></trkpt><trkpt lat="39.2941485" lon="9.3558928"><ele>181.0</ele><time>2026-04-18T11:26:36.373Z</time></trkpt><trkpt lat="39.2940676" lon="9.3557958"><ele>181.0</ele><time>2026-04-18T11:26:37.369Z</time></trkpt><trkpt lat="39.2939907" lon="9.3556925"><ele>181.0</ele><time>2026-04-18T11:26:38.361Z</time></trkpt><trkpt lat="39.2939166" lon="9.3555821"><ele>181.0</ele><time>2026-04-18T11:26:39.368Z</time></trkpt><trkpt lat="39.2938468" lon="9.3554663"><ele>181.0</ele><time>2026-04-18T11:26:40.356Z</time></trkpt><trkpt lat="39.2937792" lon="9.3553461"><ele>179.25</ele><time>2026-04-18T11:26:41.359Z</time></trkpt><trkpt lat="39.2937102" lon="9.3552233"><ele>177.5</ele><time>2026-04-18T11:26:42.354Z</time></trkpt><trkpt lat="39.2936402" lon="9.3550936"><ele>175.75</ele><time>2026-04-18T11:26:43.358Z</time></trkpt><trkpt lat="39.2935664" lon="9.3549616"><ele>174.0</ele><time>2026-04-18T11:26:44.371Z</time></trkpt><trkpt lat="39.2934867" lon="9.3548224"><ele>173.5</ele><time>2026-04-18T11:26:45.374Z</time></trkpt><trkpt lat="39.2934032" lon="9.3546772"><ele>173.0</ele><time>2026-04-18T11:26:46.357Z</time></trkpt><trkpt lat="39.2933173" lon="9.3545248"><ele>172.5</ele><time>2026-04-18T11:26:47.361Z</time></trkpt><trkpt lat="39.2932311" lon="9.3543694"><ele>172.0</ele><time>2026-04-18T11:26:48.38Z</time></trkpt><trkpt lat="39.293144" lon="9.3542124"><ele>172.0</ele><time>2026-04-18T11:26:49.36Z</time></trkpt><trkpt lat="39.2930532" lon="9.3540563"><ele>172.0</ele><time>2026-04-18T11:26:50.364Z</time></trkpt><trkpt lat="39.2929712" lon="9.3538971"><ele>172.0</ele><time>2026-04-18T11:26:51.369Z</time></trkpt><trkpt lat="39.2928876" lon="9.3537408"><ele>172.0</ele><time>2026-04-18T11:26:52.387Z</time></trkpt><trkpt lat="39.2928089" lon="9.3535881"><ele>171.0</ele><time>2026-04-18T11:26:53.386Z</time></trkpt><trkpt lat="39.2927361" lon="9.3534375"><ele>170.0</ele><time>2026-04-18T11:26:54.396Z</time></trkpt><trkpt lat="39.2926648" lon="9.3532857"><ele>169.0</ele><time>2026-04-18T11:26:55.362Z</time></trkpt><trkpt lat="39.2925994" lon="9.3531359"><ele>168.0</ele><time>2026-04-18T11:26:56.39Z</time></trkpt><trkpt lat="39.2925371" lon="9.3529847"><ele>168.0</ele><time>2026-04-18T11:26:57.363Z</time></trkpt><trkpt lat="39.2924752" lon="9.3528342"><ele>168.0</ele><time>2026-04-18T11:26:58.352Z</time></trkpt><trkpt lat="39.2924126" lon="9.3526908"><ele>168.0</ele><time>2026-04-18T11:26:59.363Z</time></trkpt><trkpt lat="39.2924057" lon="9.3525509"><ele>168.0</ele><time>2026-04-18T11:27:00.366Z</time></trkpt><trkpt lat="39.2923333" lon="9.3524443"><ele>168.0</ele><time>2026-04-18T11:27:01.361Z</time></trkpt><trkpt lat="39.2922812" lon="9.3523378"><ele>168.0</ele><time>2026-04-18T11:27:02.372Z</time></trkpt><trkpt lat="39.2922355" lon="9.3522412"><ele>168.0</ele><time>2026-04-18T11:27:03.363Z</time></trkpt><trkpt lat="39.292192" lon="9.3521487"><ele>168.0</ele><time>2026-04-18T11:27:04.363Z</time></trkpt><trkpt lat="39.292151" lon="9.3520629"><ele>168.0</ele><time>2026-04-18T11:27:05.357Z</time></trkpt><trkpt lat="39.2921124" lon="9.3519845"><ele>168.0</ele><time>2026-04-18T11:27:06.375Z</time></trkpt><trkpt lat="39.2920747" lon="9.3519171"><ele>168.16666666666666</ele><time>2026-04-18T11:27:07.351Z</time></trkpt><trkpt lat="39.2919982" lon="9.3517792"><ele>168.33333333333334</ele><time>2026-04-18T11:27:09.353Z</time></trkpt><trkpt lat="39.2919612" lon="9.35169"><ele>168.5</ele><time>2026-04-18T11:27:10.364Z</time></trkpt><trkpt lat="39.2919524" lon="9.3515898"><ele>168.66666666666669</ele><time>2026-04-18T11:27:11.363Z</time></trkpt><trkpt lat="39.2919479" lon="9.3514977"><ele>168.83333333333334</ele><time>2026-04-18T11:27:12.363Z</time></trkpt><trkpt lat="39.2919779" lon="9.3514238"><ele>169.0</ele><time>2026-04-18T11:27:13.375Z</time></trkpt><trkpt lat="39.2920149" lon="9.3512676"><ele>169.0</ele><time>2026-04-18T11:27:15.365Z</time></trkpt><trkpt lat="39.2920407" lon="9.3511927"><ele>169.0</ele><time>2026-04-18T11:27:16.353Z</time></trkpt><trkpt lat="39.2920702" lon="9.351115"><ele>169.0</ele><time>2026-04-18T11:27:17.362Z</time></trkpt><trkpt lat="39.2921066" lon="9.3509718"><ele>169.0</ele><time>2026-04-18T11:27:19.365Z</time></trkpt><trkpt lat="39.2920925" lon="9.3508516"><ele>169.0</ele><time>2026-04-18T11:27:21.362Z</time></trkpt><trkpt lat="39.2921202" lon="9.3507751"><ele>169.0</ele><time>2026-04-18T11:27:39.38Z</time></trkpt><trkpt lat="39.2921588" lon="9.3506864"><ele>169.0</ele><time>2026-04-18T11:27:43.376Z</time></trkpt><trkpt lat="39.2922318" lon="9.3507051"><ele>169.0</ele><time>2026-04-18T11:27:46.351Z</time></trkpt><trkpt lat="39.2923056" lon="9.3506949"><ele>169.0</ele><time>2026-04-18T11:27:56.35Z</time></trkpt><trkpt lat="39.2924052" lon="9.3506585"><ele>169.0</ele><time>2026-04-18T11:27:58.356Z</time></trkpt><trkpt lat="39.2925256" lon="9.3506261"><ele>169.0</ele><time>2026-04-18T11:28:00.364Z</time></trkpt><trkpt lat="39.2925946" lon="9.3506102"><ele>169.0</ele><time>2026-04-18T11:28:01.368Z</time></trkpt><trkpt lat="39.2926671" lon="9.3505895"><ele>172.33333333333334</ele><time>2026-04-18T11:28:02.362Z</time></trkpt><trkpt lat="39.2927395" lon="9.3505673"><ele>175.66666666666669</ele><time>2026-04-18T11:28:03.35Z</time></trkpt><trkpt lat="39.29281" lon="9.3505457"><ele>179.0</ele><time>2026-04-18T11:28:04.36Z</time></trkpt><trkpt lat="39.2929129" lon="9.350506"><ele>182.33333333333334</ele><time>2026-04-18T11:28:06.362Z</time></trkpt><trkpt lat="39.2929673" lon="9.3504496"><ele>185.66666666666666</ele><time>2026-04-18T11:28:07.363Z</time></trkpt><trkpt lat="39.2930169" lon="9.3503882"><ele>189.0</ele><time>2026-04-18T11:28:08.364Z</time></trkpt><trkpt lat="39.2930692" lon="9.3503133"><ele>191.83333333333334</ele><time>2026-04-18T11:28:09.355Z</time></trkpt><trkpt lat="39.2931242" lon="9.3502318"><ele>194.66666666666669</ele><time>2026-04-18T11:28:10.349Z</time></trkpt><trkpt lat="39.2931618" lon="9.3501519"><ele>197.5</ele><time>2026-04-18T11:28:11.357Z</time></trkpt><trkpt lat="39.2931794" lon="9.3500731"><ele>200.33333333333334</ele><time>2026-04-18T11:28:12.357Z</time></trkpt><trkpt lat="39.2932309" lon="9.3499186"><ele>203.16666666666669</ele><time>2026-04-18T11:28:14.36Z</time></trkpt><trkpt lat="39.2932686" lon="9.3498413"><ele>206.0</ele><time>2026-04-18T11:28:15.353Z</time></trkpt><trkpt lat="39.2933154" lon="9.3497761"><ele>206.00000000000003</ele><time>2026-04-18T11:28:16.351Z</time></trkpt><trkpt lat="39.2933748" lon="9.3497134"><ele>206.0</ele><time>2026-04-18T11:28:17.365Z</time></trkpt><trkpt lat="39.2934336" lon="9.3496441"><ele>206.0</ele><time>2026-04-18T11:28:18.359Z</time></trkpt><trkpt lat="39.2934962" lon="9.3495654"><ele>206.0</ele><time>2026-04-18T11:28:19.354Z</time></trkpt><trkpt lat="39.2935573" lon="9.3494802"><ele>206.00000000000003</ele><time>2026-04-18T11:28:20.366Z</time></trkpt><trkpt lat="39.2936167" lon="9.3493955"><ele>206.0</ele><time>2026-04-18T11:28:21.365Z</time></trkpt><trkpt lat="39.2936589" lon="9.3492935"><ele>208.33333333333334</ele><time>2026-04-18T11:28:22.364Z</time></trkpt><trkpt lat="39.2937028" lon="9.3491828"><ele>210.66666666666669</ele><time>2026-04-18T11:28:23.368Z</time></trkpt><trkpt lat="39.2937416" lon="9.3490792"><ele>213.0</ele><time>2026-04-18T11:28:24.376Z</time></trkpt><trkpt lat="39.2937764" lon="9.3489798"><ele>215.33333333333331</ele><time>2026-04-18T11:28:25.358Z</time></trkpt><trkpt lat="39.2938006" lon="9.3488766"><ele>217.66666666666666</ele><time>2026-04-18T11:28:26.374Z</time></trkpt><trkpt lat="39.2938265" lon="9.3487965"><ele>220.0</ele><time>2026-04-18T11:28:27.372Z</time></trkpt><trkpt lat="39.2939301" lon="9.348727"><ele>224.33333333333331</ele><time>2026-04-18T11:28:29.385Z</time></trkpt><trkpt lat="39.2940087" lon="9.3487278"><ele>228.66666666666666</ele><time>2026-04-18T11:28:30.366Z</time></trkpt><trkpt lat="39.2940919" lon="9.3487312"><ele>233.0</ele><time>2026-04-18T11:28:31.351Z</time></trkpt><trkpt lat="39.2941825" lon="9.34874"><ele>237.33333333333331</ele><time>2026-04-18T11:28:32.373Z</time></trkpt><trkpt lat="39.2942728" lon="9.348746"><ele>241.66666666666666</ele><time>2026-04-18T11:28:33.35Z</time></trkpt><trkpt lat="39.2943672" lon="9.3487579"><ele>246.0</ele><time>2026-04-18T11:28:34.36Z</time></trkpt><trkpt lat="39.2944637" lon="9.3487519"><ele>246.0</ele><time>2026-04-18T11:28:35.365Z</time></trkpt><trkpt lat="39.2945508" lon="9.348741"><ele>246.00000000000003</ele><time>2026-04-18T11:28:36.382Z</time></trkpt><trkpt lat="39.2946158" lon="9.3486641"><ele>246.00000000000003</ele><time>2026-04-18T11:28:37.36Z</time></trkpt><trkpt lat="39.2946757" lon="9.3485604"><ele>246.0</ele><time>2026-04-18T11:28:38.364Z</time></trkpt><trkpt lat="39.294738" lon="9.3484554"><ele>246.0</ele><time>2026-04-18T11:28:39.355Z</time></trkpt><trkpt lat="39.2948046" lon="9.348357"><ele>245.60000000000002</ele><time>2026-04-18T11:28:40.339Z</time></trkpt><trkpt lat="39.2948774" lon="9.3482698"><ele>245.20000000000002</ele><time>2026-04-18T11:28:41.346Z</time></trkpt><trkpt lat="39.2949562" lon="9.348183"><ele>244.79999999999998</ele><time>2026-04-18T11:28:42.362Z</time></trkpt><trkpt lat="39.295036" lon="9.3480911"><ele>244.39999999999998</ele><time>2026-04-18T11:28:43.353Z</time></trkpt><trkpt lat="39.2951237" lon="9.3479991"><ele>244.0</ele><time>2026-04-18T11:28:44.35Z</time></trkpt><trkpt lat="39.2952073" lon="9.3479089"><ele>246.16666666666666</ele><time>2026-04-18T11:28:45.364Z</time></trkpt><trkpt lat="39.2952746" lon="9.3478181"><ele>248.33333333333331</ele><time>2026-04-18T11:28:46.367Z</time></trkpt><trkpt lat="39.2953341" lon="9.347736"><ele>250.5</ele><time>2026-04-18T11:28:47.362Z</time></trkpt><trkpt lat="39.2953828" lon="9.3476582"><ele>252.66666666666669</ele><time>2026-04-18T11:28:48.364Z</time></trkpt><trkpt lat="39.2954261" lon="9.3475748"><ele>254.83333333333334</ele><time>2026-04-18T11:28:49.351Z</time></trkpt><trkpt lat="39.2954665" lon="9.3474675"><ele>257.0</ele><time>2026-04-18T11:28:51.368Z</time></trkpt><trkpt lat="39.2954993" lon="9.3473786"><ele>257.0</ele><time>2026-04-18T11:28:55.357Z</time></trkpt><trkpt lat="39.2954408" lon="9.3473449"><ele>257.0</ele><time>2026-04-18T11:29:05.37Z</time></trkpt><trkpt lat="39.2953587" lon="9.3473953"><ele>257.0</ele><time>2026-04-18T11:29:07.359Z</time></trkpt><trkpt lat="39.2952479" lon="9.3474725"><ele>257.0</ele><time>2026-04-18T11:29:09.358Z</time></trkpt><trkpt lat="39.2951872" lon="9.3475109"><ele>257.0</ele><time>2026-04-18T11:29:10.355Z</time></trkpt><trkpt lat="39.2951258" lon="9.3475353"><ele>257.0</ele><time>2026-04-18T11:29:11.375Z</time></trkpt><trkpt lat="39.2950133" lon="9.3475877"><ele>257.0</ele><time>2026-04-18T11:29:13.358Z</time></trkpt><trkpt lat="39.2949317" lon="9.3476484"><ele>257.0</ele><time>2026-04-18T11:29:15.365Z</time></trkpt><trkpt lat="39.2948747" lon="9.347693"><ele>257.0</ele><time>2026-04-18T11:29:17.372Z</time></trkpt><trkpt lat="39.2948015" lon="9.3476856"><ele>257.0</ele><time>2026-04-18T11:29:20.372Z</time></trkpt><trkpt lat="39.2947206" lon="9.347707"><ele>257.0</ele><time>2026-04-18T11:29:22.352Z</time></trkpt><trkpt lat="39.294648" lon="9.3477041"><ele>257.0</ele><time>2026-04-18T11:29:24.375Z</time></trkpt><trkpt lat="39.2945798" lon="9.3476885"><ele>256.6666666666667</ele><time>2026-04-18T11:29:26.363Z</time></trkpt><trkpt lat="39.2945013" lon="9.3476926"><ele>256.33333333333337</ele><time>2026-04-18T11:29:30.362Z</time></trkpt><trkpt lat="39.2944329" lon="9.3476892"><ele>256.0</ele><time>2026-04-18T11:29:33.359Z</time></trkpt><trkpt lat="39.2943489" lon="9.347648"><ele>255.66666666666669</ele><time>2026-04-18T11:29:35.348Z</time></trkpt><trkpt lat="39.2942448" lon="9.3476433"><ele>255.33333333333334</ele><time>2026-04-18T11:29:37.357Z</time></trkpt><trkpt lat="39.2941423" lon="9.347672"><ele>255.0</ele><time>2026-04-18T11:29:39.365Z</time></trkpt><trkpt lat="39.2940539" lon="9.3476963"><ele>255.0</ele><time>2026-04-18T11:29:41.354Z</time></trkpt><trkpt lat="39.2939554" lon="9.3476519"><ele>255.0</ele><time>2026-04-18T11:29:43.367Z</time></trkpt><trkpt lat="39.2938465" lon="9.3476668"><ele>255.0</ele><time>2026-04-18T11:29:45.352Z</time></trkpt><trkpt lat="39.2937477" lon="9.3477"><ele>255.0</ele><time>2026-04-18T11:29:47.36Z</time></trkpt><trkpt lat="39.2936685" lon="9.3477025"><ele>255.0</ele><time>2026-04-18T11:29:49.367Z</time></trkpt><trkpt lat="39.2936082" lon="9.347674"><ele>252.83333333333334</ele><time>2026-04-18T11:29:51.354Z</time></trkpt><trkpt lat="39.2935466" lon="9.3476067"><ele>250.66666666666669</ele><time>2026-04-18T11:29:53.373Z</time></trkpt><trkpt lat="39.2935036" lon="9.3475469"><ele>248.5</ele><time>2026-04-18T11:29:55.363Z</time></trkpt><trkpt lat="39.2934531" lon="9.3474736"><ele>246.33333333333334</ele><time>2026-04-18T11:29:58.352Z</time></trkpt><trkpt lat="39.2934034" lon="9.3474021"><ele>244.16666666666669</ele><time>2026-04-18T11:30:00.356Z</time></trkpt><trkpt lat="39.2933529" lon="9.3473187"><ele>242.0</ele><time>2026-04-18T11:30:02.387Z</time></trkpt><trkpt lat="39.2932986" lon="9.3472238"><ele>240.2</ele><time>2026-04-18T11:30:04.349Z</time></trkpt><trkpt lat="39.2932252" lon="9.3471265"><ele>238.39999999999998</ele><time>2026-04-18T11:30:06.371Z</time></trkpt><trkpt lat="39.2931449" lon="9.347025"><ele>236.60000000000002</ele><time>2026-04-18T11:30:08.357Z</time></trkpt><trkpt lat="39.2930744" lon="9.3469176"><ele>234.8</ele><time>2026-04-18T11:30:10.363Z</time></trkpt><trkpt lat="39.2930079" lon="9.3468003"><ele>233.0</ele><time>2026-04-18T11:30:12.366Z</time></trkpt><trkpt lat="39.2929688" lon="9.3467341"><ele>231.16666666666669</ele><time>2026-04-18T11:30:13.365Z</time></trkpt><trkpt lat="39.2929258" lon="9.34666"><ele>229.33333333333334</ele><time>2026-04-18T11:30:14.372Z</time></trkpt><trkpt lat="39.2928847" lon="9.3465768"><ele>227.5</ele><time>2026-04-18T11:30:15.352Z</time></trkpt><trkpt lat="39.2928466" lon="9.3464907"><ele>225.66666666666669</ele><time>2026-04-18T11:30:16.354Z</time></trkpt><trkpt lat="39.2928038" lon="9.3464136"><ele>223.83333333333334</ele><time>2026-04-18T11:30:17.354Z</time></trkpt><trkpt lat="39.2927494" lon="9.3463451"><ele>222.0</ele><time>2026-04-18T11:30:18.361Z</time></trkpt><trkpt lat="39.2926811" lon="9.3462794"><ele>222.0</ele><time>2026-04-18T11:30:19.361Z</time></trkpt><trkpt lat="39.2926021" lon="9.3462094"><ele>222.0</ele><time>2026-04-18T11:30:20.361Z</time></trkpt><trkpt lat="39.2925217" lon="9.3461302"><ele>222.0</ele><time>2026-04-18T11:30:21.364Z</time></trkpt><trkpt lat="39.2924508" lon="9.3460465"><ele>222.0</ele><time>2026-04-18T11:30:22.358Z</time></trkpt><trkpt lat="39.2923957" lon="9.345968"><ele>222.0</ele><time>2026-04-18T11:30:23.36Z</time></trkpt><trkpt lat="39.2923443" lon="9.3458772"><ele>222.0</ele><time>2026-04-18T11:30:25.362Z</time></trkpt><trkpt lat="39.2922852" lon="9.3458104"><ele>222.0</ele><time>2026-04-18T11:30:28.354Z</time></trkpt><trkpt lat="39.2922209" lon="9.345737"><ele>222.0</ele><time>2026-04-18T11:30:31.36Z</time></trkpt><trkpt lat="39.2921606" lon="9.3456873"><ele>222.0</ele><time>2026-04-18T11:30:33.382Z</time></trkpt><trkpt lat="39.2920944" lon="9.3456492"><ele>222.0</ele><time>2026-04-18T11:30:35.358Z</time></trkpt><trkpt lat="39.2920106" lon="9.3456149"><ele>222.0</ele><time>2026-04-18T11:30:38.359Z</time></trkpt><trkpt lat="39.2919369" lon="9.3455769"><ele>218.66666666666666</ele><time>2026-04-18T11:30:41.358Z</time></trkpt><trkpt lat="39.2918877" lon="9.3455142"><ele>215.33333333333331</ele><time>2026-04-18T11:30:44.387Z</time></trkpt><trkpt lat="39.2918323" lon="9.3454285"><ele>212.0</ele><time>2026-04-18T11:30:46.387Z</time></trkpt><trkpt lat="39.2917892" lon="9.3453623"><ele>208.66666666666666</ele><time>2026-04-18T11:30:47.356Z</time></trkpt><trkpt lat="39.2917344" lon="9.3452738"><ele>205.33333333333331</ele><time>2026-04-18T11:30:48.37Z</time></trkpt><trkpt lat="39.2916742" lon="9.3451628"><ele>202.0</ele><time>2026-04-18T11:30:49.356Z</time></trkpt><trkpt lat="39.2916199" lon="9.3450454"><ele>202.0</ele><time>2026-04-18T11:30:50.363Z</time></trkpt><trkpt lat="39.291563" lon="9.3449395"><ele>202.0</ele><time>2026-04-18T11:30:51.364Z</time></trkpt><trkpt lat="39.291503" lon="9.34484"><ele>202.0</ele><time>2026-04-18T11:30:52.363Z</time></trkpt><trkpt lat="39.2914458" lon="9.3447464"><ele>202.0</ele><time>2026-04-18T11:30:53.355Z</time></trkpt><trkpt lat="39.2913895" lon="9.3446587"><ele>202.0</ele><time>2026-04-18T11:30:54.359Z</time></trkpt><trkpt lat="39.2913186" lon="9.3445575"><ele>199.39999999999998</ele><time>2026-04-18T11:30:55.368Z</time></trkpt><trkpt lat="39.2912372" lon="9.3444375"><ele>196.79999999999998</ele><time>2026-04-18T11:30:56.363Z</time></trkpt><trkpt lat="39.2911618" lon="9.3443288"><ele>194.2</ele><time>2026-04-18T11:30:57.357Z</time></trkpt><trkpt lat="39.2910995" lon="9.3442437"><ele>191.6</ele><time>2026-04-18T11:30:58.36Z</time></trkpt><trkpt lat="39.2910429" lon="9.3441846"><ele>189.0</ele><time>2026-04-18T11:30:59.364Z</time></trkpt><trkpt lat="39.2909915" lon="9.3441373"><ele>189.0</ele><time>2026-04-18T11:31:00.36Z</time></trkpt><trkpt lat="39.2908905" lon="9.3440565"><ele>189.0</ele><time>2026-04-18T11:31:02.375Z</time></trkpt><trkpt lat="39.2907714" lon="9.344003"><ele>189.0</ele><time>2026-04-18T11:31:04.355Z</time></trkpt><trkpt lat="39.2907048" lon="9.3439849"><ele>189.0</ele><time>2026-04-18T11:31:05.357Z</time></trkpt><trkpt lat="39.2906355" lon="9.3439674"><ele>189.0</ele><time>2026-04-18T11:31:06.357Z</time></trkpt><trkpt lat="39.290564" lon="9.3439488"><ele>185.83333333333334</ele><time>2026-04-18T11:31:07.363Z</time></trkpt><trkpt lat="39.2904848" lon="9.3439257"><ele>182.66666666666666</ele><time>2026-04-18T11:31:08.367Z</time></trkpt><trkpt lat="39.2904094" lon="9.3439029"><ele>179.5</ele><time>2026-04-18T11:31:09.367Z</time></trkpt><trkpt lat="39.2903417" lon="9.3438781"><ele>176.33333333333331</ele><time>2026-04-18T11:31:10.36Z</time></trkpt><trkpt lat="39.2902783" lon="9.3438506"><ele>173.16666666666666</ele><time>2026-04-18T11:31:11.362Z</time></trkpt><trkpt lat="39.2902182" lon="9.3438237"><ele>170.0</ele><time>2026-04-18T11:31:12.365Z</time></trkpt><trkpt lat="39.2901022" lon="9.3437844"><ele>169.83333333333331</ele><time>2026-04-18T11:31:14.372Z</time></trkpt><trkpt lat="39.2899871" lon="9.3437451"><ele>169.66666666666666</ele><time>2026-04-18T11:31:16.368Z</time></trkpt><trkpt lat="39.2899099" lon="9.3437255"><ele>169.5</ele><time>2026-04-18T11:31:18.364Z</time></trkpt><trkpt lat="39.2898447" lon="9.3437084"><ele>169.33333333333334</ele><time>2026-04-18T11:31:20.359Z</time></trkpt><trkpt lat="39.2897715" lon="9.3436851"><ele>169.16666666666669</ele><time>2026-04-18T11:31:22.365Z</time></trkpt><trkpt lat="39.2896976" lon="9.3436581"><ele>169.0</ele><time>2026-04-18T11:31:24.368Z</time></trkpt><trkpt lat="39.2896334" lon="9.3436263"><ele>166.71428571428572</ele><time>2026-04-18T11:31:26.36Z</time></trkpt><trkpt lat="39.2895716" lon="9.3435884"><ele>164.42857142857142</ele><time>2026-04-18T11:31:28.381Z</time></trkpt><trkpt lat="39.2895011" lon="9.3435453"><ele>162.14285714285714</ele><time>2026-04-18T11:31:30.373Z</time></trkpt><trkpt lat="39.2894238" lon="9.343507"><ele>159.85714285714286</ele><time>2026-04-18T11:31:32.351Z</time></trkpt><trkpt lat="39.2893604" lon="9.3434633"><ele>157.57142857142858</ele><time>2026-04-18T11:31:34.371Z</time></trkpt><trkpt lat="39.2893001" lon="9.3434188"><ele>155.28571428571428</ele><time>2026-04-18T11:31:36.364Z</time></trkpt><trkpt lat="39.2892318" lon="9.3433694"><ele>153.0</ele><time>2026-04-18T11:31:38.354Z</time></trkpt><trkpt lat="39.2891778" lon="9.3433124"><ele>153.0</ele><time>2026-04-18T11:31:40.367Z</time></trkpt><trkpt lat="39.2891201" lon="9.34324"><ele>153.0</ele><time>2026-04-18T11:31:42.352Z</time></trkpt><trkpt lat="39.2890735" lon="9.3431741"><ele>153.0</ele><time>2026-04-18T11:31:44.371Z</time></trkpt><trkpt lat="39.2890068" lon="9.3431112"><ele>153.0</ele><time>2026-04-18T11:31:47.367Z</time></trkpt><trkpt lat="39.2889348" lon="9.3430518"><ele>153.0</ele><time>2026-04-18T11:31:50.357Z</time></trkpt><trkpt lat="39.2888871" lon="9.3429965"><ele>153.0</ele><time>2026-04-18T11:31:52.357Z</time></trkpt><trkpt lat="39.2896976" lon="9.3436581"><ele>153.0</ele><time>2026-04-18T11:31:24.368Z</time></trkpt><trkpt lat="39.2896334" lon="9.3436263"><ele>153.0</ele><time>2026-04-18T11:31:26.36Z</time></trkpt><trkpt lat="39.2895716" lon="9.3435884"><ele>153.0</ele><time>2026-04-18T11:31:28.381Z</time></trkpt><trkpt lat="39.2895011" lon="9.3435453"><ele>153.0</ele><time>2026-04-18T11:31:30.373Z</time></trkpt><trkpt lat="39.2894238" lon="9.343507"><ele>153.0</ele><time>2026-04-18T11:31:32.351Z</time></trkpt><trkpt lat="39.2893604" lon="9.3434633"><ele>153.0</ele><time>2026-04-18T11:31:34.371Z</time></trkpt><trkpt lat="39.2893001" lon="9.3434188"><ele>153.0</ele><time>2026-04-18T11:31:36.364Z</time></trkpt><trkpt lat="39.2892318" lon="9.3433694"><ele>153.0</ele><time>2026-04-18T11:31:38.354Z</time></trkpt><trkpt lat="39.2891778" lon="9.3433124"><ele>153.0</ele><time>2026-04-18T11:31:40.367Z</time></trkpt><trkpt lat="39.2891201" lon="9.34324"><ele>153.0</ele><time>2026-04-18T11:31:42.352Z</time></trkpt><trkpt lat="39.2890735" lon="9.3431741"><ele>153.0</ele><time>2026-04-18T11:31:44.371Z</time></trkpt><trkpt lat="39.2890068" lon="9.3431112"><ele>153.0</ele><time>2026-04-18T11:31:47.367Z</time></trkpt><trkpt lat="39.2889348" lon="9.3430518"><ele>153.0</ele><time>2026-04-18T11:31:50.357Z</time></trkpt><trkpt lat="39.2888871" lon="9.3429965"><ele>151.14285714285714</ele><time>2026-04-18T11:31:52.357Z</time></trkpt><trkpt lat="39.2888466" lon="9.3429255"><ele>149.28571428571428</ele><time>2026-04-18T11:31:54.351Z</time></trkpt><trkpt lat="39.2888088" lon="9.3428597"><ele>147.42857142857144</ele><time>2026-04-18T11:31:56.359Z</time></trkpt><trkpt lat="39.2887381" lon="9.3428183"><ele>145.57142857142856</ele><time>2026-04-18T11:32:00.354Z</time></trkpt><trkpt lat="39.2886743" lon="9.3428086"><ele>143.71428571428572</ele><time>2026-04-18T11:32:02.36Z</time></trkpt><trkpt lat="39.2886082" lon="9.3427604"><ele>141.85714285714286</ele><time>2026-04-18T11:32:04.361Z</time></trkpt><trkpt lat="39.2885506" lon="9.3426979"><ele>140.0</ele><time>2026-04-18T11:32:06.356Z</time></trkpt><trkpt lat="39.2884768" lon="9.3426521"><ele>140.0</ele><time>2026-04-18T11:32:08.357Z</time></trkpt><trkpt lat="39.288394" lon="9.3425833"><ele>140.0</ele><time>2026-04-18T11:32:10.383Z</time></trkpt><trkpt lat="39.2882978" lon="9.3425259"><ele>140.0</ele><time>2026-04-18T11:32:12.35Z</time></trkpt><trkpt lat="39.2882018" lon="9.3425168"><ele>140.0</ele><time>2026-04-18T11:32:14.38Z</time></trkpt><trkpt lat="39.2881362" lon="9.3424884"><ele>140.0</ele><time>2026-04-18T11:32:16.359Z</time></trkpt><trkpt lat="39.2880737" lon="9.342431"><ele>140.0</ele><time>2026-04-18T11:35:42.363Z</time></trkpt><trkpt lat="39.2880543" lon="9.3423372"><ele>139.16666666666666</ele><time>2026-04-18T11:36:19.397Z</time></trkpt><trkpt lat="39.2880014" lon="9.3422768"><ele>138.33333333333331</ele><time>2026-04-18T11:36:29.363Z</time></trkpt><trkpt lat="39.2879335" lon="9.3422286"><ele>137.5</ele><time>2026-04-18T11:36:34.358Z</time></trkpt><trkpt lat="39.2878873" lon="9.3421527"><ele>136.66666666666666</ele><time>2026-04-18T11:36:38.362Z</time></trkpt><trkpt lat="39.2878418" lon="9.3420954"><ele>135.83333333333334</ele><time>2026-04-18T11:37:15.358Z</time></trkpt><trkpt lat="39.2877384" lon="9.3420964"><ele>135.0</ele><time>2026-04-18T11:37:18.351Z</time></trkpt><trkpt lat="39.2876134" lon="9.3420926"><ele>134.83333333333334</ele><time>2026-04-18T11:37:20.372Z</time></trkpt><trkpt lat="39.2875438" lon="9.3421009"><ele>134.66666666666666</ele><time>2026-04-18T11:37:21.357Z</time></trkpt><trkpt lat="39.2874752" lon="9.3421195"><ele>134.5</ele><time>2026-04-18T11:37:22.351Z</time></trkpt><trkpt lat="39.2873638" lon="9.3421365"><ele>134.33333333333331</ele><time>2026-04-18T11:37:24.359Z</time></trkpt><trkpt lat="39.2872824" lon="9.3421088"><ele>134.16666666666666</ele><time>2026-04-18T11:37:26.355Z</time></trkpt><trkpt lat="39.2872211" lon="9.3419942"><ele>134.0</ele><time>2026-04-18T11:37:28.378Z</time></trkpt><trkpt lat="39.2871838" lon="9.3419115"><ele>133.8</ele><time>2026-04-18T11:37:29.358Z</time></trkpt><trkpt lat="39.2871378" lon="9.3418068"><ele>133.60000000000002</ele><time>2026-04-18T11:37:30.358Z</time></trkpt><trkpt lat="39.2870885" lon="9.3416852"><ele>133.4</ele><time>2026-04-18T11:37:31.372Z</time></trkpt><trkpt lat="39.2870377" lon="9.3415502"><ele>133.20000000000002</ele><time>2026-04-18T11:37:32.358Z</time></trkpt><trkpt lat="39.2869787" lon="9.3414046"><ele>133.0</ele><time>2026-04-18T11:37:33.355Z</time></trkpt><trkpt lat="39.2869192" lon="9.3412544"><ele>132.75</ele><time>2026-04-18T11:37:34.362Z</time></trkpt><trkpt lat="39.2868593" lon="9.3411013"><ele>132.5</ele><time>2026-04-18T11:37:35.351Z</time></trkpt><trkpt lat="39.2867966" lon="9.3409454"><ele>132.25</ele><time>2026-04-18T11:37:36.348Z</time></trkpt><trkpt lat="39.2867357" lon="9.340793"><ele>132.0</ele><time>2026-04-18T11:37:37.354Z</time></trkpt><trkpt lat="39.2866711" lon="9.3406327"><ele>131.5</ele><time>2026-04-18T11:37:38.345Z</time></trkpt><trkpt lat="39.2866071" lon="9.3404732"><ele>131.0</ele><time>2026-04-18T11:37:39.368Z</time></trkpt><trkpt lat="39.2865415" lon="9.3403103"><ele>130.5</ele><time>2026-04-18T11:37:40.357Z</time></trkpt><trkpt lat="39.2864716" lon="9.3401398"><ele>130.0</ele><time>2026-04-18T11:37:41.35Z</time></trkpt><trkpt lat="39.2863963" lon="9.3399617"><ele>130.66666666666669</ele><time>2026-04-18T11:37:42.353Z</time></trkpt><trkpt lat="39.2863195" lon="9.339783"><ele>131.33333333333334</ele><time>2026-04-18T11:37:43.35Z</time></trkpt><trkpt lat="39.286231" lon="9.3396073"><ele>132.0</ele><time>2026-04-18T11:37:44.355Z</time></trkpt><trkpt lat="39.286143" lon="9.3394337"><ele>132.0</ele><time>2026-04-18T11:37:45.358Z</time></trkpt><trkpt lat="39.2860523" lon="9.3392655"><ele>132.0</ele><time>2026-04-18T11:37:46.365Z</time></trkpt><trkpt lat="39.2859434" lon="9.3391006"><ele>132.0</ele><time>2026-04-18T11:37:47.377Z</time></trkpt><trkpt lat="39.2858362" lon="9.3389378"><ele>133.33333333333334</ele><time>2026-04-18T11:37:48.385Z</time></trkpt><trkpt lat="39.2857294" lon="9.3387702"><ele>134.66666666666669</ele><time>2026-04-18T11:37:49.37Z</time></trkpt><trkpt lat="39.2856205" lon="9.338611"><ele>136.0</ele><time>2026-04-18T11:37:50.374Z</time></trkpt><trkpt lat="39.2855112" lon="9.3384449"><ele>136.0</ele><time>2026-04-18T11:37:51.366Z</time></trkpt><trkpt lat="39.2854055" lon="9.338276"><ele>136.0</ele><time>2026-04-18T11:37:52.364Z</time></trkpt><trkpt lat="39.2853006" lon="9.3381099"><ele>136.0</ele><time>2026-04-18T11:37:53.359Z</time></trkpt><trkpt lat="39.2851941" lon="9.3379428"><ele>132.33333333333334</ele><time>2026-04-18T11:37:54.368Z</time></trkpt><trkpt lat="39.2850895" lon="9.3377717"><ele>128.66666666666666</ele><time>2026-04-18T11:37:55.366Z</time></trkpt><trkpt lat="39.2849853" lon="9.3376016"><ele>125.0</ele><time>2026-04-18T11:37:56.352Z</time></trkpt><trkpt lat="39.2848791" lon="9.3374327"><ele>125.0</ele><time>2026-04-18T11:37:57.363Z</time></trkpt><trkpt lat="39.284769" lon="9.3372637"><ele>125.0</ele><time>2026-04-18T11:37:58.351Z</time></trkpt><trkpt lat="39.2846581" lon="9.3370949"><ele>125.0</ele><time>2026-04-18T11:37:59.364Z</time></trkpt><trkpt lat="39.2845489" lon="9.3369223"><ele>126.0</ele><time>2026-04-18T11:38:00.356Z</time></trkpt><trkpt lat="39.2844399" lon="9.3367502"><ele>127.0</ele><time>2026-04-18T11:38:01.354Z</time></trkpt><trkpt lat="39.2843307" lon="9.3365792"><ele>128.0</ele><time>2026-04-18T11:38:02.352Z</time></trkpt><trkpt lat="39.2842242" lon="9.3364118"><ele>126.0</ele><time>2026-04-18T11:38:03.378Z</time></trkpt><trkpt lat="39.2841204" lon="9.3362454"><ele>124.0</ele><time>2026-04-18T11:38:04.361Z</time></trkpt><trkpt lat="39.2840201" lon="9.3360768"><ele>122.0</ele><time>2026-04-18T11:38:05.366Z</time></trkpt><trkpt lat="39.2839257" lon="9.3359016"><ele>126.33333333333333</ele><time>2026-04-18T11:38:06.36Z</time></trkpt><trkpt lat="39.2838394" lon="9.3357173"><ele>130.66666666666666</ele><time>2026-04-18T11:38:07.366Z</time></trkpt><trkpt lat="39.2837643" lon="9.3355225"><ele>135.0</ele><time>2026-04-18T11:38:08.362Z</time></trkpt><trkpt lat="39.2837039" lon="9.3353154"><ele>135.0</ele><time>2026-04-18T11:38:09.352Z</time></trkpt><trkpt lat="39.2836474" lon="9.3351065"><ele>135.0</ele><time>2026-04-18T11:38:10.355Z</time></trkpt><trkpt lat="39.2836044" lon="9.3348884"><ele>135.0</ele><time>2026-04-18T11:38:11.355Z</time></trkpt><trkpt lat="39.2835578" lon="9.3346701"><ele>130.66666666666666</ele><time>2026-04-18T11:38:12.353Z</time></trkpt><trkpt lat="39.2835059" lon="9.3344494"><ele>126.33333333333333</ele><time>2026-04-18T11:38:13.366Z</time></trkpt><trkpt lat="39.2834527" lon="9.334225"><ele>122.0</ele><time>2026-04-18T11:38:14.348Z</time></trkpt><trkpt lat="39.2833997" lon="9.3339932"><ele>120.66666666666666</ele><time>2026-04-18T11:38:15.356Z</time></trkpt><trkpt lat="39.2833501" lon="9.3337631"><ele>119.33333333333334</ele><time>2026-04-18T11:38:16.355Z</time></trkpt><trkpt lat="39.2832938" lon="9.3335305"><ele>118.0</ele><time>2026-04-18T11:38:17.359Z</time></trkpt><trkpt lat="39.2832293" lon="9.3332973"><ele>118.0</ele><time>2026-04-18T11:38:18.351Z</time></trkpt><trkpt lat="39.2831511" lon="9.3330652"><ele>118.0</ele><time>2026-04-18T11:38:19.359Z</time></trkpt><trkpt lat="39.2830687" lon="9.332838"><ele>118.0</ele><time>2026-04-18T11:38:20.356Z</time></trkpt><trkpt lat="39.282974" lon="9.3326175"><ele>118.0</ele><time>2026-04-18T11:38:21.369Z</time></trkpt><trkpt lat="39.2828723" lon="9.3324004"><ele>118.0</ele><time>2026-04-18T11:38:22.353Z</time></trkpt><trkpt lat="39.282778" lon="9.3321892"><ele>118.0</ele><time>2026-04-18T11:38:23.359Z</time></trkpt><trkpt lat="39.2826741" lon="9.3319771"><ele>116.66666666666667</ele><time>2026-04-18T11:38:24.364Z</time></trkpt><trkpt lat="39.2825714" lon="9.331764"><ele>115.33333333333334</ele><time>2026-04-18T11:38:25.355Z</time></trkpt><trkpt lat="39.2824705" lon="9.331553"><ele>114.0</ele><time>2026-04-18T11:38:26.362Z</time></trkpt><trkpt lat="39.2823678" lon="9.3313432"><ele>115.0</ele><time>2026-04-18T11:38:27.36Z</time></trkpt><trkpt lat="39.282263" lon="9.3311303"><ele>116.0</ele><time>2026-04-18T11:38:28.354Z</time></trkpt><trkpt lat="39.2821589" lon="9.3309175"><ele>117.0</ele><time>2026-04-18T11:38:29.364Z</time></trkpt><trkpt lat="39.2820546" lon="9.3306984"><ele>116.0</ele><time>2026-04-18T11:38:30.361Z</time></trkpt><trkpt lat="39.2819492" lon="9.3304774"><ele>115.0</ele><time>2026-04-18T11:38:31.385Z</time></trkpt><trkpt lat="39.2818423" lon="9.3302557"><ele>114.0</ele><time>2026-04-18T11:38:32.386Z</time></trkpt><trkpt lat="39.2817308" lon="9.3300328"><ele>114.0</ele><time>2026-04-18T11:38:33.366Z</time></trkpt><trkpt lat="39.2816237" lon="9.3298102"><ele>114.0</ele><time>2026-04-18T11:38:34.364Z</time></trkpt><trkpt lat="39.2815168" lon="9.3295894"><ele>114.0</ele><time>2026-04-18T11:38:35.378Z</time></trkpt><trkpt lat="39.2814113" lon="9.3293756"><ele>114.33333333333334</ele><time>2026-04-18T11:38:36.356Z</time></trkpt><trkpt lat="39.2813044" lon="9.3291588"><ele>114.66666666666667</ele><time>2026-04-18T11:38:37.362Z</time></trkpt><trkpt lat="39.2811999" lon="9.3289436"><ele>115.0</ele><time>2026-04-18T11:38:38.353Z</time></trkpt><trkpt lat="39.2810957" lon="9.3287263"><ele>113.66666666666667</ele><time>2026-04-18T11:38:39.357Z</time></trkpt><trkpt lat="39.2809897" lon="9.3285102"><ele>112.33333333333334</ele><time>2026-04-18T11:38:40.365Z</time></trkpt><trkpt lat="39.2808855" lon="9.3282958"><ele>111.0</ele><time>2026-04-18T11:38:41.359Z</time></trkpt><trkpt lat="39.2807834" lon="9.3280846"><ele>109.33333333333334</ele><time>2026-04-18T11:38:42.36Z</time></trkpt><trkpt lat="39.2806819" lon="9.3278725"><ele>107.66666666666667</ele><time>2026-04-18T11:38:43.357Z</time></trkpt><trkpt lat="39.2805786" lon="9.3276605"><ele>106.0</ele><time>2026-04-18T11:38:44.35Z</time></trkpt><trkpt lat="39.2804716" lon="9.3274426"><ele>104.66666666666667</ele><time>2026-04-18T11:38:45.361Z</time></trkpt><trkpt lat="39.2803652" lon="9.3272248"><ele>103.33333333333334</ele><time>2026-04-18T11:38:46.356Z</time></trkpt><trkpt lat="39.280259" lon="9.3270052"><ele>102.0</ele><time>2026-04-18T11:38:47.356Z</time></trkpt><trkpt lat="39.2801521" lon="9.3267818"><ele>102.0</ele><time>2026-04-18T11:38:48.361Z</time></trkpt><trkpt lat="39.2800415" lon="9.3265576"><ele>102.0</ele><time>2026-04-18T11:38:49.364Z</time></trkpt><trkpt lat="39.2799308" lon="9.326333"><ele>102.0</ele><time>2026-04-18T11:38:50.36Z</time></trkpt><trkpt lat="39.2798209" lon="9.3261071"><ele>101.66666666666666</ele><time>2026-04-18T11:38:51.357Z</time></trkpt><trkpt lat="39.2797133" lon="9.3258799"><ele>101.33333333333333</ele><time>2026-04-18T11:38:52.363Z</time></trkpt><trkpt lat="39.2796059" lon="9.3256546"><ele>101.0</ele><time>2026-04-18T11:38:53.347Z</time></trkpt><trkpt lat="39.2794966" lon="9.3254262"><ele>100.33333333333333</ele><time>2026-04-18T11:38:54.356Z</time></trkpt><trkpt lat="39.2793867" lon="9.3251983"><ele>99.66666666666666</ele><time>2026-04-18T11:38:55.369Z</time></trkpt><trkpt lat="39.2792787" lon="9.3249736"><ele>99.0</ele><time>2026-04-18T11:38:56.347Z</time></trkpt><trkpt lat="39.2791695" lon="9.3247452"><ele>98.33333333333334</ele><time>2026-04-18T11:38:57.361Z</time></trkpt><trkpt lat="39.279061" lon="9.3245193"><ele>97.66666666666667</ele><time>2026-04-18T11:38:58.362Z</time></trkpt><trkpt lat="39.2789516" lon="9.3242964"><ele>97.0</ele><time>2026-04-18T11:38:59.361Z</time></trkpt><trkpt lat="39.2788416" lon="9.324071"><ele>95.33333333333334</ele><time>2026-04-18T11:39:00.371Z</time></trkpt><trkpt lat="39.2787339" lon="9.323847"><ele>93.66666666666667</ele><time>2026-04-18T11:39:01.362Z</time></trkpt><trkpt lat="39.2786249" lon="9.3236235"><ele>92.0</ele><time>2026-04-18T11:39:02.355Z</time></trkpt><trkpt lat="39.278514" lon="9.3233982"><ele>92.0</ele><time>2026-04-18T11:39:03.371Z</time></trkpt><trkpt lat="39.2784074" lon="9.3231765"><ele>92.0</ele><time>2026-04-18T11:39:04.347Z</time></trkpt><trkpt lat="39.278301" lon="9.3229548"><ele>92.0</ele><time>2026-04-18T11:39:05.361Z</time></trkpt><trkpt lat="39.2781976" lon="9.3227452"><ele>92.25</ele><time>2026-04-18T11:39:06.371Z</time></trkpt><trkpt lat="39.2781051" lon="9.3225588"><ele>92.5</ele><time>2026-04-18T11:39:07.382Z</time></trkpt><trkpt lat="39.278032" lon="9.3224092"><ele>92.75</ele><time>2026-04-18T11:39:08.366Z</time></trkpt><trkpt lat="39.2779664" lon="9.3222717"><ele>93.0</ele><time>2026-04-18T11:39:09.367Z</time></trkpt><trkpt lat="39.2779157" lon="9.3221578"><ele>93.0</ele><time>2026-04-18T11:39:10.354Z</time></trkpt><trkpt lat="39.2778858" lon="9.3220578"><ele>93.0</ele><time>2026-04-18T11:39:11.356Z</time></trkpt><trkpt lat="39.2778693" lon="9.3219694"><ele>93.0</ele><time>2026-04-18T11:39:12.374Z</time></trkpt><trkpt lat="39.2778398" lon="9.3218887"><ele>93.0</ele><time>2026-04-18T11:39:13.352Z</time></trkpt><trkpt lat="39.277792" lon="9.3217951"><ele>93.0</ele><time>2026-04-18T11:39:14.367Z</time></trkpt><trkpt lat="39.2777433" lon="9.321703"><ele>93.0</ele><time>2026-04-18T11:39:15.375Z</time></trkpt><trkpt lat="39.2777117" lon="9.3216279"><ele>93.00000000000001</ele><time>2026-04-18T11:39:16.366Z</time></trkpt><trkpt lat="39.2777061" lon="9.321529"><ele>93.0</ele><time>2026-04-18T11:39:18.37Z</time></trkpt><trkpt lat="39.2777212" lon="9.3214205"><ele>93.0</ele><time>2026-04-18T11:39:21.35Z</time></trkpt><trkpt lat="39.2777256" lon="9.3213392"><ele>93.0</ele><time>2026-04-18T11:40:36.349Z</time></trkpt><trkpt lat="39.2776652" lon="9.3212939"><ele>93.0</ele><time>2026-04-18T11:40:40.346Z</time></trkpt><trkpt lat="39.2777014" lon="9.3212093"><ele>93.00000000000001</ele><time>2026-04-18T11:41:16.339Z</time></trkpt><trkpt lat="39.2777613" lon="9.3211661"><ele>93.0</ele><time>2026-04-18T11:41:24.347Z</time></trkpt><trkpt lat="39.2778126" lon="9.3211188"><ele>90.0</ele><time>2026-04-18T11:41:48.354Z</time></trkpt></trkseg></trk></gpx>